ftp/pub/mcmurdo/arrivalheights/2024/08072024.txt

Download

		Temp	Hi	Low	Out	Dew	Wind	Wind	Wind	Hi	Hi	Wind	Heat	THW		Heat	Cool	In 	In	In 	In 	In 	In Air	Wind	Wind	ISS 	Arc.
Date	Time	Out	Temp	Temp	Hum	Pt.	Speed	Dir	Run	Speed	Dir	Chill	Index	Index	Bar  	D-D 	D-D 	Temp	Hum	Dew	Heat	EMC	Density	Samp	Tx 	Recept	Int.
08/06/24	0:01	-17.3	-17.3	-17.3	56	-24.0	8.7	SE	0.14	8.7	SE	-26.0	-17.4	-26.1	751.0	0.025	0.000	21.0	4	-22.7	17.6	1.05	 .0740	22	1	95.7	1
08/06/24	0:02	-17.3	-17.3	-17.3	56	-24.0	7.8	SE	0.13	9.6	SE	-25.5	-17.4	-25.6	750.8	0.025	0.000	21.0	4	-22.7	17.6	1.05	 .0740	23	1	100.0	1
08/06/24	0:03	-17.2	-17.2	-17.3	57	-23.7	8.7	SE	0.14	9.6	SE	-25.9	-17.3	-26.0	750.8	0.025	0.000	21.0	4	-22.7	17.6	1.05	 .0740	24	1	100.0	1
08/06/24	0:04	-17.2	-17.2	-17.2	57	-23.7	6.1	ESE	0.10	7.8	SE	-24.2	-17.3	-24.3	750.8	0.025	0.000	21.0	4	-22.7	17.6	1.05	 .0740	23	1	100.0	1
08/06/24	0:05	-17.2	-17.2	-17.2	57	-23.7	4.3	ESE	0.07	4.3	ESE	-22.8	-17.3	-22.9	750.8	0.025	0.000	21.0	4	-22.7	17.6	1.05	 .0740	24	1	100.0	1
08/06/24	0:06	-17.3	-17.2	-17.3	56	-24.0	5.2	SE	0.09	7.0	SE	-23.7	-17.4	-23.8	750.8	0.025	0.000	21.0	4	-22.7	17.6	1.05	 .0740	23	1	100.0	1
08/06/24	0:07	-17.3	-17.3	-17.3	56	-24.0	5.2	SE	0.09	6.1	SE	-23.8	-17.4	-23.9	750.8	0.025	0.000	21.0	4	-22.7	17.6	1.05	 .0740	24	1	100.0	1
08/06/24	0:08	-17.3	-17.3	-17.3	56	-24.0	4.3	SE	0.07	6.1	SE	-23.1	-17.4	-23.2	750.8	0.025	0.000	21.0	4	-22.7	17.6	1.05	 .0740	23	1	100.0	1
08/06/24	0:09	-17.3	-17.3	-17.3	57	-23.8	4.3	SE	0.07	6.1	SE	-23.1	-17.4	-23.2	750.8	0.025	0.000	21.1	4	-22.7	17.7	1.05	 .0740	23	1	100.0	1
08/06/24	0:10	-17.3	-17.3	-17.3	57	-23.8	4.3	SE	0.07	6.1	SE	-23.0	-17.4	-23.1	750.7	0.025	0.000	21.1	4	-22.7	17.7	1.05	 .0740	24	1	100.0	1
08/06/24	0:11	-17.2	-17.2	-17.3	57	-23.7	3.5	SE	0.06	4.3	SE	-22.0	-17.3	-22.1	750.7	0.025	0.000	21.1	4	-22.7	17.7	1.05	 .0740	23	1	100.0	1
08/06/24	0:12	-17.1	-17.1	-17.2	57	-23.6	4.3	SSE	0.07	5.2	S	-22.8	-17.2	-22.9	750.7	0.025	0.000	21.1	4	-22.7	17.7	1.05	 .0740	24	1	100.0	1
08/06/24	0:13	-17.0	-17.0	-17.1	57	-23.5	4.3	S	0.07	5.2	S	-22.7	-17.1	-22.8	750.7	0.025	0.000	21.1	4	-22.7	17.7	1.05	 .0740	23	1	100.0	1
08/06/24	0:14	-16.9	-16.9	-17.0	57	-23.5	4.3	S	0.07	5.2	S	-22.6	-17.1	-22.7	750.7	0.024	0.000	21.1	4	-22.7	17.7	1.05	 .0739	23	1	100.0	1
08/06/24	0:15	-16.8	-16.8	-16.9	57	-23.4	3.5	S	0.06	4.3	S	-21.6	-16.9	-21.7	750.6	0.024	0.000	21.1	4	-22.7	17.7	1.05	 .0739	24	1	100.0	1
08/06/24	0:16	-16.8	-16.8	-16.8	56	-23.5	3.5	S	0.06	4.3	S	-21.5	-16.9	-21.6	750.6	0.024	0.000	21.1	4	-22.7	17.7	1.05	 .0739	23	1	100.0	1
08/06/24	0:17	-16.7	-16.7	-16.8	56	-23.5	4.3	S	0.07	5.2	S	-22.3	-16.8	-22.4	750.6	0.024	0.000	21.1	4	-22.7	17.7	1.05	 .0739	24	1	100.0	1
08/06/24	0:18	-16.7	-16.7	-16.7	56	-23.4	5.2	S	0.09	5.2	S	-23.0	-16.8	-23.1	750.6	0.024	0.000	21.1	4	-22.7	17.7	1.05	 .0739	23	1	100.0	1
08/06/24	0:19	-16.6	-16.6	-16.7	56	-23.3	4.3	S	0.07	5.2	S	-22.1	-16.7	-22.2	750.6	0.024	0.000	21.1	4	-22.7	17.7	1.05	 .0739	23	1	100.0	1
08/06/24	0:20	-16.6	-16.6	-16.6	55	-23.5	5.2	S	0.09	7.8	S	-22.9	-16.7	-23.0	750.6	0.024	0.000	21.1	4	-22.7	17.8	1.05	 .0739	24	1	100.0	1
08/06/24	0:21	-16.5	-16.5	-16.6	55	-23.4	7.0	S	0.12	8.7	S	-24.0	-16.6	-24.1	750.6	0.024	0.000	21.1	4	-22.7	17.7	1.05	 .0739	23	1	100.0	1
08/06/24	0:22	-16.5	-16.5	-16.6	54	-23.7	7.0	S	0.12	8.7	S	-24.0	-16.6	-24.1	750.6	0.024	0.000	21.1	4	-22.7	17.8	1.05	 .0739	24	1	100.0	1
08/06/24	0:23	-16.5	-16.5	-16.5	54	-23.7	6.1	S	0.10	7.0	S	-23.4	-16.6	-23.6	750.6	0.024	0.000	21.1	4	-22.7	17.8	1.05	 .0739	23	1	100.0	1
08/06/24	0:24	-16.5	-16.5	-16.5	53	-23.9	7.0	S	0.12	7.0	S	-24.0	-16.7	-24.2	750.6	0.024	0.000	21.1	4	-22.7	17.8	1.05	 .0739	24	1	100.0	1
08/06/24	0:25	-16.6	-16.6	-16.6	53	-24.0	6.1	S	0.10	7.0	S	-23.6	-16.7	-23.7	750.6	0.024	0.000	21.1	4	-22.7	17.8	1.05	 .0739	23	1	100.0	1
08/06/24	0:26	-16.7	-16.6	-16.7	53	-24.0	7.0	S	0.12	7.8	S	-24.2	-16.8	-24.3	750.6	0.024	0.000	21.1	4	-22.7	17.8	1.05	 .0739	23	1	100.0	1
08/06/24	0:27	-16.8	-16.7	-16.8	53	-24.1	7.0	S	0.12	7.8	S	-24.3	-16.9	-24.4	750.6	0.024	0.000	21.1	4	-22.7	17.8	1.05	 .0739	24	1	100.0	1
08/06/24	0:28	-16.9	-16.8	-16.9	53	-24.2	7.0	S	0.12	8.7	S	-24.5	-17.0	-24.6	750.5	0.024	0.000	21.1	4	-22.7	17.8	1.05	 .0739	23	1	100.0	1
08/06/24	0:29	-16.9	-16.9	-16.9	53	-24.3	7.0	S	0.12	7.8	S	-24.6	-17.1	-24.7	750.5	0.024	0.000	21.1	4	-22.7	17.8	1.05	 .0739	24	1	100.0	1
08/06/24	0:30	-17.1	-17.0	-17.1	53	-24.4	7.8	S	0.13	8.7	SSW	-25.2	-17.2	-25.3	750.5	0.025	0.000	21.1	4	-22.7	17.8	1.05	 .0739	23	1	100.0	1
08/06/24	0:31	-17.2	-17.1	-17.2	53	-24.5	8.7	S	0.14	9.6	S	-25.8	-17.3	-25.9	750.5	0.025	0.000	21.2	4	-22.6	17.8	1.05	 .0739	23	1	100.0	1
08/06/24	0:32	-17.3	-17.2	-17.3	54	-24.4	8.7	S	0.14	9.6	S	-25.9	-17.4	-26.1	750.5	0.025	0.000	21.2	4	-22.6	17.8	1.05	 .0739	24	1	100.0	1
08/06/24	0:33	-17.3	-17.3	-17.3	54	-24.4	7.8	S	0.13	8.7	S	-25.6	-17.4	-25.7	750.4	0.025	0.000	21.2	4	-22.6	17.8	1.05	 .0739	23	1	100.0	1
08/06/24	0:34	-17.4	-17.4	-17.4	54	-24.5	7.8	S	0.13	7.8	S	-25.7	-17.6	-25.8	750.4	0.025	0.000	21.2	4	-22.6	17.8	1.05	 .0739	24	1	100.0	1
08/06/24	0:35	-17.5	-17.4	-17.5	55	-24.4	8.7	S	0.14	9.6	S	-26.2	-17.6	-26.3	750.4	0.025	0.000	21.2	4	-22.6	17.8	1.05	 .0739	23	1	100.0	1
08/06/24	0:36	-17.6	-17.5	-17.6	54	-24.6	9.6	S	0.16	13.0	S	-26.7	-17.7	-26.8	750.3	0.025	0.000	21.2	4	-22.6	17.8	1.05	 .0739	24	1	100.0	1
08/06/24	0:37	-17.6	-17.6	-17.6	55	-24.4	12.2	S	0.20	13.0	S	-27.9	-17.7	-28.0	750.3	0.025	0.000	21.2	4	-22.6	17.8	1.05	 .0739	23	1	100.0	1
08/06/24	0:38	-17.5	-17.5	-17.6	55	-24.4	11.3	SSE	0.19	11.3	S	-27.4	-17.6	-27.6	750.3	0.025	0.000	21.2	4	-22.6	17.9	1.05	 .0739	23	1	100.0	1
08/06/24	0:39	-17.3	-17.3	-17.5	55	-24.2	10.4	SSE	0.17	10.4	SSE	-26.9	-17.4	-27.0	750.3	0.025	0.000	21.2	4	-22.6	17.9	1.05	 .0739	24	1	100.0	1
08/06/24	0:40	-17.2	-17.2	-17.3	55	-24.1	10.4	SE	0.17	10.4	SE	-26.7	-17.3	-26.8	750.3	0.025	0.000	21.2	4	-22.6	17.9	1.05	 .0739	23	1	100.0	1
08/06/24	0:41	-17.2	-17.1	-17.2	55	-24.1	8.7	ESE	0.14	10.4	SE	-25.8	-17.3	-25.9	750.3	0.025	0.000	21.2	4	-22.6	17.9	1.05	 .0739	24	1	100.0	1
08/06/24	0:42	-17.4	-17.2	-17.4	54	-24.5	8.7	ESE	0.14	8.7	ESE	-26.1	-17.5	-26.2	750.3	0.025	0.000	21.2	4	-22.6	17.9	1.05	 .0739	23	1	100.0	1
08/06/24	0:43	-17.6	-17.4	-17.6	54	-24.6	8.7	SE	0.14	8.7	SE	-26.3	-17.7	-26.4	750.2	0.025	0.000	21.2	4	-22.6	17.9	1.05	 .0739	23	1	100.0	1
08/06/24	0:44	-17.8	-17.6	-17.8	54	-24.9	7.8	SE	0.13	8.7	SE	-26.1	-17.9	-26.2	750.3	0.025	0.000	21.2	4	-22.6	17.9	1.05	 .0739	24	1	100.0	1
08/06/24	0:45	-17.9	-17.8	-17.9	54	-25.0	6.1	SE	0.10	7.8	SE	-25.2	-18.1	-25.3	750.2	0.025	0.000	21.2	4	-22.6	17.9	1.05	 .0739	23	1	100.0	1
08/06/24	0:46	-18.2	-17.9	-18.2	54	-25.2	6.1	SSE	0.10	7.8	SSE	-25.4	-18.3	-25.6	750.3	0.025	0.000	21.2	4	-22.6	17.9	1.05	 .0739	24	1	100.0	1
08/06/24	0:47	-18.3	-18.2	-18.3	54	-25.3	7.0	SSE	0.12	7.8	SSE	-26.2	-18.4	-26.3	750.3	0.025	0.000	21.2	4	-22.6	17.8	1.05	 .0739	23	1	100.0	1
08/06/24	0:48	-18.3	-18.3	-18.3	56	-24.9	7.0	SE	0.12	8.7	SE	-26.2	-18.4	-26.3	750.3	0.025	0.000	21.2	4	-22.6	17.8	1.05	 .0739	23	1	100.0	1
08/06/24	0:49	-18.2	-18.2	-18.3	57	-24.7	7.0	SE	0.12	7.8	SE	-26.1	-18.3	-26.2	750.3	0.025	0.000	21.2	4	-22.6	17.8	1.05	 .0739	24	1	100.0	1
08/06/24	0:50	-18.2	-18.2	-18.2	57	-24.7	6.1	SE	0.10	7.0	SE	-25.5	-18.3	-25.6	750.3	0.025	0.000	21.2	4	-22.6	17.8	1.05	 .0739	23	1	100.0	1
08/06/24	0:51	-18.2	-18.2	-18.2	57	-24.6	5.2	SE	0.09	6.1	SE	-24.8	-18.3	-24.9	750.2	0.025	0.000	21.2	4	-22.6	17.8	1.05	 .0739	24	1	100.0	1
08/06/24	0:52	-18.2	-18.2	-18.2	57	-24.6	5.2	SE	0.09	6.1	SE	-24.8	-18.3	-24.9	750.2	0.025	0.000	21.2	4	-22.6	17.8	1.05	 .0739	23	1	100.0	1
08/06/24	0:53	-18.1	-18.1	-18.2	57	-24.5	5.2	SE	0.09	6.1	SE	-24.7	-18.2	-24.8	750.2	0.025	0.000	21.1	4	-22.7	17.8	1.05	 .0739	24	1	100.0	1
08/06/24	0:54	-18.0	-18.0	-18.1	57	-24.5	4.3	SE	0.07	6.1	SE	-23.8	-18.1	-23.9	750.2	0.025	0.000	21.1	4	-22.7	17.8	1.05	 .0739	23	1	100.0	1
08/06/24	0:55	-17.9	-17.9	-18.0	57	-24.4	5.2	SE	0.09	7.0	SE	-24.5	-18.1	-24.6	750.2	0.025	0.000	21.1	4	-22.7	17.8	1.05	 .0739	23	1	100.0	1
08/06/24	0:56	-17.8	-17.8	-17.9	57	-24.3	6.1	SE	0.10	7.8	SE	-25.1	-17.9	-25.2	750.2	0.025	0.000	21.1	4	-22.7	17.7	1.05	 .0739	24	1	100.0	1
08/06/24	0:57	-17.8	-17.8	-17.8	57	-24.2	7.8	SE	0.13	7.8	SE	-26.1	-17.9	-26.2	750.2	0.025	0.000	21.1	4	-22.7	17.7	1.05	 .0739	23	1	100.0	1
08/06/24	0:58	-17.7	-17.7	-17.7	57	-24.1	7.0	SE	0.12	7.8	SE	-25.4	-17.8	-25.6	750.2	0.025	0.000	21.1	4	-22.7	17.7	1.05	 .0739	24	1	100.0	1
08/06/24	0:59	-17.6	-17.6	-17.7	57	-24.1	7.8	SE	0.13	8.7	SE	-25.9	-17.7	-26.0	750.2	0.025	0.000	21.1	4	-22.7	17.7	1.05	 .0739	23	1	100.0	1
08/06/24	1:00	-17.6	-17.6	-17.6	57	-24.0	7.8	SE	0.13	8.7	SSE	-25.8	-17.7	-25.9	750.1	0.025	0.000	21.0	4	-22.7	17.6	1.05	 .0739	23	1	100.0	1
08/06/24	1:01	-17.6	-17.6	-17.6	56	-24.2	7.0	SE	0.12	7.8	SE	-25.3	-17.7	-25.4	750.1	0.025	0.000	21.0	4	-22.7	17.6	1.05	 .0739	24	1	100.0	1
08/06/24	1:02	-17.6	-17.6	-17.6	56	-24.2	7.0	SE	0.12	7.8	SE	-25.3	-17.7	-25.4	750.0	0.025	0.000	21.0	4	-22.7	17.6	1.05	 .0739	23	1	100.0	1
08/06/24	1:03	-17.6	-17.6	-17.6	56	-24.2	7.8	SE	0.13	8.7	SE	-25.8	-17.7	-25.9	750.0	0.025	0.000	21.0	4	-22.7	17.6	1.05	 .0739	24	1	100.0	1
08/06/24	1:04	-17.6	-17.6	-17.6	56	-24.3	7.8	SE	0.13	8.7	SE	-25.9	-17.7	-26.0	750.0	0.025	0.000	21.0	4	-22.7	17.6	1.05	 .0739	23	1	100.0	1
08/06/24	1:05	-17.6	-17.6	-17.6	56	-24.3	7.8	SE	0.13	7.8	SE	-25.9	-17.7	-26.0	750.0	0.025	0.000	21.0	4	-22.7	17.6	1.05	 .0739	24	1	100.0	1
08/06/24	1:06	-17.6	-17.6	-17.6	56	-24.3	7.8	SE	0.13	7.8	SE	-25.9	-17.7	-26.0	750.0	0.025	0.000	21.0	4	-22.7	17.6	1.05	 .0739	23	1	100.0	1
08/06/24	1:07	-17.6	-17.6	-17.7	56	-24.3	7.8	SE	0.13	9.6	SE	-25.9	-17.7	-26.0	750.0	0.025	0.000	20.9	4	-22.8	17.6	1.04	 .0739	23	1	100.0	1
08/06/24	1:08	-17.6	-17.6	-17.6	56	-24.3	7.8	SE	0.13	8.7	SE	-25.9	-17.7	-26.0	749.9	0.025	0.000	21.0	4	-22.7	17.6	1.05	 .0739	24	1	100.0	1
08/06/24	1:09	-17.6	-17.6	-17.6	56	-24.2	7.8	SE	0.13	8.7	SE	-25.8	-17.7	-25.9	749.9	0.025	0.000	21.0	4	-22.7	17.6	1.05	 .0739	23	1	100.0	1
08/06/24	1:10	-17.5	-17.5	-17.5	56	-24.2	7.0	SE	0.12	7.8	SE	-25.2	-17.6	-25.3	749.9	0.025	0.000	21.0	4	-22.7	17.6	1.05	 .0739	24	1	100.0	1
08/06/24	1:11	-17.5	-17.5	-17.5	56	-24.2	7.0	SE	0.12	7.8	SE	-25.2	-17.6	-25.3	750.0	0.025	0.000	21.0	4	-22.7	17.6	1.05	 .0739	23	1	100.0	1
08/06/24	1:12	-17.7	-17.5	-17.7	55	-24.5	7.0	SE	0.12	7.0	SE	-25.4	-17.8	-25.6	749.9	0.025	0.000	21.0	4	-22.7	17.6	1.05	 .0739	23	1	100.0	1
08/06/24	1:13	-17.8	-17.7	-17.8	55	-24.6	7.0	SE	0.12	7.0	SE	-25.6	-17.9	-25.7	749.9	0.025	0.000	21.0	4	-22.7	17.6	1.05	 .0739	24	1	100.0	1
08/06/24	1:14	-18.0	-17.8	-18.0	55	-24.9	7.0	ESE	0.12	7.8	ESE	-25.8	-18.1	-25.9	749.9	0.025	0.000	21.0	4	-22.7	17.6	1.05	 .0739	23	1	100.0	1
08/06/24	1:15	-18.2	-18.1	-18.2	54	-25.3	7.0	ESE	0.12	7.8	ESE	-26.1	-18.3	-26.2	749.9	0.025	0.000	21.1	4	-22.7	17.7	1.05	 .0739	24	1	100.0	1
08/06/24	1:16	-18.4	-18.2	-18.4	54	-25.4	7.0	ESE	0.12	7.8	ESE	-26.3	-18.5	-26.4	749.9	0.026	0.000	21.0	4	-22.7	17.6	1.05	 .0739	23	1	100.0	1
08/06/24	1:17	-18.5	-18.4	-18.5	55	-25.3	7.0	SE	0.12	7.8	ESE	-26.4	-18.6	-26.6	749.9	0.026	0.000	21.1	4	-22.7	17.7	1.05	 .0739	23	1	100.0	1
08/06/24	1:18	-18.4	-18.4	-18.4	56	-25.0	7.0	SE	0.12	7.0	SE	-26.3	-18.5	-26.4	749.9	0.026	0.000	21.1	4	-22.7	17.7	1.05	 .0739	24	1	100.0	1
08/06/24	1:19	-18.2	-18.2	-18.4	57	-24.7	7.0	SE	0.12	7.8	SE	-26.1	-18.3	-26.2	749.9	0.025	0.000	21.1	4	-22.7	17.7	1.05	 .0739	23	1	100.0	1
08/06/24	1:20	-18.0	-18.0	-18.2	58	-24.3	7.0	SE	0.12	7.8	SE	-25.8	-18.1	-25.9	749.9	0.025	0.000	21.1	4	-22.7	17.7	1.05	 .0739	24	1	100.0	1
08/06/24	1:21	-17.8	-17.8	-17.9	58	-24.1	6.1	SSE	0.10	7.8	SSE	-25.0	-17.9	-25.1	749.8	0.025	0.000	21.1	4	-22.7	17.7	1.05	 .0739	23	1	100.0	1
08/06/24	1:22	-17.7	-17.7	-17.8	58	-24.0	5.2	SE	0.09	7.8	SSE	-24.3	-17.8	-24.4	749.9	0.025	0.000	21.1	4	-22.7	17.7	1.05	 .0739	24	1	100.0	1
08/06/24	1:23	-17.7	-17.7	-17.7	57	-24.1	7.0	SSE	0.12	8.7	SSE	-25.4	-17.8	-25.6	749.8	0.025	0.000	21.1	4	-22.7	17.7	1.05	 .0739	23	1	100.0	1
08/06/24	1:24	-17.6	-17.6	-17.7	56	-24.3	7.0	SSE	0.12	8.7	SSE	-25.4	-17.7	-25.5	749.8	0.025	0.000	21.1	4	-22.7	17.7	1.05	 .0739	23	1	100.0	1
08/06/24	1:25	-17.6	-17.6	-17.6	56	-24.3	7.0	SSE	0.12	8.7	SSE	-25.4	-17.7	-25.5	749.8	0.025	0.000	21.1	4	-22.7	17.8	1.05	 .0738	24	1	100.0	1
08/06/24	1:26	-17.7	-17.7	-17.7	56	-24.3	7.0	SE	0.12	7.8	SSE	-25.4	-17.8	-25.6	749.8	0.025	0.000	21.1	4	-22.7	17.8	1.05	 .0738	23	1	100.0	1
08/06/24	1:27	-17.8	-17.7	-17.8	55	-24.6	7.8	SSE	0.13	9.6	SSE	-26.1	-17.9	-26.2	749.8	0.025	0.000	21.1	4	-22.7	17.8	1.05	 .0738	24	1	100.0	1
08/06/24	1:28	-17.8	-17.8	-17.8	55	-24.7	7.8	SSE	0.13	8.7	SE	-26.2	-17.9	-26.3	749.8	0.025	0.000	21.1	4	-22.7	17.8	1.05	 .0738	23	1	100.0	1
08/06/24	1:29	-17.8	-17.8	-17.8	55	-24.7	7.8	SSE	0.13	8.7	SSE	-26.2	-17.9	-26.3	749.7	0.025	0.000	21.1	4	-22.7	17.8	1.05	 .0738	23	1	100.0	1
08/06/24	1:30	-17.8	-17.8	-17.8	55	-24.7	7.8	SE	0.13	9.6	SE	-26.2	-17.9	-26.3	749.7	0.025	0.000	21.1	4	-22.7	17.8	1.05	 .0738	24	1	100.0	1
08/06/24	1:31	-17.8	-17.8	-17.8	55	-24.7	7.0	SE	0.12	7.8	SE	-25.6	-17.9	-25.7	749.7	0.025	0.000	21.1	4	-22.7	17.8	1.05	 .0738	23	1	100.0	1
08/06/24	1:32	-17.9	-17.8	-17.9	55	-24.8	7.0	SE	0.12	7.8	ESE	-25.7	-18.0	-25.8	749.7	0.025	0.000	21.1	4	-22.7	17.8	1.05	 .0738	24	1	100.0	1
08/06/24	1:33	-17.9	-17.9	-17.9	55	-24.8	6.1	ESE	0.10	7.0	SE	-25.2	-18.1	-25.3	749.7	0.025	0.000	21.1	4	-22.7	17.8	1.05	 .0738	23	1	100.0	1
08/06/24	1:34	-18.1	-17.9	-18.1	55	-24.9	6.1	ESE	0.10	7.0	ESE	-25.3	-18.2	-25.4	749.7	0.025	0.000	21.1	4	-22.7	17.8	1.05	 .0738	24	1	100.0	1
08/06/24	1:35	-18.2	-18.1	-18.2	55	-25.0	5.2	ESE	0.09	7.0	SE	-24.8	-18.3	-24.9	749.7	0.025	0.000	21.1	4	-22.7	17.8	1.05	 .0738	23	1	100.0	1
08/06/24	1:36	-18.2	-18.2	-18.2	55	-25.1	6.1	ESE	0.10	7.0	SE	-25.5	-18.3	-25.6	749.7	0.025	0.000	21.1	4	-22.7	17.8	1.05	 .0738	23	1	100.0	1
08/06/24	1:37	-18.3	-18.2	-18.3	56	-24.9	6.1	ESE	0.10	7.0	SE	-25.6	-18.4	-25.7	749.7	0.025	0.000	21.2	4	-22.6	17.8	1.05	 .0738	24	1	100.0	1
08/06/24	1:38	-18.3	-18.3	-18.3	56	-25.0	7.0	ESE	0.12	7.8	ESE	-26.2	-18.4	-26.3	749.7	0.025	0.000	21.2	5	-20.1	17.9	1.25	 .0738	23	1	100.0	1
08/06/24	1:39	-18.3	-18.3	-18.3	56	-25.0	7.0	ESE	0.12	7.8	ESE	-26.2	-18.4	-26.3	749.7	0.025	0.000	21.2	5	-20.1	17.9	1.25	 .0738	24	1	100.0	1
08/06/24	1:40	-18.3	-18.3	-18.3	56	-25.0	7.0	SE	0.12	8.7	SSE	-26.2	-18.4	-26.3	749.7	0.025	0.000	21.2	4	-22.6	17.8	1.05	 .0738	23	1	100.0	1
08/06/24	1:41	-18.3	-18.3	-18.3	57	-24.8	6.1	SE	0.10	7.8	SE	-25.7	-18.4	-25.8	749.7	0.025	0.000	21.2	5	-20.0	17.9	1.25	 .0738	23	1	100.0	1
08/06/24	1:42	-18.3	-18.3	-18.3	57	-24.8	7.0	SSE	0.12	8.7	SSE	-26.2	-18.4	-26.3	749.7	0.025	0.000	21.2	4	-22.6	17.9	1.05	 .0738	24	1	100.0	1
08/06/24	1:43	-18.3	-18.3	-18.3	57	-24.7	7.8	SSE	0.13	9.6	S	-26.7	-18.4	-26.8	749.6	0.025	0.000	21.2	4	-22.6	17.9	1.05	 .0738	23	1	100.0	1
08/06/24	1:44	-18.3	-18.3	-18.3	56	-24.9	7.0	S	0.12	8.7	S	-26.2	-18.4	-26.3	749.6	0.025	0.000	21.3	4	-22.5	18.1	1.04	 .0738	24	1	100.0	1
08/06/24	1:45	-18.3	-18.2	-18.3	56	-24.9	7.8	S	0.13	7.8	S	-26.7	-18.4	-26.8	749.6	0.025	0.000	21.3	4	-22.5	18.1	1.04	 .0738	23	1	100.0	1
08/06/24	1:46	-18.2	-18.2	-18.2	56	-24.9	7.8	SSE	0.13	9.6	SSE	-26.7	-18.3	-26.8	749.6	0.025	0.000	21.3	4	-22.5	18.1	1.04	 .0738	24	1	100.0	1
08/06/24	1:47	-18.2	-18.2	-18.2	56	-24.8	7.0	SSE	0.12	7.8	SSE	-26.1	-18.3	-26.2	749.6	0.025	0.000	21.3	4	-22.5	18.1	1.04	 .0738	23	1	100.0	1
08/06/24	1:48	-18.2	-18.2	-18.2	56	-24.8	8.7	SSE	0.14	10.4	SSE	-27.1	-18.3	-27.2	749.6	0.025	0.000	21.3	4	-22.5	18.1	1.04	 .0738	23	1	100.0	1
08/06/24	1:49	-18.2	-18.2	-18.2	56	-24.8	8.7	SSE	0.14	9.6	SSE	-27.1	-18.3	-27.2	749.6	0.025	0.000	21.3	4	-22.5	18.1	1.04	 .0738	24	1	100.0	1
08/06/24	1:50	-18.2	-18.2	-18.2	56	-24.8	8.7	SSE	0.14	9.6	SSE	-27.1	-18.3	-27.2	749.7	0.025	0.000	21.3	4	-22.5	18.1	1.04	 .0738	23	1	100.0	1
08/06/24	1:51	-18.2	-18.2	-18.2	56	-24.9	7.8	SSE	0.13	9.6	SSE	-26.7	-18.3	-26.8	749.6	0.025	0.000	21.3	4	-22.5	18.1	1.04	 .0738	24	1	100.0	1
08/06/24	1:52	-18.3	-18.3	-18.3	56	-24.9	7.8	SSE	0.13	8.7	SSE	-26.7	-18.4	-26.8	749.6	0.025	0.000	21.3	4	-22.5	18.1	1.04	 .0738	23	1	100.0	1
08/06/24	1:53	-18.3	-18.3	-18.3	56	-24.9	8.7	SE	0.14	9.6	SSE	-27.2	-18.4	-27.3	749.6	0.025	0.000	21.3	4	-22.5	18.1	1.04	 .0738	23	1	100.0	1
08/06/24	1:54	-18.3	-18.3	-18.3	56	-25.0	7.0	SE	0.12	8.7	SE	-26.2	-18.4	-26.3	749.6	0.025	0.000	21.4	4	-22.5	18.2	1.04	 .0738	24	1	100.0	1
08/06/24	1:55	-18.4	-18.3	-18.4	56	-25.0	7.0	SE	0.12	8.7	SSE	-26.3	-18.5	-26.4	749.6	0.026	0.000	21.4	4	-22.5	18.2	1.04	 .0738	23	1	100.0	1
08/06/24	1:56	-18.5	-18.4	-18.5	56	-25.1	7.0	SE	0.12	8.7	S	-26.4	-18.6	-26.6	749.6	0.026	0.000	21.4	4	-22.5	18.2	1.04	 .0738	24	1	100.0	1
08/06/24	1:57	-18.6	-18.5	-18.6	56	-25.2	6.1	SE	0.10	7.8	SSE	-25.9	-18.7	-26.1	749.6	0.026	0.000	21.4	4	-22.5	18.2	1.04	 .0737	23	1	100.0	1
08/06/24	1:58	-18.6	-18.6	-18.6	56	-25.2	6.1	SE	0.10	7.8	SE	-25.9	-18.7	-26.1	749.6	0.026	0.000	21.4	4	-22.5	18.2	1.04	 .0737	23	1	100.0	1
08/06/24	1:59	-18.7	-18.6	-18.7	56	-25.3	7.0	SE	0.12	7.8	SSE	-26.7	-18.8	-26.8	749.5	0.026	0.000	21.4	4	-22.5	18.2	1.04	 .0737	24	1	100.0	1
08/06/24	2:00	-18.6	-18.6	-18.7	56	-25.2	7.0	SE	0.12	8.7	SSE	-26.6	-18.7	-26.7	749.5	0.026	0.000	21.4	4	-22.5	18.2	1.04	 .0737	23	1	100.0	1
08/06/24	2:01	-18.6	-18.6	-18.6	57	-25.0	7.0	SE	0.12	7.8	SE	-26.6	-18.7	-26.7	749.5	0.026	0.000	21.4	4	-22.5	18.2	1.04	 .0737	24	1	100.0	1
08/06/24	2:02	-18.6	-18.6	-18.6	57	-25.0	6.1	SE	0.10	7.8	SE	-26.0	-18.7	-26.1	749.4	0.026	0.000	21.4	4	-22.5	18.2	1.04	 .0737	23	1	100.0	1
08/06/24	2:03	-18.7	-18.7	-18.7	57	-25.1	7.8	SE	0.13	8.7	SE	-27.2	-18.8	-27.3	749.4	0.026	0.000	21.4	4	-22.5	18.2	1.04	 .0737	24	1	100.0	1
08/06/24	2:04	-18.7	-18.7	-18.7	57	-25.1	7.0	SE	0.12	8.7	SE	-26.7	-18.8	-26.8	749.4	0.026	0.000	21.4	4	-22.5	18.2	1.04	 .0737	23	1	100.0	1
08/06/24	2:05	-18.7	-18.6	-18.7	57	-25.1	7.8	SE	0.13	8.7	SSE	-27.2	-18.8	-27.3	749.4	0.026	0.000	21.4	4	-22.5	18.2	1.04	 .0737	23	1	100.0	1
08/06/24	2:06	-18.7	-18.6	-18.7	57	-25.1	7.8	SE	0.13	9.6	SE	-27.2	-18.8	-27.3	749.4	0.026	0.000	21.4	4	-22.5	18.2	1.04	 .0737	24	1	100.0	1
08/06/24	2:07	-18.6	-18.6	-18.7	57	-25.0	7.0	SE	0.12	7.8	SE	-26.6	-18.7	-26.7	749.4	0.026	0.000	21.4	4	-22.5	18.2	1.04	 .0737	23	1	100.0	1
08/06/24	2:08	-18.6	-18.6	-18.6	57	-25.0	7.0	SSE	0.12	8.7	SSE	-26.5	-18.7	-26.6	749.3	0.026	0.000	21.4	4	-22.5	18.2	1.04	 .0737	24	1	100.0	1
08/06/24	2:09	-18.5	-18.5	-18.6	57	-24.9	6.1	SSE	0.10	7.8	S	-25.8	-18.6	-25.9	749.3	0.026	0.000	21.4	4	-22.5	18.2	1.04	 .0737	23	1	100.0	1
08/06/24	2:10	-18.4	-18.4	-18.5	58	-24.7	7.8	SSE	0.13	9.6	SSE	-26.9	-18.6	-27.0	749.3	0.026	0.000	21.4	4	-22.5	18.2	1.04	 .0737	23	1	100.0	1
08/06/24	2:11	-18.3	-18.3	-18.4	58	-24.6	7.8	SSE	0.13	8.7	SSE	-26.8	-18.4	-26.9	749.2	0.025	0.000	21.4	5	-19.9	18.2	1.25	 .0737	24	1	100.0	1
08/06/24	2:12	-18.3	-18.3	-18.3	58	-24.5	7.0	SSE	0.12	8.7	SE	-26.2	-18.4	-26.3	749.2	0.025	0.000	21.4	4	-22.5	18.2	1.04	 .0737	23	1	100.0	1
08/06/24	2:13	-18.3	-18.3	-18.3	57	-24.7	7.0	SSE	0.12	8.7	SSE	-26.2	-18.4	-26.3	749.2	0.025	0.000	21.4	4	-22.4	18.3	1.04	 .0737	24	1	100.0	1
08/06/24	2:14	-18.3	-18.3	-18.3	57	-24.7	7.8	SSE	0.13	9.6	SSE	-26.7	-18.4	-26.8	749.2	0.025	0.000	21.4	5	-19.9	18.3	1.25	 .0737	23	1	100.0	1
08/06/24	2:15	-18.2	-18.2	-18.3	57	-24.7	6.1	S	0.10	7.8	SSE	-25.5	-18.3	-25.6	749.2	0.025	0.000	21.4	5	-19.9	18.3	1.25	 .0737	24	1	100.0	1
08/06/24	2:16	-18.2	-18.2	-18.2	57	-24.7	7.0	SSE	0.12	8.7	SSE	-26.1	-18.3	-26.2	749.2	0.025	0.000	21.4	5	-19.9	18.3	1.25	 .0737	23	1	100.0	1
08/06/24	2:17	-18.3	-18.2	-18.3	57	-24.7	7.0	SSE	0.12	8.7	SSE	-26.2	-18.4	-26.3	749.2	0.025	0.000	21.5	5	-19.8	18.4	1.25	 .0737	23	1	100.0	1
08/06/24	2:18	-18.3	-18.3	-18.3	57	-24.8	7.8	SSE	0.13	9.6	SSE	-26.8	-18.4	-26.9	749.2	0.025	0.000	21.5	4	-22.4	18.4	1.04	 .0737	24	1	100.0	1
08/06/24	2:19	-18.3	-18.3	-18.3	57	-24.7	7.0	SE	0.12	9.6	SSE	-26.2	-18.4	-26.3	749.2	0.025	0.000	21.5	5	-19.8	18.4	1.25	 .0737	23	1	100.0	1
08/06/24	2:20	-18.2	-18.2	-18.3	57	-24.7	5.2	SE	0.09	7.0	SE	-24.8	-18.3	-24.9	749.2	0.025	0.000	21.6	5	-19.8	18.6	1.25	 .0737	24	1	100.0	1
08/06/24	2:21	-18.2	-18.2	-18.2	57	-24.6	5.2	SSE	0.09	7.0	SSE	-24.8	-18.3	-24.9	749.2	0.025	0.000	21.6	4	-22.4	18.5	1.03	 .0737	23	1	100.0	1
08/06/24	2:22	-18.2	-18.2	-18.2	57	-24.6	7.0	SSE	0.12	8.7	SSE	-26.1	-18.3	-26.2	749.1	0.025	0.000	21.6	5	-19.8	18.6	1.25	 .0736	23	1	100.0	1
08/06/24	2:23	-18.2	-18.2	-18.2	57	-24.6	6.1	SE	0.10	7.8	SE	-25.4	-18.3	-25.6	749.1	0.025	0.000	21.6	5	-19.7	18.6	1.25	 .0736	24	1	100.0	1
08/06/24	2:24	-18.3	-18.2	-18.3	57	-24.7	4.3	SE	0.07	6.1	SE	-24.2	-18.4	-24.3	749.1	0.025	0.000	21.6	5	-19.7	18.6	1.25	 .0736	23	1	100.0	1
08/06/24	2:25	-18.3	-18.3	-18.3	56	-25.0	6.1	SE	0.10	7.0	ESE	-25.7	-18.4	-25.8	749.0	0.025	0.000	21.6	5	-19.7	18.6	1.25	 .0736	24	1	100.0	1
08/06/24	2:26	-18.4	-18.3	-18.4	56	-25.0	5.2	SE	0.09	7.0	SE	-25.1	-18.5	-25.2	749.0	0.026	0.000	21.7	5	-19.7	18.7	1.25	 .0736	23	1	100.0	1
08/06/24	2:27	-18.4	-18.4	-18.4	57	-24.8	4.3	SE	0.07	6.1	SE	-24.3	-18.5	-24.4	749.0	0.026	0.000	21.7	4	-22.3	18.7	1.03	 .0736	24	1	100.0	1
08/06/24	2:28	-18.4	-18.4	-18.4	57	-24.9	5.2	ESE	0.09	6.1	ESE	-25.1	-18.6	-25.2	749.0	0.026	0.000	21.7	5	-19.7	18.7	1.25	 .0736	23	1	100.0	1
08/06/24	2:29	-18.4	-18.4	-18.4	57	-24.9	5.2	ESE	0.09	7.0	ESE	-25.1	-18.6	-25.2	749.0	0.026	0.000	21.7	5	-19.7	18.7	1.25	 .0736	23	1	100.0	1
08/06/24	2:30	-18.5	-18.4	-18.5	57	-24.9	5.2	SE	0.09	7.0	SE	-25.2	-18.6	-25.3	749.0	0.026	0.000	21.7	4	-22.2	18.7	1.03	 .0736	24	1	100.0	1
08/06/24	2:31	-18.5	-18.5	-18.5	57	-24.9	4.3	SSE	0.07	7.0	SE	-24.4	-18.6	-24.5	749.0	0.026	0.000	21.7	4	-22.2	18.7	1.03	 .0736	23	1	100.0	1
08/06/24	2:32	-18.4	-18.4	-18.5	57	-24.9	4.3	SSE	0.07	6.1	S	-24.3	-18.6	-24.4	749.0	0.026	0.000	21.7	4	-22.2	18.7	1.03	 .0736	24	1	100.0	1
08/06/24	2:33	-18.3	-18.3	-18.4	58	-24.6	4.3	S	0.07	6.1	S	-24.2	-18.4	-24.3	749.0	0.025	0.000	21.7	4	-22.2	18.7	1.03	 .0736	23	1	100.0	1
08/06/24	2:34	-18.3	-18.3	-18.3	58	-24.5	6.1	SSE	0.10	7.0	SSE	-25.6	-18.4	-25.7	748.9	0.025	0.000	21.8	4	-22.2	18.8	1.03	 .0736	23	1	100.0	1
08/06/24	2:35	-18.2	-18.2	-18.2	58	-24.4	7.0	SSE	0.12	7.8	SSE	-26.1	-18.3	-26.2	748.9	0.025	0.000	21.8	4	-22.2	18.8	1.03	 .0736	24	1	100.0	1
08/06/24	2:36	-18.2	-18.2	-18.2	58	-24.4	5.2	SSE	0.09	7.0	SSE	-24.8	-18.3	-24.9	748.9	0.025	0.000	21.8	4	-22.2	18.8	1.03	 .0736	23	1	100.0	1
08/06/24	2:37	-18.1	-18.1	-18.2	58	-24.4	4.3	SSE	0.07	5.2	SSE	-23.9	-18.2	-24.1	748.9	0.025	0.000	21.8	4	-22.2	18.8	1.03	 .0736	24	1	100.0	1
08/06/24	2:38	-18.2	-18.1	-18.2	58	-24.4	4.3	SSE	0.07	5.2	SSE	-24.0	-18.3	-24.1	748.9	0.025	0.000	21.8	4	-22.2	18.8	1.03	 .0736	23	1	100.0	1
08/06/24	2:39	-18.2	-18.2	-18.2	57	-24.6	3.5	SSE	0.06	5.2	SSE	-23.1	-18.3	-23.2	748.9	0.025	0.000	21.7	5	-19.7	18.8	1.25	 .0736	23	1	100.0	1
08/06/24	2:40	-18.2	-18.2	-18.2	57	-24.6	2.6	SSE	0.04	4.3	SSE	-22.0	-18.3	-22.1	748.9	0.025	0.000	21.8	5	-19.6	18.8	1.25	 .0736	24	1	100.0	1
08/06/24	2:41	-18.2	-18.2	-18.2	57	-24.7	3.5	SSE	0.06	4.3	SSE	-23.2	-18.3	-23.3	748.9	0.025	0.000	21.7	5	-19.7	18.8	1.25	 .0736	23	1	100.0	1
08/06/24	2:42	-18.3	-18.2	-18.3	57	-24.7	4.3	SSE	0.07	7.0	ESE	-24.2	-18.4	-24.3	748.8	0.025	0.000	21.7	5	-19.7	18.8	1.25	 .0736	24	1	100.0	1
08/06/24	2:43	-18.3	-18.3	-18.3	57	-24.7	4.3	ESE	0.07	6.1	ESE	-24.2	-18.4	-24.3	748.8	0.025	0.000	21.7	5	-19.7	18.8	1.25	 .0736	23	1	100.0	1
08/06/24	2:44	-18.3	-18.3	-18.3	57	-24.7	3.5	ESE	0.06	5.2	ESE	-23.2	-18.4	-23.3	748.8	0.025	0.000	21.7	5	-19.7	18.8	1.25	 .0736	24	1	100.0	1
08/06/24	2:45	-18.3	-18.3	-18.3	57	-24.8	4.3	ESE	0.07	5.2	ESE	-24.2	-18.4	-24.3	748.8	0.025	0.000	21.7	5	-19.7	18.8	1.25	 .0736	23	1	100.0	1
08/06/24	2:46	-18.3	-18.3	-18.3	57	-24.7	3.5	ESE	0.06	6.1	ESE	-23.2	-18.4	-23.3	748.8	0.025	0.000	21.7	5	-19.7	18.8	1.25	 .0736	23	1	100.0	1
08/06/24	2:47	-18.3	-18.3	-18.3	58	-24.5	3.5	ESE	0.06	5.2	ESE	-23.2	-18.4	-23.3	748.8	0.025	0.000	21.7	5	-19.7	18.8	1.25	 .0736	24	1	100.0	1
08/06/24	2:48	-18.3	-18.3	-18.3	58	-24.5	2.6	SSE	0.04	4.3	ESE	-22.1	-18.4	-22.2	748.8	0.025	0.000	21.7	5	-19.7	18.8	1.25	 .0736	23	1	100.0	1
08/06/24	2:49	-18.2	-18.2	-18.3	58	-24.5	2.6	SSE	0.04	2.6	SSE	-22.1	-18.3	-22.2	748.8	0.025	0.000	21.7	5	-19.7	18.8	1.25	 .0736	24	1	100.0	1
08/06/24	2:50	-18.2	-18.2	-18.2	58	-24.4	2.6	SSE	0.04	3.5	SSE	-22.0	-18.3	-22.1	748.7	0.025	0.000	21.7	5	-19.7	18.8	1.25	 .0736	23	1	100.0	1
08/06/24	2:51	-18.1	-18.1	-18.2	58	-24.4	2.6	SSW	0.04	4.3	SSW	-21.9	-18.2	-22.1	748.7	0.025	0.000	21.7	5	-19.7	18.8	1.25	 .0736	23	1	100.0	1
08/06/24	2:52	-18.1	-18.1	-18.1	58	-24.3	3.5	SSW	0.06	6.1	SW	-23.0	-18.2	-23.1	748.7	0.025	0.000	21.7	5	-19.7	18.7	1.25	 .0736	24	1	100.0	1
08/06/24	2:53	-18.0	-18.0	-18.1	58	-24.3	4.3	SW	0.07	4.3	SW	-23.8	-18.1	-23.9	748.7	0.025	0.000	21.7	5	-19.7	18.8	1.25	 .0736	23	1	100.0	1
08/06/24	2:54	-17.9	-17.9	-18.0	58	-24.2	5.2	SW	0.09	6.1	SW	-24.5	-18.1	-24.6	748.6	0.025	0.000	21.7	5	-19.7	18.8	1.25	 .0736	24	1	100.0	1
08/06/24	2:55	-17.9	-17.9	-17.9	58	-24.2	4.3	SW	0.07	5.2	SW	-23.7	-18.0	-23.8	748.6	0.025	0.000	21.7	5	-19.7	18.8	1.25	 .0736	23	1	100.0	1
08/06/24	2:56	-17.8	-17.8	-17.8	58	-24.1	5.2	SW	0.09	6.1	SW	-24.4	-17.9	-24.5	748.6	0.025	0.000	21.7	5	-19.7	18.8	1.25	 .0736	24	1	100.0	1
08/06/24	2:57	-17.8	-17.8	-17.8	58	-24.1	4.3	SW	0.07	5.2	SW	-23.6	-17.9	-23.7	748.6	0.025	0.000	21.8	5	-19.6	18.8	1.25	 .0735	23	1	100.0	1
08/06/24	2:58	-17.8	-17.8	-17.8	57	-24.2	4.3	SW	0.07	4.3	SW	-23.6	-17.9	-23.7	748.6	0.025	0.000	21.8	5	-19.6	18.8	1.25	 .0735	23	1	100.0	1
08/06/24	2:59	-17.8	-17.8	-17.8	57	-24.3	4.3	SW	0.07	5.2	SW	-23.6	-17.9	-23.7	748.5	0.025	0.000	21.8	5	-19.6	18.8	1.25	 .0735	24	1	100.0	1
08/06/24	3:00	-17.8	-17.8	-17.8	57	-24.2	4.3	SW	0.07	5.2	SW	-23.6	-17.9	-23.7	748.5	0.025	0.000	21.8	5	-19.6	18.8	1.25	 .0735	23	1	100.0	1
08/06/24	3:01	-17.8	-17.8	-17.8	57	-24.3	4.3	SW	0.07	5.2	SW	-23.6	-17.9	-23.7	748.5	0.025	0.000	21.8	5	-19.6	18.8	1.25	 .0735	24	1	100.0	1
08/06/24	3:02	-17.8	-17.8	-17.8	57	-24.3	4.3	SW	0.07	5.2	SW	-23.6	-17.9	-23.7	748.5	0.025	0.000	21.8	5	-19.6	18.9	1.25	 .0735	23	1	100.0	1
08/06/24	3:03	-17.8	-17.8	-17.8	58	-24.1	3.5	SW	0.06	6.1	SW	-22.7	-17.9	-22.8	748.5	0.025	0.000	21.8	5	-19.6	18.9	1.25	 .0735	23	1	100.0	1
08/06/24	3:04	-17.8	-17.8	-17.8	58	-24.1	4.3	SW	0.07	5.2	SW	-23.6	-17.9	-23.7	748.5	0.025	0.000	21.8	5	-19.6	18.9	1.25	 .0735	24	1	100.0	1
08/06/24	3:05	-17.8	-17.8	-17.8	58	-24.1	3.5	SW	0.06	4.3	SW	-22.7	-17.9	-22.8	748.5	0.025	0.000	21.8	5	-19.6	18.9	1.25	 .0735	23	1	100.0	1
08/06/24	3:06	-17.9	-17.8	-17.9	58	-24.2	4.3	SW	0.07	5.2	SW	-23.7	-18.0	-23.8	748.5	0.025	0.000	21.8	5	-19.6	18.9	1.25	 .0735	24	1	100.0	1
08/06/24	3:07	-17.9	-17.9	-17.9	58	-24.2	5.2	WSW	0.09	7.0	WSW	-24.4	-18.0	-24.6	748.4	0.025	0.000	21.9	5	-19.5	18.9	1.25	 .0735	23	1	100.0	1
08/06/24	3:08	-17.9	-17.9	-17.9	59	-24.0	4.3	WSW	0.07	5.2	WSW	-23.8	-18.1	-23.9	748.4	0.025	0.000	21.9	5	-19.5	18.9	1.25	 .0735	24	1	100.0	1
08/06/24	3:09	-17.9	-17.9	-17.9	58	-24.2	6.1	WSW	0.10	7.8	WSW	-25.2	-18.1	-25.3	748.4	0.025	0.000	21.9	5	-19.5	18.9	1.25	 .0735	23	1	100.0	1
08/06/24	3:10	-18.0	-17.9	-18.0	58	-24.3	6.1	WSW	0.10	7.8	WSW	-25.3	-18.1	-25.4	748.4	0.025	0.000	21.9	5	-19.5	18.9	1.25	 .0735	23	1	100.0	1
08/06/24	3:11	-18.0	-18.0	-18.0	59	-24.1	7.0	WSW	0.12	8.7	SW	-25.8	-18.1	-25.9	748.4	0.025	0.000	21.9	5	-19.5	18.9	1.25	 .0735	24	1	100.0	1
08/06/24	3:12	-17.9	-17.9	-18.0	59	-24.0	5.2	SW	0.09	7.0	SW	-24.5	-18.1	-24.6	748.4	0.025	0.000	21.9	5	-19.5	18.9	1.25	 .0735	23	1	100.0	1
08/06/24	3:13	-17.8	-17.8	-17.9	59	-23.9	5.2	SW	0.09	6.1	SW	-24.4	-17.9	-24.5	748.4	0.025	0.000	21.9	5	-19.5	18.9	1.25	 .0735	24	1	100.0	1
08/06/24	3:14	-17.8	-17.8	-17.8	59	-23.9	5.2	SW	0.09	6.1	SW	-24.4	-17.9	-24.5	748.4	0.025	0.000	21.9	6	-17.4	19.0	1.52	 .0735	23	1	100.0	1
08/06/24	3:15	-17.8	-17.8	-17.8	59	-23.9	4.3	SW	0.07	6.1	SW	-23.6	-17.9	-23.7	748.4	0.025	0.000	21.9	6	-17.4	19.0	1.52	 .0735	23	1	100.0	1
08/06/24	3:16	-17.9	-17.9	-17.9	59	-24.0	4.3	SW	0.07	5.2	SW	-23.7	-18.0	-23.8	748.4	0.025	0.000	21.9	6	-17.4	19.0	1.52	 .0735	24	1	100.0	1
08/06/24	3:17	-17.9	-17.9	-17.9	59	-24.0	5.2	SW	0.09	6.1	SW	-24.4	-18.0	-24.6	748.4	0.025	0.000	21.9	6	-17.4	19.0	1.52	 .0735	23	1	100.0	1
08/06/24	3:18	-17.9	-17.9	-17.9	59	-24.0	5.2	SW	0.09	7.0	SW	-24.4	-18.0	-24.6	748.3	0.025	0.000	21.9	6	-17.4	19.0	1.52	 .0735	24	1	100.0	1
08/06/24	3:19	-17.9	-17.9	-17.9	59	-24.0	3.5	SW	0.06	4.3	SW	-22.8	-18.0	-22.9	748.3	0.025	0.000	21.9	6	-17.4	19.0	1.52	 .0735	23	1	100.0	1
08/06/24	3:20	-17.9	-17.9	-17.9	59	-24.0	3.5	SSW	0.06	5.2	SSW	-22.8	-18.0	-22.9	748.3	0.025	0.000	21.9	6	-17.4	19.0	1.52	 .0735	23	1	100.0	1
08/06/24	3:21	-17.9	-17.9	-17.9	59	-24.0	4.3	SSW	0.07	6.1	SSW	-23.8	-18.1	-23.9	748.3	0.025	0.000	21.8	6	-17.4	18.9	1.52	 .0735	24	1	100.0	1
08/06/24	3:22	-18.0	-17.9	-18.0	59	-24.1	5.2	SW	0.09	6.1	SW	-24.6	-18.1	-24.7	748.3	0.025	0.000	21.8	6	-17.4	18.9	1.52	 .0735	23	1	100.0	1
08/06/24	3:23	-17.9	-17.9	-18.0	59	-24.0	5.2	SW	0.09	7.0	WSW	-24.5	-18.1	-24.6	748.2	0.025	0.000	21.8	6	-17.4	18.9	1.52	 .0735	24	1	100.0	1
08/06/24	3:24	-17.9	-17.9	-17.9	59	-24.0	3.5	WSW	0.06	4.3	SW	-22.8	-18.1	-22.9	748.2	0.025	0.000	21.8	6	-17.5	18.9	1.53	 .0735	23	1	100.0	1
08/06/24	3:25	-17.9	-17.9	-17.9	59	-24.0	3.5	WSW	0.06	4.3	WSW	-22.8	-18.1	-22.9	748.2	0.025	0.000	21.8	6	-17.5	18.9	1.53	 .0735	24	1	100.0	1
08/06/24	3:26	-17.9	-17.9	-17.9	59	-24.0	4.3	WSW	0.07	6.1	WSW	-23.8	-18.1	-23.9	748.1	0.025	0.000	21.7	6	-17.5	18.8	1.53	 .0735	23	1	100.0	1
08/06/24	3:27	-17.9	-17.9	-18.0	59	-24.0	4.3	WSW	0.07	6.1	WSW	-23.8	-18.1	-23.9	748.1	0.025	0.000	21.7	6	-17.5	18.8	1.53	 .0735	23	1	100.0	1
08/06/24	3:28	-17.9	-17.9	-18.0	59	-24.0	6.1	WSW	0.10	7.0	WSW	-25.2	-18.1	-25.3	748.1	0.025	0.000	21.7	6	-17.5	18.8	1.53	 .0735	24	1	100.0	1
08/06/24	3:29	-17.9	-17.9	-17.9	59	-24.0	5.2	WSW	0.09	7.0	WSW	-24.5	-18.1	-24.6	748.1	0.025	0.000	21.7	6	-17.6	18.8	1.53	 .0735	23	1	100.0	1
08/06/24	3:30	-17.9	-17.9	-17.9	59	-24.0	3.5	W	0.06	4.3	WSW	-22.8	-18.1	-22.9	748.1	0.025	0.000	21.7	6	-17.6	18.8	1.53	 .0735	24	1	100.0	1
08/06/24	3:31	-17.9	-17.9	-17.9	59	-24.0	3.5	W	0.06	5.2	W	-22.8	-18.1	-22.9	748.1	0.025	0.000	21.6	6	-17.6	18.7	1.53	 .0735	23	1	100.0	1
08/06/24	3:32	-17.9	-17.9	-17.9	59	-24.0	3.5	SW	0.06	4.3	SW	-22.8	-18.1	-22.9	748.1	0.025	0.000	21.6	6	-17.6	18.7	1.53	 .0735	23	1	100.0	1
08/06/24	3:33	-17.9	-17.9	-17.9	59	-24.0	1.7	SW	0.03	3.5	SW	-20.2	-18.1	-20.3	748.1	0.025	0.000	21.6	6	-17.6	18.6	1.53	 .0735	24	1	100.0	1
08/06/24	3:34	-17.9	-17.9	-17.9	59	-24.0	2.6	SW	0.04	3.5	SW	-21.7	-18.1	-21.8	748.1	0.025	0.000	21.6	6	-17.6	18.6	1.53	 .0735	23	1	100.0	1
08/06/24	3:35	-18.0	-17.9	-18.0	59	-24.1	2.6	SW	0.04	4.3	WSW	-21.8	-18.1	-21.9	748.1	0.025	0.000	21.5	6	-17.7	18.5	1.54	 .0735	24	1	100.0	1
08/06/24	3:36	-18.0	-18.0	-18.0	60	-23.9	5.2	WSW	0.09	6.1	WSW	-24.6	-18.1	-24.7	748.1	0.025	0.000	21.5	6	-17.7	18.5	1.54	 .0735	23	1	100.0	1
08/06/24	3:37	-18.1	-18.0	-18.1	60	-23.9	5.2	W	0.09	7.0	WSW	-24.7	-18.2	-24.8	748.0	0.025	0.000	21.5	6	-17.7	18.5	1.54	 .0735	24	1	100.0	1
08/06/24	3:38	-18.1	-18.1	-18.1	60	-24.0	4.3	W	0.07	6.1	W	-23.9	-18.2	-24.1	748.0	0.025	0.000	21.4	6	-17.7	18.4	1.54	 .0735	23	1	100.0	1
08/06/24	3:39	-18.2	-18.1	-18.2	60	-24.0	4.3	W	0.07	6.1	W	-24.0	-18.3	-24.1	748.0	0.025	0.000	21.4	6	-17.7	18.4	1.54	 .0735	23	1	100.0	1
08/06/24	3:40	-18.2	-18.2	-18.2	61	-23.9	3.5	W	0.06	6.1	WNW	-23.1	-18.3	-23.2	748.0	0.025	0.000	21.4	6	-17.7	18.4	1.54	 .0735	24	1	100.0	1
08/06/24	3:41	-18.2	-18.2	-18.2	61	-23.9	5.2	WNW	0.09	7.0	WNW	-24.8	-18.3	-24.9	748.1	0.025	0.000	21.4	6	-17.8	18.3	1.54	 .0736	23	1	100.0	1
08/06/24	3:42	-18.2	-18.2	-18.2	61	-23.9	6.1	W	0.10	7.0	W	-25.5	-18.3	-25.6	748.1	0.025	0.000	21.4	6	-17.8	18.3	1.54	 .0736	24	1	100.0	1
08/06/24	3:43	-18.2	-18.2	-18.2	61	-23.9	4.3	WNW	0.07	5.2	W	-24.1	-18.3	-24.2	748.0	0.025	0.000	21.4	6	-17.8	18.3	1.54	 .0736	23	1	100.0	1
08/06/24	3:44	-18.2	-18.2	-18.2	62	-23.7	4.3	W	0.07	6.1	W	-24.1	-18.3	-24.2	748.0	0.025	0.000	21.4	6	-17.8	18.3	1.54	 .0736	23	1	100.0	1
08/06/24	3:45	-18.2	-18.2	-18.2	62	-23.7	4.3	WNW	0.07	7.8	WNW	-24.1	-18.3	-24.2	748.0	0.025	0.000	21.4	6	-17.8	18.3	1.54	 .0736	24	1	100.0	1
08/06/24	3:46	-18.2	-18.2	-18.2	62	-23.7	7.0	WNW	0.12	7.8	WNW	-26.1	-18.3	-26.2	748.0	0.025	0.000	21.4	6	-17.8	18.3	1.54	 .0736	23	1	100.0	1
08/06/24	3:47	-18.3	-18.2	-18.3	62	-23.8	7.0	WNW	0.12	7.8	WNW	-26.2	-18.4	-26.3	748.0	0.025	0.000	21.3	6	-17.8	18.2	1.54	 .0736	24	1	100.0	1
08/06/24	3:48	-18.3	-18.3	-18.3	62	-23.8	3.5	WNW	0.06	7.0	W	-23.2	-18.4	-23.3	748.0	0.025	0.000	21.4	6	-17.8	18.3	1.54	 .0736	23	1	100.0	1
08/06/24	3:49	-18.3	-18.3	-18.3	62	-23.8	3.5	NW	0.06	4.3	WNW	-23.2	-18.4	-23.3	747.9	0.025	0.000	21.4	6	-17.8	18.3	1.54	 .0736	23	1	100.0	1
08/06/24	3:50	-18.3	-18.3	-18.3	62	-23.8	2.6	NW	0.04	5.2	W	-22.1	-18.4	-22.2	747.9	0.025	0.000	21.4	6	-17.8	18.3	1.54	 .0735	24	1	100.0	1
08/06/24	3:51	-18.3	-18.2	-18.3	62	-23.8	5.2	WNW	0.09	7.0	WNW	-24.9	-18.4	-25.1	747.9	0.025	0.000	21.4	6	-17.8	18.3	1.54	 .0735	23	1	100.0	1
08/06/24	3:52	-18.2	-18.2	-18.3	62	-23.7	3.5	WSW	0.06	7.0	WSW	-23.2	-18.3	-23.3	747.9	0.025	0.000	21.3	6	-17.8	18.2	1.54	 .0736	24	1	100.0	1
08/06/24	3:53	-18.2	-18.2	-18.2	62	-23.7	3.5	W	0.06	5.2	W	-23.1	-18.3	-23.2	747.9	0.025	0.000	21.3	6	-17.8	18.2	1.54	 .0736	23	1	100.0	1
08/06/24	3:54	-18.1	-18.1	-18.2	62	-23.6	3.5	W	0.06	6.1	WNW	-23.1	-18.2	-23.2	747.9	0.025	0.000	21.3	6	-17.8	18.2	1.54	 .0736	24	1	100.0	1
08/06/24	3:55	-18.1	-18.1	-18.1	62	-23.6	4.3	WNW	0.07	6.1	WNW	-23.9	-18.2	-24.1	747.8	0.025	0.000	21.3	6	-17.8	18.2	1.54	 .0736	23	1	100.0	1
08/06/24	3:56	-18.1	-18.1	-18.1	62	-23.6	3.5	WNW	0.06	4.3	WNW	-23.1	-18.2	-23.2	747.8	0.025	0.000	21.3	6	-17.8	18.2	1.54	 .0736	23	1	100.0	1
08/06/24	3:57	-18.1	-18.1	-18.1	62	-23.6	4.3	NW	0.07	7.0	NNW	-23.9	-18.2	-24.1	747.8	0.025	0.000	21.3	6	-17.8	18.2	1.54	 .0735	24	1	100.0	1
08/06/24	3:58	-18.1	-18.1	-18.1	62	-23.6	2.6	NW	0.04	4.3	NW	-21.8	-18.2	-21.9	747.7	0.025	0.000	21.3	6	-17.8	18.2	1.54	 .0735	23	1	100.0	1
08/06/24	3:59	-18.1	-18.1	-18.1	62	-23.6	3.5	NW	0.06	4.3	NW	-23.0	-18.2	-23.1	747.8	0.025	0.000	21.4	6	-17.8	18.3	1.54	 .0735	24	1	100.0	1
08/06/24	4:00	-18.1	-18.1	-18.1	62	-23.6	4.3	WNW	0.07	6.1	WNW	-23.9	-18.2	-24.0	747.7	0.025	0.000	21.3	6	-17.8	18.2	1.54	 .0735	23	1	100.0	1
08/06/24	4:01	-18.1	-18.1	-18.1	62	-23.6	5.2	W	0.09	6.1	W	-24.7	-18.2	-24.8	747.8	0.025	0.000	21.3	6	-17.8	18.2	1.54	 .0735	23	1	100.0	1
08/06/24	4:02	-18.1	-18.1	-18.1	62	-23.6	5.2	WNW	0.09	7.0	NW	-24.7	-18.2	-24.8	747.7	0.025	0.000	21.3	6	-17.8	18.2	1.54	 .0735	24	1	100.0	1
08/06/24	4:03	-18.1	-18.0	-18.1	61	-23.8	6.1	NW	0.10	7.8	NW	-25.3	-18.2	-25.4	747.7	0.025	0.000	21.3	6	-17.8	18.2	1.54	 .0735	23	1	100.0	1
08/06/24	4:04	-18.0	-18.0	-18.1	61	-23.7	4.3	NW	0.07	7.0	NW	-23.8	-18.1	-23.9	747.7	0.025	0.000	21.3	6	-17.8	18.2	1.54	 .0735	24	1	100.0	1
08/06/24	4:05	-18.1	-18.1	-18.1	61	-23.8	4.3	NNW	0.07	5.2	NNW	-23.9	-18.2	-24.0	747.6	0.025	0.000	21.3	6	-17.8	18.2	1.54	 .0735	23	1	100.0	1
08/06/24	4:06	-18.1	-18.1	-18.1	61	-23.8	3.5	NW	0.06	4.3	NNW	-23.1	-18.2	-23.2	747.6	0.025	0.000	21.4	6	-17.8	18.3	1.54	 .0735	24	1	100.0	1
08/06/24	4:07	-18.2	-18.1	-18.2	61	-23.9	3.5	NW	0.06	4.3	NW	-23.1	-18.3	-23.2	747.6	0.025	0.000	21.3	6	-17.8	18.2	1.54	 .0735	23	1	100.0	1
08/06/24	4:08	-18.2	-18.2	-18.2	61	-23.9	3.5	NW	0.06	4.3	NW	-23.1	-18.3	-23.2	747.6	0.025	0.000	21.4	6	-17.8	18.3	1.54	 .0735	23	1	100.0	1
08/06/24	4:09	-18.2	-18.2	-18.2	61	-23.9	3.5	NW	0.06	5.2	NW	-23.2	-18.3	-23.3	747.6	0.025	0.000	21.4	6	-17.8	18.3	1.54	 .0735	24	1	100.0	1
08/06/24	4:10	-18.2	-18.2	-18.2	61	-23.9	4.3	NW	0.07	6.1	NW	-24.1	-18.3	-24.2	747.7	0.025	0.000	21.4	6	-17.8	18.3	1.54	 .0735	23	1	100.0	1
08/06/24	4:11	-18.2	-18.2	-18.2	61	-23.9	4.3	NNW	0.07	5.2	NW	-24.1	-18.3	-24.2	747.6	0.025	0.000	21.4	6	-17.8	18.3	1.54	 .0735	24	1	100.0	1
08/06/24	4:12	-18.2	-18.2	-18.3	61	-23.9	4.3	NNW	0.07	5.2	NNW	-24.1	-18.3	-24.2	747.6	0.025	0.000	21.4	6	-17.8	18.3	1.54	 .0735	23	1	100.0	1
08/06/24	4:13	-18.3	-18.3	-18.3	61	-24.0	5.2	NW	0.09	7.0	NW	-24.9	-18.4	-25.1	747.6	0.025	0.000	21.4	6	-17.8	18.3	1.54	 .0735	23	1	100.0	1
08/06/24	4:14	-18.2	-18.2	-18.2	62	-23.7	4.3	NW	0.07	6.1	NW	-24.1	-18.3	-24.2	747.6	0.025	0.000	21.4	6	-17.8	18.3	1.54	 .0735	24	1	100.0	1
08/06/24	4:15	-18.2	-18.2	-18.2	62	-23.7	4.3	NW	0.07	5.2	NW	-24.1	-18.3	-24.2	747.5	0.025	0.000	21.4	6	-17.8	18.3	1.54	 .0735	23	1	100.0	1
08/06/24	4:16	-18.2	-18.2	-18.2	62	-23.7	4.3	NW	0.07	5.2	NW	-24.1	-18.3	-24.2	747.5	0.025	0.000	21.4	6	-17.8	18.3	1.54	 .0735	24	1	100.0	1
08/06/24	4:17	-18.2	-18.2	-18.2	62	-23.7	4.3	NW	0.07	5.2	NW	-24.1	-18.3	-24.2	747.5	0.025	0.000	21.4	6	-17.8	18.3	1.54	 .0735	23	1	100.0	1
08/06/24	4:18	-18.2	-18.2	-18.2	62	-23.7	5.2	NW	0.09	6.1	NW	-24.8	-18.3	-24.9	747.5	0.025	0.000	21.4	6	-17.8	18.3	1.54	 .0735	24	1	100.0	1
08/06/24	4:19	-18.2	-18.2	-18.2	61	-23.9	4.3	NW	0.07	7.0	NW	-24.0	-18.3	-24.1	747.5	0.025	0.000	21.4	6	-17.8	18.3	1.54	 .0735	23	1	100.0	1
08/06/24	4:20	-18.2	-18.2	-18.2	61	-23.9	4.3	NNW	0.07	5.2	NNW	-24.0	-18.3	-24.1	747.5	0.025	0.000	21.3	6	-17.8	18.2	1.54	 .0735	23	1	100.0	1
08/06/24	4:21	-18.2	-18.2	-18.2	61	-23.9	5.2	NW	0.09	7.0	NW	-24.8	-18.3	-24.9	747.5	0.025	0.000	21.3	6	-17.8	18.2	1.54	 .0735	24	1	100.0	1
08/06/24	4:22	-18.1	-18.1	-18.2	61	-23.8	4.3	NW	0.07	5.2	NW	-23.9	-18.2	-24.1	747.4	0.025	0.000	21.3	6	-17.8	18.2	1.54	 .0735	23	1	100.0	1
08/06/24	4:23	-18.1	-18.1	-18.1	61	-23.8	4.3	NW	0.07	5.2	NW	-23.9	-18.2	-24.1	747.4	0.025	0.000	21.3	6	-17.8	18.2	1.54	 .0735	24	1	100.0	1
08/06/24	4:24	-18.1	-18.1	-18.1	61	-23.8	4.3	NW	0.07	5.2	NNW	-23.9	-18.2	-24.0	747.4	0.025	0.000	21.3	6	-17.8	18.2	1.54	 .0735	23	1	100.0	1
08/06/24	4:25	-18.1	-18.1	-18.1	61	-23.8	5.2	NW	0.09	7.0	NW	-24.7	-18.2	-24.8	747.4	0.025	0.000	21.3	6	-17.8	18.2	1.54	 .0735	23	1	100.0	1
08/06/24	4:26	-17.9	-17.9	-18.0	61	-23.6	4.3	NW	0.07	7.0	NW	-23.8	-18.1	-23.9	747.4	0.025	0.000	21.3	6	-17.8	18.1	1.54	 .0735	24	1	100.0	1
08/06/24	4:27	-17.9	-17.9	-17.9	61	-23.6	5.2	NW	0.09	7.0	NW	-24.5	-18.1	-24.6	747.4	0.025	0.000	21.3	6	-17.8	18.1	1.54	 .0735	23	1	100.0	1
08/06/24	4:28	-17.9	-17.9	-17.9	61	-23.6	4.3	NW	0.07	5.2	NW	-23.7	-18.0	-23.8	747.4	0.025	0.000	21.3	6	-17.8	18.1	1.54	 .0735	24	1	100.0	1
08/06/24	4:29	-17.8	-17.8	-17.9	61	-23.5	4.3	NNW	0.07	5.2	NW	-23.6	-17.9	-23.7	747.4	0.025	0.000	21.3	6	-17.8	18.1	1.54	 .0735	23	1	100.0	1
08/06/24	4:30	-17.9	-17.8	-17.9	61	-23.6	5.2	NW	0.09	5.2	NNW	-24.4	-18.0	-24.6	747.3	0.025	0.000	21.2	6	-17.9	18.0	1.55	 .0735	23	1	100.0	1
08/06/24	4:31	-17.9	-17.9	-17.9	60	-23.8	4.3	NW	0.07	5.2	NW	-23.7	-18.0	-23.8	747.3	0.025	0.000	21.2	6	-17.9	18.0	1.55	 .0735	24	1	100.0	1
08/06/24	4:32	-17.9	-17.9	-17.9	60	-23.8	4.3	NW	0.07	5.2	NW	-23.8	-18.1	-23.9	747.3	0.025	0.000	21.2	6	-17.9	17.9	1.55	 .0735	23	1	100.0	1
08/06/24	4:33	-17.9	-17.9	-17.9	60	-23.8	4.3	NW	0.07	4.3	NW	-23.8	-18.1	-23.9	747.3	0.025	0.000	21.2	6	-17.9	17.9	1.55	 .0735	24	1	100.0	1
08/06/24	4:34	-17.9	-17.9	-17.9	61	-23.6	4.3	NW	0.07	5.2	NW	-23.8	-18.1	-23.9	747.3	0.025	0.000	21.2	6	-17.9	17.9	1.55	 .0735	23	1	100.0	1
08/06/24	4:35	-17.9	-17.9	-18.0	61	-23.6	4.3	NW	0.07	5.2	NW	-23.8	-18.1	-23.9	747.2	0.025	0.000	21.2	6	-17.9	17.9	1.55	 .0735	24	1	100.0	1
08/06/24	4:36	-17.9	-17.9	-18.0	61	-23.6	4.3	NW	0.07	5.2	NW	-23.8	-18.1	-23.9	747.3	0.025	0.000	21.1	6	-18.0	17.8	1.55	 .0736	23	1	100.0	1
08/06/24	4:37	-17.9	-17.9	-17.9	61	-23.6	5.2	NW	0.09	7.0	NW	-24.5	-18.1	-24.6	747.2	0.025	0.000	21.1	6	-18.0	17.8	1.55	 .0736	23	1	100.0	1
08/06/24	4:38	-17.9	-17.9	-17.9	61	-23.6	6.1	NNW	0.10	7.0	NNW	-25.2	-18.1	-25.3	747.2	0.025	0.000	21.1	6	-18.0	17.8	1.55	 .0736	24	1	100.0	1
08/06/24	4:39	-17.9	-17.9	-17.9	61	-23.6	5.2	NNW	0.09	7.0	NNW	-24.4	-18.0	-24.6	747.2	0.025	0.000	21.1	6	-18.0	17.8	1.55	 .0735	23	1	100.0	1
08/06/24	4:40	-17.8	-17.8	-17.8	61	-23.5	6.1	NW	0.10	7.0	NNW	-25.1	-17.9	-25.2	747.1	0.025	0.000	21.1	6	-18.0	17.8	1.55	 .0735	24	1	100.0	1
08/06/24	4:41	-17.8	-17.8	-17.9	61	-23.5	6.1	NW	0.10	7.8	NW	-25.1	-17.9	-25.2	747.1	0.025	0.000	21.1	6	-18.0	17.8	1.55	 .0735	23	1	100.0	1
08/06/24	4:42	-17.9	-17.8	-17.9	61	-23.6	6.1	NNW	0.10	7.0	NW	-25.1	-18.0	-25.2	747.0	0.025	0.000	21.1	6	-18.0	17.8	1.55	 .0735	23	1	100.0	1
08/06/24	4:43	-17.9	-17.9	-17.9	61	-23.6	5.2	NNW	0.09	7.0	NNW	-24.5	-18.1	-24.6	747.0	0.025	0.000	21.1	6	-18.0	17.8	1.55	 .0735	24	1	100.0	1
08/06/24	4:44	-17.9	-17.9	-17.9	61	-23.6	6.1	NNW	0.10	7.8	NNW	-25.2	-18.1	-25.3	747.0	0.025	0.000	21.1	6	-18.0	17.8	1.55	 .0735	23	1	100.0	1
08/06/24	4:45	-17.9	-17.9	-17.9	61	-23.6	7.0	NNW	0.12	7.8	NNW	-25.8	-18.1	-25.9	747.0	0.025	0.000	21.1	6	-18.0	17.8	1.55	 .0735	24	1	100.0	1
08/06/24	4:46	-17.9	-17.9	-17.9	61	-23.6	6.1	NNW	0.10	7.8	NNW	-25.2	-18.1	-25.3	747.0	0.025	0.000	21.1	6	-18.0	17.8	1.55	 .0735	23	1	100.0	1
08/06/24	4:47	-17.9	-17.9	-17.9	61	-23.6	6.1	NNW	0.10	7.0	NNW	-25.1	-18.0	-25.2	747.0	0.025	0.000	21.1	6	-18.0	17.8	1.55	 .0735	24	1	100.0	1
08/06/24	4:48	-17.9	-17.9	-17.9	61	-23.6	6.1	NNW	0.10	7.8	NNW	-25.1	-18.0	-25.2	747.0	0.025	0.000	21.1	6	-18.0	17.8	1.55	 .0735	23	1	100.0	1
08/06/24	4:49	-17.9	-17.9	-17.9	61	-23.6	7.0	NNW	0.12	7.8	NNW	-25.7	-18.0	-25.8	746.9	0.025	0.000	21.1	6	-18.0	17.8	1.55	 .0735	23	1	100.0	1
08/06/24	4:50	-17.8	-17.8	-17.9	61	-23.5	7.8	NNW	0.13	8.7	NNW	-26.2	-17.9	-26.3	746.9	0.025	0.000	21.1	6	-18.0	17.8	1.55	 .0735	24	1	100.0	1
08/06/24	4:51	-17.8	-17.8	-17.8	61	-23.5	7.8	NNW	0.13	8.7	NNW	-26.2	-17.9	-26.3	746.9	0.025	0.000	21.1	6	-18.0	17.8	1.55	 .0735	23	1	100.0	1
08/06/24	4:52	-17.8	-17.8	-17.8	61	-23.5	7.0	NNW	0.12	9.6	NW	-25.6	-17.9	-25.7	746.9	0.025	0.000	21.1	6	-18.0	17.8	1.55	 .0735	24	1	100.0	1
08/06/24	4:53	-17.7	-17.7	-17.8	61	-23.4	5.2	NNW	0.09	7.0	NW	-24.3	-17.8	-24.4	746.9	0.025	0.000	21.1	6	-18.0	17.8	1.55	 .0735	23	1	100.0	1
08/06/24	4:54	-17.6	-17.6	-17.7	61	-23.3	5.2	NW	0.09	7.8	NW	-24.1	-17.7	-24.2	746.9	0.025	0.000	21.2	6	-17.9	17.9	1.55	 .0735	23	1	100.0	1
08/06/24	4:55	-17.6	-17.6	-17.6	60	-23.5	4.3	NNW	0.07	5.2	NNW	-23.3	-17.7	-23.4	746.9	0.025	0.000	21.2	6	-17.9	17.9	1.55	 .0735	24	1	100.0	1
08/06/24	4:56	-17.6	-17.6	-17.6	60	-23.5	5.2	NNW	0.09	7.8	NNW	-24.1	-17.7	-24.2	746.9	0.025	0.000	21.2	6	-17.9	17.9	1.55	 .0735	23	1	100.0	1
08/06/24	4:57	-17.6	-17.6	-17.6	60	-23.5	5.2	NNW	0.09	7.8	NW	-24.1	-17.7	-24.2	746.9	0.025	0.000	21.2	6	-17.9	17.9	1.55	 .0735	24	1	100.0	1
08/06/24	4:58	-17.6	-17.6	-17.6	60	-23.5	5.2	NNW	0.09	7.0	NNW	-24.1	-17.7	-24.2	746.9	0.025	0.000	21.2	6	-17.9	17.9	1.55	 .0735	23	1	100.0	1
08/06/24	4:59	-17.5	-17.5	-17.6	60	-23.4	5.2	NNW	0.09	7.0	NNW	-24.0	-17.6	-24.1	746.9	0.025	0.000	21.2	5	-20.1	17.9	1.25	 .0735	24	1	100.0	1
08/06/24	5:00	-17.5	-17.5	-17.5	61	-23.2	4.3	NNW	0.07	5.2	NNW	-23.2	-17.6	-23.3	746.9	0.025	0.000	21.2	5	-20.1	17.9	1.25	 .0735	23	1	100.0	1
08/06/24	5:01	-17.5	-17.4	-17.5	62	-23.0	5.2	NW	0.09	7.0	NW	-24.0	-17.6	-24.1	746.8	0.025	0.000	21.2	6	-17.9	17.9	1.55	 .0735	23	1	100.0	1
08/06/24	5:02	-17.5	-17.5	-17.5	62	-23.0	6.1	NW	0.10	8.7	NW	-24.7	-17.6	-24.8	746.8	0.025	0.000	21.2	5	-20.1	17.9	1.25	 .0735	24	1	100.0	1
08/06/24	5:03	-17.4	-17.4	-17.5	62	-23.0	7.0	NNW	0.12	7.8	NW	-25.2	-17.6	-25.3	746.8	0.025	0.000	21.2	5	-20.0	17.9	1.25	 .0735	23	1	100.0	1
08/06/24	5:04	-17.3	-17.3	-17.4	63	-22.6	7.8	NW	0.13	9.6	NNW	-25.5	-17.4	-25.6	746.8	0.025	0.000	21.2	5	-20.0	17.9	1.25	 .0735	24	1	100.0	1
08/06/24	5:05	-17.1	-17.1	-17.2	65	-22.1	5.2	NW	0.09	7.0	NW	-23.5	-17.2	-23.6	746.8	0.025	0.000	21.2	5	-20.0	17.9	1.25	 .0735	23	1	100.0	1
08/06/24	5:06	-17.1	-17.1	-17.1	66	-21.9	6.1	NNW	0.10	7.8	NNW	-24.1	-17.2	-24.2	746.8	0.025	0.000	21.2	5	-20.0	17.9	1.25	 .0735	23	1	100.0	1
08/06/24	5:07	-17.1	-17.1	-17.1	66	-22.0	7.0	NNW	0.12	7.8	NNW	-24.8	-17.2	-24.9	746.8	0.025	0.000	21.2	5	-20.0	17.9	1.25	 .0735	24	1	100.0	1
08/06/24	5:08	-17.1	-17.1	-17.1	66	-22.0	6.1	NNW	0.10	7.8	NNW	-24.2	-17.2	-24.3	746.7	0.025	0.000	21.2	5	-20.0	17.9	1.25	 .0735	23	1	100.0	1
08/06/24	5:09	-17.1	-17.1	-17.1	67	-21.7	5.2	NNW	0.09	7.0	NNW	-23.4	-17.2	-23.6	746.7	0.025	0.000	21.3	5	-20.0	18.1	1.25	 .0735	24	1	100.0	1
08/06/24	5:10	-17.0	-17.0	-17.1	67	-21.7	5.2	NNW	0.09	7.0	NNW	-23.4	-17.1	-23.5	746.7	0.025	0.000	21.2	5	-20.0	17.9	1.25	 .0735	23	1	100.0	1
08/06/24	5:11	-17.0	-17.0	-17.0	67	-21.7	6.1	NNW	0.10	7.8	NNW	-24.1	-17.1	-24.2	746.7	0.025	0.000	21.3	5	-20.0	18.1	1.25	 .0735	23	1	100.0	1
08/06/24	5:12	-17.0	-16.9	-17.0	67	-21.7	7.8	NNW	0.13	8.7	NNW	-25.1	-17.1	-25.2	746.7	0.025	0.000	21.3	5	-20.0	18.1	1.25	 .0735	24	1	100.0	1
08/06/24	5:13	-16.9	-16.9	-16.9	68	-21.5	7.0	NNW	0.12	8.7	NNW	-24.6	-17.1	-24.7	746.6	0.024	0.000	21.3	5	-20.0	18.1	1.25	 .0735	23	1	100.0	1
08/06/24	5:14	-17.0	-16.9	-17.0	68	-21.5	7.8	NNW	0.13	8.7	N	-25.1	-17.1	-25.2	746.6	0.025	0.000	21.3	5	-20.0	18.1	1.25	 .0735	24	1	100.0	1
08/06/24	5:15	-17.0	-17.0	-17.0	68	-21.5	7.8	N	0.13	8.7	N	-25.1	-17.1	-25.2	746.6	0.025	0.000	21.3	5	-20.0	18.1	1.25	 .0735	23	1	100.0	1
08/06/24	5:16	-17.0	-17.0	-17.0	68	-21.5	8.7	N	0.14	9.6	N	-25.6	-17.1	-25.7	746.6	0.025	0.000	21.3	5	-20.0	18.1	1.25	 .0735	24	1	100.0	1
08/06/24	5:17	-17.0	-16.9	-17.0	69	-21.3	7.8	N	0.13	8.7	N	-25.1	-17.1	-25.2	746.6	0.025	0.000	21.3	5	-20.0	18.1	1.25	 .0735	23	1	100.0	1
08/06/24	5:18	-16.9	-16.9	-17.0	70	-21.1	7.8	N	0.13	8.7	N	-25.1	-17.1	-25.2	746.6	0.024	0.000	21.3	5	-20.0	18.1	1.25	 .0735	23	1	100.0	1
08/06/24	5:19	-16.9	-16.9	-16.9	70	-21.1	7.8	N	0.13	9.6	N	-25.1	-17.1	-25.2	746.6	0.024	0.000	21.3	5	-20.0	18.1	1.25	 .0735	24	1	100.0	1
08/06/24	5:20	-16.9	-16.9	-16.9	71	-21.0	8.7	NNW	0.14	10.4	NNW	-25.6	-17.1	-25.7	746.5	0.024	0.000	21.3	5	-20.0	18.1	1.25	 .0735	23	1	100.0	1
08/06/24	5:21	-16.9	-16.9	-16.9	71	-20.9	9.6	NNW	0.16	10.4	NNW	-25.9	-17.0	-26.0	746.5	0.024	0.000	21.3	5	-20.0	18.1	1.25	 .0735	24	1	100.0	1
08/06/24	5:22	-16.8	-16.8	-16.9	71	-20.9	9.6	N	0.16	10.4	N	-25.8	-16.9	-25.9	746.5	0.024	0.000	21.3	5	-20.0	18.1	1.25	 .0735	23	1	100.0	1
08/06/24	5:23	-16.8	-16.8	-16.8	71	-20.9	9.6	N	0.16	10.4	N	-25.8	-16.9	-25.9	746.4	0.024	0.000	21.3	5	-20.0	18.1	1.25	 .0735	23	1	100.0	1
08/06/24	5:24	-16.8	-16.8	-16.9	71	-20.9	9.6	N	0.16	10.4	N	-25.8	-16.9	-25.9	746.5	0.024	0.000	21.3	5	-20.0	18.1	1.25	 .0735	24	1	100.0	1
08/06/24	5:25	-16.9	-16.8	-16.9	71	-20.9	8.7	N	0.14	9.6	N	-25.5	-17.0	-25.6	746.5	0.024	0.000	21.3	5	-20.0	18.1	1.25	 .0735	23	1	100.0	1
08/06/24	5:26	-16.9	-16.8	-16.9	71	-20.9	8.7	N	0.14	9.6	N	-25.5	-17.0	-25.6	746.4	0.024	0.000	21.3	5	-20.0	18.1	1.25	 .0735	24	1	100.0	1
08/06/24	5:27	-16.9	-16.9	-16.9	72	-20.7	8.7	N	0.14	9.6	N	-25.5	-17.0	-25.6	746.5	0.024	0.000	21.2	5	-20.0	17.9	1.25	 .0735	23	1	100.0	1
08/06/24	5:28	-16.9	-16.9	-16.9	72	-20.8	9.6	N	0.16	10.4	N	-26.0	-17.1	-26.1	746.4	0.024	0.000	21.2	5	-20.0	17.9	1.25	 .0735	24	1	100.0	1
08/06/24	5:29	-17.0	-16.9	-17.0	72	-20.9	10.4	N	0.17	11.3	N	-26.4	-17.1	-26.6	746.4	0.025	0.000	21.2	5	-20.0	17.9	1.25	 .0735	23	1	100.0	1
08/06/24	5:30	-17.0	-16.9	-17.0	72	-20.9	10.4	N	0.17	11.3	N	-26.4	-17.1	-26.6	746.4	0.025	0.000	21.2	5	-20.0	17.9	1.25	 .0735	23	1	100.0	1
08/06/24	5:31	-17.0	-17.0	-17.0	73	-20.7	9.6	N	0.16	10.4	N	-26.1	-17.1	-26.1	746.4	0.025	0.000	21.2	5	-20.1	17.9	1.25	 .0735	24	1	100.0	1
08/06/24	5:32	-17.1	-17.0	-17.1	73	-20.7	9.6	N	0.16	10.4	N	-26.1	-17.1	-26.2	746.3	0.025	0.000	21.2	5	-20.1	17.9	1.25	 .0735	23	1	100.0	1
08/06/24	5:33	-17.1	-17.1	-17.1	73	-20.7	9.6	N	0.16	10.4	N	-26.1	-17.1	-26.2	746.3	0.025	0.000	21.2	5	-20.1	17.9	1.25	 .0735	24	1	100.0	1
08/06/24	5:34	-17.1	-17.1	-17.1	73	-20.7	10.4	N	0.17	10.4	N	-26.5	-17.1	-26.6	746.3	0.025	0.000	21.2	5	-20.1	17.9	1.25	 .0735	23	1	100.0	1
08/06/24	5:35	-17.1	-17.1	-17.1	74	-20.6	11.3	N	0.19	11.3	N	-26.9	-17.1	-26.9	746.3	0.025	0.000	21.1	5	-20.1	17.8	1.25	 .0735	23	1	100.0	1
08/06/24	5:36	-17.0	-17.0	-17.1	74	-20.5	10.4	N	0.17	12.2	N	-26.4	-17.1	-26.5	746.3	0.025	0.000	21.1	5	-20.1	17.8	1.25	 .0735	24	1	100.0	1
08/06/24	5:37	-16.9	-16.9	-17.0	74	-20.5	10.4	N	0.17	11.3	N	-26.4	-17.0	-26.4	746.3	0.024	0.000	21.1	5	-20.1	17.8	1.25	 .0735	23	1	100.0	1
08/06/24	5:38	-16.9	-16.9	-16.9	74	-20.5	10.4	N	0.17	11.3	N	-26.4	-17.0	-26.4	746.3	0.024	0.000	21.1	5	-20.1	17.8	1.25	 .0735	24	1	100.0	1
08/06/24	5:39	-16.9	-16.9	-16.9	74	-20.4	10.4	N	0.17	11.3	N	-26.3	-16.9	-26.4	746.3	0.024	0.000	21.1	5	-20.1	17.8	1.25	 .0735	23	1	100.0	1
08/06/24	5:40	-16.9	-16.9	-16.9	74	-20.4	10.4	N	0.17	11.3	N	-26.3	-16.9	-26.4	746.3	0.024	0.000	21.1	5	-20.1	17.7	1.25	 .0735	24	1	100.0	1
08/06/24	5:41	-16.9	-16.9	-16.9	75	-20.3	10.4	N	0.17	10.4	N	-26.3	-16.9	-26.4	746.2	0.024	0.000	21.1	5	-20.1	17.7	1.25	 .0735	23	1	100.0	1
08/06/24	5:42	-16.9	-16.8	-16.9	75	-20.3	10.4	NNW	0.17	11.3	NNW	-26.3	-16.9	-26.4	746.2	0.024	0.000	21.1	5	-20.1	17.7	1.25	 .0735	23	1	100.0	1
08/06/24	5:43	-16.8	-16.8	-16.9	75	-20.2	10.4	NNW	0.17	11.3	NNW	-26.2	-16.9	-26.3	746.3	0.024	0.000	21.1	5	-20.1	17.7	1.25	 .0735	24	1	100.0	1
08/06/24	5:44	-16.8	-16.8	-16.8	75	-20.2	10.4	NNW	0.17	12.2	NNW	-26.2	-16.9	-26.3	746.2	0.024	0.000	21.1	5	-20.1	17.7	1.25	 .0735	23	1	100.0	1
08/06/24	5:45	-16.8	-16.8	-16.8	75	-20.2	10.4	NNW	0.17	11.3	NNW	-26.2	-16.8	-26.2	746.2	0.024	0.000	21.1	5	-20.1	17.7	1.25	 .0735	24	1	100.0	1
08/06/24	5:46	-16.8	-16.8	-16.8	75	-20.2	10.4	NNW	0.17	11.3	NNW	-26.2	-16.8	-26.2	746.2	0.024	0.000	21.1	5	-20.1	17.7	1.25	 .0735	23	1	100.0	1
08/06/24	5:47	-16.8	-16.8	-16.8	75	-20.2	10.4	NNW	0.17	11.3	NNW	-26.2	-16.8	-26.2	746.1	0.024	0.000	21.1	5	-20.1	17.7	1.25	 .0735	23	1	100.0	1
08/06/24	5:48	-16.8	-16.8	-16.8	75	-20.2	11.3	NNW	0.19	12.2	NNW	-26.6	-16.8	-26.6	746.1	0.024	0.000	21.1	5	-20.1	17.7	1.25	 .0735	24	1	100.0	1
08/06/24	5:49	-16.8	-16.8	-16.8	76	-20.0	10.4	NNW	0.17	11.3	NNW	-26.2	-16.8	-26.2	746.1	0.024	0.000	21.1	5	-20.1	17.7	1.25	 .0735	23	1	100.0	1
08/06/24	5:50	-16.8	-16.8	-16.8	76	-20.0	10.4	NNW	0.17	11.3	NNW	-26.2	-16.8	-26.2	746.1	0.024	0.000	21.1	5	-20.1	17.7	1.25	 .0735	24	1	100.0	1
08/06/24	5:51	-16.8	-16.8	-16.8	76	-20.0	11.3	N	0.19	11.3	NNW	-26.6	-16.8	-26.6	746.1	0.024	0.000	21.1	5	-20.1	17.7	1.25	 .0735	23	1	100.0	1
08/06/24	5:52	-16.8	-16.8	-16.8	76	-20.0	10.4	NNW	0.17	11.3	NNW	-26.2	-16.8	-26.2	746.1	0.024	0.000	21.1	5	-20.1	17.7	1.25	 .0735	23	1	100.0	1
08/06/24	5:53	-16.8	-16.8	-16.8	76	-20.1	10.4	NNW	0.17	11.3	NNW	-26.2	-16.9	-26.3	746.1	0.024	0.000	21.1	5	-20.1	17.7	1.25	 .0735	24	1	100.0	1
08/06/24	5:54	-16.8	-16.8	-16.8	76	-20.1	11.3	NNW	0.19	13.0	NNW	-26.6	-16.9	-26.7	746.1	0.024	0.000	21.1	5	-20.1	17.7	1.25	 .0735	23	1	100.0	1
08/06/24	5:55	-16.8	-16.8	-16.8	76	-20.1	11.3	NNW	0.19	12.2	NNW	-26.6	-16.9	-26.7	746.0	0.024	0.000	21.1	5	-20.1	17.7	1.25	 .0735	24	1	100.0	1
08/06/24	5:56	-16.8	-16.8	-16.8	76	-20.0	11.3	NNW	0.19	12.2	NNW	-26.6	-16.8	-26.6	746.0	0.024	0.000	21.1	5	-20.1	17.8	1.25	 .0735	23	1	100.0	1
08/06/24	5:57	-16.8	-16.8	-16.8	76	-20.0	10.4	NNW	0.17	11.3	NNW	-26.2	-16.8	-26.2	746.0	0.024	0.000	21.1	5	-20.1	17.8	1.25	 .0734	24	1	100.0	1
08/06/24	5:58	-16.7	-16.7	-16.8	76	-20.0	10.4	NNW	0.17	11.3	NNW	-26.1	-16.8	-26.2	746.0	0.024	0.000	21.1	5	-20.1	17.8	1.25	 .0734	23	1	100.0	1
08/06/24	5:59	-16.7	-16.7	-16.7	76	-20.0	10.4	NNW	0.17	11.3	NNW	-26.1	-16.8	-26.2	745.9	0.024	0.000	21.1	5	-20.1	17.8	1.25	 .0734	23	1	100.0	1
08/06/24	6:00	-16.7	-16.7	-16.7	76	-20.0	10.4	NNW	0.17	11.3	NNW	-26.1	-16.8	-26.2	745.9	0.024	0.000	21.1	5	-20.1	17.8	1.25	 .0734	24	1	100.0	1
08/06/24	6:01	-16.8	-16.7	-16.8	76	-20.0	10.4	NNW	0.17	11.3	NNW	-26.2	-16.8	-26.2	745.9	0.024	0.000	21.1	5	-20.1	17.8	1.25	 .0734	23	1	100.0	1
08/06/24	6:02	-16.8	-16.8	-16.8	76	-20.0	10.4	NNW	0.17	11.3	NNW	-26.2	-16.8	-26.2	745.9	0.024	0.000	21.1	5	-20.1	17.8	1.25	 .0734	24	1	100.0	1
08/06/24	6:03	-16.7	-16.7	-16.8	76	-20.0	10.4	NNW	0.17	11.3	NNW	-26.1	-16.8	-26.2	745.9	0.024	0.000	21.1	5	-20.1	17.8	1.25	 .0734	23	1	100.0	1
08/06/24	6:04	-16.7	-16.7	-16.7	76	-20.0	11.3	NNW	0.19	12.2	NNW	-26.4	-16.8	-26.5	745.9	0.024	0.000	21.1	5	-20.1	17.8	1.25	 .0734	23	1	100.0	1
08/06/24	6:05	-16.7	-16.7	-16.7	75	-20.1	9.6	NNW	0.16	11.3	NNW	-25.6	-16.7	-25.7	745.9	0.024	0.000	21.1	5	-20.1	17.8	1.25	 .0734	24	1	100.0	1
08/06/24	6:06	-16.7	-16.7	-16.7	75	-20.1	10.4	NNW	0.17	11.3	NNW	-26.0	-16.7	-26.1	745.9	0.024	0.000	21.2	5	-20.1	17.9	1.25	 .0734	23	1	100.0	1
08/06/24	6:07	-16.7	-16.7	-16.7	75	-20.1	10.4	NNW	0.17	11.3	NNW	-26.0	-16.7	-26.1	745.9	0.024	0.000	21.2	5	-20.1	17.9	1.25	 .0734	24	1	100.0	1
08/06/24	6:08	-16.6	-16.6	-16.7	75	-20.0	9.6	N	0.16	10.4	NNW	-25.6	-16.7	-25.6	746.0	0.024	0.000	21.2	5	-20.1	17.9	1.25	 .0734	23	1	100.0	1
08/06/24	6:09	-16.6	-16.6	-16.6	75	-20.0	10.4	NNW	0.17	11.3	NNW	-25.9	-16.6	-25.9	745.9	0.024	0.000	21.2	5	-20.1	17.9	1.25	 .0734	24	1	100.0	1
08/06/24	6:10	-16.6	-16.6	-16.6	74	-20.1	10.4	NNW	0.17	11.3	NNW	-25.9	-16.6	-25.9	745.9	0.024	0.000	21.2	5	-20.1	17.9	1.25	 .0734	23	1	100.0	1
08/06/24	6:11	-16.6	-16.5	-16.6	74	-20.1	10.4	NNW	0.17	12.2	NW	-25.9	-16.6	-25.9	745.9	0.024	0.000	21.2	5	-20.1	17.9	1.25	 .0734	23	1	100.0	1
08/06/24	6:12	-16.6	-16.6	-16.6	74	-20.1	10.4	NNW	0.17	11.3	NNW	-25.9	-16.6	-25.9	745.9	0.024	0.000	21.2	5	-20.1	17.9	1.25	 .0734	24	1	100.0	1
08/06/24	6:13	-16.6	-16.6	-16.6	74	-20.1	10.4	NNW	0.17	11.3	NNW	-25.9	-16.6	-25.9	745.8	0.024	0.000	21.2	5	-20.1	17.9	1.25	 .0734	23	1	100.0	1
08/06/24	6:14	-16.5	-16.5	-16.5	74	-20.1	8.7	NNW	0.14	10.4	NNW	-25.0	-16.6	-25.1	745.8	0.024	0.000	21.2	5	-20.1	17.9	1.25	 .0734	24	1	100.0	1
08/06/24	6:15	-16.5	-16.5	-16.5	74	-20.1	8.7	NNW	0.14	9.6	NNW	-25.0	-16.6	-25.1	745.9	0.024	0.000	21.2	5	-20.0	17.9	1.25	 .0734	23	1	100.0	1
08/06/24	6:16	-16.4	-16.4	-16.5	74	-20.0	8.7	NNW	0.14	9.6	NNW	-24.9	-16.5	-25.0	745.8	0.024	0.000	21.2	5	-20.0	17.9	1.25	 .0734	23	1	100.0	1
08/06/24	6:17	-16.4	-16.4	-16.4	74	-20.0	7.8	NNW	0.13	8.7	NNW	-24.4	-16.5	-24.5	745.8	0.024	0.000	21.2	5	-20.0	17.9	1.25	 .0734	24	1	100.0	1
08/06/24	6:18	-16.4	-16.4	-16.4	75	-19.8	8.7	N	0.14	9.6	N	-24.8	-16.4	-24.9	745.8	0.024	0.000	21.2	5	-20.0	17.9	1.25	 .0734	23	1	100.0	1
08/06/24	6:19	-16.4	-16.4	-16.4	75	-19.8	7.8	NNW	0.13	8.7	N	-24.4	-16.5	-24.5	745.8	0.024	0.000	21.2	5	-20.0	17.9	1.25	 .0734	24	1	100.0	1
08/06/24	6:20	-16.4	-16.4	-16.4	75	-19.8	7.8	NNW	0.13	9.6	NNW	-24.4	-16.4	-24.4	745.8	0.024	0.000	21.2	5	-20.0	17.9	1.25	 .0734	23	1	100.0	1
08/06/24	6:21	-16.4	-16.4	-16.4	75	-19.8	9.6	NNW	0.16	10.4	NNW	-25.3	-16.4	-25.3	745.8	0.024	0.000	21.2	5	-20.0	17.9	1.25	 .0734	24	1	100.0	1
08/06/24	6:22	-16.3	-16.3	-16.4	75	-19.7	9.6	NNW	0.16	11.3	N	-25.2	-16.4	-25.3	745.8	0.024	0.000	21.2	5	-20.0	17.9	1.25	 .0734	23	1	100.0	1
08/06/24	6:23	-16.3	-16.3	-16.3	75	-19.7	7.8	NNW	0.13	8.7	NNW	-24.3	-16.3	-24.3	745.8	0.024	0.000	21.2	5	-20.0	17.9	1.25	 .0734	23	1	100.0	1
08/06/24	6:24	-16.3	-16.3	-16.3	75	-19.7	7.8	NNW	0.13	8.7	NNW	-24.3	-16.3	-24.3	745.7	0.024	0.000	21.2	5	-20.0	17.9	1.25	 .0734	24	1	100.0	1
08/06/24	6:25	-16.3	-16.2	-16.3	75	-19.7	7.8	NNW	0.13	9.6	NNW	-24.3	-16.3	-24.3	745.7	0.024	0.000	21.2	5	-20.0	17.9	1.25	 .0734	23	1	100.0	1
08/06/24	6:26	-16.3	-16.3	-16.3	75	-19.7	7.8	N	0.13	8.7	N	-24.3	-16.3	-24.3	745.6	0.024	0.000	21.2	5	-20.1	17.9	1.25	 .0734	24	1	100.0	1
08/06/24	6:27	-16.3	-16.3	-16.3	75	-19.7	8.7	N	0.14	9.6	N	-24.7	-16.3	-24.8	745.6	0.024	0.000	21.2	5	-20.1	17.9	1.25	 .0734	23	1	100.0	1
08/06/24	6:28	-16.3	-16.3	-16.3	75	-19.7	8.7	NNW	0.14	9.6	NNW	-24.7	-16.3	-24.8	745.6	0.024	0.000	21.2	5	-20.1	17.9	1.25	 .0734	23	1	100.0	1
08/06/24	6:29	-16.3	-16.3	-16.3	75	-19.7	9.6	NNW	0.16	10.4	NNW	-25.2	-16.3	-25.2	745.6	0.024	0.000	21.1	5	-20.1	17.8	1.25	 .0734	24	1	100.0	1
08/06/24	6:30	-16.3	-16.3	-16.3	75	-19.7	8.7	NNW	0.14	9.6	NNW	-24.7	-16.3	-24.8	745.6	0.024	0.000	21.1	5	-20.1	17.8	1.25	 .0734	23	1	100.0	1
08/06/24	6:31	-16.2	-16.2	-16.3	75	-19.6	8.7	NNW	0.14	10.4	NNW	-24.7	-16.3	-24.7	745.5	0.024	0.000	21.1	5	-20.1	17.8	1.25	 .0734	24	1	100.0	1
08/06/24	6:32	-16.2	-16.2	-16.2	75	-19.6	7.8	NNW	0.13	8.7	NNW	-24.2	-16.3	-24.2	745.5	0.024	0.000	21.1	5	-20.1	17.8	1.25	 .0734	23	1	100.0	1
08/06/24	6:33	-16.2	-16.2	-16.2	75	-19.6	7.8	NNW	0.13	8.7	NNW	-24.2	-16.3	-24.2	745.5	0.024	0.000	21.1	5	-20.1	17.8	1.25	 .0734	23	1	100.0	1
08/06/24	6:34	-16.2	-16.2	-16.2	74	-19.8	7.8	NNW	0.13	8.7	NNW	-24.2	-16.3	-24.2	745.5	0.024	0.000	21.1	5	-20.1	17.7	1.25	 .0734	24	1	100.0	1
08/06/24	6:35	-16.2	-16.2	-16.2	74	-19.8	8.7	NNW	0.14	10.4	NNW	-24.7	-16.3	-24.7	745.5	0.024	0.000	21.1	5	-20.1	17.7	1.25	 .0734	23	1	100.0	1
08/06/24	6:36	-16.2	-16.2	-16.2	74	-19.8	7.8	NNW	0.13	8.7	NNW	-24.2	-16.3	-24.2	745.5	0.024	0.000	21.1	5	-20.1	17.7	1.25	 .0734	24	1	100.0	1
08/06/24	6:37	-16.3	-16.2	-16.3	74	-19.8	7.8	NNW	0.13	8.7	NNW	-24.3	-16.3	-24.3	745.5	0.024	0.000	21.1	5	-20.1	17.7	1.25	 .0734	23	1	100.0	1
08/06/24	6:38	-16.3	-16.3	-16.3	73	-20.0	7.0	NNW	0.12	7.8	NNW	-23.7	-16.3	-23.8	745.5	0.024	0.000	21.0	5	-20.2	17.7	1.25	 .0734	24	1	100.0	1
08/06/24	6:39	-16.3	-16.3	-16.3	73	-20.0	7.8	NNW	0.13	8.7	NNW	-24.3	-16.3	-24.3	745.5	0.024	0.000	21.0	5	-20.2	17.7	1.25	 .0734	23	1	100.0	1
08/06/24	6:40	-16.3	-16.3	-16.3	73	-20.0	7.8	NNW	0.13	8.7	N	-24.3	-16.3	-24.3	745.5	0.024	0.000	21.0	5	-20.2	17.7	1.25	 .0734	23	1	100.0	1
08/06/24	6:41	-16.3	-16.3	-16.3	73	-20.0	8.7	NNW	0.14	9.6	NNW	-24.7	-16.3	-24.8	745.5	0.024	0.000	21.0	5	-20.2	17.7	1.25	 .0734	24	1	100.0	1
08/06/24	6:42	-16.3	-16.2	-16.3	73	-20.0	8.7	NNW	0.14	9.6	NNW	-24.7	-16.3	-24.8	745.4	0.024	0.000	21.0	5	-20.2	17.7	1.25	 .0734	23	1	100.0	1
08/06/24	6:43	-16.2	-16.2	-16.2	73	-19.9	9.6	NNW	0.16	9.6	NNW	-25.1	-16.3	-25.1	745.4	0.024	0.000	21.0	5	-20.2	17.7	1.25	 .0734	24	1	100.0	1
08/06/24	6:44	-16.2	-16.2	-16.2	72	-20.0	9.6	NNW	0.16	10.4	NNW	-25.0	-16.3	-25.1	745.4	0.024	0.000	21.0	5	-20.2	17.7	1.25	 .0734	23	1	100.0	1
08/06/24	6:45	-16.2	-16.2	-16.2	72	-20.0	8.7	NNW	0.14	10.4	NNW	-24.6	-16.3	-24.7	745.3	0.024	0.000	21.0	5	-20.2	17.7	1.25	 .0734	23	1	100.0	1
08/06/24	6:46	-16.2	-16.2	-16.2	72	-20.0	9.6	NNW	0.16	11.3	NNW	-25.0	-16.3	-25.1	745.3	0.024	0.000	21.0	5	-20.2	17.7	1.25	 .0734	24	1	100.0	1
08/06/24	6:47	-16.2	-16.2	-16.2	71	-20.2	9.6	NNW	0.16	10.4	NNW	-25.0	-16.3	-25.1	745.3	0.024	0.000	21.0	5	-20.2	17.7	1.25	 .0734	23	1	100.0	1
08/06/24	6:48	-16.2	-16.2	-16.2	71	-20.2	9.6	NNW	0.16	10.4	NNW	-25.0	-16.3	-25.1	745.3	0.024	0.000	21.0	5	-20.2	17.7	1.25	 .0734	24	1	100.0	1
08/06/24	6:49	-16.2	-16.2	-16.2	70	-20.4	8.7	NNW	0.14	9.6	NNW	-24.6	-16.3	-24.7	745.3	0.024	0.000	21.0	5	-20.2	17.7	1.25	 .0734	23	1	100.0	1
08/06/24	6:50	-16.2	-16.2	-16.2	70	-20.4	9.6	N	0.16	10.4	NNW	-25.0	-16.3	-25.1	745.3	0.024	0.000	21.0	5	-20.2	17.7	1.25	 .0734	24	1	100.0	1
08/06/24	6:51	-16.2	-16.2	-16.2	70	-20.4	9.6	NNW	0.16	10.4	NNW	-25.0	-16.3	-25.1	745.3	0.024	0.000	21.0	5	-20.2	17.7	1.25	 .0734	23	1	100.0	1
08/06/24	6:52	-16.2	-16.2	-16.2	70	-20.4	9.6	NNW	0.16	10.4	NNW	-25.0	-16.3	-25.1	745.3	0.024	0.000	21.0	5	-20.2	17.7	1.25	 .0734	23	1	100.0	1
08/06/24	6:53	-16.2	-16.2	-16.2	70	-20.4	9.6	NNW	0.16	10.4	NNW	-25.0	-16.3	-25.1	745.3	0.024	0.000	21.0	5	-20.2	17.7	1.25	 .0734	24	1	100.0	1
08/06/24	6:54	-16.2	-16.2	-16.2	70	-20.4	9.6	NNW	0.16	10.4	NNW	-25.0	-16.3	-25.1	745.3	0.024	0.000	21.0	5	-20.2	17.7	1.25	 .0734	23	1	100.0	1
08/06/24	6:55	-16.2	-16.2	-16.2	70	-20.4	10.4	NNW	0.17	11.3	N	-25.4	-16.3	-25.5	745.3	0.024	0.000	21.0	5	-20.2	17.7	1.25	 .0734	24	1	100.0	1
08/06/24	6:56	-16.2	-16.2	-16.2	69	-20.5	9.6	NNW	0.16	11.3	NNW	-25.0	-16.3	-25.1	745.2	0.024	0.000	21.1	5	-20.1	17.7	1.25	 .0734	23	1	100.0	1
08/06/24	6:57	-16.1	-16.1	-16.2	69	-20.5	9.6	N	0.16	10.4	NNW	-24.9	-16.2	-25.1	745.3	0.024	0.000	21.1	5	-20.1	17.7	1.25	 .0734	23	1	100.0	1
08/06/24	6:58	-16.2	-16.1	-16.2	69	-20.5	10.4	NNW	0.17	11.3	NNW	-25.4	-16.3	-25.5	745.3	0.024	0.000	21.1	5	-20.1	17.7	1.25	 .0734	24	1	100.0	1
08/06/24	6:59	-16.1	-16.1	-16.2	69	-20.5	10.4	N	0.17	11.3	NNW	-25.3	-16.2	-25.4	745.2	0.024	0.000	21.1	5	-20.1	17.7	1.25	 .0734	23	1	100.0	1
08/06/24	7:00	-16.1	-16.1	-16.1	69	-20.5	10.4	NNW	0.17	11.3	NNW	-25.3	-16.2	-25.4	745.2	0.024	0.000	21.1	5	-20.1	17.7	1.25	 .0734	24	1	100.0	1
08/06/24	7:01	-16.1	-16.1	-16.1	69	-20.5	9.6	N	0.16	10.4	N	-24.9	-16.2	-25.1	745.2	0.024	0.000	21.1	5	-20.1	17.7	1.25	 .0734	23	1	100.0	1
08/06/24	7:02	-16.1	-16.1	-16.2	68	-20.7	10.4	NNW	0.17	11.3	N	-25.3	-16.2	-25.4	745.2	0.024	0.000	21.1	5	-20.1	17.8	1.25	 .0734	24	1	100.0	1
08/06/24	7:03	-16.2	-16.2	-16.2	68	-20.7	9.6	N	0.16	10.4	N	-25.0	-16.3	-25.1	745.2	0.024	0.000	21.1	5	-20.1	17.8	1.25	 .0734	23	1	100.0	1
08/06/24	7:04	-16.2	-16.2	-16.2	67	-20.9	9.6	N	0.16	10.4	N	-25.0	-16.3	-25.1	745.2	0.024	0.000	21.1	5	-20.1	17.8	1.25	 .0734	23	1	100.0	1
08/06/24	7:05	-16.2	-16.2	-16.2	67	-20.9	9.6	N	0.16	11.3	N	-25.0	-16.3	-25.1	745.2	0.024	0.000	21.1	5	-20.1	17.8	1.25	 .0734	24	1	100.0	1
08/06/24	7:06	-16.2	-16.2	-16.2	66	-21.1	10.4	N	0.17	11.3	NNW	-25.4	-16.3	-25.5	745.2	0.024	0.000	21.1	5	-20.1	17.8	1.25	 .0734	23	1	100.0	1
08/06/24	7:07	-16.1	-16.1	-16.2	66	-20.9	10.4	N	0.17	10.4	NNW	-25.3	-16.2	-25.4	745.2	0.024	0.000	21.1	5	-20.1	17.8	1.25	 .0734	24	1	100.0	1
08/06/24	7:08	-16.1	-16.1	-16.1	66	-20.9	11.3	NNW	0.19	11.3	N	-25.6	-16.2	-25.7	745.1	0.024	0.000	21.1	5	-20.1	17.8	1.25	 .0734	23	1	100.0	1
08/06/24	7:09	-15.9	-15.9	-16.1	64	-21.2	10.4	NNW	0.17	11.3	NNW	-25.1	-16.1	-25.2	745.1	0.024	0.000	21.1	5	-20.1	17.8	1.25	 .0734	23	1	100.0	1
08/06/24	7:10	-15.9	-15.9	-15.9	63	-21.4	10.4	N	0.17	10.4	N	-25.1	-16.1	-25.2	745.2	0.024	0.000	21.2	5	-20.1	17.9	1.25	 .0734	24	1	100.0	1
08/06/24	7:11	-15.9	-15.9	-16.0	63	-21.4	9.6	NNW	0.16	10.4	NNW	-24.7	-16.1	-24.8	745.2	0.024	0.000	21.2	5	-20.1	17.9	1.25	 .0734	23	1	100.0	1
08/06/24	7:12	-15.9	-15.9	-15.9	62	-21.6	9.6	N	0.16	10.4	N	-24.7	-16.1	-24.8	745.2	0.024	0.000	21.2	5	-20.1	17.9	1.25	 .0734	24	1	100.0	1
08/06/24	7:13	-15.9	-15.9	-15.9	62	-21.6	9.6	N	0.16	9.6	N	-24.7	-16.1	-24.8	745.1	0.024	0.000	21.2	5	-20.1	17.9	1.25	 .0734	23	1	100.0	1
08/06/24	7:14	-15.9	-15.9	-15.9	62	-21.5	9.6	N	0.16	10.4	N	-24.7	-16.0	-24.8	745.1	0.024	0.000	21.2	5	-20.1	17.9	1.25	 .0734	24	1	100.0	1
08/06/24	7:15	-15.8	-15.8	-15.9	61	-21.6	10.4	N	0.17	11.3	N	-25.0	-15.9	-25.1	745.1	0.024	0.000	21.2	5	-20.1	17.9	1.25	 .0733	23	1	100.0	1
08/06/24	7:16	-15.8	-15.8	-15.8	61	-21.6	10.4	NNW	0.17	10.4	NNW	-24.9	-15.9	-25.0	745.1	0.024	0.000	21.2	5	-20.1	17.9	1.25	 .0733	23	1	100.0	1
08/06/24	7:17	-15.7	-15.7	-15.8	61	-21.5	10.4	N	0.17	11.3	N	-24.8	-15.8	-24.9	745.1	0.024	0.000	21.2	5	-20.1	17.9	1.25	 .0733	24	1	100.0	1
08/06/24	7:18	-15.7	-15.7	-15.7	61	-21.5	9.6	NNW	0.16	10.4	NNW	-24.4	-15.8	-24.5	745.1	0.024	0.000	21.2	5	-20.1	17.9	1.25	 .0733	23	1	100.0	1
08/06/24	7:19	-15.7	-15.6	-15.7	61	-21.5	9.6	NNW	0.16	10.4	NNW	-24.4	-15.8	-24.5	745.0	0.024	0.000	21.2	5	-20.1	17.9	1.25	 .0733	24	1	100.0	1
08/06/24	7:20	-15.6	-15.6	-15.7	63	-21.1	8.7	NNW	0.14	9.6	NNW	-23.9	-15.7	-24.0	745.0	0.024	0.000	21.2	5	-20.1	17.9	1.25	 .0733	23	1	100.0	1
08/06/24	7:21	-15.6	-15.6	-15.6	64	-20.9	9.6	NNW	0.16	10.4	NNW	-24.3	-15.7	-24.4	745.0	0.024	0.000	21.2	5	-20.0	17.9	1.25	 .0733	23	1	100.0	1
08/06/24	7:22	-15.6	-15.6	-15.6	65	-20.6	9.6	NNW	0.16	10.4	NNW	-24.2	-15.7	-24.3	745.0	0.024	0.000	21.2	5	-20.0	17.9	1.25	 .0733	24	1	100.0	1
08/06/24	7:23	-15.6	-15.6	-15.6	66	-20.5	9.6	NNW	0.16	10.4	NNW	-24.2	-15.7	-24.3	745.0	0.024	0.000	21.2	5	-20.0	17.9	1.25	 .0733	23	1	100.0	1
08/06/24	7:24	-15.6	-15.6	-15.6	67	-20.3	8.7	NNW	0.14	9.6	NNW	-23.8	-15.7	-23.9	745.0	0.024	0.000	21.2	5	-20.0	17.9	1.25	 .0733	24	1	100.0	1
08/06/24	7:25	-15.6	-15.6	-15.6	67	-20.3	8.7	NNW	0.14	9.6	NNW	-23.8	-15.7	-23.9	745.0	0.024	0.000	21.2	5	-20.0	17.9	1.25	 .0733	23	1	100.0	1
08/06/24	7:26	-15.6	-15.6	-15.6	69	-20.0	8.7	NNW	0.14	9.6	NNW	-23.8	-15.7	-23.9	745.0	0.024	0.000	21.2	5	-20.0	17.9	1.25	 .0733	23	1	100.0	1
08/06/24	7:27	-15.6	-15.6	-15.6	69	-20.0	7.8	NNW	0.13	9.6	NNW	-23.4	-15.7	-23.5	745.0	0.024	0.000	21.2	5	-20.0	17.9	1.25	 .0733	24	1	100.0	1
08/06/24	7:28	-15.5	-15.5	-15.5	70	-19.7	8.7	NNW	0.14	9.6	NNW	-23.8	-15.6	-23.9	744.9	0.023	0.000	21.2	5	-20.1	17.9	1.25	 .0733	23	1	100.0	1
08/06/24	7:29	-15.5	-15.5	-15.5	70	-19.7	7.8	NNW	0.13	8.7	NNW	-23.3	-15.6	-23.4	744.9	0.023	0.000	21.2	5	-20.1	17.9	1.25	 .0733	24	1	100.0	1
08/06/24	7:30	-15.5	-15.5	-15.5	70	-19.7	7.8	NNW	0.13	8.7	NNW	-23.3	-15.6	-23.4	744.9	0.023	0.000	21.2	5	-20.1	17.9	1.25	 .0733	23	1	100.0	1
08/06/24	7:31	-15.5	-15.5	-15.5	71	-19.6	8.7	NNW	0.14	9.6	NNW	-23.8	-15.6	-23.9	744.9	0.023	0.000	21.2	5	-20.1	17.9	1.25	 .0733	24	1	100.0	1
08/06/24	7:32	-15.5	-15.5	-15.5	71	-19.6	7.8	NNW	0.13	8.7	NNW	-23.3	-15.6	-23.4	744.9	0.023	0.000	21.2	5	-20.1	17.9	1.25	 .0733	23	1	100.0	1
08/06/24	7:33	-15.4	-15.4	-15.5	71	-19.5	8.7	NNW	0.14	9.6	NNW	-23.7	-15.6	-23.8	744.9	0.023	0.000	21.1	5	-20.1	17.8	1.25	 .0733	23	1	100.0	1
08/06/24	7:34	-15.4	-15.4	-15.4	71	-19.5	7.8	NNW	0.13	8.7	NNW	-23.2	-15.6	-23.3	744.9	0.023	0.000	21.1	5	-20.1	17.8	1.25	 .0733	24	1	100.0	1
08/06/24	7:35	-15.4	-15.4	-15.4	71	-19.5	7.8	NNW	0.13	7.8	NNW	-23.2	-15.5	-23.3	744.9	0.023	0.000	21.1	5	-20.1	17.8	1.25	 .0733	23	1	100.0	1
08/06/24	7:36	-15.4	-15.4	-15.4	72	-19.4	7.8	NNW	0.13	8.7	NNW	-23.2	-15.6	-23.3	744.9	0.023	0.000	21.1	5	-20.1	17.8	1.25	 .0733	24	1	100.0	1
08/06/24	7:37	-15.4	-15.4	-15.4	72	-19.3	7.8	NNW	0.13	8.7	NNW	-23.2	-15.5	-23.3	744.9	0.023	0.000	21.1	5	-20.1	17.7	1.25	 .0734	23	1	100.0	1
08/06/24	7:38	-15.4	-15.4	-15.4	72	-19.3	7.8	NNW	0.13	8.7	NNW	-23.2	-15.5	-23.3	744.9	0.023	0.000	21.1	5	-20.1	17.7	1.25	 .0734	23	1	100.0	1
08/06/24	7:39	-15.4	-15.4	-15.4	72	-19.3	7.8	NNW	0.13	8.7	NW	-23.2	-15.5	-23.3	744.9	0.023	0.000	21.1	5	-20.1	17.7	1.25	 .0734	24	1	100.0	1
08/06/24	7:40	-15.4	-15.3	-15.4	72	-19.3	7.0	NNW	0.12	7.8	NNW	-22.7	-15.5	-22.8	744.9	0.023	0.000	21.1	5	-20.1	17.7	1.25	 .0734	23	1	100.0	1
08/06/24	7:41	-15.3	-15.3	-15.4	73	-19.1	7.0	NW	0.12	7.8	NNW	-22.6	-15.4	-22.7	744.9	0.023	0.000	21.1	5	-20.1	17.7	1.25	 .0734	24	1	100.0	1
08/06/24	7:42	-15.3	-15.3	-15.3	73	-19.1	6.1	NW	0.10	7.0	NNW	-22.1	-15.4	-22.2	744.9	0.023	0.000	21.1	5	-20.1	17.7	1.25	 .0734	23	1	100.0	1
08/06/24	7:43	-15.4	-15.3	-15.4	73	-19.1	6.1	NNW	0.10	7.8	NW	-22.1	-15.5	-22.2	744.9	0.023	0.000	21.1	5	-20.1	17.7	1.25	 .0734	24	1	100.0	1
08/06/24	7:44	-15.3	-15.3	-15.4	73	-19.1	7.0	NNW	0.12	8.7	NNW	-22.6	-15.4	-22.7	744.8	0.023	0.000	21.1	5	-20.1	17.7	1.25	 .0734	23	1	100.0	1
08/06/24	7:45	-15.3	-15.3	-15.4	73	-19.1	6.1	NW	0.10	7.8	NNW	-22.1	-15.4	-22.2	744.8	0.023	0.000	21.1	5	-20.1	17.7	1.25	 .0733	23	1	100.0	1
08/06/24	7:46	-15.4	-15.3	-15.4	73	-19.1	6.1	NW	0.10	8.7	NW	-22.1	-15.5	-22.2	744.8	0.023	0.000	21.0	5	-20.2	17.7	1.25	 .0734	24	1	100.0	1
08/06/24	7:47	-15.4	-15.4	-15.4	74	-19.0	5.2	NW	0.09	7.0	NW	-21.6	-15.5	-21.6	744.8	0.023	0.000	21.1	5	-20.1	17.7	1.25	 .0733	23	1	100.0	1
08/06/24	7:48	-15.5	-15.4	-15.5	74	-19.1	5.2	NNW	0.09	7.0	NNW	-21.6	-15.6	-21.7	744.7	0.023	0.000	21.1	5	-20.1	17.7	1.25	 .0733	24	1	100.0	1
08/06/24	7:49	-15.4	-15.4	-15.5	73	-19.2	5.2	NW	0.09	7.0	NW	-21.6	-15.6	-21.7	744.7	0.023	0.000	21.0	5	-20.2	17.7	1.25	 .0733	23	1	100.0	1
08/06/24	7:50	-15.4	-15.4	-15.4	74	-19.0	6.1	NW	0.10	7.8	NW	-22.2	-15.5	-22.2	744.7	0.023	0.000	21.1	5	-20.1	17.7	1.25	 .0733	23	1	100.0	1
08/06/24	7:51	-15.4	-15.4	-15.5	74	-19.0	6.1	NW	0.10	7.8	NW	-22.2	-15.5	-22.2	744.7	0.023	0.000	21.1	5	-20.1	17.7	1.25	 .0733	24	1	100.0	1
08/06/24	7:52	-15.5	-15.4	-15.5	74	-19.1	4.3	NW	0.07	5.2	NW	-20.9	-15.6	-20.9	744.7	0.023	0.000	21.1	5	-20.1	17.7	1.25	 .0733	23	1	100.0	1
08/06/24	7:53	-15.5	-15.5	-15.5	74	-19.1	4.3	NNW	0.07	7.0	NW	-20.9	-15.6	-20.9	744.7	0.023	0.000	21.1	5	-20.1	17.7	1.25	 .0733	24	1	100.0	1
08/06/24	7:54	-15.5	-15.5	-15.5	74	-19.1	5.2	NW	0.09	7.0	NW	-21.6	-15.6	-21.7	744.7	0.023	0.000	21.1	5	-20.1	17.7	1.25	 .0733	23	1	100.0	1
08/06/24	7:55	-15.6	-15.6	-15.6	74	-19.1	5.2	NW	0.09	7.0	NW	-21.7	-15.6	-21.7	744.7	0.024	0.000	21.1	5	-20.1	17.7	1.25	 .0733	23	1	100.0	1
08/06/24	7:56	-15.6	-15.6	-15.6	74	-19.1	7.0	NNW	0.12	7.8	NW	-22.9	-15.6	-22.9	744.7	0.024	0.000	21.1	5	-20.1	17.7	1.25	 .0733	24	1	100.0	1
08/06/24	7:57	-15.5	-15.5	-15.6	74	-19.1	6.1	NNW	0.10	7.0	NNW	-22.2	-15.6	-22.3	744.7	0.023	0.000	21.1	5	-20.1	17.7	1.25	 .0733	23	1	100.0	1
08/06/24	7:58	-15.4	-15.4	-15.5	74	-19.0	5.2	NNW	0.09	7.0	NNW	-21.6	-15.5	-21.6	744.6	0.023	0.000	21.1	5	-20.1	17.7	1.25	 .0733	24	1	100.0	1
08/06/24	7:59	-15.4	-15.4	-15.4	74	-19.0	5.2	NNW	0.09	7.0	NNW	-21.6	-15.5	-21.6	744.6	0.023	0.000	21.1	5	-20.1	17.7	1.25	 .0733	23	1	100.0	1
08/06/24	8:00	-15.4	-15.4	-15.4	74	-19.0	6.1	NNW	0.10	7.8	NNW	-22.1	-15.4	-22.2	744.6	0.023	0.000	21.1	5	-20.1	17.8	1.25	 .0733	24	1	100.0	1
08/06/24	8:01	-15.3	-15.3	-15.4	74	-18.9	7.0	NNW	0.12	7.8	NNW	-22.6	-15.4	-22.7	744.6	0.023	0.000	21.1	5	-20.1	17.8	1.25	 .0733	23	1	100.0	1
08/06/24	8:02	-15.3	-15.3	-15.3	74	-18.9	5.2	NW	0.09	7.8	NW	-21.4	-15.4	-21.5	744.6	0.023	0.000	21.1	5	-20.1	17.8	1.25	 .0733	23	1	100.0	1
08/06/24	8:03	-15.3	-15.3	-15.3	75	-18.8	6.1	NW	0.10	7.8	NNW	-22.1	-15.4	-22.1	744.5	0.023	0.000	21.1	5	-20.1	17.8	1.25	 .0733	24	1	100.0	1
08/06/24	8:04	-15.3	-15.3	-15.3	75	-18.7	7.0	NNW	0.12	8.7	NW	-22.5	-15.3	-22.6	744.6	0.023	0.000	21.1	5	-20.1	17.8	1.25	 .0733	23	1	100.0	1
08/06/24	8:05	-15.3	-15.3	-15.3	75	-18.7	6.1	NW	0.10	7.8	NW	-21.9	-15.3	-22.0	744.5	0.023	0.000	21.1	5	-20.1	17.8	1.25	 .0733	24	1	100.0	1
08/06/24	8:06	-15.2	-15.2	-15.2	75	-18.7	5.2	NW	0.09	7.0	NNW	-21.3	-15.3	-21.4	744.5	0.023	0.000	21.2	5	-20.1	17.9	1.25	 .0733	23	1	100.0	1
08/06/24	8:07	-15.2	-15.2	-15.2	75	-18.7	5.2	NNW	0.09	7.0	NNW	-21.3	-15.3	-21.4	744.5	0.023	0.000	21.1	5	-20.1	17.8	1.25	 .0733	23	1	100.0	1
08/06/24	8:08	-15.2	-15.2	-15.3	75	-18.7	5.2	NW	0.09	7.0	NW	-21.3	-15.3	-21.4	744.5	0.023	0.000	21.2	5	-20.1	17.9	1.25	 .0733	24	1	100.0	1
08/06/24	8:09	-15.3	-15.3	-15.3	75	-18.7	5.2	NNW	0.09	7.0	NNW	-21.3	-15.3	-21.4	744.5	0.023	0.000	21.2	5	-20.1	17.9	1.25	 .0733	23	1	100.0	1
08/06/24	8:10	-15.3	-15.3	-15.3	75	-18.8	6.1	NNW	0.10	7.8	NNW	-22.1	-15.4	-22.1	744.5	0.023	0.000	21.2	5	-20.1	17.9	1.25	 .0733	24	1	100.0	1
08/06/24	8:11	-15.3	-15.3	-15.3	75	-18.8	6.1	NNW	0.10	7.0	NNW	-22.1	-15.4	-22.1	744.5	0.023	0.000	21.2	5	-20.1	17.9	1.25	 .0733	23	1	100.0	1
08/06/24	8:12	-15.3	-15.3	-15.3	75	-18.8	6.1	NW	0.10	7.8	NW	-22.1	-15.4	-22.1	744.4	0.023	0.000	21.2	5	-20.1	17.9	1.25	 .0733	24	1	100.0	1
08/06/24	8:13	-15.4	-15.3	-15.4	75	-18.8	6.1	NW	0.10	7.8	NNW	-22.1	-15.4	-22.2	744.4	0.023	0.000	21.2	5	-20.1	17.9	1.25	 .0733	23	1	100.0	1
08/06/24	8:14	-15.4	-15.4	-15.4	75	-18.8	7.0	NW	0.12	7.8	NW	-22.7	-15.4	-22.7	744.4	0.023	0.000	21.2	5	-20.1	17.9	1.25	 .0733	23	1	100.0	1
08/06/24	8:15	-15.4	-15.4	-15.4	75	-18.8	5.2	NW	0.09	7.0	WNW	-21.5	-15.4	-21.6	744.4	0.023	0.000	21.2	5	-20.1	17.9	1.25	 .0733	24	1	100.0	1
08/06/24	8:16	-15.4	-15.4	-15.4	75	-18.8	4.3	NNW	0.07	5.2	NNW	-20.8	-15.4	-20.8	744.4	0.023	0.000	21.2	5	-20.1	17.9	1.25	 .0733	23	1	100.0	1
08/06/24	8:17	-15.4	-15.4	-15.4	75	-18.8	5.2	NNW	0.09	7.0	NNW	-21.5	-15.4	-21.6	744.4	0.023	0.000	21.2	5	-20.0	17.9	1.25	 .0733	24	1	100.0	1
08/06/24	8:18	-15.3	-15.3	-15.4	75	-18.8	5.2	NNW	0.09	7.0	NNW	-21.4	-15.4	-21.4	744.4	0.023	0.000	21.2	5	-20.1	17.9	1.25	 .0733	23	1	100.0	1
08/06/24	8:19	-15.3	-15.3	-15.4	75	-18.8	7.0	NNW	0.12	7.8	NNW	-22.6	-15.4	-22.7	744.3	0.023	0.000	21.2	5	-20.0	17.9	1.25	 .0733	23	1	100.0	1
08/06/24	8:20	-15.3	-15.3	-15.3	75	-18.7	6.1	NNW	0.10	7.8	NNW	-21.9	-15.3	-22.0	744.3	0.023	0.000	21.2	5	-20.1	17.9	1.25	 .0733	24	1	100.0	1
08/06/24	8:21	-15.3	-15.3	-15.3	75	-18.7	4.3	NNW	0.07	5.2	NW	-20.6	-15.3	-20.7	744.3	0.023	0.000	21.2	5	-20.1	17.9	1.25	 .0733	23	1	100.0	1
08/06/24	8:22	-15.3	-15.3	-15.3	75	-18.7	5.2	NNW	0.09	7.0	NNW	-21.3	-15.3	-21.4	744.3	0.023	0.000	21.2	5	-20.0	17.9	1.25	 .0733	24	1	100.0	1
08/06/24	8:23	-15.3	-15.3	-15.3	75	-18.7	6.1	NNW	0.10	7.0	NNW	-21.9	-15.3	-22.0	744.3	0.023	0.000	21.2	5	-20.1	17.9	1.25	 .0733	23	1	100.0	1
08/06/24	8:24	-15.3	-15.3	-15.3	75	-18.8	5.2	NNW	0.09	7.0	NNW	-21.4	-15.4	-21.4	744.3	0.023	0.000	21.2	5	-20.1	17.9	1.25	 .0733	24	1	100.0	1
08/06/24	8:25	-15.3	-15.3	-15.3	74	-18.9	5.2	NNW	0.09	7.0	NNW	-21.4	-15.4	-21.5	744.2	0.023	0.000	21.2	5	-20.1	17.9	1.25	 .0733	23	1	100.0	1
08/06/24	8:26	-15.3	-15.3	-15.3	74	-18.9	4.3	NW	0.07	7.0	NW	-20.7	-15.4	-20.8	744.3	0.023	0.000	21.2	5	-20.1	17.9	1.25	 .0733	23	1	100.0	1
08/06/24	8:27	-15.4	-15.3	-15.4	74	-19.0	5.2	NW	0.09	7.0	NW	-21.5	-15.4	-21.6	744.3	0.023	0.000	21.2	5	-20.1	17.9	1.25	 .0733	24	1	100.0	1
08/06/24	8:28	-15.4	-15.4	-15.4	74	-19.0	6.1	NW	0.10	8.7	NW	-22.2	-15.5	-22.2	744.2	0.023	0.000	21.2	5	-20.1	17.9	1.25	 .0733	23	1	100.0	1
08/06/24	8:29	-15.4	-15.4	-15.4	74	-19.0	4.3	NW	0.07	7.0	NW	-20.8	-15.4	-20.8	744.2	0.023	0.000	21.1	5	-20.1	17.8	1.25	 .0733	24	1	100.0	1
08/06/24	8:30	-15.3	-15.3	-15.4	74	-18.9	4.3	NNW	0.07	7.0	NW	-20.7	-15.4	-20.8	744.2	0.023	0.000	21.1	5	-20.1	17.8	1.25	 .0733	23	1	100.0	1
08/06/24	8:31	-15.3	-15.3	-15.3	74	-18.9	4.3	NNW	0.07	4.3	NNW	-20.7	-15.4	-20.8	744.2	0.023	0.000	21.1	5	-20.1	17.8	1.25	 .0733	23	1	100.0	1
08/06/24	8:32	-15.3	-15.3	-15.3	74	-18.9	4.3	NNW	0.07	4.3	NNW	-20.6	-15.4	-20.7	744.2	0.023	0.000	21.1	5	-20.1	17.7	1.25	 .0733	24	1	100.0	1
08/06/24	8:33	-15.3	-15.3	-15.3	74	-18.9	3.5	NW	0.06	4.3	NNW	-19.8	-15.4	-19.9	744.2	0.023	0.000	21.1	5	-20.1	17.8	1.25	 .0733	23	1	100.0	1
08/06/24	8:34	-15.3	-15.3	-15.3	74	-18.9	3.5	NW	0.06	4.3	NW	-19.8	-15.4	-19.9	744.2	0.023	0.000	21.1	5	-20.1	17.7	1.25	 .0733	24	1	100.0	1
08/06/24	8:35	-15.3	-15.3	-15.3	74	-18.9	3.5	NW	0.06	5.2	NW	-19.8	-15.4	-19.9	744.2	0.023	0.000	21.1	5	-20.1	17.7	1.25	 .0733	23	1	100.0	1
08/06/24	8:36	-15.4	-15.4	-15.4	74	-19.0	4.3	NW	0.07	5.2	NW	-20.8	-15.4	-20.8	744.2	0.023	0.000	21.1	5	-20.1	17.7	1.25	 .0733	23	1	100.0	1
08/06/24	8:37	-15.4	-15.4	-15.4	74	-19.0	3.5	NW	0.06	5.2	NW	-19.9	-15.4	-19.9	744.2	0.023	0.000	21.1	5	-20.1	17.7	1.25	 .0733	24	1	100.0	1
08/06/24	8:38	-15.4	-15.4	-15.4	74	-19.0	2.6	NW	0.04	3.5	NW	-18.8	-15.4	-18.9	744.1	0.023	0.000	21.1	5	-20.1	17.7	1.25	 .0733	23	1	100.0	1
08/06/24	8:39	-15.4	-15.4	-15.4	74	-19.0	3.5	NW	0.06	3.5	NW	-19.9	-15.4	-19.9	744.1	0.023	0.000	21.1	5	-20.1	17.7	1.25	 .0733	24	1	100.0	1
08/06/24	8:40	-15.3	-15.3	-15.4	74	-18.9	2.6	NW	0.04	3.5	NW	-18.8	-15.4	-18.9	744.1	0.023	0.000	21.1	5	-20.1	17.7	1.25	 .0733	23	1	100.0	1
08/06/24	8:41	-15.3	-15.3	-15.3	74	-18.9	3.5	NW	0.06	4.3	NW	-19.8	-15.4	-19.9	744.1	0.023	0.000	21.0	5	-20.2	17.7	1.25	 .0733	24	1	100.0	1
08/06/24	8:42	-15.3	-15.3	-15.3	74	-18.9	2.6	NW	0.04	3.5	NW	-18.8	-15.4	-18.9	744.1	0.023	0.000	21.0	5	-20.2	17.7	1.25	 .0733	23	1	100.0	1
08/06/24	8:43	-15.3	-15.3	-15.3	74	-18.9	2.6	NW	0.04	3.5	NW	-18.8	-15.4	-18.9	744.1	0.023	0.000	21.0	5	-20.2	17.7	1.25	 .0733	23	1	100.0	1
08/06/24	8:44	-15.3	-15.3	-15.3	74	-18.9	2.6	NW	0.04	2.6	NW	-18.7	-15.4	-18.8	744.1	0.023	0.000	21.0	5	-20.2	17.7	1.25	 .0733	24	1	100.0	1
08/06/24	8:45	-15.3	-15.3	-15.3	74	-18.9	1.7	NW	0.03	2.6	NW	-17.4	-15.4	-17.5	744.1	0.023	0.000	21.0	5	-20.2	17.7	1.25	 .0733	23	1	100.0	1
08/06/24	8:46	-15.3	-15.3	-15.3	74	-18.9	2.6	NW	0.04	2.6	NW	-18.7	-15.4	-18.8	744.1	0.023	0.000	21.0	5	-20.2	17.7	1.25	 .0733	24	1	100.0	1
08/06/24	8:47	-15.3	-15.3	-15.3	74	-18.9	1.7	NW	0.03	2.6	NW	-17.4	-15.4	-17.5	744.1	0.023	0.000	21.0	5	-20.2	17.7	1.25	 .0733	23	1	100.0	1
08/06/24	8:48	-15.3	-15.3	-15.3	74	-18.9	2.6	NW	0.04	2.6	NW	-18.7	-15.4	-18.8	744.0	0.023	0.000	21.1	5	-20.1	17.7	1.25	 .0733	23	1	100.0	1
08/06/24	8:49	-15.2	-15.2	-15.3	74	-18.8	2.6	NW	0.04	2.6	NW	-18.7	-15.3	-18.8	744.0	0.023	0.000	21.1	5	-20.1	17.7	1.25	 .0733	24	1	100.0	1
08/06/24	8:50	-15.2	-15.2	-15.2	74	-18.8	2.6	NW	0.04	2.6	NW	-18.7	-15.3	-18.8	744.0	0.023	0.000	21.1	5	-20.1	17.7	1.25	 .0733	23	1	100.0	1
08/06/24	8:51	-15.2	-15.2	-15.2	74	-18.8	2.6	NW	0.04	3.5	NW	-18.7	-15.3	-18.8	744.0	0.023	0.000	21.1	5	-20.1	17.7	1.25	 .0733	24	1	100.0	1
08/06/24	8:52	-15.2	-15.2	-15.2	74	-18.8	2.6	NW	0.04	2.6	NW	-18.6	-15.3	-18.7	744.0	0.023	0.000	21.1	5	-20.1	17.7	1.25	 .0733	23	1	100.0	1
08/06/24	8:53	-15.2	-15.2	-15.2	74	-18.8	3.5	NNW	0.06	5.2	NE	-19.7	-15.3	-19.8	744.0	0.023	0.000	21.1	5	-20.1	17.7	1.25	 .0733	24	1	100.0	1
08/06/24	8:54	-15.4	-15.2	-15.4	74	-19.0	7.0	ENE	0.12	8.7	ENE	-22.7	-15.4	-22.7	744.0	0.023	0.000	21.1	5	-20.1	17.7	1.25	 .0733	23	1	100.0	1
08/06/24	8:55	-15.7	-15.4	-15.7	73	-19.5	7.8	NE	0.13	10.4	NE	-23.6	-15.8	-23.6	744.0	0.024	0.000	21.1	5	-20.1	17.7	1.25	 .0733	23	1	100.0	1
08/06/24	8:56	-16.0	-15.8	-16.0	72	-19.9	8.7	NE	0.14	9.6	NE	-24.4	-16.1	-24.5	744.0	0.024	0.000	21.1	5	-20.1	17.7	1.25	 .0733	24	1	100.0	1
08/06/24	8:57	-16.3	-16.1	-16.3	72	-20.2	9.6	NE	0.16	10.4	NE	-25.2	-16.4	-25.3	744.0	0.024	0.000	21.1	5	-20.1	17.7	1.25	 .0733	23	1	100.0	1
08/06/24	8:58	-16.4	-16.3	-16.4	72	-20.3	9.6	NE	0.16	10.4	NE	-25.3	-16.6	-25.4	744.0	0.024	0.000	21.1	5	-20.1	17.8	1.25	 .0733	24	1	100.0	1
08/06/24	8:59	-16.6	-16.4	-16.6	72	-20.4	8.7	NE	0.14	9.6	ENE	-25.1	-16.7	-25.2	744.0	0.024	0.000	21.1	5	-20.1	17.8	1.25	 .0733	23	1	100.0	1
08/06/24	9:00	-16.7	-16.6	-16.7	72	-20.5	7.8	ENE	0.13	9.6	ENE	-24.7	-16.8	-24.8	744.0	0.024	0.000	21.1	5	-20.1	17.8	1.25	 .0733	24	1	100.0	1
08/06/24	9:01	-16.8	-16.7	-16.8	72	-20.6	7.8	NE	0.13	9.6	NE	-24.9	-16.9	-25.0	744.0	0.024	0.000	21.1	5	-20.1	17.8	1.25	 .0733	23	1	100.0	1
08/06/24	9:02	-16.8	-16.8	-16.8	73	-20.5	8.7	NE	0.14	10.4	NE	-25.4	-16.9	-25.4	744.0	0.024	0.000	21.1	5	-20.1	17.8	1.25	 .0733	23	1	100.0	1
08/06/24	9:03	-16.8	-16.8	-16.8	73	-20.5	6.1	NE	0.10	7.8	NE	-23.8	-16.8	-23.8	744.0	0.024	0.000	21.1	5	-20.1	17.8	1.25	 .0733	24	1	100.0	1
08/06/24	9:04	-16.7	-16.7	-16.8	73	-20.4	6.1	NE	0.10	7.8	NE	-23.7	-16.8	-23.8	744.0	0.024	0.000	21.1	5	-20.1	17.8	1.25	 .0733	23	1	100.0	1
08/06/24	9:05	-16.6	-16.6	-16.7	73	-20.3	5.2	NE	0.09	6.1	NE	-22.9	-16.7	-23.0	744.0	0.024	0.000	21.1	5	-20.1	17.8	1.25	 .0733	24	1	100.0	1
08/06/24	9:06	-16.5	-16.5	-16.6	74	-20.1	3.5	NE	0.06	5.2	NE	-21.2	-16.6	-21.2	743.9	0.024	0.000	21.1	5	-20.1	17.8	1.25	 .0732	23	1	100.0	1
08/06/24	9:07	-16.4	-16.4	-16.5	74	-19.9	3.5	NNE	0.06	4.3	NNE	-21.1	-16.4	-21.1	744.0	0.024	0.000	21.2	5	-20.1	17.9	1.25	 .0732	23	1	100.0	1
08/06/24	9:08	-16.3	-16.3	-16.4	74	-19.8	4.3	NNW	0.07	4.3	NNE	-21.8	-16.3	-21.8	744.0	0.024	0.000	21.2	5	-20.1	17.9	1.25	 .0732	24	1	100.0	1
08/06/24	9:09	-16.2	-16.2	-16.2	74	-19.7	4.3	NNW	0.07	5.2	NNW	-21.7	-16.2	-21.7	743.9	0.024	0.000	21.2	5	-20.1	17.9	1.25	 .0732	23	1	100.0	1
08/06/24	9:10	-15.9	-15.9	-16.1	74	-19.5	4.3	NNW	0.07	5.2	NNW	-21.4	-16.0	-21.4	743.9	0.024	0.000	21.2	5	-20.1	17.9	1.25	 .0732	24	1	100.0	1
08/06/24	9:11	-15.8	-15.8	-15.9	75	-19.2	5.2	NNW	0.09	7.0	NNW	-21.9	-15.8	-22.0	743.9	0.024	0.000	21.2	5	-20.1	17.9	1.25	 .0732	23	1	100.0	1
08/06/24	9:12	-15.7	-15.7	-15.8	75	-19.1	5.2	NNW	0.09	5.2	NNW	-21.8	-15.7	-21.9	743.9	0.024	0.000	21.2	5	-20.1	17.9	1.25	 .0732	23	1	100.0	1
08/06/24	9:13	-15.6	-15.6	-15.6	75	-19.0	5.2	NNW	0.09	7.0	NNW	-21.7	-15.6	-21.7	743.9	0.024	0.000	21.2	5	-20.1	17.9	1.25	 .0732	24	1	100.0	1
08/06/24	9:14	-15.4	-15.4	-15.5	75	-18.9	6.1	NNW	0.10	7.0	NNW	-22.2	-15.5	-22.2	743.8	0.023	0.000	21.2	5	-20.0	17.9	1.25	 .0732	23	1	100.0	1
08/06/24	9:15	-15.3	-15.3	-15.4	75	-18.8	5.2	NNW	0.09	7.0	NNW	-21.4	-15.4	-21.4	743.8	0.023	0.000	21.2	5	-20.1	17.9	1.25	 .0732	24	1	100.0	1
08/06/24	9:16	-15.3	-15.3	-15.3	74	-18.9	5.2	NNW	0.09	7.0	NNW	-21.3	-15.4	-21.4	743.8	0.023	0.000	21.2	5	-20.0	17.9	1.25	 .0732	23	1	100.0	1
08/06/24	9:17	-15.3	-15.3	-15.3	74	-18.9	5.2	NNW	0.09	7.0	NNW	-21.3	-15.4	-21.4	743.8	0.023	0.000	21.2	5	-20.0	17.9	1.25	 .0732	23	1	100.0	1
08/06/24	9:18	-15.2	-15.2	-15.2	74	-18.8	6.1	NNW	0.10	7.0	NNW	-21.9	-15.3	-22.0	743.8	0.023	0.000	21.2	5	-20.0	17.9	1.25	 .0732	24	1	100.0	1
08/06/24	9:19	-15.2	-15.2	-15.2	74	-18.8	6.1	NNW	0.10	7.0	NNW	-21.8	-15.3	-21.9	743.8	0.023	0.000	21.2	5	-20.0	17.9	1.25	 .0732	23	1	100.0	1
08/06/24	9:20	-15.2	-15.2	-15.2	74	-18.8	6.1	NNW	0.10	7.0	NNW	-21.8	-15.3	-21.9	743.8	0.023	0.000	21.2	5	-20.0	17.9	1.25	 .0732	24	1	100.0	1
08/06/24	9:21	-15.1	-15.1	-15.1	74	-18.7	5.2	NNW	0.09	7.0	NNW	-21.2	-15.2	-21.3	743.8	0.023	0.000	21.2	5	-20.1	17.9	1.25	 .0732	23	1	100.0	1
08/06/24	9:22	-15.1	-15.1	-15.1	74	-18.7	4.3	NNW	0.07	5.2	NNW	-20.4	-15.2	-20.6	743.8	0.023	0.000	21.2	5	-20.1	17.9	1.25	 .0732	24	1	100.0	1
08/06/24	9:23	-15.1	-15.1	-15.1	74	-18.7	4.3	NNW	0.07	5.2	NNW	-20.4	-15.2	-20.5	743.8	0.023	0.000	21.2	5	-20.1	17.9	1.25	 .0732	23	1	100.0	1
08/06/24	9:24	-15.1	-15.1	-15.1	74	-18.7	4.3	NNW	0.07	4.3	NNW	-20.4	-15.2	-20.5	743.8	0.023	0.000	21.2	5	-20.1	17.9	1.25	 .0732	23	1	100.0	1
08/06/24	9:25	-15.1	-15.1	-15.1	74	-18.7	4.3	NNW	0.07	4.3	NNW	-20.4	-15.2	-20.5	743.8	0.023	0.000	21.2	5	-20.1	17.9	1.25	 .0732	24	1	100.0	1
08/06/24	9:26	-15.1	-15.0	-15.1	74	-18.7	4.3	NNW	0.07	5.2	NNW	-20.4	-15.2	-20.5	743.8	0.023	0.000	21.2	5	-20.1	17.9	1.25	 .0732	23	1	100.0	1
08/06/24	9:27	-15.0	-15.0	-15.1	74	-18.6	4.3	NNW	0.07	4.3	NNW	-20.3	-15.1	-20.4	743.8	0.023	0.000	21.2	5	-20.1	17.9	1.25	 .0732	24	1	100.0	1
08/06/24	9:28	-15.0	-15.0	-15.0	74	-18.6	3.5	NNW	0.06	4.3	NNW	-19.4	-15.1	-19.6	743.7	0.023	0.000	21.2	5	-20.1	17.9	1.25	 .0732	23	1	100.0	1
08/06/24	9:29	-15.0	-15.0	-15.0	74	-18.6	4.3	NNW	0.07	4.3	NNW	-20.3	-15.1	-20.4	743.7	0.023	0.000	21.1	5	-20.1	17.8	1.25	 .0732	23	1	100.0	1
08/06/24	9:30	-14.9	-14.9	-15.0	74	-18.5	3.5	NNW	0.06	4.3	NNW	-19.4	-15.1	-19.5	743.7	0.023	0.000	21.1	5	-20.1	17.8	1.25	 .0732	24	1	100.0	1
08/06/24	9:31	-14.9	-14.9	-14.9	74	-18.5	3.5	NNW	0.06	4.3	NNW	-19.4	-15.1	-19.5	743.7	0.023	0.000	21.1	5	-20.1	17.8	1.25	 .0732	23	1	100.0	1
08/06/24	9:32	-14.9	-14.9	-14.9	74	-18.5	3.5	NNW	0.06	4.3	NNW	-19.4	-15.1	-19.5	743.7	0.023	0.000	21.1	5	-20.1	17.8	1.25	 .0732	24	1	100.0	1
08/06/24	9:33	-14.9	-14.9	-14.9	74	-18.5	3.5	NNW	0.06	4.3	NNW	-19.4	-15.1	-19.5	743.7	0.023	0.000	21.1	5	-20.1	17.8	1.25	 .0732	23	1	100.0	1
08/06/24	9:34	-14.9	-14.9	-14.9	74	-18.5	4.3	NNW	0.07	4.3	NNW	-20.2	-15.1	-20.3	743.7	0.023	0.000	21.1	5	-20.1	17.8	1.25	 .0732	24	1	100.0	1
08/06/24	9:35	-14.9	-14.9	-14.9	75	-18.4	4.3	NNW	0.07	7.0	NNW	-20.2	-15.1	-20.3	743.7	0.023	0.000	21.1	5	-20.1	17.8	1.25	 .0732	23	1	100.0	1
08/06/24	9:36	-15.0	-14.9	-15.0	74	-18.6	4.3	NNW	0.07	5.2	NNW	-20.3	-15.1	-20.4	743.6	0.023	0.000	21.1	5	-20.1	17.7	1.25	 .0732	23	1	100.0	1
08/06/24	9:37	-14.9	-14.9	-15.0	74	-18.5	3.5	NNW	0.06	5.2	NNW	-19.4	-15.1	-19.5	743.6	0.023	0.000	21.1	5	-20.1	17.7	1.25	 .0732	24	1	100.0	1
08/06/24	9:38	-15.0	-14.9	-15.0	74	-18.6	4.3	NNW	0.07	5.2	NNW	-20.3	-15.1	-20.4	743.6	0.023	0.000	21.1	5	-20.1	17.7	1.25	 .0732	23	1	100.0	1
08/06/24	9:39	-15.0	-15.0	-15.0	75	-18.4	4.3	NNW	0.07	5.2	NNW	-20.3	-15.1	-20.4	743.6	0.023	0.000	21.1	5	-20.1	17.7	1.25	 .0732	24	1	100.0	1
08/06/24	9:40	-15.0	-15.0	-15.0	75	-18.4	4.3	NNW	0.07	4.3	NNW	-20.3	-15.1	-20.4	743.6	0.023	0.000	21.1	5	-20.1	17.7	1.25	 .0732	23	1	100.0	1
08/06/24	9:41	-15.0	-15.0	-15.0	75	-18.4	4.3	NNW	0.07	5.2	NNW	-20.3	-15.1	-20.4	743.6	0.023	0.000	21.1	5	-20.1	17.7	1.25	 .0732	23	1	100.0	1
08/06/24	9:42	-15.0	-15.0	-15.0	75	-18.4	3.5	NNW	0.06	5.2	NNW	-19.4	-15.1	-19.6	743.6	0.023	0.000	21.1	5	-20.1	17.7	1.25	 .0732	24	1	100.0	1
08/06/24	9:43	-15.1	-15.0	-15.1	75	-18.5	3.5	NNW	0.06	3.5	NNW	-19.5	-15.2	-19.6	743.6	0.023	0.000	21.1	5	-20.1	17.7	1.25	 .0732	23	1	100.0	1
08/06/24	9:44	-15.1	-15.0	-15.1	75	-18.5	3.5	NNW	0.06	3.5	NNW	-19.5	-15.2	-19.6	743.6	0.023	0.000	21.1	5	-20.1	17.7	1.25	 .0732	24	1	100.0	1
08/06/24	9:45	-15.1	-15.1	-15.1	75	-18.5	3.5	NNW	0.06	4.3	NNW	-19.5	-15.2	-19.6	743.6	0.023	0.000	21.1	5	-20.1	17.7	1.25	 .0732	23	1	100.0	1
08/06/24	9:46	-15.1	-15.1	-15.1	75	-18.5	4.3	NNW	0.07	7.0	NNW	-20.4	-15.2	-20.5	743.6	0.023	0.000	21.1	5	-20.1	17.7	1.25	 .0732	24	1	100.0	1
08/06/24	9:47	-15.1	-15.1	-15.1	75	-18.5	4.3	NW	0.07	5.2	NW	-20.4	-15.2	-20.6	743.6	0.023	0.000	21.1	5	-20.1	17.8	1.25	 .0732	23	1	100.0	1
08/06/24	9:48	-15.2	-15.1	-15.2	75	-18.6	2.6	NW	0.04	4.3	NW	-18.6	-15.3	-18.7	743.6	0.023	0.000	21.1	5	-20.1	17.8	1.25	 .0732	23	1	100.0	1
08/06/24	9:49	-15.2	-15.2	-15.2	75	-18.6	2.6	NW	0.04	2.6	NW	-18.6	-15.3	-18.7	743.5	0.023	0.000	21.1	5	-20.1	17.8	1.25	 .0732	24	1	100.0	1
08/06/24	9:50	-15.2	-15.2	-15.2	75	-18.7	1.7	NW	0.03	2.6	NW	-17.3	-15.3	-17.4	743.6	0.023	0.000	21.1	5	-20.1	17.8	1.25	 .0732	23	1	100.0	1
08/06/24	9:51	-15.3	-15.2	-15.3	75	-18.7	2.6	NW	0.04	2.6	NW	-18.7	-15.3	-18.8	743.6	0.023	0.000	21.1	5	-20.1	17.8	1.25	 .0732	24	1	100.0	1
08/06/24	9:52	-15.3	-15.3	-15.3	75	-18.8	1.7	NW	0.03	2.6	NW	-17.4	-15.4	-17.5	743.5	0.023	0.000	21.1	5	-20.1	17.8	1.25	 .0732	23	1	100.0	1
08/06/24	9:53	-15.3	-15.3	-15.3	74	-18.9	1.7	NW	0.03	2.6	NW	-17.4	-15.4	-17.6	743.5	0.023	0.000	21.1	5	-20.1	17.8	1.25	 .0732	23	1	100.0	1
08/06/24	9:54	-15.4	-15.3	-15.4	74	-19.0	2.6	NW	0.04	2.6	NW	-18.8	-15.4	-18.9	743.5	0.023	0.000	21.1	5	-20.1	17.8	1.25	 .0732	24	1	100.0	1
08/06/24	9:55	-15.4	-15.4	-15.4	74	-19.0	1.7	NW	0.03	2.6	NW	-17.5	-15.4	-17.6	743.5	0.023	0.000	21.1	5	-20.1	17.8	1.25	 .0732	23	1	100.0	1
08/06/24	9:56	-15.4	-15.4	-15.4	74	-19.0	0.0	NW	0.00	0.9	NW	-15.4	-15.5	-15.5	743.5	0.023	0.000	21.1	5	-20.1	17.8	1.25	 .0732	24	1	100.0	1
08/06/24	9:57	-15.4	-15.4	-15.4	74	-19.0	0.9	NW	0.01	1.7	NW	-15.4	-15.5	-15.5	743.5	0.023	0.000	21.2	5	-20.1	17.9	1.25	 .0732	23	1	100.0	1
08/06/24	9:58	-15.5	-15.4	-15.5	74	-19.1	1.7	NW	0.03	2.6	NW	-17.6	-15.6	-17.7	743.5	0.023	0.000	21.2	5	-20.1	17.9	1.25	 .0732	24	1	100.0	1
08/06/24	9:59	-15.5	-15.5	-15.5	74	-19.1	2.6	NW	0.04	3.5	NW	-18.9	-15.6	-19.0	743.5	0.023	0.000	21.2	5	-20.1	17.9	1.25	 .0732	23	1	100.0	1
08/06/24	10:00	-15.6	-15.6	-15.6	74	-19.1	2.6	NW	0.04	2.6	NW	-19.1	-15.6	-19.1	743.4	0.024	0.000	21.2	5	-20.1	17.9	1.25	 .0732	23	1	100.0	1
08/06/24	10:01	-15.6	-15.6	-15.6	74	-19.2	2.6	NW	0.04	3.5	NW	-19.1	-15.7	-19.2	743.5	0.024	0.000	21.2	5	-20.1	17.9	1.25	 .0732	24	1	100.0	1
08/06/24	10:02	-15.6	-15.6	-15.6	74	-19.2	3.5	WNW	0.06	3.5	NW	-20.2	-15.7	-20.2	743.5	0.024	0.000	21.2	5	-20.1	17.9	1.25	 .0732	23	1	100.0	1
08/06/24	10:03	-15.6	-15.6	-15.6	74	-19.2	3.5	WNW	0.06	5.2	WNW	-20.2	-15.7	-20.2	743.5	0.024	0.000	21.2	5	-20.1	17.9	1.25	 .0732	24	1	100.0	1
08/06/24	10:04	-15.7	-15.6	-15.7	74	-19.2	2.6	W	0.04	3.5	W	-19.2	-15.7	-19.2	743.5	0.024	0.000	21.2	5	-20.1	17.9	1.25	 .0732	23	1	100.0	1
08/06/24	10:05	-15.6	-15.6	-15.7	74	-19.2	2.6	W	0.04	3.5	W	-19.1	-15.7	-19.2	743.5	0.024	0.000	21.2	5	-20.0	17.9	1.25	 .0732	23	1	100.0	1
08/06/24	10:06	-15.7	-15.6	-15.7	74	-19.2	2.6	W	0.04	3.5	W	-19.2	-15.7	-19.2	743.5	0.024	0.000	21.2	5	-20.0	17.9	1.25	 .0732	24	1	100.0	1
08/06/24	10:07	-15.7	-15.6	-15.7	74	-19.2	2.6	W	0.04	2.6	W	-19.2	-15.7	-19.2	743.5	0.024	0.000	21.2	5	-20.0	17.9	1.25	 .0732	23	1	100.0	1
08/06/24	10:08	-15.7	-15.7	-15.7	74	-19.2	2.6	W	0.04	2.6	W	-19.2	-15.7	-19.2	743.5	0.024	0.000	21.2	5	-20.0	17.9	1.25	 .0732	24	1	100.0	1
08/06/24	10:09	-15.7	-15.7	-15.7	74	-19.2	2.6	W	0.04	3.5	W	-19.2	-15.7	-19.2	743.5	0.024	0.000	21.2	5	-20.0	17.9	1.25	 .0732	23	1	100.0	1
08/06/24	10:10	-15.7	-15.7	-15.7	73	-19.4	2.6	W	0.04	2.6	W	-19.2	-15.7	-19.2	743.5	0.024	0.000	21.2	5	-20.0	17.9	1.25	 .0732	23	1	100.0	1
08/06/24	10:11	-15.7	-15.7	-15.7	73	-19.4	1.7	W	0.03	2.6	W	-17.8	-15.7	-17.8	743.5	0.024	0.000	21.2	5	-20.0	17.9	1.25	 .0732	24	1	100.0	1
08/06/24	10:12	-15.7	-15.7	-15.7	73	-19.5	1.7	W	0.03	2.6	W	-17.8	-15.8	-17.8	743.4	0.024	0.000	21.3	5	-20.0	18.1	1.25	 .0732	23	1	100.0	1
08/06/24	10:13	-15.7	-15.7	-15.7	73	-19.5	1.7	W	0.03	1.7	W	-17.8	-15.8	-17.8	743.4	0.024	0.000	21.2	5	-20.0	17.9	1.25	 .0732	24	1	100.0	1
08/06/24	10:14	-15.7	-15.7	-15.7	73	-19.5	1.7	W	0.03	2.6	W	-17.8	-15.8	-17.8	743.5	0.024	0.000	21.2	5	-20.0	17.9	1.25	 .0732	23	1	100.0	1
08/06/24	10:15	-15.7	-15.7	-15.7	73	-19.5	1.7	W	0.03	2.6	W	-17.8	-15.8	-17.8	743.4	0.024	0.000	21.2	5	-20.0	17.9	1.25	 .0732	24	1	100.0	1
08/06/24	10:16	-15.7	-15.7	-15.7	73	-19.5	1.7	W	0.03	1.7	W	-17.8	-15.8	-17.8	743.4	0.024	0.000	21.2	5	-20.0	17.9	1.25	 .0732	23	1	100.0	1
08/06/24	10:17	-15.7	-15.7	-15.7	73	-19.5	1.7	W	0.03	1.7	W	-17.8	-15.8	-17.8	743.4	0.024	0.000	21.2	5	-20.0	17.9	1.25	 .0732	23	1	100.0	1
08/06/24	10:18	-15.7	-15.7	-15.7	73	-19.5	0.9	W	0.01	0.9	W	-15.7	-15.8	-15.8	743.4	0.024	0.000	21.2	5	-20.0	17.9	1.25	 .0732	24	1	100.0	1
08/06/24	10:19	-15.7	-15.7	-15.7	73	-19.5	0.9	W	0.01	1.7	W	-15.7	-15.8	-15.8	743.4	0.024	0.000	21.2	5	-20.1	17.9	1.25	 .0732	23	1	100.0	1
08/06/24	10:20	-15.7	-15.7	-15.7	73	-19.5	0.9	W	0.01	0.9	W	-15.7	-15.8	-15.8	743.4	0.024	0.000	21.2	5	-20.1	17.9	1.25	 .0732	24	1	100.0	1
08/06/24	10:21	-15.7	-15.7	-15.7	73	-19.5	0.0	W	0.00	0.9	W	-15.7	-15.8	-15.8	743.4	0.024	0.000	21.2	5	-20.1	17.9	1.25	 .0732	23	1	100.0	1
08/06/24	10:22	-15.7	-15.7	-15.7	73	-19.5	0.0	---	0.00	0.0	---	-15.7	-15.8	-15.8	743.5	0.024	0.000	21.2	5	-20.1	17.9	1.25	 .0732	23	1	100.0	1
08/06/24	10:23	-15.7	-15.7	-15.7	73	-19.5	0.9	W	0.01	0.9	W	-15.7	-15.8	-15.8	743.4	0.024	0.000	21.2	5	-20.1	17.9	1.25	 .0732	24	1	100.0	1
08/06/24	10:24	-15.7	-15.7	-15.7	73	-19.5	0.9	W	0.01	0.9	W	-15.7	-15.8	-15.8	743.4	0.024	0.000	21.2	5	-20.1	17.9	1.25	 .0732	23	1	100.0	1
08/06/24	10:25	-15.7	-15.7	-15.7	73	-19.5	0.9	W	0.01	0.9	W	-15.7	-15.8	-15.8	743.4	0.024	0.000	21.1	5	-20.1	17.8	1.25	 .0732	24	1	100.0	1
08/06/24	10:26	-15.7	-15.7	-15.7	73	-19.5	0.0	W	0.00	0.9	W	-15.7	-15.8	-15.8	743.4	0.024	0.000	21.1	5	-20.1	17.8	1.25	 .0732	23	1	100.0	1
08/06/24	10:27	-15.8	-15.7	-15.8	73	-19.5	0.0	W	0.00	0.9	W	-15.8	-15.8	-15.8	743.4	0.024	0.000	21.1	5	-20.1	17.8	1.25	 .0732	24	1	100.0	1
08/06/24	10:28	-15.8	-15.8	-15.8	73	-19.5	0.0	W	0.00	0.9	W	-15.8	-15.8	-15.8	743.3	0.024	0.000	21.1	5	-20.1	17.8	1.25	 .0732	23	1	100.0	1
08/06/24	10:29	-15.8	-15.8	-15.8	73	-19.5	0.0	---	0.00	0.0	---	-15.8	-15.8	-15.8	743.3	0.024	0.000	21.1	5	-20.1	17.8	1.25	 .0732	23	1	100.0	1
08/06/24	10:30	-15.8	-15.8	-15.8	73	-19.6	1.7	W	0.03	2.6	W	-17.9	-15.9	-18.0	743.3	0.024	0.000	21.1	5	-20.1	17.8	1.25	 .0732	24	1	100.0	1
08/06/24	10:31	-15.8	-15.8	-15.8	73	-19.6	3.5	ENE	0.06	4.3	ENE	-20.4	-15.9	-20.4	743.3	0.024	0.000	21.1	5	-20.1	17.7	1.25	 .0732	23	1	100.0	1
08/06/24	10:32	-15.8	-15.8	-15.8	73	-19.6	2.6	ENE	0.04	3.5	ENE	-19.3	-15.9	-19.4	743.4	0.024	0.000	21.1	5	-20.1	17.8	1.25	 .0732	24	1	100.0	1
08/06/24	10:33	-15.8	-15.8	-15.8	73	-19.6	2.6	NE	0.04	5.2	NE	-19.3	-15.9	-19.4	743.3	0.024	0.000	21.1	5	-20.1	17.8	1.25	 .0732	23	1	100.0	1
08/06/24	10:34	-15.8	-15.8	-15.8	73	-19.6	1.7	NNE	0.03	2.6	NNE	-17.9	-15.9	-18.0	743.4	0.024	0.000	21.1	5	-20.1	17.8	1.25	 .0732	23	1	100.0	1
08/06/24	10:35	-15.8	-15.8	-15.8	73	-19.6	1.7	NNE	0.03	3.5	NNE	-17.9	-15.9	-18.0	743.3	0.024	0.000	21.1	5	-20.1	17.8	1.25	 .0732	24	1	100.0	1
08/06/24	10:36	-15.8	-15.8	-15.8	73	-19.6	3.5	NNE	0.06	6.1	NNE	-20.4	-15.9	-20.4	743.4	0.024	0.000	21.1	5	-20.1	17.8	1.25	 .0732	23	1	100.0	1
08/06/24	10:37	-15.8	-15.8	-15.8	73	-19.5	3.5	N	0.06	5.2	N	-20.3	-15.8	-20.4	743.3	0.024	0.000	21.1	5	-20.1	17.8	1.25	 .0732	24	1	100.0	1
08/06/24	10:38	-15.8	-15.8	-15.8	74	-19.4	3.5	NNW	0.06	4.3	NNW	-20.3	-15.8	-20.4	743.3	0.024	0.000	21.1	5	-20.1	17.8	1.25	 .0732	23	1	100.0	1
08/06/24	10:39	-15.8	-15.8	-15.8	74	-19.4	3.5	NNW	0.06	4.3	NNW	-20.3	-15.8	-20.4	743.3	0.024	0.000	21.1	5	-20.1	17.8	1.25	 .0732	23	1	100.0	1
08/06/24	10:40	-15.7	-15.7	-15.7	74	-19.3	2.6	NNW	0.04	3.5	NNW	-19.2	-15.8	-19.3	743.3	0.024	0.000	21.1	5	-20.1	17.8	1.25	 .0732	24	1	100.0	1
08/06/24	10:41	-15.7	-15.7	-15.7	74	-19.3	0.9	NNW	0.01	1.7	NNW	-15.7	-15.8	-15.8	743.3	0.024	0.000	21.2	5	-20.1	17.9	1.25	 .0732	23	1	100.0	1
08/06/24	10:42	-15.8	-15.7	-15.8	74	-19.4	2.6	N	0.04	3.5	N	-19.3	-15.8	-19.3	743.3	0.024	0.000	21.2	5	-20.1	17.9	1.25	 .0732	24	1	100.0	1
08/06/24	10:43	-15.7	-15.7	-15.8	74	-19.3	4.3	N	0.07	5.2	N	-21.2	-15.8	-21.2	743.3	0.024	0.000	21.2	5	-20.1	17.9	1.25	 .0732	23	1	100.0	1
08/06/24	10:44	-15.7	-15.7	-15.7	74	-19.3	3.5	N	0.06	4.3	N	-20.3	-15.8	-20.3	743.3	0.024	0.000	21.2	5	-20.1	17.9	1.25	 .0732	24	1	100.0	1
08/06/24	10:45	-15.7	-15.7	-15.7	74	-19.2	4.3	N	0.07	5.2	N	-21.1	-15.7	-21.1	743.3	0.024	0.000	21.2	5	-20.1	17.9	1.25	 .0732	23	1	100.0	1
08/06/24	10:46	-15.6	-15.6	-15.7	75	-19.0	4.3	N	0.07	5.2	N	-21.0	-15.7	-21.1	743.3	0.024	0.000	21.2	5	-20.1	17.9	1.25	 .0732	23	1	100.0	1
08/06/24	10:47	-15.6	-15.6	-15.6	75	-19.0	5.2	N	0.09	7.0	NNW	-21.7	-15.6	-21.7	743.3	0.024	0.000	21.2	5	-20.1	17.9	1.25	 .0732	24	1	100.0	1
08/06/24	10:48	-15.5	-15.5	-15.6	75	-18.9	6.1	NNW	0.10	7.8	NNW	-22.2	-15.6	-22.3	743.3	0.023	0.000	21.2	5	-20.1	17.9	1.25	 .0732	23	1	100.0	1
08/06/24	10:49	-15.4	-15.4	-15.5	75	-18.9	7.8	NW	0.13	8.7	NW	-23.2	-15.5	-23.3	743.3	0.023	0.000	21.2	5	-20.1	17.9	1.25	 .0732	24	1	100.0	1
08/06/24	10:50	-15.4	-15.4	-15.4	75	-18.8	5.2	NNW	0.09	7.0	NNW	-21.5	-15.4	-21.6	743.3	0.023	0.000	21.2	5	-20.1	17.9	1.25	 .0732	23	1	100.0	1
08/06/24	10:51	-15.4	-15.4	-15.4	75	-18.9	4.3	NNW	0.07	5.2	N	-20.8	-15.5	-20.9	743.3	0.023	0.000	21.2	5	-20.0	17.9	1.25	 .0732	23	1	100.0	1
08/06/24	10:52	-15.5	-15.4	-15.5	75	-18.9	5.2	NNW	0.09	7.0	NNW	-21.6	-15.6	-21.7	743.3	0.023	0.000	21.2	5	-20.0	17.9	1.25	 .0732	24	1	100.0	1
08/06/24	10:53	-15.5	-15.5	-15.5	75	-18.9	3.5	NNW	0.06	4.3	NNW	-20.1	-15.6	-20.1	743.2	0.023	0.000	21.2	5	-20.0	17.9	1.25	 .0732	23	1	100.0	1
08/06/24	10:54	-15.5	-15.5	-15.5	75	-18.9	4.3	NNW	0.07	5.2	NNW	-20.9	-15.6	-20.9	743.2	0.023	0.000	21.2	5	-20.0	17.9	1.25	 .0732	24	1	100.0	1
08/06/24	10:55	-15.4	-15.4	-15.5	75	-18.9	6.1	N	0.10	7.8	N	-22.2	-15.5	-22.2	743.2	0.023	0.000	21.3	5	-20.0	18.1	1.25	 .0731	23	1	100.0	1
08/06/24	10:56	-15.5	-15.4	-15.5	75	-18.9	7.0	NNW	0.12	7.8	NNW	-22.8	-15.6	-22.8	743.2	0.023	0.000	21.3	5	-20.0	18.1	1.25	 .0731	24	1	100.0	1
08/06/24	10:57	-15.5	-15.4	-15.5	75	-18.9	7.0	N	0.12	7.8	NNW	-22.8	-15.6	-22.8	743.2	0.023	0.000	21.3	5	-20.0	18.1	1.25	 .0731	23	1	100.0	1
08/06/24	10:58	-15.5	-15.5	-15.5	75	-18.9	5.2	N	0.09	7.0	N	-21.6	-15.6	-21.7	743.2	0.023	0.000	21.3	5	-20.0	18.1	1.25	 .0731	23	1	100.0	1
08/06/24	10:59	-15.5	-15.5	-15.5	75	-18.9	6.1	NNE	0.10	7.0	NNE	-22.2	-15.6	-22.3	743.2	0.023	0.000	21.3	5	-20.0	18.1	1.25	 .0731	24	1	100.0	1
08/06/24	11:00	-15.5	-15.5	-15.5	75	-18.9	7.0	NNE	0.12	7.8	NNE	-22.8	-15.6	-22.8	743.2	0.023	0.000	21.3	5	-20.0	18.1	1.25	 .0731	23	1	100.0	1
08/06/24	11:01	-15.4	-15.4	-15.5	75	-18.9	7.0	NNE	0.12	7.8	NNE	-22.7	-15.5	-22.8	743.2	0.023	0.000	21.3	5	-20.0	18.1	1.25	 .0731	24	1	100.0	1
08/06/24	11:02	-15.4	-15.4	-15.4	75	-18.8	7.0	NNE	0.12	9.6	NNE	-22.7	-15.4	-22.7	743.2	0.023	0.000	21.3	5	-20.0	18.1	1.25	 .0731	23	1	100.0	1
08/06/24	11:03	-15.4	-15.4	-15.4	75	-18.8	5.2	NNE	0.09	7.0	NNE	-21.5	-15.4	-21.6	743.2	0.023	0.000	21.3	5	-20.0	18.1	1.25	 .0731	23	1	100.0	1
08/06/24	11:04	-15.3	-15.3	-15.4	75	-18.8	6.1	NE	0.10	7.8	NE	-22.1	-15.4	-22.1	743.1	0.023	0.000	21.3	5	-20.0	18.1	1.25	 .0731	24	1	100.0	1
08/06/24	11:05	-15.3	-15.3	-15.4	75	-18.8	7.0	NNE	0.12	8.7	NE	-22.6	-15.4	-22.7	743.1	0.023	0.000	21.3	5	-19.9	18.2	1.25	 .0731	23	1	100.0	1
08/06/24	11:06	-15.3	-15.3	-15.3	75	-18.8	6.1	N	0.10	8.7	NNW	-22.1	-15.4	-22.1	743.2	0.023	0.000	21.3	5	-19.9	18.2	1.25	 .0731	24	1	100.0	1
08/06/24	11:07	-15.4	-15.3	-15.4	76	-18.7	6.1	NNW	0.10	7.8	NNW	-22.1	-15.4	-22.2	743.1	0.023	0.000	21.3	5	-20.0	18.1	1.25	 .0731	23	1	100.0	1
08/06/24	11:08	-15.4	-15.4	-15.4	76	-18.7	4.3	N	0.07	5.2	N	-20.8	-15.5	-20.9	743.2	0.023	0.000	21.3	5	-19.9	18.2	1.25	 .0731	24	1	100.0	1
08/06/24	11:09	-15.6	-15.4	-15.6	75	-19.0	3.5	N	0.06	5.2	N	-20.1	-15.6	-20.2	743.2	0.024	0.000	21.3	5	-20.0	18.1	1.25	 .0731	23	1	100.0	1
08/06/24	11:10	-15.6	-15.5	-15.6	75	-19.0	2.6	N	0.04	3.5	N	-19.1	-15.6	-19.1	743.1	0.024	0.000	21.3	5	-20.0	18.1	1.25	 .0731	23	1	100.0	1
08/06/24	11:11	-15.6	-15.6	-15.6	75	-19.0	5.2	N	0.09	7.8	N	-21.7	-15.6	-21.7	743.1	0.024	0.000	21.3	5	-20.0	18.1	1.25	 .0731	24	1	100.0	1
08/06/24	11:12	-15.6	-15.6	-15.6	75	-19.0	4.3	NNW	0.07	7.0	NNW	-21.0	-15.7	-21.1	743.2	0.024	0.000	21.3	5	-20.0	18.1	1.25	 .0731	23	1	100.0	1
08/06/24	11:13	-15.7	-15.7	-15.7	75	-19.1	3.5	NNW	0.06	3.5	NNW	-20.3	-15.8	-20.3	743.2	0.024	0.000	21.3	5	-20.0	18.1	1.25	 .0731	24	1	100.0	1
08/06/24	11:14	-15.8	-15.7	-15.8	75	-19.2	2.6	N	0.04	4.3	N	-19.3	-15.8	-19.3	743.1	0.024	0.000	21.3	5	-20.0	18.1	1.25	 .0731	23	1	100.0	1
08/06/24	11:15	-15.8	-15.8	-15.8	75	-19.3	3.5	N	0.06	4.3	N	-20.4	-15.9	-20.4	743.1	0.024	0.000	21.3	5	-20.0	18.1	1.25	 .0731	23	1	100.0	1
08/06/24	11:16	-15.8	-15.8	-15.8	75	-19.3	5.2	N	0.09	7.0	NNW	-22.0	-15.9	-22.1	743.1	0.024	0.000	21.2	5	-20.0	17.9	1.25	 .0731	24	1	100.0	1
08/06/24	11:17	-15.8	-15.8	-15.8	75	-19.3	5.2	N	0.09	5.2	NNW	-22.0	-15.9	-22.1	743.1	0.024	0.000	21.2	5	-20.0	17.9	1.25	 .0731	23	1	100.0	1
08/06/24	11:18	-15.9	-15.8	-15.9	76	-19.1	4.3	N	0.07	5.2	N	-21.3	-15.9	-21.4	743.1	0.024	0.000	21.2	5	-20.0	17.9	1.25	 .0731	24	1	100.0	1
08/06/24	11:19	-15.9	-15.9	-15.9	76	-19.1	3.5	N	0.06	5.2	N	-20.5	-15.9	-20.6	743.1	0.024	0.000	21.2	5	-20.0	17.9	1.25	 .0731	23	1	100.0	1
08/06/24	11:20	-15.9	-15.9	-15.9	76	-19.1	7.0	N	0.12	9.6	N	-23.3	-15.9	-23.3	743.1	0.024	0.000	21.2	5	-20.1	17.9	1.25	 .0732	23	1	100.0	1
08/06/24	11:21	-15.8	-15.8	-15.9	76	-19.1	7.8	N	0.13	8.7	N	-23.7	-15.9	-23.8	743.1	0.024	0.000	21.2	5	-20.1	17.9	1.25	 .0731	24	1	100.0	1
08/06/24	11:22	-15.8	-15.8	-15.8	76	-19.0	7.0	NNE	0.12	7.8	N	-23.1	-15.8	-23.2	743.1	0.024	0.000	21.2	5	-20.1	17.9	1.25	 .0731	23	1	100.0	1
08/06/24	11:23	-15.7	-15.7	-15.8	76	-19.0	6.1	N	0.10	7.8	N	-22.5	-15.8	-22.6	743.1	0.024	0.000	21.2	5	-20.1	17.9	1.25	 .0731	24	1	100.0	1
08/06/24	11:24	-15.7	-15.7	-15.7	76	-19.0	6.1	N	0.10	7.0	N	-22.5	-15.8	-22.6	743.1	0.024	0.000	21.2	5	-20.1	17.9	1.25	 .0731	23	1	100.0	1
08/06/24	11:25	-15.7	-15.7	-15.7	76	-18.9	7.8	N	0.13	8.7	N	-23.5	-15.7	-23.6	743.0	0.024	0.000	21.2	5	-20.1	17.9	1.25	 .0731	24	1	100.0	1
08/06/24	11:26	-15.6	-15.6	-15.7	76	-18.9	7.0	N	0.12	8.7	N	-22.9	-15.7	-23.0	743.0	0.024	0.000	21.2	5	-20.1	17.9	1.25	 .0731	23	1	100.0	1
08/06/24	11:27	-15.6	-15.6	-15.7	76	-18.9	8.7	N	0.14	9.6	N	-23.9	-15.7	-23.9	743.0	0.024	0.000	21.2	5	-20.1	17.9	1.25	 .0731	23	1	100.0	1
08/06/24	11:28	-15.6	-15.6	-15.6	76	-18.9	8.7	N	0.14	10.4	N	-23.9	-15.7	-23.9	743.0	0.024	0.000	21.2	5	-20.1	17.9	1.25	 .0731	24	1	100.0	1
08/06/24	11:29	-15.6	-15.6	-15.6	76	-18.9	7.0	N	0.12	7.8	N	-22.9	-15.7	-23.0	743.0	0.024	0.000	21.1	5	-20.1	17.8	1.25	 .0732	23	1	100.0	1
08/06/24	11:30	-15.6	-15.6	-15.6	76	-18.9	7.0	N	0.12	8.7	N	-22.9	-15.7	-23.0	743.0	0.024	0.000	21.1	5	-20.1	17.8	1.25	 .0732	24	1	100.0	1
08/06/24	11:31	-15.7	-15.6	-15.7	76	-18.9	6.1	N	0.10	7.8	N	-22.4	-15.7	-22.5	743.0	0.024	0.000	21.2	5	-20.1	17.9	1.25	 .0731	23	1	100.0	1
08/06/24	11:32	-15.7	-15.7	-15.7	76	-18.9	7.8	NNE	0.13	8.7	NNE	-23.5	-15.7	-23.6	742.9	0.024	0.000	21.1	5	-20.1	17.8	1.25	 .0731	23	1	100.0	1
08/06/24	11:33	-15.7	-15.7	-15.7	76	-18.9	7.8	NNE	0.13	8.7	NNE	-23.5	-15.7	-23.6	742.9	0.024	0.000	21.1	5	-20.1	17.8	1.25	 .0731	24	1	100.0	1
08/06/24	11:34	-15.7	-15.7	-15.7	76	-18.9	8.7	N	0.14	9.6	NNE	-23.9	-15.7	-24.0	742.9	0.024	0.000	21.1	5	-20.1	17.8	1.25	 .0731	23	1	100.0	1
08/06/24	11:35	-15.6	-15.6	-15.7	77	-18.7	7.8	N	0.13	8.7	N	-23.4	-15.6	-23.4	742.9	0.024	0.000	21.2	5	-20.1	17.9	1.25	 .0731	24	1	100.0	1
08/06/24	11:36	-15.5	-15.5	-15.6	77	-18.6	7.8	N	0.13	8.7	N	-23.3	-15.6	-23.3	742.9	0.023	0.000	21.2	5	-20.1	17.9	1.25	 .0731	23	1	100.0	1
08/06/24	11:37	-15.5	-15.4	-15.5	77	-18.6	7.0	N	0.12	8.7	N	-22.8	-15.6	-22.8	742.9	0.023	0.000	21.2	5	-20.1	17.9	1.25	 .0731	24	1	100.0	1
08/06/24	11:38	-15.4	-15.4	-15.4	77	-18.6	6.1	N	0.10	7.8	N	-22.2	-15.5	-22.2	743.0	0.023	0.000	21.2	5	-20.1	17.9	1.25	 .0731	23	1	100.0	1
08/06/24	11:39	-15.4	-15.4	-15.4	77	-18.6	6.1	N	0.10	7.8	N	-22.2	-15.5	-22.2	742.9	0.023	0.000	21.2	5	-20.1	17.9	1.25	 .0731	23	1	100.0	1
08/06/24	11:40	-15.4	-15.4	-15.4	77	-18.6	7.8	NNE	0.13	8.7	NNE	-23.2	-15.5	-23.3	742.9	0.023	0.000	21.2	5	-20.1	17.9	1.25	 .0731	24	1	100.0	1
08/06/24	11:41	-15.4	-15.4	-15.4	77	-18.6	7.8	NNE	0.13	8.7	NNE	-23.2	-15.5	-23.3	742.9	0.023	0.000	21.2	5	-20.1	17.9	1.25	 .0731	23	1	100.0	1
08/06/24	11:42	-15.4	-15.4	-15.4	77	-18.6	7.8	N	0.13	8.7	NNE	-23.2	-15.5	-23.3	742.8	0.023	0.000	21.2	5	-20.1	17.9	1.25	 .0731	24	1	100.0	1
08/06/24	11:43	-15.4	-15.4	-15.4	77	-18.6	7.8	N	0.13	8.7	N	-23.2	-15.5	-23.3	742.9	0.023	0.000	21.2	5	-20.1	17.9	1.25	 .0731	23	1	100.0	1
08/06/24	11:44	-15.4	-15.4	-15.4	77	-18.6	7.0	NNE	0.12	8.7	NNE	-22.7	-15.5	-22.8	742.8	0.023	0.000	21.2	5	-20.1	17.9	1.25	 .0731	23	1	100.0	1
08/06/24	11:45	-15.4	-15.4	-15.4	77	-18.6	8.7	NNE	0.14	9.6	NNE	-23.7	-15.5	-23.7	742.8	0.023	0.000	21.2	5	-20.1	17.9	1.25	 .0731	24	1	100.0	1
08/06/24	11:46	-15.4	-15.3	-15.4	78	-18.4	7.8	NNE	0.13	7.8	NNE	-23.2	-15.4	-23.2	742.8	0.023	0.000	21.2	5	-20.1	17.9	1.25	 .0731	23	1	100.0	1
08/06/24	11:47	-15.3	-15.3	-15.4	78	-18.3	7.8	NNE	0.13	8.7	NNE	-23.1	-15.4	-23.2	742.8	0.023	0.000	21.2	5	-20.0	17.9	1.25	 .0731	24	1	100.0	1
08/06/24	11:48	-15.3	-15.3	-15.4	78	-18.3	7.0	NNE	0.12	8.7	NNE	-22.6	-15.4	-22.7	742.8	0.023	0.000	21.2	5	-20.0	17.9	1.25	 .0731	23	1	100.0	1
08/06/24	11:49	-15.3	-15.3	-15.3	78	-18.3	7.0	NNE	0.12	7.8	NNE	-22.6	-15.4	-22.7	742.8	0.023	0.000	21.2	5	-20.0	17.9	1.25	 .0731	24	1	100.0	1
08/06/24	11:50	-15.4	-15.3	-15.4	78	-18.4	7.0	NNE	0.12	7.8	NE	-22.7	-15.4	-22.7	742.8	0.023	0.000	21.2	5	-20.0	17.9	1.25	 .0731	23	1	100.0	1
08/06/24	11:51	-15.4	-15.4	-15.4	78	-18.4	7.0	NNE	0.12	7.8	NNE	-22.7	-15.4	-22.7	742.8	0.023	0.000	21.2	5	-20.0	17.9	1.25	 .0731	23	1	100.0	1
08/06/24	11:52	-15.4	-15.4	-15.4	78	-18.4	7.0	NNE	0.12	7.8	NNE	-22.7	-15.4	-22.7	742.8	0.023	0.000	21.2	5	-20.0	17.9	1.25	 .0731	24	1	100.0	1
08/06/24	11:53	-15.4	-15.4	-15.4	78	-18.4	7.0	NNE	0.12	7.8	NNE	-22.7	-15.4	-22.7	742.8	0.023	0.000	21.2	5	-20.0	17.9	1.25	 .0731	23	1	100.0	1
08/06/24	11:54	-15.4	-15.4	-15.4	78	-18.4	6.1	NNE	0.10	7.8	NNE	-22.2	-15.5	-22.2	742.8	0.023	0.000	21.2	5	-20.0	17.9	1.25	 .0731	24	1	100.0	1
08/06/24	11:55	-15.4	-15.4	-15.4	78	-18.4	7.0	NNE	0.12	8.7	NNE	-22.7	-15.5	-22.8	742.8	0.023	0.000	21.3	5	-20.0	18.1	1.25	 .0731	23	1	100.0	1
08/06/24	11:56	-15.5	-15.4	-15.5	78	-18.5	7.8	N	0.13	8.7	N	-23.3	-15.6	-23.3	742.8	0.023	0.000	21.3	5	-20.0	18.1	1.25	 .0731	23	1	100.0	1
08/06/24	11:57	-15.6	-15.5	-15.6	78	-18.5	7.8	N	0.13	8.7	N	-23.4	-15.6	-23.4	742.8	0.024	0.000	21.3	5	-20.0	18.1	1.25	 .0731	24	1	100.0	1
08/06/24	11:58	-15.6	-15.6	-15.6	78	-18.5	7.0	N	0.12	7.8	N	-22.9	-15.6	-22.9	742.8	0.024	0.000	21.3	5	-20.0	18.1	1.25	 .0731	23	1	100.0	1
08/06/24	11:59	-15.6	-15.6	-15.6	78	-18.5	7.0	NNE	0.12	7.8	N	-22.9	-15.6	-22.9	742.8	0.024	0.000	21.3	5	-20.0	18.1	1.25	 .0731	24	1	100.0	1
08/06/24	12:00	-15.6	-15.6	-15.6	78	-18.5	5.2	N	0.09	7.0	N	-21.7	-15.6	-21.7	742.8	0.024	0.000	21.3	5	-20.0	18.1	1.25	 .0731	23	1	100.0	1
08/06/24	12:01	-15.6	-15.6	-15.6	78	-18.5	6.1	NNE	0.10	7.0	N	-22.3	-15.6	-22.3	742.8	0.024	0.000	21.3	5	-20.0	18.1	1.25	 .0731	23	1	100.0	1
08/06/24	12:02	-15.6	-15.6	-15.6	78	-18.6	7.0	NNE	0.12	7.8	NNE	-22.9	-15.7	-23.0	742.8	0.024	0.000	21.3	5	-20.0	18.1	1.25	 .0731	24	1	100.0	1
08/06/24	12:03	-15.6	-15.6	-15.6	78	-18.6	6.1	NNE	0.10	7.8	N	-22.4	-15.7	-22.4	742.8	0.024	0.000	21.2	5	-20.0	17.9	1.25	 .0731	23	1	100.0	1
08/06/24	12:04	-15.6	-15.6	-15.6	78	-18.6	5.2	N	0.09	7.0	N	-21.7	-15.7	-21.8	742.9	0.024	0.000	21.2	5	-20.0	17.9	1.25	 .0731	24	1	100.0	1
08/06/24	12:05	-15.6	-15.6	-15.6	78	-18.6	6.1	NNE	0.10	7.0	NNE	-22.4	-15.7	-22.4	742.9	0.024	0.000	21.2	5	-20.0	17.9	1.25	 .0731	23	1	100.0	1
08/06/24	12:06	-15.6	-15.6	-15.6	78	-18.6	5.2	NNE	0.09	6.1	N	-21.7	-15.7	-21.8	742.9	0.024	0.000	21.2	5	-20.0	17.9	1.25	 .0731	24	1	100.0	1
08/06/24	12:07	-15.6	-15.6	-15.6	78	-18.6	5.2	NNE	0.09	7.0	NNE	-21.7	-15.7	-21.8	742.9	0.024	0.000	21.2	5	-20.0	17.9	1.25	 .0731	23	1	100.0	1
08/06/24	12:08	-15.6	-15.6	-15.6	78	-18.6	5.2	N	0.09	7.0	N	-21.7	-15.7	-21.8	742.9	0.024	0.000	21.2	5	-20.0	17.9	1.25	 .0731	23	1	100.0	1
08/06/24	12:09	-15.6	-15.6	-15.7	78	-18.6	5.2	NNE	0.09	6.1	N	-21.7	-15.7	-21.8	742.9	0.024	0.000	21.2	5	-20.1	17.9	1.25	 .0731	24	1	100.0	1
08/06/24	12:10	-15.7	-15.7	-15.7	78	-18.6	4.3	NNE	0.07	4.3	NNE	-21.1	-15.7	-21.1	742.9	0.024	0.000	21.2	5	-20.1	17.9	1.25	 .0731	23	1	100.0	1
08/06/24	12:11	-15.7	-15.6	-15.7	79	-18.5	4.3	NNE	0.07	5.2	NNE	-21.1	-15.7	-21.1	742.9	0.024	0.000	21.2	5	-20.1	17.9	1.25	 .0731	24	1	100.0	1
08/06/24	12:12	-15.6	-15.6	-15.7	79	-18.4	4.3	NNE	0.07	5.2	NNE	-21.0	-15.7	-21.1	742.9	0.024	0.000	21.2	5	-20.1	17.9	1.25	 .0731	23	1	100.0	1
08/06/24	12:13	-15.7	-15.7	-15.7	78	-18.6	4.3	NNE	0.07	5.2	NNE	-21.1	-15.7	-21.1	742.9	0.024	0.000	21.1	5	-20.1	17.8	1.25	 .0731	23	1	100.0	1
08/06/24	12:14	-15.7	-15.7	-15.7	78	-18.6	5.2	NNE	0.09	5.2	NE	-21.8	-15.7	-21.9	742.9	0.024	0.000	21.1	5	-20.1	17.8	1.25	 .0731	24	1	100.0	1
08/06/24	12:15	-15.7	-15.7	-15.7	78	-18.6	4.3	NNE	0.07	5.2	NNE	-21.1	-15.7	-21.1	743.0	0.024	0.000	21.1	5	-20.1	17.8	1.25	 .0732	23	1	100.0	1
08/06/24	12:16	-15.7	-15.7	-15.7	78	-18.6	4.3	NE	0.07	4.3	NNE	-21.1	-15.7	-21.1	742.9	0.024	0.000	21.1	5	-20.1	17.8	1.25	 .0731	24	1	100.0	1
08/06/24	12:17	-15.7	-15.7	-15.7	78	-18.6	3.5	NE	0.06	4.3	NE	-20.2	-15.7	-20.3	743.0	0.024	0.000	21.1	5	-20.1	17.8	1.25	 .0732	23	1	100.0	1
08/06/24	12:18	-15.7	-15.7	-15.7	78	-18.6	5.2	NE	0.09	6.1	NE	-21.8	-15.7	-21.9	743.0	0.024	0.000	21.1	5	-20.1	17.8	1.25	 .0732	24	1	100.0	1
08/06/24	12:19	-15.8	-15.7	-15.8	79	-18.6	5.2	NE	0.09	6.1	NE	-21.9	-15.8	-22.0	743.0	0.024	0.000	21.1	5	-20.1	17.8	1.25	 .0732	23	1	100.0	1
08/06/24	12:20	-15.9	-15.8	-15.9	79	-18.7	5.2	NE	0.09	6.1	NE	-22.1	-15.9	-22.1	743.0	0.024	0.000	21.1	5	-20.1	17.7	1.25	 .0732	23	1	100.0	1
08/06/24	12:21	-16.0	-15.9	-16.0	79	-18.8	5.2	NE	0.09	6.1	ENE	-22.2	-16.1	-22.3	743.0	0.024	0.000	21.1	5	-20.1	17.8	1.25	 .0732	24	1	100.0	1
08/06/24	12:22	-16.1	-16.0	-16.1	79	-18.9	5.2	NE	0.09	6.1	NE	-22.3	-16.1	-22.3	743.0	0.024	0.000	21.1	5	-20.1	17.8	1.25	 .0732	23	1	100.0	1
08/06/24	12:23	-16.1	-16.1	-16.2	78	-19.1	6.1	ENE	0.10	7.0	ENE	-23.0	-16.2	-23.1	742.9	0.024	0.000	21.1	5	-20.1	17.8	1.25	 .0731	24	1	100.0	1
08/06/24	12:24	-16.2	-16.1	-16.2	78	-19.1	6.1	ENE	0.10	7.0	ENE	-23.1	-16.2	-23.1	743.0	0.024	0.000	21.1	5	-20.1	17.8	1.25	 .0732	23	1	100.0	1
08/06/24	12:25	-16.2	-16.2	-16.2	78	-19.1	5.2	ENE	0.09	7.0	ENE	-22.4	-16.2	-22.4	743.0	0.024	0.000	21.1	5	-20.1	17.8	1.25	 .0732	23	1	100.0	1
08/06/24	12:26	-16.2	-16.2	-16.2	78	-19.1	5.2	ENE	0.09	5.2	ENE	-22.4	-16.2	-22.4	742.9	0.024	0.000	21.1	5	-20.1	17.8	1.25	 .0731	24	1	100.0	1
08/06/24	12:27	-16.2	-16.2	-16.2	78	-19.1	4.3	ENE	0.07	5.2	ENE	-21.7	-16.2	-21.7	742.9	0.024	0.000	21.1	5	-20.1	17.8	1.25	 .0731	23	1	100.0	1
08/06/24	12:28	-16.2	-16.2	-16.2	78	-19.1	4.3	ENE	0.07	5.2	ENE	-21.7	-16.2	-21.7	742.9	0.024	0.000	21.1	5	-20.1	17.8	1.25	 .0731	24	1	100.0	1
08/06/24	12:29	-16.2	-16.2	-16.2	78	-19.1	4.3	NE	0.07	5.2	ENE	-21.7	-16.2	-21.7	742.9	0.024	0.000	21.1	5	-20.1	17.8	1.25	 .0731	23	1	100.0	1
08/06/24	12:30	-16.2	-16.2	-16.2	78	-19.1	5.2	NE	0.09	6.1	NE	-22.4	-16.2	-22.4	742.9	0.024	0.000	21.1	5	-20.1	17.8	1.25	 .0731	24	1	100.0	1
08/06/24	12:31	-16.1	-16.1	-16.2	78	-19.1	4.3	ENE	0.07	7.0	ENE	-21.6	-16.2	-21.7	742.9	0.024	0.000	21.1	5	-20.1	17.8	1.25	 .0731	23	1	100.0	1
08/06/24	12:32	-16.1	-16.1	-16.1	78	-19.0	3.5	ENE	0.06	4.3	ENE	-20.7	-16.1	-20.7	742.9	0.024	0.000	21.2	5	-20.1	17.9	1.25	 .0731	23	1	100.0	1
08/06/24	12:33	-16.1	-16.1	-16.1	78	-19.0	3.5	NE	0.06	3.5	ENE	-20.7	-16.1	-20.7	742.9	0.024	0.000	21.2	5	-20.1	17.9	1.25	 .0731	24	1	100.0	1
08/06/24	12:34	-16.0	-16.0	-16.1	79	-18.8	2.6	NE	0.04	3.5	NE	-19.6	-16.1	-19.6	742.9	0.024	0.000	21.2	5	-20.1	17.9	1.25	 .0731	23	1	100.0	1
08/06/24	12:35	-15.9	-15.9	-16.0	79	-18.7	2.6	NE	0.04	3.5	NE	-19.4	-16.0	-19.5	743.0	0.024	0.000	21.2	5	-20.1	17.9	1.25	 .0731	24	1	100.0	1
08/06/24	12:36	-15.9	-15.9	-15.9	79	-18.7	3.5	NE	0.06	5.2	NE	-20.6	-16.0	-20.6	742.9	0.024	0.000	21.2	5	-20.1	17.9	1.25	 .0731	23	1	100.0	1
08/06/24	12:37	-15.9	-15.9	-15.9	79	-18.7	3.5	ENE	0.06	4.3	ENE	-20.5	-15.9	-20.6	742.9	0.024	0.000	21.2	5	-20.1	17.9	1.25	 .0731	23	1	100.0	1
08/06/24	12:38	-15.8	-15.8	-15.9	79	-18.6	3.5	NE	0.06	5.2	NE	-20.4	-15.9	-20.4	742.9	0.024	0.000	21.2	5	-20.1	17.9	1.25	 .0731	24	1	100.0	1
08/06/24	12:39	-15.8	-15.8	-15.8	79	-18.6	2.6	NE	0.04	3.5	NE	-19.3	-15.9	-19.4	743.0	0.024	0.000	21.2	5	-20.0	17.9	1.25	 .0731	23	1	100.0	1
08/06/24	12:40	-15.8	-15.8	-15.8	79	-18.6	1.7	NE	0.03	2.6	NE	-17.8	-15.8	-17.9	743.0	0.024	0.000	21.2	5	-20.0	17.9	1.25	 .0731	24	1	100.0	1
08/06/24	12:41	-15.7	-15.7	-15.8	79	-18.5	1.7	NE	0.03	2.6	NE	-17.8	-15.8	-17.8	743.0	0.024	0.000	21.2	5	-20.1	17.9	1.25	 .0731	23	1	100.0	1
08/06/24	12:42	-15.7	-15.7	-15.7	79	-18.5	3.5	NE	0.06	4.3	NE	-20.2	-15.7	-20.3	743.0	0.024	0.000	21.2	5	-20.0	17.9	1.25	 .0731	23	1	100.0	1
08/06/24	12:43	-15.7	-15.7	-15.7	79	-18.5	4.3	NE	0.07	5.2	NE	-21.1	-15.7	-21.1	742.9	0.024	0.000	21.2	5	-20.0	17.9	1.25	 .0731	24	1	100.0	1
08/06/24	12:44	-15.7	-15.7	-15.7	79	-18.5	4.3	NE	0.07	4.3	NE	-21.2	-15.8	-21.2	743.0	0.024	0.000	21.2	5	-20.0	17.9	1.25	 .0731	23	1	100.0	1
08/06/24	12:45	-15.7	-15.7	-15.7	79	-18.5	4.3	NE	0.07	5.2	NE	-21.2	-15.8	-21.2	743.0	0.024	0.000	21.3	5	-20.0	18.1	1.25	 .0731	24	1	100.0	1
08/06/24	12:46	-15.8	-15.8	-15.8	79	-18.6	4.3	NE	0.07	5.2	NE	-21.2	-15.8	-21.3	743.0	0.024	0.000	21.3	5	-20.0	18.1	1.25	 .0731	23	1	100.0	1
08/06/24	12:47	-15.8	-15.8	-15.8	79	-18.6	3.5	NE	0.06	4.3	NE	-20.3	-15.8	-20.4	743.0	0.024	0.000	21.3	5	-20.0	18.1	1.25	 .0731	24	1	100.0	1
08/06/24	12:48	-15.8	-15.8	-15.8	79	-18.6	3.5	NE	0.06	4.3	NE	-20.3	-15.8	-20.4	743.1	0.024	0.000	21.3	5	-20.0	18.1	1.25	 .0731	23	1	100.0	1
08/06/24	12:49	-15.8	-15.8	-15.8	79	-18.6	3.5	NE	0.06	7.0	NNW	-20.4	-15.9	-20.4	743.0	0.024	0.000	21.3	5	-20.0	18.1	1.25	 .0731	23	1	100.0	1
08/06/24	12:50	-15.8	-15.8	-15.8	78	-18.7	3.5	N	0.06	5.2	NNW	-20.3	-15.8	-20.4	743.0	0.024	0.000	21.3	5	-20.0	18.1	1.25	 .0731	24	1	100.0	1
08/06/24	12:51	-15.8	-15.8	-15.8	78	-18.7	2.6	N	0.04	3.5	N	-19.3	-15.8	-19.3	743.0	0.024	0.000	21.3	5	-20.0	18.1	1.25	 .0731	23	1	100.0	1
08/06/24	12:52	-15.7	-15.7	-15.7	78	-18.7	3.5	N	0.06	5.2	N	-20.3	-15.8	-20.3	743.0	0.024	0.000	21.3	5	-20.0	18.1	1.25	 .0731	24	1	100.0	1
08/06/24	12:53	-15.7	-15.7	-15.7	78	-18.6	3.5	NNE	0.06	4.3	N	-20.2	-15.7	-20.3	743.0	0.024	0.000	21.3	5	-20.0	18.1	1.25	 .0731	23	1	100.0	1
08/06/24	12:54	-15.6	-15.6	-15.6	79	-18.4	3.5	NE	0.06	4.3	NE	-20.2	-15.7	-20.2	743.1	0.024	0.000	21.3	5	-20.0	18.1	1.25	 .0731	23	1	100.0	1
08/06/24	12:55	-15.6	-15.6	-15.6	79	-18.4	3.5	NE	0.06	4.3	NE	-20.2	-15.7	-20.2	743.0	0.024	0.000	21.3	5	-20.0	18.1	1.25	 .0731	24	1	100.0	1
08/06/24	12:56	-15.6	-15.6	-15.6	79	-18.4	3.5	NE	0.06	4.3	NE	-20.1	-15.6	-20.2	743.0	0.024	0.000	21.3	5	-20.0	18.1	1.25	 .0731	23	1	100.0	1
08/06/24	12:57	-15.6	-15.6	-15.6	79	-18.4	3.5	NE	0.06	6.1	N	-20.1	-15.6	-20.2	743.0	0.024	0.000	21.3	5	-20.0	18.1	1.25	 .0731	24	1	100.0	1
08/06/24	12:58	-15.6	-15.6	-15.6	79	-18.4	3.5	N	0.06	5.2	N	-20.1	-15.6	-20.2	743.0	0.024	0.000	21.3	5	-20.0	18.1	1.25	 .0731	23	1	100.0	1
08/06/24	12:59	-15.6	-15.6	-15.6	79	-18.4	3.5	NNE	0.06	4.3	NE	-20.1	-15.6	-20.2	743.1	0.024	0.000	21.3	5	-20.0	18.1	1.25	 .0731	24	1	100.0	1
08/06/24	13:00	-15.6	-15.5	-15.6	79	-18.4	2.6	NNW	0.04	4.3	N	-19.1	-15.6	-19.1	743.0	0.024	0.000	21.3	5	-20.0	18.1	1.25	 .0731	23	1	100.0	1
08/06/24	13:01	-15.6	-15.5	-15.6	79	-18.4	2.6	N	0.04	4.3	NE	-19.1	-15.6	-19.1	743.1	0.024	0.000	21.3	5	-20.0	18.1	1.25	 .0731	23	1	100.0	1
08/06/24	13:02	-15.6	-15.6	-15.6	79	-18.4	3.5	NE	0.06	4.3	NE	-20.1	-15.6	-20.2	743.1	0.024	0.000	21.2	5	-20.0	17.9	1.25	 .0731	24	1	100.0	1
08/06/24	13:03	-15.6	-15.6	-15.6	79	-18.4	4.3	N	0.07	7.0	N	-21.0	-15.7	-21.1	743.1	0.024	0.000	21.2	5	-20.0	17.9	1.25	 .0731	23	1	100.0	1
08/06/24	13:04	-15.6	-15.6	-15.6	79	-18.4	4.3	NNE	0.07	4.3	N	-21.0	-15.7	-21.1	743.1	0.024	0.000	21.2	5	-20.0	17.9	1.25	 .0731	24	1	100.0	1
08/06/24	13:05	-15.6	-15.6	-15.6	79	-18.4	6.1	N	0.10	8.7	N	-22.4	-15.7	-22.4	743.1	0.024	0.000	21.2	5	-20.0	17.9	1.25	 .0731	23	1	100.0	1
08/06/24	13:06	-15.6	-15.6	-15.6	79	-18.4	5.2	N	0.09	7.0	N	-21.7	-15.6	-21.7	743.1	0.024	0.000	21.2	5	-20.1	17.9	1.25	 .0731	23	1	100.0	1
08/06/24	13:07	-15.6	-15.6	-15.6	79	-18.4	5.2	N	0.09	7.0	N	-21.7	-15.6	-21.7	743.1	0.024	0.000	21.2	5	-20.1	17.9	1.25	 .0731	24	1	100.0	1
08/06/24	13:08	-15.5	-15.5	-15.6	79	-18.3	5.2	N	0.09	6.1	NNE	-21.6	-15.6	-21.7	743.1	0.023	0.000	21.2	5	-20.1	17.9	1.25	 .0731	23	1	100.0	1
08/06/24	13:09	-15.5	-15.5	-15.5	79	-18.3	4.3	N	0.07	4.3	N	-20.9	-15.6	-20.9	743.0	0.023	0.000	21.2	5	-20.1	17.9	1.25	 .0731	24	1	100.0	1
08/06/24	13:10	-15.4	-15.4	-15.5	79	-18.3	3.5	N	0.06	4.3	N	-19.9	-15.5	-20.0	743.0	0.023	0.000	21.2	5	-20.1	17.9	1.25	 .0731	23	1	100.0	1
08/06/24	13:11	-15.5	-15.4	-15.5	79	-18.3	4.3	N	0.07	7.0	N	-20.9	-15.6	-20.9	743.0	0.023	0.000	21.2	5	-20.1	17.9	1.25	 .0731	24	1	100.0	1
08/06/24	13:12	-15.5	-15.5	-15.5	79	-18.3	4.3	N	0.07	6.1	N	-20.9	-15.6	-20.9	743.0	0.023	0.000	21.2	5	-20.1	17.9	1.25	 .0731	23	1	100.0	1
08/06/24	13:13	-15.6	-15.5	-15.6	79	-18.4	5.2	N	0.09	7.0	N	-21.7	-15.6	-21.7	743.0	0.024	0.000	21.2	5	-20.1	17.9	1.25	 .0731	23	1	100.0	1
08/06/24	13:14	-15.6	-15.5	-15.6	79	-18.4	6.1	N	0.10	7.8	N	-22.3	-15.6	-22.3	743.0	0.024	0.000	21.2	5	-20.1	17.9	1.25	 .0731	24	1	100.0	1
08/06/24	13:15	-15.6	-15.6	-15.6	79	-18.4	7.0	N	0.12	7.8	N	-22.9	-15.6	-22.9	743.0	0.024	0.000	21.2	5	-20.0	17.9	1.25	 .0731	23	1	100.0	1
08/06/24	13:16	-15.5	-15.5	-15.6	79	-18.3	7.0	N	0.12	7.8	NNE	-22.8	-15.6	-22.8	743.0	0.023	0.000	21.2	5	-20.0	17.9	1.25	 .0731	24	1	100.0	1
08/06/24	13:17	-15.5	-15.5	-15.6	79	-18.3	6.1	NNE	0.10	8.7	N	-22.2	-15.6	-22.3	743.0	0.023	0.000	21.2	5	-20.0	17.9	1.25	 .0731	23	1	100.0	1
08/06/24	13:18	-15.5	-15.5	-15.5	79	-18.3	7.0	N	0.12	7.8	NNE	-22.8	-15.6	-22.8	743.0	0.023	0.000	21.2	5	-20.0	17.9	1.25	 .0731	23	1	100.0	1
08/06/24	13:19	-15.5	-15.5	-15.6	79	-18.3	4.3	N	0.07	5.2	N	-20.9	-15.6	-20.9	743.0	0.023	0.000	21.2	5	-20.0	17.9	1.25	 .0731	24	1	100.0	1
08/06/24	13:20	-15.6	-15.5	-15.6	79	-18.4	4.3	NNW	0.07	5.2	NNW	-20.9	-15.6	-21.0	743.0	0.024	0.000	21.2	5	-20.0	17.9	1.25	 .0731	23	1	100.0	1
08/06/24	13:21	-15.6	-15.6	-15.6	79	-18.4	5.2	NNW	0.09	7.0	N	-21.7	-15.6	-21.7	743.0	0.024	0.000	21.3	5	-20.0	18.1	1.25	 .0731	24	1	100.0	1
08/06/24	13:22	-15.6	-15.6	-15.6	79	-18.4	4.3	N	0.07	6.1	N	-20.9	-15.6	-21.0	743.0	0.024	0.000	21.3	5	-20.0	18.1	1.25	 .0731	23	1	100.0	1
08/06/24	13:23	-15.6	-15.6	-15.6	79	-18.4	4.3	N	0.07	5.2	N	-20.9	-15.6	-21.0	743.0	0.024	0.000	21.3	5	-20.0	18.1	1.25	 .0731	23	1	100.0	1
08/06/24	13:24	-15.6	-15.6	-15.6	79	-18.4	4.3	N	0.07	6.1	N	-21.0	-15.7	-21.1	743.0	0.024	0.000	21.3	5	-19.9	18.2	1.25	 .0731	24	1	100.0	1
08/06/24	13:25	-15.7	-15.6	-15.7	78	-18.6	4.3	N	0.07	5.2	N	-21.1	-15.7	-21.1	743.0	0.024	0.000	21.3	5	-19.9	18.2	1.25	 .0731	23	1	100.0	1
08/06/24	13:26	-15.7	-15.6	-15.7	78	-18.6	4.3	N	0.07	6.1	N	-21.1	-15.7	-21.1	743.0	0.024	0.000	21.3	5	-19.9	18.2	1.25	 .0731	24	1	100.0	1
08/06/24	13:27	-15.7	-15.7	-15.7	78	-18.6	3.5	NNE	0.06	4.3	NNE	-20.2	-15.7	-20.3	743.1	0.024	0.000	21.3	5	-19.9	18.2	1.25	 .0731	23	1	100.0	1
08/06/24	13:28	-15.7	-15.6	-15.7	78	-18.6	4.3	NNE	0.07	5.2	NNW	-21.1	-15.7	-21.1	743.1	0.024	0.000	21.4	5	-19.9	18.2	1.25	 .0731	24	1	100.0	1
08/06/24	13:29	-15.7	-15.7	-15.7	78	-18.6	6.1	NNW	0.10	9.6	N	-22.4	-15.7	-22.5	743.1	0.024	0.000	21.4	5	-19.9	18.2	1.25	 .0731	23	1	100.0	1
08/06/24	13:30	-15.6	-15.6	-15.7	79	-18.4	6.1	NNW	0.10	8.7	N	-22.4	-15.7	-22.4	743.1	0.024	0.000	21.4	5	-19.9	18.2	1.25	 .0731	23	1	100.0	1
08/06/24	13:31	-15.5	-15.5	-15.6	79	-18.3	5.2	NNW	0.09	7.8	NNW	-21.6	-15.6	-21.7	743.1	0.023	0.000	21.4	5	-19.9	18.2	1.25	 .0731	24	1	100.0	1
08/06/24	13:32	-15.5	-15.5	-15.6	79	-18.3	2.6	N	0.04	3.5	NNW	-18.9	-15.6	-19.0	743.1	0.023	0.000	21.4	5	-19.9	18.3	1.25	 .0731	23	1	100.0	1
08/06/24	13:33	-15.5	-15.4	-15.5	79	-18.3	3.5	NE	0.06	5.2	NE	-20.1	-15.6	-20.1	743.1	0.023	0.000	21.4	5	-19.9	18.3	1.25	 .0731	24	1	100.0	1
08/06/24	13:34	-15.6	-15.5	-15.6	79	-18.4	6.1	NE	0.10	7.8	NE	-22.4	-15.7	-22.4	743.1	0.024	0.000	21.4	5	-19.9	18.3	1.25	 .0731	23	1	100.0	1
08/06/24	13:35	-15.7	-15.7	-15.7	79	-18.5	5.2	NE	0.09	6.1	NE	-21.9	-15.8	-21.9	743.1	0.024	0.000	21.4	5	-19.9	18.3	1.25	 .0731	23	1	100.0	1
08/06/24	13:36	-15.8	-15.7	-15.8	79	-18.6	5.2	NE	0.09	6.1	NE	-22.0	-15.9	-22.1	743.1	0.024	0.000	21.4	5	-19.9	18.3	1.25	 .0731	24	1	100.0	1
08/06/24	13:37	-15.9	-15.8	-15.9	79	-18.7	6.1	ENE	0.10	7.8	ENE	-22.8	-16.0	-22.8	743.1	0.024	0.000	21.4	5	-19.9	18.3	1.25	 .0731	23	1	100.0	1
08/06/24	13:38	-16.0	-16.0	-16.0	79	-18.8	7.0	ENE	0.12	7.8	ENE	-23.4	-16.1	-23.4	743.0	0.024	0.000	21.4	5	-19.9	18.3	1.25	 .0731	24	1	100.0	1
08/06/24	13:39	-16.1	-16.1	-16.1	78	-19.0	7.8	ENE	0.13	8.7	ENE	-24.0	-16.1	-24.1	743.1	0.024	0.000	21.5	5	-19.8	18.4	1.25	 .0731	23	1	100.0	1
08/06/24	13:40	-16.2	-16.1	-16.2	78	-19.1	7.8	ENE	0.13	8.7	ENE	-24.1	-16.2	-24.2	743.1	0.024	0.000	21.5	5	-19.8	18.4	1.25	 .0731	24	1	100.0	1
08/06/24	13:41	-16.2	-16.2	-16.2	78	-19.2	6.1	ENE	0.10	7.8	ENE	-23.1	-16.3	-23.2	743.1	0.024	0.000	21.5	5	-19.8	18.4	1.25	 .0731	23	1	100.0	1
08/06/24	13:42	-16.3	-16.2	-16.3	79	-19.1	6.1	ENE	0.10	7.0	ENE	-23.2	-16.3	-23.2	743.1	0.024	0.000	21.5	5	-19.8	18.4	1.25	 .0731	23	1	100.0	1
08/06/24	13:43	-16.3	-16.3	-16.3	78	-19.3	3.5	ENE	0.06	4.3	E	-21.0	-16.4	-21.1	743.1	0.024	0.000	21.5	5	-19.8	18.4	1.25	 .0731	24	1	100.0	1
08/06/24	13:44	-16.3	-16.3	-16.3	78	-19.3	3.5	ENE	0.06	5.2	NE	-21.0	-16.4	-21.1	743.1	0.024	0.000	21.4	5	-19.9	18.3	1.25	 .0731	23	1	100.0	1
08/06/24	13:45	-16.3	-16.3	-16.3	78	-19.2	4.3	NE	0.07	5.2	NE	-21.8	-16.3	-21.8	743.1	0.024	0.000	21.4	5	-19.9	18.3	1.25	 .0731	24	1	100.0	1
08/06/24	13:46	-16.2	-16.2	-16.3	78	-19.1	2.6	NE	0.04	3.5	NE	-19.7	-16.2	-19.8	743.1	0.024	0.000	21.4	5	-19.9	18.3	1.25	 .0731	23	1	100.0	1
08/06/24	13:47	-16.1	-16.1	-16.2	78	-19.1	3.5	NNE	0.06	5.2	NNE	-20.7	-16.2	-20.8	743.1	0.024	0.000	21.4	5	-19.9	18.3	1.25	 .0731	23	1	100.0	1
08/06/24	13:48	-16.0	-16.0	-16.1	78	-19.0	2.6	NNE	0.04	3.5	NNE	-19.6	-16.1	-19.6	743.1	0.024	0.000	21.4	5	-19.9	18.2	1.25	 .0731	24	1	100.0	1
08/06/24	13:49	-15.9	-15.9	-16.0	78	-18.9	2.6	NNE	0.04	3.5	NE	-19.4	-16.0	-19.5	743.1	0.024	0.000	21.4	5	-19.9	18.2	1.25	 .0731	23	1	100.0	1
08/06/24	13:50	-15.8	-15.8	-15.9	78	-18.8	2.6	NE	0.04	4.3	ENE	-19.3	-15.9	-19.4	743.1	0.024	0.000	21.4	5	-19.9	18.2	1.25	 .0731	24	1	100.0	1
08/06/24	13:51	-15.8	-15.8	-15.8	78	-18.7	4.3	ENE	0.07	5.2	ENE	-21.2	-15.8	-21.3	743.1	0.024	0.000	21.4	5	-19.9	18.2	1.25	 .0731	23	1	100.0	1
08/06/24	13:52	-15.8	-15.8	-15.8	78	-18.8	5.2	ENE	0.09	6.1	ENE	-22.0	-15.9	-22.1	743.1	0.024	0.000	21.4	5	-19.9	18.2	1.25	 .0731	24	1	100.0	1
08/06/24	13:53	-15.8	-15.8	-15.8	78	-18.8	5.2	NE	0.09	5.2	ENE	-22.0	-15.9	-22.1	743.2	0.024	0.000	21.3	5	-19.9	18.2	1.25	 .0731	23	1	100.0	1
08/06/24	13:54	-15.8	-15.8	-15.8	78	-18.8	7.0	NE	0.12	8.7	NE	-23.2	-15.9	-23.3	743.2	0.024	0.000	21.3	5	-19.9	18.2	1.25	 .0731	23	1	100.0	1
08/06/24	13:55	-15.8	-15.8	-15.8	78	-18.8	5.2	NE	0.09	6.1	NE	-22.0	-15.9	-22.1	743.2	0.024	0.000	21.3	5	-19.9	18.2	1.25	 .0731	24	1	100.0	1
08/06/24	13:56	-15.8	-15.8	-15.8	78	-18.8	5.2	ENE	0.09	6.1	NE	-22.0	-15.9	-22.1	743.2	0.024	0.000	21.3	5	-19.9	18.2	1.25	 .0731	23	1	100.0	1
08/06/24	13:57	-15.9	-15.9	-15.9	78	-18.9	4.3	ENE	0.07	5.2	ENE	-21.4	-16.0	-21.4	743.2	0.024	0.000	21.3	5	-19.9	18.2	1.25	 .0731	24	1	100.0	1
08/06/24	13:58	-16.0	-15.9	-16.0	78	-19.0	5.2	ENE	0.09	5.2	ENE	-22.2	-16.1	-22.3	743.2	0.024	0.000	21.3	5	-19.9	18.2	1.25	 .0731	23	1	100.0	1
08/06/24	13:59	-16.1	-16.0	-16.1	78	-19.0	4.3	ENE	0.07	5.2	ENE	-21.6	-16.1	-21.6	743.2	0.024	0.000	21.3	5	-19.9	18.2	1.25	 .0731	23	1	100.0	1
08/06/24	14:00	-16.1	-16.1	-16.1	78	-19.1	5.2	ENE	0.09	5.2	ENE	-22.3	-16.2	-22.4	743.2	0.024	0.000	21.3	5	-19.9	18.2	1.25	 .0731	24	1	100.0	1
08/06/24	14:01	-16.2	-16.1	-16.2	78	-19.1	5.2	ENE	0.09	5.2	ENE	-22.4	-16.2	-22.4	743.2	0.024	0.000	21.3	5	-19.9	18.2	1.25	 .0731	23	1	100.0	1
08/06/24	14:02	-16.2	-16.2	-16.2	78	-19.1	5.2	ENE	0.09	5.2	ENE	-22.4	-16.2	-22.4	743.2	0.024	0.000	21.3	5	-19.9	18.2	1.25	 .0731	24	1	100.0	1
08/06/24	14:03	-16.2	-16.2	-16.2	78	-19.1	5.2	ENE	0.09	5.2	ENE	-22.4	-16.2	-22.4	743.3	0.024	0.000	21.3	5	-19.9	18.2	1.25	 .0731	23	1	100.0	1
08/06/24	14:04	-16.2	-16.2	-16.2	78	-19.1	5.2	ENE	0.09	5.2	ENE	-22.4	-16.2	-22.4	743.2	0.024	0.000	21.3	5	-19.9	18.2	1.25	 .0731	23	1	100.0	1
08/06/24	14:05	-16.2	-16.2	-16.2	78	-19.1	5.2	ENE	0.09	5.2	ENE	-22.4	-16.2	-22.4	743.3	0.024	0.000	21.3	5	-19.9	18.2	1.25	 .0731	24	1	100.0	1
08/06/24	14:06	-16.2	-16.2	-16.2	78	-19.1	4.3	ENE	0.07	5.2	ENE	-21.7	-16.2	-21.7	743.3	0.024	0.000	21.3	5	-19.9	18.2	1.25	 .0731	23	1	100.0	1
08/06/24	14:07	-16.2	-16.2	-16.2	78	-19.1	4.3	ENE	0.07	5.2	NE	-21.7	-16.2	-21.7	743.2	0.024	0.000	21.3	5	-19.9	18.2	1.25	 .0731	24	1	100.0	1
08/06/24	14:08	-16.2	-16.2	-16.2	77	-19.3	4.3	ENE	0.07	4.3	ENE	-21.7	-16.2	-21.7	743.2	0.024	0.000	21.3	5	-19.9	18.2	1.25	 .0731	23	1	100.0	1
08/06/24	14:09	-16.2	-16.2	-16.2	77	-19.3	5.2	ENE	0.09	7.0	ENE	-22.4	-16.3	-22.5	743.2	0.024	0.000	21.3	5	-19.9	18.2	1.25	 .0731	24	1	100.0	1
08/06/24	14:10	-16.2	-16.2	-16.2	77	-19.3	4.3	ENE	0.07	5.2	ENE	-21.7	-16.3	-21.8	743.3	0.024	0.000	21.3	5	-19.9	18.2	1.25	 .0731	23	1	100.0	1
08/06/24	14:11	-16.2	-16.2	-16.2	77	-19.3	4.3	ENE	0.07	5.2	ENE	-21.7	-16.3	-21.8	743.3	0.024	0.000	21.3	5	-19.9	18.2	1.25	 .0731	23	1	100.0	1
08/06/24	14:12	-16.2	-16.2	-16.3	76	-19.5	4.3	ENE	0.07	5.2	ENE	-21.7	-16.3	-21.8	743.3	0.024	0.000	21.3	5	-19.9	18.2	1.25	 .0731	24	1	100.0	1
08/06/24	14:13	-16.3	-16.3	-16.3	76	-19.5	3.5	NE	0.06	4.3	NE	-20.9	-16.3	-21.0	743.3	0.024	0.000	21.3	5	-19.9	18.2	1.25	 .0731	23	1	100.0	1
08/06/24	14:14	-16.3	-16.3	-16.3	76	-19.5	4.3	ENE	0.07	5.2	ENE	-21.8	-16.3	-21.8	743.3	0.024	0.000	21.4	5	-19.9	18.2	1.25	 .0731	24	1	100.0	1
08/06/24	14:15	-16.3	-16.3	-16.3	76	-19.6	6.1	ENE	0.10	7.8	ENE	-23.2	-16.4	-23.3	743.3	0.024	0.000	21.4	6	-17.8	18.3	1.54	 .0731	23	1	100.0	1
08/06/24	14:16	-16.3	-16.3	-16.3	75	-19.7	7.8	ENE	0.13	7.8	ENE	-24.3	-16.4	-24.4	743.2	0.024	0.000	21.4	5	-19.9	18.2	1.25	 .0731	23	1	100.0	1
08/06/24	14:17	-16.4	-16.3	-16.4	75	-19.8	6.1	ENE	0.10	7.8	ENE	-23.3	-16.4	-23.4	743.3	0.024	0.000	21.4	5	-19.9	18.2	1.25	 .0731	24	1	100.0	1
08/06/24	14:18	-16.4	-16.4	-16.4	75	-19.8	7.0	ENE	0.12	7.8	ENE	-23.9	-16.5	-24.0	743.3	0.024	0.000	21.4	6	-17.8	18.3	1.54	 .0731	23	1	100.0	1
08/06/24	14:19	-16.5	-16.4	-16.5	75	-19.9	7.0	ENE	0.12	7.8	ENE	-24.0	-16.6	-24.1	743.3	0.024	0.000	21.4	5	-19.9	18.2	1.25	 .0731	24	1	100.0	1
08/06/24	14:20	-16.6	-16.5	-16.6	74	-20.1	7.0	ENE	0.12	7.8	ENE	-24.1	-16.6	-24.1	743.2	0.024	0.000	21.4	5	-19.9	18.3	1.25	 .0731	23	1	100.0	1
08/06/24	14:21	-16.7	-16.6	-16.7	74	-20.2	7.8	ENE	0.13	8.7	ENE	-24.7	-16.7	-24.8	743.3	0.024	0.000	21.4	5	-19.9	18.3	1.25	 .0731	24	1	100.0	1
08/06/24	14:22	-16.7	-16.7	-16.7	74	-20.3	7.0	ENE	0.12	7.0	ENE	-24.3	-16.8	-24.3	743.3	0.024	0.000	21.4	5	-19.9	18.3	1.25	 .0731	23	1	100.0	1
08/06/24	14:23	-16.8	-16.7	-16.8	74	-20.3	6.1	E	0.10	7.0	E	-23.8	-16.8	-23.8	743.3	0.024	0.000	21.4	6	-17.7	18.4	1.54	 .0731	23	1	100.0	1
08/06/24	14:24	-16.8	-16.8	-16.8	74	-20.4	7.0	ENE	0.12	7.8	E	-24.4	-16.9	-24.5	743.3	0.024	0.000	21.4	6	-17.7	18.4	1.54	 .0731	24	1	100.0	1
08/06/24	14:25	-16.9	-16.8	-16.9	74	-20.5	7.0	E	0.12	7.8	E	-24.6	-17.0	-24.6	743.3	0.024	0.000	21.4	6	-17.7	18.4	1.54	 .0731	23	1	100.0	1
08/06/24	14:26	-17.0	-16.9	-17.0	73	-20.7	7.0	ENE	0.12	8.7	ENE	-24.6	-17.1	-24.7	743.3	0.025	0.000	21.4	6	-17.7	18.4	1.54	 .0731	24	1	100.0	1
08/06/24	14:27	-17.0	-17.0	-17.0	73	-20.7	6.1	ENE	0.10	7.8	ENE	-24.1	-17.1	-24.1	743.3	0.025	0.000	21.5	6	-17.7	18.5	1.54	 .0731	23	1	100.0	1
08/06/24	14:28	-17.0	-17.0	-17.0	74	-20.5	7.0	ENE	0.12	8.7	E	-24.6	-17.1	-24.7	743.3	0.025	0.000	21.5	6	-17.7	18.5	1.54	 .0731	23	1	100.0	1
08/06/24	14:29	-17.0	-17.0	-17.0	74	-20.5	8.7	E	0.14	9.6	E	-25.6	-17.1	-25.7	743.3	0.025	0.000	21.5	6	-17.7	18.5	1.54	 .0731	24	1	100.0	1
08/06/24	14:30	-17.0	-17.0	-17.1	74	-20.5	8.7	ENE	0.14	9.6	E	-25.6	-17.1	-25.7	743.3	0.025	0.000	21.5	6	-17.7	18.5	1.54	 .0731	23	1	100.0	1
08/06/24	14:31	-17.0	-17.0	-17.0	74	-20.5	8.7	ENE	0.14	8.7	ENE	-25.6	-17.1	-25.7	743.3	0.025	0.000	21.4	6	-17.7	18.4	1.54	 .0731	24	1	100.0	1
08/06/24	14:32	-16.9	-16.9	-17.0	74	-20.5	7.8	ENE	0.13	8.7	ENE	-25.1	-17.0	-25.1	743.4	0.024	0.000	21.4	6	-17.7	18.4	1.54	 .0731	23	1	100.0	1
08/06/24	14:33	-16.9	-16.9	-16.9	74	-20.4	8.7	NE	0.14	9.6	NE	-25.5	-16.9	-25.6	743.4	0.024	0.000	21.4	6	-17.7	18.4	1.54	 .0731	24	1	100.0	1
08/06/24	14:34	-16.8	-16.8	-16.8	73	-20.5	9.6	NE	0.16	10.4	NE	-25.8	-16.9	-25.9	743.4	0.024	0.000	21.4	6	-17.7	18.4	1.54	 .0731	23	1	100.0	1
08/06/24	14:35	-16.8	-16.8	-16.8	73	-20.5	9.6	NE	0.16	9.6	NE	-25.8	-16.8	-25.8	743.4	0.024	0.000	21.4	6	-17.7	18.4	1.54	 .0731	23	1	100.0	1
08/06/24	14:36	-16.7	-16.7	-16.8	73	-20.4	8.7	NE	0.14	9.6	NE	-25.2	-16.7	-25.3	743.4	0.024	0.000	21.4	6	-17.8	18.3	1.54	 .0731	24	1	100.0	1
08/06/24	14:37	-16.6	-16.6	-16.7	73	-20.3	7.8	NE	0.13	8.7	NE	-24.6	-16.6	-24.7	743.4	0.024	0.000	21.4	6	-17.8	18.3	1.54	 .0731	23	1	100.0	1
08/06/24	14:38	-16.6	-16.6	-16.6	73	-20.3	7.0	ENE	0.12	7.8	NE	-24.1	-16.6	-24.1	743.4	0.024	0.000	21.4	6	-17.8	18.3	1.54	 .0731	24	1	100.0	1
08/06/24	14:39	-16.5	-16.5	-16.5	72	-20.4	5.2	NE	0.09	6.1	NE	-22.8	-16.6	-22.9	743.4	0.024	0.000	21.4	6	-17.8	18.3	1.54	 .0731	23	1	100.0	1
08/06/24	14:40	-16.5	-16.4	-16.5	72	-20.4	5.2	NE	0.09	6.1	NE	-22.8	-16.6	-22.9	743.4	0.024	0.000	21.4	6	-17.8	18.3	1.54	 .0731	23	1	100.0	1
08/06/24	14:41	-16.5	-16.5	-16.5	72	-20.4	5.2	NE	0.09	6.1	NE	-22.8	-16.6	-22.9	743.4	0.024	0.000	21.3	6	-17.8	18.2	1.54	 .0731	24	1	100.0	1
08/06/24	14:42	-16.6	-16.5	-16.6	72	-20.4	6.1	ENE	0.10	7.8	ENE	-23.5	-16.7	-23.6	743.4	0.024	0.000	21.3	6	-17.8	18.2	1.54	 .0731	23	1	100.0	1
08/06/24	14:43	-16.7	-16.6	-16.7	72	-20.6	7.0	ENE	0.12	7.8	ENE	-24.3	-16.8	-24.4	743.4	0.024	0.000	21.3	6	-17.8	18.1	1.54	 .0731	24	1	100.0	1
08/06/24	14:44	-16.8	-16.7	-16.8	72	-20.6	7.8	ENE	0.13	8.7	ENE	-24.9	-16.9	-25.0	743.5	0.024	0.000	21.3	6	-17.8	18.1	1.54	 .0731	23	1	100.0	1
08/06/24	14:45	-16.9	-16.8	-16.9	72	-20.8	7.8	E	0.13	8.7	E	-25.1	-17.1	-25.2	743.5	0.024	0.000	21.3	6	-17.8	18.1	1.54	 .0731	23	1	100.0	1
08/06/24	14:46	-17.1	-16.9	-17.1	72	-20.9	7.0	E	0.12	7.8	E	-24.7	-17.2	-24.8	743.5	0.025	0.000	21.3	6	-17.8	18.1	1.54	 .0731	24	1	100.0	1
08/06/24	14:47	-17.2	-17.1	-17.2	72	-21.0	5.2	E	0.09	7.0	E	-23.6	-17.3	-23.7	743.5	0.025	0.000	21.2	6	-17.9	18.0	1.55	 .0732	23	1	100.0	1
08/06/24	14:48	-17.2	-17.2	-17.2	72	-21.0	4.3	E	0.07	7.0	ENE	-22.8	-17.3	-22.9	743.5	0.025	0.000	21.2	6	-17.9	18.0	1.55	 .0732	24	1	100.0	1
08/06/24	14:49	-17.3	-17.2	-17.3	72	-21.1	7.0	ENE	0.12	7.8	ENE	-24.9	-17.4	-25.1	743.6	0.025	0.000	21.2	6	-17.9	18.0	1.55	 .0732	23	1	100.0	1
08/06/24	14:50	-17.3	-17.3	-17.3	72	-21.1	7.0	ENE	0.12	8.7	ENE	-24.9	-17.4	-25.1	743.6	0.025	0.000	21.2	6	-17.9	18.0	1.55	 .0732	24	1	100.0	1
08/06/24	14:51	-17.3	-17.3	-17.3	72	-21.1	5.2	NE	0.09	6.1	NE	-23.7	-17.4	-23.8	743.6	0.025	0.000	21.2	6	-17.9	18.0	1.55	 .0732	23	1	100.0	1
08/06/24	14:52	-17.2	-17.2	-17.3	72	-21.1	6.1	ENE	0.10	7.0	ENE	-24.3	-17.3	-24.4	743.6	0.025	0.000	21.2	6	-17.9	18.0	1.55	 .0732	23	1	100.0	1
08/06/24	14:53	-17.1	-17.1	-17.2	72	-21.0	5.2	ENE	0.09	7.0	ENE	-23.5	-17.2	-23.6	743.6	0.025	0.000	21.2	6	-17.9	18.0	1.55	 .0732	24	1	100.0	1
08/06/24	14:54	-17.0	-17.0	-17.1	72	-20.9	4.3	ENE	0.07	5.2	ENE	-22.7	-17.1	-22.8	743.6	0.025	0.000	21.2	6	-17.9	18.0	1.55	 .0732	23	1	100.0	1
08/06/24	14:55	-16.8	-16.8	-16.9	72	-20.7	5.2	ENE	0.09	5.2	ENE	-23.2	-16.9	-23.3	743.6	0.024	0.000	21.3	6	-17.8	18.1	1.54	 .0732	24	1	100.0	1
08/06/24	14:56	-16.8	-16.8	-16.8	71	-20.8	5.2	ENE	0.09	5.2	ENE	-23.1	-16.9	-23.2	743.6	0.024	0.000	21.2	6	-17.9	18.0	1.55	 .0732	23	1	100.0	1
08/06/24	14:57	-16.7	-16.7	-16.8	71	-20.7	5.2	ENE	0.09	7.0	ENE	-23.1	-16.8	-23.2	743.6	0.024	0.000	21.2	6	-17.9	18.0	1.55	 .0732	23	1	100.0	1
08/06/24	14:58	-16.7	-16.7	-16.7	71	-20.7	5.2	ENE	0.09	7.0	ENE	-23.0	-16.8	-23.1	743.6	0.024	0.000	21.2	6	-17.9	18.0	1.55	 .0732	24	1	100.0	1
08/06/24	14:59	-16.6	-16.6	-16.7	70	-20.8	5.2	ENE	0.09	7.0	ENE	-22.9	-16.7	-23.0	743.6	0.024	0.000	21.3	6	-17.8	18.1	1.54	 .0732	23	1	100.0	1
08/06/24	15:00	-16.5	-16.5	-16.6	70	-20.7	5.2	ENE	0.09	5.2	ENE	-22.8	-16.6	-22.9	743.6	0.024	0.000	21.3	6	-17.8	18.1	1.54	 .0732	24	1	100.0	1
08/06/24	15:01	-16.5	-16.5	-16.5	69	-20.9	4.3	ENE	0.07	5.2	ENE	-22.1	-16.6	-22.2	743.6	0.024	0.000	21.3	6	-17.8	18.1	1.54	 .0732	23	1	100.0	1
08/06/24	15:02	-16.4	-16.4	-16.5	69	-20.8	4.3	ENE	0.07	5.2	ENE	-22.0	-16.6	-22.1	743.6	0.024	0.000	21.3	6	-17.8	18.1	1.54	 .0732	24	1	100.0	1
08/06/24	15:03	-16.4	-16.4	-16.4	68	-21.0	4.3	ENE	0.07	5.2	ENE	-22.0	-16.6	-22.1	743.6	0.024	0.000	21.3	6	-17.8	18.1	1.54	 .0732	23	1	100.0	1
08/06/24	15:04	-16.4	-16.4	-16.4	68	-20.9	4.3	ENE	0.07	4.3	ENE	-21.9	-16.5	-22.1	743.7	0.024	0.000	21.3	6	-17.8	18.1	1.54	 .0732	23	1	100.0	1
08/06/24	15:05	-16.4	-16.3	-16.4	67	-21.1	4.3	ENE	0.07	5.2	ENE	-21.9	-16.5	-22.1	743.6	0.024	0.000	21.3	6	-17.8	18.1	1.54	 .0732	24	1	100.0	1
08/06/24	15:06	-16.3	-16.3	-16.4	67	-21.0	4.3	ENE	0.07	4.3	ENE	-21.9	-16.4	-22.0	743.6	0.024	0.000	21.3	6	-17.8	18.1	1.54	 .0732	23	1	100.0	1
08/06/24	15:07	-16.3	-16.3	-16.3	67	-21.0	4.3	ENE	0.07	5.2	ENE	-21.9	-16.4	-22.0	743.6	0.024	0.000	21.3	6	-17.8	18.1	1.54	 .0732	24	1	100.0	1
08/06/24	15:08	-16.3	-16.3	-16.3	67	-21.0	4.3	ENE	0.07	4.3	ENE	-21.9	-16.4	-22.0	743.6	0.024	0.000	21.3	6	-17.8	18.2	1.54	 .0731	23	1	100.0	1
08/06/24	15:09	-16.3	-16.3	-16.4	66	-21.2	4.3	ENE	0.07	4.3	ENE	-21.9	-16.4	-22.0	743.7	0.024	0.000	21.3	6	-17.8	18.2	1.54	 .0731	23	1	100.0	1
08/06/24	15:10	-16.4	-16.3	-16.4	66	-21.3	3.5	ENE	0.06	4.3	ENE	-21.1	-16.5	-21.2	743.7	0.024	0.000	21.3	6	-17.8	18.2	1.54	 .0731	24	1	100.0	1
08/06/24	15:11	-16.4	-16.4	-16.4	66	-21.3	5.2	ENE	0.09	7.0	ENE	-22.7	-16.5	-22.8	743.7	0.024	0.000	21.3	6	-17.8	18.2	1.54	 .0731	23	1	100.0	1
08/06/24	15:12	-16.4	-16.4	-16.4	65	-21.5	7.0	E	0.12	7.8	E	-23.9	-16.6	-24.1	743.7	0.024	0.000	21.3	6	-17.8	18.2	1.54	 .0731	24	1	100.0	1
08/06/24	15:13	-16.6	-16.4	-16.6	65	-21.6	7.8	E	0.13	8.7	E	-24.6	-16.7	-24.7	743.7	0.024	0.000	21.4	6	-17.8	18.3	1.54	 .0731	23	1	100.0	1
08/06/24	15:14	-16.6	-16.6	-16.6	65	-21.7	6.1	E	0.10	7.8	E	-23.6	-16.7	-23.7	743.7	0.024	0.000	21.4	6	-17.8	18.3	1.54	 .0731	24	1	100.0	1
08/06/24	15:15	-16.7	-16.6	-16.7	66	-21.5	6.1	E	0.10	7.0	E	-23.7	-16.8	-23.8	743.8	0.024	0.000	21.4	6	-17.8	18.3	1.54	 .0731	23	1	100.0	1
08/06/24	15:16	-16.8	-16.7	-16.8	66	-21.6	6.1	E	0.10	7.0	E	-23.8	-16.9	-23.9	743.7	0.024	0.000	21.4	6	-17.8	18.3	1.54	 .0731	23	1	100.0	1
08/06/24	15:17	-16.9	-16.8	-16.9	66	-21.7	6.1	E	0.10	7.8	E	-23.9	-17.0	-24.0	743.8	0.024	0.000	21.4	6	-17.8	18.3	1.54	 .0731	24	1	100.0	1
08/06/24	15:18	-17.0	-16.9	-17.0	65	-22.0	7.8	E	0.13	7.8	E	-25.1	-17.1	-25.2	743.8	0.025	0.000	21.4	6	-17.8	18.3	1.54	 .0731	23	1	100.0	1
08/06/24	15:19	-17.2	-17.0	-17.2	65	-22.2	7.8	E	0.13	8.7	E	-25.3	-17.3	-25.4	743.7	0.025	0.000	21.4	6	-17.7	18.4	1.54	 .0731	24	1	100.0	1
08/06/24	15:20	-17.4	-17.2	-17.4	65	-22.4	7.8	E	0.13	8.7	E	-25.6	-17.5	-25.7	743.7	0.025	0.000	21.4	6	-17.7	18.4	1.54	 .0731	23	1	100.0	1
08/06/24	15:21	-17.6	-17.4	-17.6	65	-22.6	8.7	E	0.14	8.7	E	-26.4	-17.7	-26.5	743.7	0.025	0.000	21.4	6	-17.7	18.4	1.54	 .0731	23	1	100.0	1
08/06/24	15:22	-17.8	-17.7	-17.8	65	-22.8	8.7	E	0.14	9.6	E	-26.7	-17.9	-26.8	743.7	0.025	0.000	21.4	6	-17.7	18.4	1.54	 .0731	24	1	100.0	1
08/06/24	15:23	-18.0	-17.8	-18.0	66	-22.8	8.7	E	0.14	9.6	E	-26.8	-18.1	-26.9	743.7	0.025	0.000	21.5	6	-17.7	18.5	1.54	 .0731	23	1	100.0	1
08/06/24	15:24	-18.2	-18.0	-18.2	66	-23.0	9.6	E	0.16	10.4	E	-27.5	-18.3	-27.6	743.7	0.025	0.000	21.5	6	-17.7	18.5	1.54	 .0731	24	1	100.0	1
08/06/24	15:25	-18.3	-18.2	-18.3	66	-23.1	11.3	ESE	0.19	12.2	ESE	-28.4	-18.4	-28.6	743.7	0.025	0.000	21.5	6	-17.7	18.5	1.54	 .0731	23	1	100.0	1
08/06/24	15:26	-18.6	-18.3	-18.6	66	-23.3	12.2	ESE	0.20	13.0	ESE	-29.2	-18.7	-29.3	743.7	0.026	0.000	21.5	6	-17.7	18.5	1.54	 .0731	24	1	100.0	1
08/06/24	15:27	-18.8	-18.6	-18.8	67	-23.4	12.2	ESE	0.20	13.0	ESE	-29.4	-18.9	-29.6	743.8	0.026	0.000	21.4	6	-17.7	18.4	1.54	 .0731	23	1	100.0	1
08/06/24	15:28	-18.9	-18.8	-18.9	67	-23.5	12.2	ESE	0.20	13.0	E	-29.6	-19.0	-29.7	743.8	0.026	0.000	21.4	6	-17.7	18.4	1.54	 .0731	23	1	100.0	1
08/06/24	15:29	-18.9	-18.9	-18.9	67	-23.5	10.4	ESE	0.17	11.3	ESE	-28.9	-19.1	-29.0	743.8	0.026	0.000	21.4	6	-17.7	18.4	1.54	 .0731	24	1	100.0	1
08/06/24	15:30	-19.0	-18.9	-19.0	68	-23.4	10.4	ESE	0.17	11.3	ESE	-28.9	-19.1	-29.0	743.8	0.026	0.000	21.4	6	-17.7	18.4	1.54	 .0731	23	1	100.0	1
08/06/24	15:31	-19.1	-19.0	-19.1	68	-23.5	10.4	ESE	0.17	11.3	ESE	-29.1	-19.1	-29.1	743.8	0.026	0.000	21.4	6	-17.7	18.4	1.54	 .0731	24	1	100.0	1
08/06/24	15:32	-19.2	-19.1	-19.2	69	-23.4	12.2	ESE	0.20	13.0	ESE	-29.9	-19.2	-30.0	743.8	0.026	0.000	21.4	6	-17.7	18.4	1.54	 .0731	23	1	100.0	1
08/06/24	15:33	-19.3	-19.2	-19.3	69	-23.6	13.9	ESE	0.23	14.8	ESE	-30.8	-19.4	-30.9	743.8	0.026	0.000	21.4	6	-17.7	18.4	1.54	 .0731	23	1	100.0	1
08/06/24	15:34	-19.5	-19.3	-19.5	69	-23.7	13.9	ESE	0.23	14.8	ESE	-31.1	-19.6	-31.1	743.8	0.026	0.000	21.4	6	-17.7	18.4	1.54	 .0731	24	1	100.0	1
08/06/24	15:35	-19.6	-19.5	-19.6	69	-23.8	13.0	ESE	0.22	13.9	ESE	-30.8	-19.6	-30.8	743.8	0.026	0.000	21.4	6	-17.8	18.3	1.54	 .0731	23	1	100.0	1
08/06/24	15:36	-19.5	-19.5	-19.5	70	-23.6	12.2	ESE	0.20	13.0	ESE	-30.3	-19.6	-30.4	743.8	0.026	0.000	21.4	6	-17.8	18.3	1.54	 .0731	24	1	100.0	1
08/06/24	15:37	-19.5	-19.5	-19.5	70	-23.6	12.2	ESE	0.20	13.0	ESE	-30.3	-19.6	-30.4	743.8	0.026	0.000	21.4	6	-17.8	18.3	1.54	 .0731	23	1	100.0	1
08/06/24	15:38	-19.6	-19.5	-19.6	71	-23.5	12.2	ESE	0.20	13.0	ESE	-30.4	-19.6	-30.5	743.8	0.026	0.000	21.4	6	-17.8	18.3	1.54	 .0731	23	1	100.0	1
08/06/24	15:39	-19.7	-19.6	-19.7	71	-23.6	13.9	ESE	0.23	14.8	ESE	-31.2	-19.7	-31.3	743.8	0.026	0.000	21.4	6	-17.8	18.3	1.54	 .0731	24	1	100.0	1
08/06/24	15:40	-19.7	-19.7	-19.7	71	-23.6	14.8	ESE	0.25	14.8	ESE	-31.6	-19.7	-31.6	743.8	0.026	0.000	21.3	6	-17.8	18.2	1.54	 .0732	23	1	100.0	1
08/06/24	15:41	-19.7	-19.7	-19.7	71	-23.6	13.9	ESE	0.23	14.8	ESE	-31.3	-19.8	-31.4	743.8	0.026	0.000	21.3	6	-17.8	18.2	1.54	 .0732	24	1	100.0	1
08/06/24	15:42	-19.7	-19.7	-19.7	71	-23.6	13.0	ESE	0.22	13.9	ESE	-31.0	-19.8	-31.1	743.9	0.026	0.000	21.3	6	-17.8	18.2	1.54	 .0732	23	1	100.0	1
08/06/24	15:43	-19.8	-19.7	-19.8	71	-23.7	12.2	ESE	0.20	13.0	ESE	-30.7	-19.8	-30.8	743.9	0.026	0.000	21.3	6	-17.8	18.2	1.54	 .0732	24	1	100.0	1
08/06/24	15:44	-19.8	-19.8	-19.8	71	-23.7	12.2	ESE	0.20	13.0	ESE	-30.8	-19.9	-30.8	743.9	0.027	0.000	21.3	6	-17.8	18.2	1.54	 .0732	23	1	100.0	1
08/06/24	15:45	-19.9	-19.8	-19.9	71	-23.9	13.9	ESE	0.23	14.8	ESE	-31.6	-20.0	-31.7	743.9	0.027	0.000	21.3	6	-17.8	18.2	1.54	 .0732	23	1	100.0	1
08/06/24	15:46	-20.0	-19.9	-20.0	71	-23.9	14.8	ESE	0.25	15.7	ESE	-32.0	-20.1	-32.1	743.9	0.027	0.000	21.3	6	-17.8	18.1	1.54	 .0732	24	1	100.0	1
08/06/24	15:47	-20.0	-20.0	-20.0	71	-23.9	14.8	ESE	0.25	15.7	ESE	-32.0	-20.1	-32.1	743.9	0.027	0.000	21.3	6	-17.8	18.1	1.54	 .0732	23	1	100.0	1
08/06/24	15:48	-20.1	-20.0	-20.1	72	-23.8	13.9	ESE	0.23	14.8	ESE	-31.7	-20.1	-31.8	743.9	0.027	0.000	21.3	6	-17.8	18.1	1.54	 .0732	24	1	100.0	1
08/06/24	15:49	-20.1	-20.1	-20.1	72	-23.8	13.9	ESE	0.23	13.9	ESE	-31.7	-20.1	-31.8	743.9	0.027	0.000	21.3	6	-17.8	18.1	1.54	 .0732	23	1	100.0	1
08/06/24	15:50	-20.1	-20.1	-20.1	72	-23.8	13.9	ESE	0.23	14.8	ESE	-31.7	-20.1	-31.8	743.9	0.027	0.000	21.3	6	-17.8	18.1	1.54	 .0732	23	1	100.0	1
08/06/24	15:51	-20.2	-20.1	-20.2	72	-23.9	15.7	ESE	0.26	16.5	E	-32.5	-20.2	-32.6	743.9	0.027	0.000	21.3	6	-17.8	18.1	1.54	 .0732	24	1	100.0	1
08/06/24	15:52	-20.2	-20.2	-20.2	72	-24.0	16.5	ESE	0.28	16.5	ESE	-32.9	-20.3	-32.9	744.0	0.027	0.000	21.3	6	-17.8	18.1	1.54	 .0732	23	1	100.0	1
08/06/24	15:53	-20.2	-20.2	-20.2	72	-24.0	16.5	ESE	0.28	17.4	ESE	-32.9	-20.3	-32.9	743.9	0.027	0.000	21.3	6	-17.8	18.2	1.54	 .0732	24	1	100.0	1
08/06/24	15:54	-20.2	-20.2	-20.2	72	-24.0	15.7	ESE	0.26	16.5	ESE	-32.6	-20.3	-32.7	743.9	0.027	0.000	21.3	6	-17.8	18.2	1.54	 .0732	23	1	100.0	1
08/06/24	15:55	-20.2	-20.2	-20.2	72	-24.0	14.8	ESE	0.25	17.4	ESE	-32.3	-20.3	-32.3	743.9	0.027	0.000	21.3	6	-17.8	18.2	1.54	 .0732	23	1	100.0	1
08/06/24	15:56	-20.3	-20.2	-20.3	73	-23.9	15.7	E	0.26	16.5	E	-32.7	-20.4	-32.8	743.9	0.027	0.000	21.3	6	-17.8	18.2	1.54	 .0732	24	1	100.0	1
08/06/24	15:57	-20.4	-20.3	-20.4	73	-24.0	17.4	ESE	0.29	18.3	E	-33.4	-20.5	-33.5	743.9	0.027	0.000	21.3	6	-17.8	18.2	1.54	 .0732	23	1	100.0	1
08/06/24	15:58	-20.6	-20.4	-20.6	73	-24.1	18.3	ESE	0.30	20.0	ESE	-33.8	-20.6	-33.9	743.9	0.027	0.000	21.3	6	-17.8	18.2	1.54	 .0732	24	1	100.0	1
08/06/24	15:59	-20.6	-20.6	-20.6	73	-24.2	18.3	ESE	0.30	20.0	ESE	-33.9	-20.7	-34.0	744.0	0.027	0.000	21.3	6	-17.8	18.2	1.54	 .0732	23	1	100.0	1
08/06/24	16:00	-20.7	-20.6	-20.7	73	-24.2	16.5	ESE	0.28	19.1	E	-33.4	-20.7	-33.5	744.0	0.027	0.000	21.3	6	-17.8	18.2	1.54	 .0732	24	1	100.0	1
08/06/24	16:01	-20.9	-20.7	-20.9	73	-24.5	16.5	E	0.28	18.3	E	-33.7	-20.9	-33.8	744.0	0.027	0.000	21.4	6	-17.8	18.3	1.54	 .0732	23	1	100.0	1
08/06/24	16:02	-21.2	-20.9	-21.2	73	-24.7	17.4	ESE	0.29	20.0	ESE	-34.4	-21.2	-34.4	744.0	0.027	0.000	21.4	6	-17.8	18.3	1.54	 .0732	23	1	100.0	1
08/06/24	16:03	-21.5	-21.2	-21.5	72	-25.2	19.1	E	0.32	20.0	E	-35.3	-21.6	-35.4	744.0	0.028	0.000	21.4	6	-17.8	18.3	1.54	 .0732	24	1	100.0	1
08/06/24	16:04	-22.1	-21.6	-22.1	72	-25.8	19.1	E	0.32	20.9	E	-36.2	-22.2	-36.2	744.0	0.028	0.000	21.4	6	-17.8	18.3	1.54	 .0732	23	1	100.0	1
08/06/24	16:05	-23.0	-22.3	-23.0	71	-26.8	18.3	E	0.30	20.0	ENE	-37.1	-23.1	-37.1	744.0	0.029	0.000	21.4	6	-17.8	18.3	1.54	 .0732	24	1	100.0	1
08/06/24	16:06	-23.7	-23.2	-23.7	70	-27.7	20.0	E	0.33	23.5	E	-38.6	-23.8	-38.6	744.1	0.029	0.000	21.4	6	-17.8	18.3	1.54	 .0732	23	1	100.0	1
08/06/24	16:07	-24.4	-23.8	-24.4	70	-28.3	21.7	E	0.36	23.5	E	-39.9	-24.4	-40.0	744.1	0.030	0.000	21.4	6	-17.8	18.3	1.54	 .0732	24	1	100.0	1
08/06/24	16:08	-24.9	-24.4	-24.9	70	-28.8	20.9	E	0.35	23.5	E	-40.4	-24.9	-40.4	744.1	0.030	0.000	21.4	6	-17.8	18.3	1.54	 .0732	23	1	100.0	1
08/06/24	16:09	-25.3	-24.9	-25.3	70	-29.2	23.5	E	0.39	26.1	E	-41.6	-25.3	-41.7	744.1	0.030	0.000	21.4	6	-17.7	18.4	1.54	 .0732	23	1	100.0	1
08/06/24	16:10	-25.6	-25.3	-25.6	71	-29.3	25.2	E	0.42	26.1	E	-42.5	-25.7	-42.6	744.0	0.031	0.000	21.4	6	-17.7	18.4	1.54	 .0732	24	1	100.0	1
08/06/24	16:11	-25.8	-25.7	-25.8	72	-29.4	25.2	E	0.42	27.0	E	-42.8	-25.9	-42.9	744.0	0.031	0.000	21.4	6	-17.7	18.4	1.54	 .0732	23	1	100.0	1
08/06/24	16:12	-26.1	-25.9	-26.1	72	-29.6	24.3	E	0.41	27.0	E	-42.9	-26.1	-42.9	744.0	0.031	0.000	21.4	6	-17.7	18.4	1.54	 .0732	24	1	100.0	1
08/06/24	16:13	-26.2	-26.1	-26.2	73	-29.6	22.6	E	0.38	25.2	E	-42.7	-26.3	-42.7	744.1	0.031	0.000	21.4	6	-17.7	18.4	1.54	 .0732	23	1	100.0	1
08/06/24	16:14	-26.3	-26.2	-26.3	73	-29.7	25.2	E	0.42	26.1	E	-43.5	-26.4	-43.6	744.0	0.031	0.000	21.4	6	-17.7	18.4	1.54	 .0732	23	1	100.0	1
08/06/24	16:15	-26.4	-26.4	-26.4	74	-29.7	24.3	E	0.41	25.2	E	-43.4	-26.5	-43.4	744.0	0.031	0.000	21.5	6	-17.7	18.5	1.54	 .0731	24	1	100.0	1
08/06/24	16:16	-26.5	-26.4	-26.5	74	-29.7	22.6	E	0.38	23.5	E	-43.0	-26.6	-43.1	744.1	0.031	0.000	21.5	6	-17.7	18.5	1.54	 .0731	23	1	100.0	1
08/06/24	16:17	-26.6	-26.5	-26.6	74	-29.8	22.6	E	0.38	24.3	E	-43.1	-26.6	-43.2	744.1	0.031	0.000	21.5	6	-17.7	18.5	1.54	 .0731	24	1	100.0	1
08/06/24	16:18	-26.6	-26.6	-26.6	75	-29.7	23.5	E	0.39	26.1	E	-43.4	-26.7	-43.4	744.1	0.031	0.000	21.5	6	-17.7	18.5	1.54	 .0732	23	1	100.0	1
08/06/24	16:19	-26.6	-26.6	-26.6	75	-29.7	25.2	E	0.42	27.0	E	-43.9	-26.7	-43.9	744.1	0.031	0.000	21.5	6	-17.7	18.5	1.54	 .0732	23	1	100.0	1
08/06/24	16:20	-26.6	-26.6	-26.6	75	-29.7	25.2	E	0.42	27.0	E	-43.8	-26.6	-43.8	744.1	0.031	0.000	21.5	6	-17.7	18.5	1.54	 .0732	24	1	100.0	1
08/06/24	16:21	-26.6	-26.6	-26.6	75	-29.7	24.3	E	0.41	25.2	E	-43.6	-26.6	-43.6	744.2	0.031	0.000	21.5	6	-17.7	18.5	1.54	 .0732	23	1	100.0	1
08/06/24	16:22	-26.5	-26.5	-26.6	75	-29.6	25.2	E	0.42	27.0	E	-43.7	-26.6	-43.8	744.1	0.031	0.000	21.5	6	-17.7	18.5	1.54	 .0731	24	1	100.0	1
08/06/24	16:23	-26.4	-26.4	-26.5	75	-29.5	26.1	E	0.43	27.8	E	-43.8	-26.4	-43.8	744.1	0.031	0.000	21.5	6	-17.7	18.5	1.54	 .0731	23	1	100.0	1
08/06/24	16:24	-26.3	-26.3	-26.3	76	-29.2	25.2	E	0.42	27.8	E	-43.4	-26.3	-43.5	744.2	0.031	0.000	21.5	6	-17.7	18.5	1.54	 .0732	24	1	100.0	1
08/06/24	16:25	-26.3	-26.3	-26.3	76	-29.2	22.6	E	0.38	25.2	E	-42.7	-26.3	-42.8	744.2	0.031	0.000	21.5	6	-17.7	18.5	1.54	 .0732	23	1	100.0	1
08/06/24	16:26	-26.2	-26.2	-26.3	76	-29.2	24.3	E	0.41	26.1	E	-43.1	-26.3	-43.2	744.2	0.031	0.000	21.4	6	-17.7	18.4	1.54	 .0732	23	1	100.0	1
08/06/24	16:27	-26.2	-26.2	-26.2	76	-29.1	26.1	E	0.43	27.0	E	-43.5	-26.2	-43.6	744.2	0.031	0.000	21.4	6	-17.7	18.4	1.54	 .0732	24	1	100.0	1
08/06/24	16:28	-26.1	-26.1	-26.2	76	-29.1	23.5	E	0.39	26.1	E	-42.7	-26.2	-42.8	744.2	0.031	0.000	21.4	6	-17.7	18.4	1.54	 .0732	23	1	100.0	1
08/06/24	16:29	-26.1	-26.1	-26.1	76	-29.1	21.7	E	0.36	26.1	E	-42.2	-26.2	-42.3	744.2	0.031	0.000	21.4	6	-17.7	18.4	1.54	 .0732	24	1	100.0	1
08/06/24	16:30	-26.1	-26.1	-26.1	76	-29.1	27.0	E	0.45	28.7	E	-43.6	-26.2	-43.7	744.1	0.031	0.000	21.4	6	-17.8	18.3	1.54	 .0732	23	1	100.0	1
08/06/24	16:31	-26.1	-26.1	-26.1	76	-29.0	27.0	E	0.45	28.7	E	-43.6	-26.1	-43.6	744.1	0.031	0.000	21.4	6	-17.8	18.3	1.54	 .0732	23	1	100.0	1
08/06/24	16:32	-26.0	-26.0	-26.0	76	-29.0	20.9	E	0.35	23.5	E	-41.8	-26.1	-41.9	744.3	0.031	0.000	21.4	6	-17.8	18.3	1.54	 .0732	24	1	100.0	1
08/06/24	16:33	-25.9	-25.9	-26.0	76	-28.9	19.1	E	0.32	25.2	E	-41.2	-26.0	-41.3	744.4	0.031	0.000	21.4	6	-17.8	18.3	1.54	 .0732	23	1	100.0	1
08/06/24	16:34	-25.8	-25.8	-25.9	77	-28.7	27.0	E	0.45	29.6	E	-43.2	-25.9	-43.3	744.2	0.031	0.000	21.4	6	-17.8	18.3	1.54	 .0732	24	1	100.0	1
08/06/24	16:35	-25.7	-25.7	-25.8	77	-28.6	27.8	E	0.46	29.6	E	-43.3	-25.8	-43.3	744.2	0.031	0.000	21.4	6	-17.8	18.3	1.54	 .0732	23	1	100.0	1
08/06/24	16:36	-25.7	-25.7	-25.7	77	-28.6	23.5	E	0.39	29.6	E	-42.2	-25.8	-42.3	744.3	0.031	0.000	21.4	6	-17.8	18.3	1.54	 .0732	23	1	100.0	1
08/06/24	16:37	-25.7	-25.7	-25.7	77	-28.6	22.6	E	0.38	26.1	E	-42.0	-25.8	-42.1	744.5	0.031	0.000	21.3	6	-17.8	18.2	1.54	 .0732	24	1	100.0	1
08/06/24	16:38	-25.6	-25.6	-25.7	77	-28.5	26.1	E	0.43	28.7	E	-42.7	-25.7	-42.8	744.3	0.031	0.000	21.3	6	-17.8	18.2	1.54	 .0732	23	1	100.0	1
08/06/24	16:39	-25.6	-25.6	-25.6	77	-28.4	27.0	E	0.45	28.7	E	-42.9	-25.6	-42.9	744.2	0.030	0.000	21.3	6	-17.8	18.2	1.54	 .0732	24	1	100.0	1
08/06/24	16:40	-25.6	-25.5	-25.6	77	-28.4	22.6	E	0.38	25.2	E	-41.8	-25.6	-41.8	744.3	0.030	0.000	21.3	6	-17.8	18.2	1.54	 .0732	23	1	100.0	1
08/06/24	16:41	-25.6	-25.5	-25.6	77	-28.4	20.0	E	0.33	26.1	E	-41.0	-25.6	-41.1	744.5	0.030	0.000	21.3	6	-17.8	18.2	1.54	 .0732	24	1	100.0	1
08/06/24	16:42	-25.6	-25.6	-25.6	77	-28.5	28.7	E	0.48	30.4	E	-43.3	-25.7	-43.4	744.3	0.031	0.000	21.3	6	-17.8	18.2	1.54	 .0732	23	1	100.0	1
08/06/24	16:43	-25.7	-25.6	-25.7	77	-28.5	27.0	E	0.45	30.4	E	-43.0	-25.7	-43.1	744.2	0.031	0.000	21.3	6	-17.8	18.2	1.54	 .0732	23	1	100.0	1
08/06/24	16:44	-25.8	-25.7	-25.8	77	-28.6	20.9	E	0.35	24.3	E	-41.6	-25.8	-41.6	744.4	0.031	0.000	21.3	6	-17.8	18.2	1.54	 .0732	24	1	100.0	1
08/06/24	16:45	-25.9	-25.8	-25.9	77	-28.7	20.9	E	0.35	25.2	E	-41.7	-25.9	-41.8	744.4	0.031	0.000	21.3	6	-17.8	18.2	1.54	 .0732	23	1	100.0	1
08/06/24	16:46	-25.9	-25.9	-25.9	77	-28.8	27.8	E	0.46	30.4	E	-43.6	-26.0	-43.7	744.3	0.031	0.000	21.3	6	-17.8	18.2	1.54	 .0732	24	1	100.0	1
08/06/24	16:47	-25.9	-25.9	-26.0	77	-28.8	26.1	E	0.43	27.8	E	-43.2	-26.0	-43.2	744.2	0.031	0.000	21.3	6	-17.8	18.2	1.54	 .0732	23	1	100.0	1
08/06/24	16:48	-25.9	-25.9	-26.0	77	-28.8	26.1	E	0.43	27.8	E	-43.2	-26.0	-43.2	744.3	0.031	0.000	21.3	6	-17.8	18.2	1.54	 .0732	23	1	100.0	1
08/06/24	16:49	-26.1	-26.0	-26.1	77	-28.9	26.1	E	0.43	28.7	E	-43.3	-26.1	-43.4	744.3	0.031	0.000	21.3	6	-17.8	18.2	1.54	 .0732	24	1	100.0	1
08/06/24	16:50	-26.1	-26.1	-26.1	77	-28.9	25.2	E	0.42	27.0	E	-43.2	-26.2	-43.2	744.4	0.031	0.000	21.4	6	-17.8	18.3	1.54	 .0732	23	1	100.0	1
08/06/24	16:51	-26.2	-26.1	-26.2	77	-29.0	22.6	E	0.38	25.2	E	-42.6	-26.2	-42.6	744.4	0.031	0.000	21.3	6	-17.8	18.2	1.54	 .0732	24	1	100.0	1
08/06/24	16:52	-26.2	-26.2	-26.2	77	-29.1	24.3	E	0.41	27.8	E	-43.1	-26.3	-43.2	744.4	0.031	0.000	21.4	6	-17.8	18.3	1.54	 .0732	23	1	100.0	1
08/06/24	16:53	-26.3	-26.2	-26.3	77	-29.2	27.0	E	0.45	27.8	E	-43.9	-26.4	-44.0	744.4	0.031	0.000	21.4	6	-17.8	18.3	1.54	 .0732	24	1	100.0	1
08/06/24	16:54	-26.4	-26.3	-26.4	77	-29.2	25.2	E	0.42	27.8	E	-43.6	-26.4	-43.6	744.3	0.031	0.000	21.4	6	-17.8	18.3	1.54	 .0732	23	1	100.0	1
08/06/24	16:55	-26.4	-26.4	-26.4	77	-29.3	24.3	E	0.41	26.1	E	-43.4	-26.5	-43.4	744.4	0.031	0.000	21.4	6	-17.8	18.3	1.54	 .0732	23	1	100.0	1
08/06/24	16:56	-26.6	-26.4	-26.6	77	-29.4	24.3	E	0.41	26.1	E	-43.6	-26.6	-43.6	744.4	0.031	0.000	21.4	6	-17.8	18.3	1.54	 .0732	24	1	100.0	1
08/06/24	16:57	-26.7	-26.6	-26.7	77	-29.5	23.5	E	0.39	25.2	E	-43.6	-26.8	-43.6	744.4	0.031	0.000	21.4	6	-17.8	18.3	1.54	 .0732	23	1	100.0	1
08/06/24	16:58	-26.8	-26.7	-26.8	77	-29.6	25.2	E	0.42	27.0	E	-44.1	-26.8	-44.2	744.4	0.031	0.000	21.4	6	-17.8	18.3	1.54	 .0732	24	1	100.0	1
08/06/24	16:59	-26.8	-26.8	-26.8	77	-29.7	25.2	E	0.42	27.8	E	-44.2	-26.9	-44.2	744.4	0.031	0.000	21.4	6	-17.8	18.3	1.54	 .0732	23	1	100.0	1
08/06/24	17:00	-26.8	-26.8	-26.8	77	-29.7	27.0	E	0.45	28.7	E	-44.6	-26.9	-44.7	744.4	0.031	0.000	21.4	6	-17.8	18.3	1.54	 .0732	23	1	100.0	1
08/06/24	17:01	-26.9	-26.8	-26.9	77	-29.7	27.8	E	0.46	29.6	E	-44.9	-26.9	-44.9	744.5	0.031	0.000	21.4	6	-17.7	18.4	1.54	 .0732	24	1	100.0	1
08/06/24	17:02	-26.9	-26.9	-26.9	77	-29.8	27.0	E	0.45	29.6	E	-44.8	-27.0	-44.8	744.4	0.031	0.000	21.4	6	-17.7	18.4	1.54	 .0732	23	1	100.0	1
08/06/24	17:03	-27.0	-26.9	-27.0	77	-29.8	26.1	E	0.43	27.8	E	-44.6	-27.1	-44.7	744.5	0.031	0.000	21.4	6	-17.7	18.4	1.54	 .0732	24	1	100.0	1
08/06/24	17:04	-27.2	-27.0	-27.2	77	-30.0	27.0	E	0.45	28.7	E	-45.1	-27.2	-45.1	744.5	0.032	0.000	21.4	6	-17.7	18.4	1.54	 .0732	23	1	100.0	1
08/06/24	17:05	-27.3	-27.2	-27.3	77	-30.1	27.0	E	0.45	29.6	E	-45.3	-27.4	-45.3	744.4	0.032	0.000	21.4	6	-17.7	18.4	1.54	 .0732	24	1	100.0	1
08/06/24	17:06	-27.4	-27.3	-27.4	76	-30.3	26.1	E	0.43	27.8	E	-45.2	-27.4	-45.2	744.5	0.032	0.000	21.4	6	-17.7	18.4	1.54	 .0732	23	1	100.0	1
08/06/24	17:07	-27.4	-27.4	-27.4	76	-30.4	26.1	E	0.43	27.8	E	-45.2	-27.5	-45.3	744.5	0.032	0.000	21.4	6	-17.7	18.4	1.54	 .0732	23	1	100.0	1
08/06/24	17:08	-27.5	-27.5	-27.5	76	-30.4	24.3	E	0.41	26.1	E	-44.8	-27.6	-44.9	744.5	0.032	0.000	21.4	6	-17.7	18.4	1.54	 .0732	24	1	100.0	1
08/06/24	17:09	-27.6	-27.5	-27.6	76	-30.5	27.8	E	0.46	30.4	E	-45.8	-27.6	-45.8	744.5	0.032	0.000	21.4	6	-17.7	18.4	1.54	 .0732	23	1	100.0	1
08/06/24	17:10	-27.7	-27.6	-27.7	77	-30.5	28.7	E	0.48	30.4	E	-46.2	-27.7	-46.2	744.4	0.032	0.000	21.4	6	-17.8	18.3	1.54	 .0732	24	1	100.0	1
08/06/24	17:11	-27.7	-27.7	-27.7	77	-30.5	26.1	E	0.43	27.8	E	-45.6	-27.7	-45.6	744.5	0.032	0.000	21.4	6	-17.8	18.3	1.54	 .0732	23	1	100.0	1
08/06/24	17:12	-27.7	-27.7	-27.7	77	-30.5	27.8	E	0.46	29.6	E	-45.9	-27.7	-45.9	744.6	0.032	0.000	21.4	6	-17.8	18.3	1.54	 .0732	23	1	100.0	1
08/06/24	17:13	-27.7	-27.7	-27.7	77	-30.5	27.8	E	0.46	29.6	E	-45.9	-27.7	-45.9	744.6	0.032	0.000	21.4	6	-17.8	18.3	1.54	 .0732	24	1	100.0	1
08/06/24	17:14	-27.7	-27.7	-27.7	77	-30.5	26.1	E	0.43	27.8	E	-45.6	-27.7	-45.6	744.6	0.032	0.000	21.4	6	-17.8	18.3	1.54	 .0732	23	1	100.0	1
08/06/24	17:15	-27.8	-27.8	-27.8	77	-30.6	27.8	E	0.46	29.6	E	-46.1	-27.8	-46.2	744.6	0.032	0.000	21.3	6	-17.8	18.2	1.54	 .0732	24	1	100.0	1
08/06/24	17:16	-27.8	-27.8	-27.8	77	-30.6	28.7	E	0.48	30.4	E	-46.3	-27.8	-46.4	744.6	0.032	0.000	21.3	6	-17.8	18.2	1.54	 .0732	23	1	100.0	1
08/06/24	17:17	-27.7	-27.7	-27.8	77	-30.5	27.8	E	0.46	28.7	E	-46.1	-27.7	-46.1	744.6	0.032	0.000	21.3	6	-17.8	18.2	1.54	 .0732	23	1	100.0	1
08/06/24	17:18	-27.7	-27.7	-27.7	77	-30.5	25.2	E	0.42	27.0	E	-45.4	-27.7	-45.4	744.8	0.032	0.000	21.3	6	-17.8	18.2	1.54	 .0733	24	1	100.0	1
08/06/24	17:19	-27.7	-27.7	-27.7	77	-30.5	25.2	E	0.42	27.8	E	-45.3	-27.7	-45.3	744.8	0.032	0.000	21.3	6	-17.8	18.2	1.54	 .0733	23	1	100.0	1
08/06/24	17:20	-27.7	-27.7	-27.7	77	-30.5	27.0	E	0.45	28.7	E	-45.7	-27.7	-45.7	744.7	0.032	0.000	21.3	5	-20.0	18.1	1.25	 .0733	24	1	100.0	1
08/06/24	17:21	-27.7	-27.7	-27.7	77	-30.5	25.2	E	0.42	27.0	E	-45.3	-27.7	-45.3	744.7	0.032	0.000	21.3	5	-20.0	18.1	1.25	 .0733	23	1	100.0	1
08/06/24	17:22	-27.6	-27.6	-27.7	77	-30.4	26.1	E	0.43	27.0	E	-45.4	-27.6	-45.4	744.8	0.032	0.000	21.3	6	-17.8	18.1	1.54	 .0733	24	1	100.0	1
08/06/24	17:23	-27.6	-27.6	-27.6	77	-30.4	26.1	E	0.43	27.8	E	-45.4	-27.6	-45.4	744.8	0.032	0.000	21.3	5	-20.0	18.1	1.25	 .0733	23	1	100.0	1
08/06/24	17:24	-27.6	-27.6	-27.6	77	-30.4	27.0	E	0.45	28.7	E	-45.6	-27.6	-45.6	744.8	0.032	0.000	21.2	5	-20.0	17.9	1.25	 .0733	23	1	100.0	1
08/06/24	17:25	-27.7	-27.6	-27.7	77	-30.5	24.3	E	0.41	27.8	E	-45.1	-27.7	-45.1	744.8	0.032	0.000	21.2	5	-20.0	17.9	1.25	 .0733	24	1	100.0	1
08/06/24	17:26	-27.7	-27.7	-27.7	77	-30.5	27.0	E	0.45	29.6	E	-45.7	-27.7	-45.7	744.8	0.032	0.000	21.2	6	-17.9	18.0	1.55	 .0733	23	1	100.0	1
08/06/24	17:27	-27.7	-27.7	-27.7	77	-30.5	27.8	E	0.46	29.6	E	-45.9	-27.7	-45.9	744.7	0.032	0.000	21.2	6	-17.9	17.9	1.55	 .0733	24	1	100.0	1
08/06/24	17:28	-27.6	-27.6	-27.7	77	-30.4	26.1	E	0.43	27.8	E	-45.4	-27.6	-45.4	744.8	0.032	0.000	21.2	5	-20.0	17.9	1.25	 .0733	23	1	100.0	1
08/06/24	17:29	-27.6	-27.6	-27.6	77	-30.4	23.5	E	0.39	25.2	E	-44.7	-27.6	-44.7	744.9	0.032	0.000	21.2	5	-20.0	17.9	1.25	 .0733	23	1	100.0	1
08/06/24	17:30	-27.5	-27.5	-27.6	77	-30.3	27.0	E	0.45	28.7	E	-45.5	-27.5	-45.5	744.8	0.032	0.000	21.2	6	-17.9	17.9	1.55	 .0733	24	1	100.0	1
08/06/24	17:31	-27.4	-27.4	-27.5	77	-30.2	28.7	E	0.48	29.6	E	-45.8	-27.4	-45.8	744.7	0.032	0.000	21.2	5	-20.1	17.9	1.25	 .0733	23	1	100.0	1
08/06/24	17:32	-27.3	-27.3	-27.4	77	-30.1	26.1	E	0.43	27.8	E	-45.0	-27.3	-45.1	744.8	0.032	0.000	21.2	6	-17.9	17.9	1.55	 .0733	24	1	100.0	1
08/06/24	17:33	-27.2	-27.2	-27.3	77	-30.0	25.2	E	0.42	27.0	E	-44.7	-27.3	-44.8	744.8	0.032	0.000	21.2	5	-20.0	17.9	1.25	 .0733	23	1	100.0	1
08/06/24	17:34	-27.1	-27.1	-27.2	77	-29.9	27.8	E	0.46	29.6	E	-45.1	-27.1	-45.2	744.8	0.032	0.000	21.2	5	-20.0	17.9	1.25	 .0733	24	1	100.0	1
08/06/24	17:35	-26.9	-26.9	-27.1	77	-29.8	27.8	E	0.46	29.6	E	-44.9	-27.0	-45.0	744.7	0.031	0.000	21.2	5	-20.1	17.9	1.25	 .0733	23	1	100.0	1
08/06/24	17:36	-26.8	-26.8	-26.9	77	-29.6	23.5	E	0.39	27.0	E	-43.6	-26.8	-43.7	744.8	0.031	0.000	21.2	5	-20.0	17.9	1.25	 .0733	23	1	100.0	1
08/06/24	17:37	-26.8	-26.8	-26.8	77	-29.6	24.3	E	0.41	26.1	ESE	-43.9	-26.8	-43.9	744.9	0.031	0.000	21.2	5	-20.0	17.9	1.25	 .0733	24	1	100.0	1
08/06/24	17:38	-26.7	-26.7	-26.8	77	-29.5	27.8	E	0.46	29.6	E	-44.6	-26.7	-44.7	744.8	0.031	0.000	21.2	5	-20.0	17.9	1.25	 .0733	23	1	100.0	1
08/06/24	17:39	-26.6	-26.6	-26.7	77	-29.4	28.7	E	0.48	30.4	E	-44.6	-26.6	-44.7	744.7	0.031	0.000	21.2	5	-20.0	17.9	1.25	 .0733	24	1	100.0	1
08/06/24	17:40	-26.4	-26.4	-26.6	77	-29.3	25.2	E	0.42	27.8	E	-43.7	-26.5	-43.7	744.8	0.031	0.000	21.2	5	-20.0	17.9	1.25	 .0733	23	1	100.0	1
08/06/24	17:41	-26.4	-26.4	-26.4	77	-29.2	22.6	E	0.38	24.3	E	-42.9	-26.4	-42.9	744.9	0.031	0.000	21.2	5	-20.0	17.9	1.25	 .0733	23	1	100.0	1
08/06/24	17:42	-26.3	-26.3	-26.4	77	-29.1	24.3	E	0.41	27.8	E	-43.2	-26.3	-43.2	744.9	0.031	0.000	21.3	5	-20.0	18.1	1.25	 .0733	24	1	100.0	1
08/06/24	17:43	-26.3	-26.3	-26.3	77	-29.1	27.0	E	0.45	28.7	E	-43.8	-26.3	-43.9	744.8	0.031	0.000	21.3	5	-20.0	18.1	1.25	 .0733	23	1	100.0	1
08/06/24	17:44	-26.2	-26.2	-26.3	77	-29.1	27.8	E	0.46	28.7	E	-44.0	-26.3	-44.1	744.8	0.031	0.000	21.3	5	-20.0	18.1	1.25	 .0733	24	1	100.0	1
08/06/24	17:45	-26.2	-26.2	-26.2	77	-29.1	27.0	E	0.45	27.8	E	-43.8	-26.3	-43.8	744.8	0.031	0.000	21.3	5	-20.0	18.1	1.25	 .0733	23	1	100.0	1
08/06/24	17:46	-26.2	-26.2	-26.2	77	-29.1	26.1	E	0.43	28.7	E	-43.6	-26.3	-43.6	744.8	0.031	0.000	21.3	5	-20.0	18.1	1.25	 .0733	23	1	100.0	1
08/06/24	17:47	-26.3	-26.2	-26.3	77	-29.1	27.0	E	0.45	28.7	E	-43.8	-26.3	-43.9	744.8	0.031	0.000	21.3	5	-20.0	18.1	1.25	 .0733	24	1	100.0	1
08/06/24	17:48	-26.2	-26.2	-26.2	77	-29.1	27.8	E	0.46	28.7	E	-44.0	-26.3	-44.1	744.8	0.031	0.000	21.3	5	-20.0	18.1	1.25	 .0733	23	1	100.0	1
08/06/24	17:49	-26.1	-26.1	-26.2	77	-28.9	27.8	E	0.46	29.6	E	-43.8	-26.2	-43.9	744.8	0.031	0.000	21.3	5	-20.0	18.1	1.25	 .0733	24	1	100.0	1
08/06/24	17:50	-26.1	-26.1	-26.1	77	-28.9	27.0	E	0.45	28.7	E	-43.6	-26.2	-43.7	744.8	0.031	0.000	21.3	5	-20.0	18.1	1.25	 .0733	23	1	100.0	1
08/06/24	17:51	-26.1	-26.1	-26.1	77	-28.9	27.8	E	0.46	29.6	E	-43.8	-26.1	-43.8	744.8	0.031	0.000	21.3	5	-20.0	18.1	1.25	 .0733	24	1	100.0	1
08/06/24	17:52	-25.9	-25.9	-26.1	77	-28.8	28.7	E	0.48	30.4	E	-43.8	-26.0	-43.8	744.8	0.031	0.000	21.3	5	-19.9	18.2	1.25	 .0733	23	1	100.0	1
08/06/24	17:53	-25.8	-25.8	-25.9	77	-28.6	28.7	E	0.48	31.3	E	-43.6	-25.8	-43.6	744.9	0.031	0.000	21.3	5	-20.0	18.1	1.25	 .0733	23	1	100.0	1
08/06/24	17:54	-25.6	-25.6	-25.7	77	-28.5	28.7	E	0.48	30.4	E	-43.3	-25.7	-43.4	744.9	0.031	0.000	21.3	5	-19.9	18.2	1.25	 .0733	24	1	100.0	1
08/06/24	17:55	-25.5	-25.5	-25.6	78	-28.2	27.8	E	0.46	31.3	E	-43.0	-25.6	-43.1	744.9	0.030	0.000	21.3	5	-19.9	18.2	1.25	 .0733	23	1	100.0	1
08/06/24	17:56	-25.4	-25.4	-25.5	78	-28.1	27.8	E	0.46	29.6	E	-42.8	-25.4	-42.9	744.9	0.030	0.000	21.3	5	-19.9	18.2	1.25	 .0733	24	1	100.0	1
08/06/24	17:57	-25.3	-25.3	-25.4	78	-28.0	29.6	E	0.49	31.3	E	-43.2	-25.4	-43.2	744.9	0.030	0.000	21.3	5	-19.9	18.2	1.25	 .0733	23	1	100.0	1
08/06/24	17:58	-25.2	-25.2	-25.3	77	-28.1	29.6	E	0.49	31.3	E	-43.0	-25.3	-43.1	744.9	0.030	0.000	21.3	5	-19.9	18.2	1.25	 .0733	23	1	100.0	1
08/06/24	17:59	-25.2	-25.2	-25.2	78	-27.9	29.6	E	0.49	30.4	E	-43.0	-25.3	-43.1	745.0	0.030	0.000	21.3	5	-19.9	18.2	1.25	 .0733	24	1	100.0	1
08/06/24	18:00	-25.2	-25.2	-25.2	78	-27.9	28.7	E	0.48	30.4	E	-42.8	-25.3	-42.9	745.0	0.030	0.000	21.3	5	-19.9	18.2	1.25	 .0733	24	1	100.0	1
08/06/24	18:01	-25.2	-25.2	-25.3	78	-27.9	29.6	E	0.49	31.3	E	-43.0	-25.3	-43.1	744.9	0.030	0.000	21.3	5	-19.9	18.2	1.25	 .0733	23	1	100.0	1
08/06/24	18:02	-25.2	-25.2	-25.2	78	-27.9	30.4	E	0.51	32.2	E	-43.2	-25.3	-43.2	745.0	0.030	0.000	21.3	5	-19.9	18.2	1.25	 .0733	23	1	100.0	1
08/06/24	18:03	-25.2	-25.2	-25.2	78	-27.9	28.7	E	0.48	31.3	E	-42.7	-25.2	-42.8	745.0	0.030	0.000	21.3	5	-19.9	18.2	1.25	 .0733	23	1	100.0	1
08/06/24	18:04	-25.1	-25.1	-25.2	78	-27.8	29.6	E	0.49	32.2	E	-42.8	-25.1	-42.8	745.0	0.030	0.000	21.3	5	-19.9	18.2	1.25	 .0733	24	1	100.0	1
08/06/24	18:05	-24.9	-24.9	-25.1	78	-27.7	30.4	E	0.51	33.0	E	-42.8	-25.0	-42.9	745.0	0.030	0.000	21.3	5	-19.9	18.2	1.25	 .0733	23	1	100.0	1
08/06/24	18:06	-24.8	-24.8	-24.9	78	-27.6	30.4	E	0.51	33.0	E	-42.7	-24.9	-42.7	745.0	0.030	0.000	21.3	5	-19.9	18.2	1.25	 .0733	24	1	100.0	1
08/06/24	18:07	-24.8	-24.8	-24.8	78	-27.6	29.6	E	0.49	30.4	E	-42.4	-24.9	-42.5	745.0	0.030	0.000	21.3	5	-19.9	18.2	1.25	 .0733	23	1	100.0	1
08/06/24	18:08	-24.7	-24.7	-24.8	78	-27.5	29.6	E	0.49	32.2	E	-42.3	-24.8	-42.4	745.1	0.030	0.000	21.3	5	-20.0	18.1	1.25	 .0733	24	1	100.0	1
08/06/24	18:09	-24.7	-24.7	-24.7	78	-27.5	27.8	E	0.46	30.4	E	-41.9	-24.8	-42.0	745.1	0.030	0.000	21.3	5	-19.9	18.2	1.25	 .0733	23	1	100.0	1
08/06/24	18:10	-24.6	-24.6	-24.7	78	-27.3	29.6	E	0.49	31.3	E	-42.1	-24.6	-42.2	745.1	0.030	0.000	21.3	5	-20.0	18.1	1.25	 .0733	23	1	100.0	1
08/06/24	18:11	-24.4	-24.4	-24.6	78	-27.2	29.6	E	0.49	30.4	E	-41.9	-24.5	-42.0	745.1	0.030	0.000	21.3	5	-20.0	18.1	1.25	 .0733	24	1	100.0	1
08/06/24	18:12	-24.3	-24.3	-24.4	78	-27.1	29.6	E	0.49	30.4	E	-41.8	-24.4	-41.8	745.2	0.030	0.000	21.3	5	-20.0	18.1	1.25	 .0733	23	1	100.0	1
08/06/24	18:13	-24.2	-24.2	-24.3	78	-27.0	28.7	E	0.48	29.6	E	-41.4	-24.3	-41.5	745.2	0.030	0.000	21.2	5	-20.0	17.9	1.25	 .0733	24	1	100.0	1
08/06/24	18:14	-24.2	-24.2	-24.2	78	-26.9	29.6	E	0.49	31.3	E	-41.6	-24.2	-41.6	745.2	0.030	0.000	21.2	5	-20.0	17.9	1.25	 .0733	23	1	100.0	1
08/06/24	18:15	-24.2	-24.2	-24.2	78	-27.0	29.6	E	0.49	30.4	E	-41.6	-24.3	-41.7	745.2	0.030	0.000	21.2	5	-20.0	17.9	1.25	 .0733	23	1	100.0	1
08/06/24	18:16	-24.2	-24.2	-24.2	78	-26.9	30.4	E	0.51	33.0	E	-41.7	-24.2	-41.8	745.2	0.030	0.000	21.2	5	-20.0	17.9	1.25	 .0733	24	1	100.0	1
08/06/24	18:17	-24.1	-24.1	-24.2	78	-26.8	30.4	E	0.51	32.2	E	-41.6	-24.1	-41.7	745.2	0.029	0.000	21.2	5	-20.1	17.9	1.25	 .0734	23	1	100.0	1
08/06/24	18:18	-24.0	-24.0	-24.1	78	-26.7	28.7	E	0.48	30.4	E	-41.1	-24.1	-41.2	745.2	0.029	0.000	21.2	5	-20.1	17.9	1.25	 .0734	24	1	100.0	1
08/06/24	18:19	-24.1	-24.0	-24.1	78	-26.8	29.6	E	0.49	31.3	E	-41.4	-24.1	-41.4	745.2	0.029	0.000	21.2	5	-20.1	17.9	1.25	 .0734	23	1	100.0	1
08/06/24	18:20	-24.0	-24.0	-24.1	78	-26.7	30.4	E	0.51	31.3	E	-41.5	-24.1	-41.6	745.2	0.029	0.000	21.2	5	-20.1	17.9	1.25	 .0734	24	1	100.0	1
08/06/24	18:21	-23.9	-23.9	-24.0	78	-26.7	29.6	E	0.49	31.3	E	-41.3	-24.0	-41.3	745.2	0.029	0.000	21.2	5	-20.1	17.9	1.25	 .0734	23	1	100.0	1
08/06/24	18:22	-23.9	-23.9	-23.9	78	-26.6	29.6	E	0.49	31.3	E	-41.2	-23.9	-41.2	745.2	0.029	0.000	21.2	5	-20.1	17.9	1.25	 .0734	23	1	100.0	1
08/06/24	18:23	-23.9	-23.9	-23.9	78	-26.6	28.7	E	0.48	31.3	E	-41.0	-23.9	-41.1	745.2	0.029	0.000	21.1	5	-20.1	17.8	1.25	 .0734	24	1	100.0	1
08/06/24	18:24	-23.9	-23.9	-23.9	78	-26.7	28.7	E	0.48	30.4	E	-41.1	-24.0	-41.1	745.2	0.029	0.000	21.1	5	-20.1	17.8	1.25	 .0734	23	1	100.0	1
08/06/24	18:25	-23.9	-23.9	-23.9	78	-26.7	30.4	E	0.51	31.3	E	-41.4	-24.0	-41.5	745.2	0.029	0.000	21.1	5	-20.1	17.8	1.25	 .0734	24	1	100.0	1
08/06/24	18:26	-23.9	-23.9	-23.9	78	-26.7	29.6	E	0.49	31.3	E	-41.3	-24.0	-41.3	745.2	0.029	0.000	21.1	5	-20.1	17.8	1.25	 .0734	23	1	100.0	1
08/06/24	18:27	-23.9	-23.9	-23.9	78	-26.7	29.6	E	0.49	31.3	E	-41.3	-24.0	-41.3	745.2	0.029	0.000	21.1	5	-20.1	17.8	1.25	 .0734	23	1	100.0	1
08/06/24	18:28	-23.9	-23.9	-23.9	78	-26.6	29.6	E	0.49	31.3	E	-41.2	-23.9	-41.2	745.2	0.029	0.000	21.2	5	-20.1	17.9	1.25	 .0734	24	1	100.0	1
08/06/24	18:29	-23.8	-23.8	-23.9	78	-26.6	29.6	E	0.49	31.3	E	-41.1	-23.9	-41.2	745.3	0.029	0.000	21.1	5	-20.1	17.8	1.25	 .0734	23	1	100.0	1
08/06/24	18:30	-23.8	-23.8	-23.8	78	-26.5	29.6	E	0.49	30.4	E	-41.0	-23.8	-41.1	745.3	0.029	0.000	21.2	5	-20.1	17.9	1.25	 .0734	24	1	100.0	1
08/06/24	18:31	-23.8	-23.8	-23.8	78	-26.5	29.6	E	0.49	31.3	E	-41.0	-23.8	-41.1	745.3	0.029	0.000	21.1	5	-20.1	17.8	1.25	 .0734	23	1	100.0	1
08/06/24	18:32	-23.7	-23.7	-23.8	78	-26.5	29.6	E	0.49	32.2	E	-40.9	-23.8	-41.0	745.3	0.029	0.000	21.2	5	-20.1	17.9	1.25	 .0734	23	1	100.0	1
08/06/24	18:33	-23.7	-23.7	-23.7	78	-26.4	30.4	E	0.51	31.3	E	-41.1	-23.7	-41.1	745.3	0.029	0.000	21.2	5	-20.1	17.9	1.25	 .0734	24	1	100.0	1
08/06/24	18:34	-23.6	-23.6	-23.7	78	-26.4	29.6	E	0.49	31.3	ESE	-40.8	-23.7	-40.8	745.3	0.029	0.000	21.2	5	-20.1	17.9	1.25	 .0734	23	1	100.0	1
08/06/24	18:35	-23.6	-23.6	-23.6	78	-26.3	29.6	E	0.49	30.4	E	-40.7	-23.6	-40.8	745.3	0.029	0.000	21.2	5	-20.1	17.9	1.25	 .0734	24	1	100.0	1
08/06/24	18:36	-23.5	-23.5	-23.6	78	-26.3	29.6	E	0.49	31.3	E	-40.7	-23.6	-40.7	745.3	0.029	0.000	21.2	5	-20.1	17.9	1.25	 .0734	23	1	100.0	1
08/06/24	18:37	-23.5	-23.5	-23.5	78	-26.3	28.7	E	0.48	30.4	E	-40.4	-23.6	-40.5	745.4	0.029	0.000	21.2	5	-20.1	17.9	1.25	 .0734	24	1	100.0	1
08/06/24	18:38	-23.5	-23.5	-23.5	78	-26.3	29.6	E	0.49	30.4	E	-40.7	-23.6	-40.7	745.4	0.029	0.000	21.2	5	-20.1	17.9	1.25	 .0734	23	1	100.0	1
08/06/24	18:39	-23.5	-23.4	-23.5	78	-26.3	28.7	E	0.48	30.4	E	-40.4	-23.6	-40.5	745.4	0.029	0.000	21.2	5	-20.1	17.9	1.25	 .0734	23	1	100.0	1
08/06/24	18:40	-23.4	-23.4	-23.5	78	-26.2	28.7	E	0.48	29.6	E	-40.4	-23.5	-40.4	745.4	0.029	0.000	21.2	5	-20.1	17.9	1.25	 .0734	24	1	100.0	1
08/06/24	18:41	-23.4	-23.4	-23.4	78	-26.2	28.7	E	0.48	29.6	E	-40.4	-23.5	-40.4	745.4	0.029	0.000	21.2	5	-20.1	17.9	1.25	 .0734	23	1	100.0	1
08/06/24	18:42	-23.4	-23.4	-23.4	78	-26.2	28.7	E	0.48	29.6	E	-40.4	-23.5	-40.4	745.4	0.029	0.000	21.2	5	-20.1	17.9	1.25	 .0734	24	1	100.0	1
08/06/24	18:43	-23.4	-23.4	-23.4	78	-26.2	28.7	E	0.48	30.4	E	-40.4	-23.5	-40.4	745.4	0.029	0.000	21.2	5	-20.1	17.9	1.25	 .0734	23	1	100.0	1
08/06/24	18:44	-23.5	-23.4	-23.5	78	-26.3	29.6	E	0.49	31.3	ESE	-40.7	-23.6	-40.7	745.4	0.029	0.000	21.2	5	-20.1	17.9	1.25	 .0734	23	1	100.0	1
08/06/24	18:45	-23.6	-23.5	-23.6	78	-26.3	29.6	E	0.49	31.3	E	-40.7	-23.6	-40.8	745.4	0.029	0.000	21.2	5	-20.1	17.9	1.25	 .0734	24	1	100.0	1
08/06/24	18:46	-23.6	-23.6	-23.6	78	-26.4	30.4	E	0.51	32.2	E	-41.0	-23.7	-41.1	745.4	0.029	0.000	21.2	5	-20.1	17.9	1.25	 .0734	23	1	100.0	1
08/06/24	18:47	-23.6	-23.6	-23.6	78	-26.4	29.6	E	0.49	30.4	E	-40.8	-23.7	-40.8	745.4	0.029	0.000	21.2	5	-20.1	17.9	1.25	 .0734	24	1	100.0	1
08/06/24	18:48	-23.6	-23.6	-23.6	78	-26.3	29.6	E	0.49	30.4	E	-40.7	-23.6	-40.8	745.4	0.029	0.000	21.2	5	-20.0	17.9	1.25	 .0734	23	1	100.0	1
08/06/24	18:49	-23.6	-23.6	-23.6	78	-26.3	28.7	E	0.48	30.4	E	-40.6	-23.6	-40.6	745.4	0.029	0.000	21.2	5	-20.0	17.9	1.25	 .0734	24	1	100.0	1
08/06/24	18:50	-23.5	-23.5	-23.6	78	-26.3	28.7	E	0.48	29.6	E	-40.4	-23.6	-40.5	745.5	0.029	0.000	21.2	5	-20.0	17.9	1.25	 .0734	23	1	100.0	1
08/06/24	18:51	-23.5	-23.5	-23.5	78	-26.3	27.8	E	0.46	29.6	E	-40.3	-23.6	-40.3	745.5	0.029	0.000	21.2	5	-20.0	17.9	1.25	 .0734	23	1	100.0	1
08/06/24	18:52	-23.4	-23.4	-23.5	78	-26.2	28.7	E	0.48	29.6	E	-40.4	-23.5	-40.4	745.5	0.029	0.000	21.2	5	-20.0	17.9	1.25	 .0734	24	1	100.0	1
08/06/24	18:53	-23.4	-23.4	-23.5	78	-26.2	28.7	E	0.48	29.6	E	-40.4	-23.5	-40.4	745.5	0.029	0.000	21.2	5	-20.0	17.9	1.25	 .0734	23	1	100.0	1
08/06/24	18:54	-23.4	-23.4	-23.4	78	-26.2	28.7	E	0.48	29.6	E	-40.4	-23.5	-40.4	745.4	0.029	0.000	21.2	5	-20.0	17.9	1.25	 .0734	24	1	100.0	1
08/06/24	18:55	-23.4	-23.4	-23.4	78	-26.2	28.7	E	0.48	29.6	E	-40.4	-23.5	-40.4	745.5	0.029	0.000	21.2	5	-20.0	17.9	1.25	 .0734	23	1	100.0	1
08/06/24	18:56	-23.4	-23.4	-23.4	78	-26.2	28.7	E	0.48	29.6	E	-40.4	-23.5	-40.4	745.5	0.029	0.000	21.2	5	-20.0	17.9	1.25	 .0734	23	1	100.0	1
08/06/24	18:57	-23.4	-23.4	-23.4	78	-26.2	28.7	E	0.48	29.6	E	-40.4	-23.5	-40.4	745.5	0.029	0.000	21.2	5	-20.0	17.9	1.25	 .0734	24	1	100.0	1
08/06/24	18:58	-23.4	-23.4	-23.4	78	-26.2	28.7	E	0.48	29.6	E	-40.4	-23.5	-40.4	745.5	0.029	0.000	21.2	5	-20.0	17.9	1.25	 .0734	23	1	100.0	1
08/06/24	18:59	-23.4	-23.4	-23.4	78	-26.2	27.8	E	0.46	29.6	E	-40.2	-23.5	-40.2	745.6	0.029	0.000	21.2	5	-20.0	17.9	1.25	 .0734	24	1	100.0	1
08/06/24	19:00	-23.4	-23.4	-23.4	78	-26.2	27.8	E	0.46	28.7	E	-40.1	-23.4	-40.2	745.6	0.029	0.000	21.2	5	-20.0	17.9	1.25	 .0734	23	1	100.0	1
08/06/24	19:01	-23.3	-23.3	-23.4	78	-26.1	27.8	E	0.46	29.6	E	-40.1	-23.4	-40.1	745.6	0.029	0.000	21.2	5	-20.0	17.9	1.25	 .0734	24	1	100.0	1
08/06/24	19:02	-23.3	-23.3	-23.4	78	-26.1	27.8	E	0.46	28.7	E	-40.1	-23.4	-40.1	745.6	0.029	0.000	21.3	5	-20.0	18.1	1.25	 .0734	23	1	100.0	1
08/06/24	19:03	-23.3	-23.3	-23.3	78	-26.0	27.8	E	0.46	28.7	E	-39.9	-23.3	-40.0	745.6	0.029	0.000	21.3	5	-20.0	18.1	1.25	 .0734	23	1	100.0	1
08/06/24	19:04	-23.2	-23.2	-23.3	78	-26.0	27.8	E	0.46	28.7	E	-39.9	-23.3	-39.9	745.6	0.029	0.000	21.3	5	-20.0	18.1	1.25	 .0734	24	1	100.0	1
08/06/24	19:05	-23.2	-23.2	-23.2	78	-26.0	27.0	E	0.45	27.8	E	-39.7	-23.3	-39.7	745.5	0.029	0.000	21.3	5	-20.0	18.1	1.25	 .0734	23	1	100.0	1
08/06/24	19:06	-23.2	-23.2	-23.2	78	-26.0	27.0	E	0.45	27.8	E	-39.7	-23.3	-39.7	745.6	0.029	0.000	21.3	5	-20.0	18.1	1.25	 .0734	24	1	100.0	1
08/06/24	19:07	-23.2	-23.2	-23.3	78	-26.0	27.8	E	0.46	27.8	E	-39.9	-23.3	-39.9	745.5	0.029	0.000	21.3	5	-20.0	18.1	1.25	 .0734	23	1	100.0	1
08/06/24	19:08	-23.2	-23.2	-23.2	78	-25.9	27.8	E	0.46	28.7	E	-39.8	-23.2	-39.9	745.6	0.029	0.000	21.3	5	-20.0	18.1	1.25	 .0734	23	1	100.0	1
08/06/24	19:09	-23.1	-23.1	-23.2	78	-25.8	27.0	E	0.45	28.7	E	-39.4	-23.1	-39.5	745.6	0.029	0.000	21.3	5	-20.0	18.1	1.25	 .0734	24	1	100.0	1
08/06/24	19:10	-23.0	-23.0	-23.1	78	-25.8	27.8	E	0.46	28.7	E	-39.6	-23.1	-39.6	745.5	0.029	0.000	21.3	5	-20.0	18.1	1.25	 .0734	23	1	100.0	1
08/06/24	19:11	-22.8	-22.8	-23.0	78	-25.6	27.0	E	0.45	28.7	E	-39.2	-22.9	-39.2	745.5	0.029	0.000	21.3	5	-20.0	18.1	1.25	 .0734	24	1	100.0	1
08/06/24	19:12	-22.7	-22.7	-22.8	78	-25.5	26.1	E	0.43	27.8	E	-38.8	-22.8	-38.9	745.6	0.029	0.000	21.3	5	-20.0	18.1	1.25	 .0734	23	1	100.0	1
08/06/24	19:13	-22.6	-22.6	-22.7	78	-25.3	26.1	E	0.43	27.0	E	-38.6	-22.6	-38.6	745.6	0.028	0.000	21.3	5	-20.0	18.1	1.25	 .0734	23	1	100.0	1
08/06/24	19:14	-22.5	-22.5	-22.6	78	-25.3	26.1	E	0.43	27.0	E	-38.5	-22.6	-38.6	745.6	0.028	0.000	21.3	5	-20.0	18.1	1.25	 .0734	24	1	100.0	1
08/06/24	19:15	-22.4	-22.4	-22.5	78	-25.2	26.1	E	0.43	27.0	E	-38.4	-22.5	-38.5	745.7	0.028	0.000	21.3	5	-20.0	18.1	1.25	 .0734	23	1	100.0	1
08/06/24	19:16	-22.5	-22.5	-22.5	78	-25.3	26.1	E	0.43	27.0	E	-38.5	-22.6	-38.6	745.7	0.028	0.000	21.3	5	-20.0	18.1	1.25	 .0734	24	1	100.0	1
08/06/24	19:17	-22.5	-22.5	-22.5	78	-25.3	25.2	E	0.42	26.1	E	-38.3	-22.6	-38.3	745.6	0.028	0.000	21.3	5	-20.0	18.1	1.25	 .0734	23	1	100.0	1
08/06/24	19:18	-22.5	-22.5	-22.5	78	-25.3	25.2	E	0.42	26.1	ESE	-38.3	-22.6	-38.3	745.7	0.028	0.000	21.3	5	-20.0	18.1	1.25	 .0734	24	1	100.0	1
08/06/24	19:19	-22.7	-22.6	-22.7	78	-25.4	25.2	E	0.42	27.0	E	-38.5	-22.7	-38.6	745.7	0.028	0.000	21.3	5	-20.0	18.1	1.25	 .0734	23	1	100.0	1
08/06/24	19:20	-22.7	-22.7	-22.7	78	-25.5	26.1	E	0.43	27.0	E	-38.8	-22.8	-38.9	745.7	0.029	0.000	21.2	5	-20.0	17.9	1.25	 .0734	23	1	100.0	1
08/06/24	19:21	-22.8	-22.8	-22.8	78	-25.6	26.1	E	0.43	27.0	E	-38.9	-22.9	-39.0	745.7	0.029	0.000	21.2	5	-20.0	17.9	1.25	 .0734	24	1	100.0	1
08/06/24	19:22	-22.8	-22.8	-22.8	78	-25.6	26.1	E	0.43	27.0	E	-38.9	-22.9	-39.0	745.7	0.029	0.000	21.2	5	-20.0	17.9	1.25	 .0734	23	1	100.0	1
08/06/24	19:23	-22.8	-22.8	-22.9	78	-25.6	26.1	E	0.43	27.0	E	-38.9	-22.9	-39.0	745.7	0.029	0.000	21.2	5	-20.1	17.9	1.25	 .0734	24	1	100.0	1
08/06/24	19:24	-22.8	-22.8	-22.8	78	-25.6	25.2	E	0.42	26.1	E	-38.8	-22.9	-38.8	745.8	0.029	0.000	21.2	5	-20.1	17.9	1.25	 .0734	23	1	100.0	1
08/06/24	19:25	-22.8	-22.8	-22.8	78	-25.6	25.2	E	0.42	27.0	E	-38.8	-22.9	-38.8	745.7	0.029	0.000	21.2	5	-20.1	17.9	1.25	 .0734	23	1	100.0	1
08/06/24	19:26	-22.8	-22.8	-22.8	78	-25.6	25.2	E	0.42	26.1	E	-38.7	-22.8	-38.7	745.7	0.029	0.000	21.1	5	-20.1	17.8	1.25	 .0734	24	1	100.0	1
08/06/24	19:27	-22.8	-22.8	-22.8	78	-25.6	25.2	E	0.42	27.0	E	-38.7	-22.8	-38.7	745.8	0.029	0.000	21.1	5	-20.1	17.8	1.25	 .0734	23	1	100.0	1
08/06/24	19:28	-22.8	-22.8	-22.8	78	-25.6	25.2	E	0.42	26.1	E	-38.7	-22.8	-38.7	745.7	0.029	0.000	21.1	5	-20.1	17.8	1.25	 .0734	24	1	100.0	1
08/06/24	19:29	-22.8	-22.8	-22.8	78	-25.6	25.2	E	0.42	27.0	ESE	-38.7	-22.8	-38.7	745.7	0.029	0.000	21.1	5	-20.1	17.8	1.25	 .0734	23	1	100.0	1
08/06/24	19:30	-22.7	-22.7	-22.8	78	-25.5	25.2	E	0.42	26.1	E	-38.6	-22.8	-38.7	745.7	0.029	0.000	21.1	5	-20.1	17.7	1.25	 .0734	24	1	100.0	1
08/06/24	19:31	-22.7	-22.7	-22.7	78	-25.5	24.3	E	0.41	24.3	E	-38.4	-22.8	-38.4	745.8	0.029	0.000	21.1	5	-20.1	17.7	1.25	 .0734	23	1	100.0	1
08/06/24	19:32	-22.8	-22.7	-22.8	78	-25.6	24.3	E	0.41	25.2	ESE	-38.4	-22.8	-38.5	745.8	0.029	0.000	21.1	5	-20.1	17.7	1.25	 .0734	23	1	100.0	1
08/06/24	19:33	-22.8	-22.8	-22.8	78	-25.6	23.5	E	0.39	24.3	E	-38.3	-22.9	-38.4	745.8	0.029	0.000	21.1	5	-20.1	17.7	1.25	 .0734	24	1	100.0	1
08/06/24	19:34	-22.8	-22.8	-22.8	78	-25.6	23.5	E	0.39	25.2	E	-38.3	-22.9	-38.4	745.8	0.029	0.000	21.1	5	-20.1	17.7	1.25	 .0735	23	1	100.0	1
08/06/24	19:35	-22.8	-22.8	-22.8	78	-25.6	23.5	E	0.39	24.3	E	-38.3	-22.9	-38.4	745.8	0.029	0.000	21.1	5	-20.1	17.7	1.25	 .0735	24	1	100.0	1
08/06/24	19:36	-22.8	-22.8	-22.8	78	-25.6	23.5	E	0.39	24.3	E	-38.2	-22.8	-38.3	745.8	0.029	0.000	21.1	5	-20.1	17.7	1.25	 .0735	23	1	100.0	1
08/06/24	19:37	-22.8	-22.8	-22.8	78	-25.6	23.5	E	0.39	24.3	E	-38.2	-22.8	-38.3	745.9	0.029	0.000	21.1	5	-20.1	17.7	1.25	 .0735	23	1	100.0	1
08/06/24	19:38	-22.8	-22.8	-22.8	78	-25.6	22.6	E	0.38	23.5	E	-38.0	-22.8	-38.1	745.9	0.029	0.000	21.1	5	-20.1	17.7	1.25	 .0735	24	1	100.0	1
08/06/24	19:39	-22.8	-22.8	-22.8	78	-25.6	20.9	E	0.35	22.6	E	-37.6	-22.8	-37.6	746.0	0.029	0.000	21.1	5	-20.1	17.7	1.25	 .0735	23	1	100.0	1
08/06/24	19:40	-22.8	-22.8	-22.8	78	-25.6	20.9	E	0.35	21.7	E	-37.6	-22.9	-37.7	746.0	0.029	0.000	21.1	5	-20.1	17.7	1.25	 .0735	24	1	100.0	1
08/06/24	19:41	-22.9	-22.8	-22.9	78	-25.7	20.9	E	0.35	22.6	E	-37.7	-22.9	-37.8	746.0	0.029	0.000	21.1	5	-20.1	17.7	1.25	 .0735	23	1	100.0	1
08/06/24	19:42	-22.9	-22.9	-22.9	78	-25.7	20.9	E	0.35	21.7	E	-37.7	-22.9	-37.8	746.0	0.029	0.000	21.1	5	-20.1	17.7	1.25	 .0735	23	1	100.0	1
08/06/24	19:43	-22.9	-22.9	-22.9	78	-25.7	20.0	E	0.33	21.7	E	-37.4	-22.9	-37.5	746.1	0.029	0.000	21.1	5	-20.1	17.7	1.25	 .0735	24	1	100.0	1
08/06/24	19:44	-22.8	-22.8	-22.9	78	-25.6	20.0	E	0.33	21.7	E	-37.4	-22.9	-37.4	746.1	0.029	0.000	21.1	5	-20.1	17.7	1.25	 .0735	23	1	100.0	1
08/06/24	19:45	-22.8	-22.8	-22.8	78	-25.6	19.1	E	0.32	20.9	E	-37.1	-22.8	-37.1	746.2	0.029	0.000	21.1	5	-20.1	17.7	1.25	 .0735	24	1	100.0	1
08/06/24	19:46	-22.7	-22.7	-22.8	78	-25.5	18.3	E	0.30	20.0	E	-36.7	-22.8	-36.8	746.2	0.029	0.000	21.1	5	-20.1	17.7	1.25	 .0735	23	1	100.0	1
08/06/24	19:47	-22.7	-22.7	-22.7	78	-25.4	18.3	E	0.30	20.0	E	-36.6	-22.7	-36.7	746.2	0.028	0.000	21.1	5	-20.1	17.7	1.25	 .0735	24	1	100.0	1
08/06/24	19:48	-22.7	-22.7	-22.7	78	-25.5	18.3	E	0.30	20.0	E	-36.7	-22.8	-36.8	746.3	0.029	0.000	21.1	5	-20.1	17.7	1.25	 .0735	23	1	100.0	1
08/06/24	19:49	-22.7	-22.7	-22.7	78	-25.5	18.3	E	0.30	20.0	ESE	-36.7	-22.8	-36.8	746.3	0.029	0.000	21.1	5	-20.1	17.7	1.25	 .0735	23	1	100.0	1
08/06/24	19:50	-22.7	-22.7	-22.7	78	-25.5	18.3	E	0.30	20.0	ESE	-36.7	-22.8	-36.8	746.3	0.029	0.000	21.1	5	-20.1	17.7	1.25	 .0735	24	1	100.0	1
08/06/24	19:51	-22.7	-22.7	-22.7	78	-25.4	17.4	ESE	0.29	18.3	E	-36.3	-22.7	-36.4	746.4	0.028	0.000	21.1	5	-20.1	17.7	1.25	 .0735	23	1	100.0	1
08/06/24	19:52	-22.6	-22.6	-22.7	78	-25.3	15.7	ESE	0.26	16.5	E	-35.6	-22.6	-35.7	746.4	0.028	0.000	21.1	5	-20.1	17.8	1.25	 .0735	24	1	100.0	1
08/06/24	19:53	-22.5	-22.5	-22.6	78	-25.3	15.7	E	0.26	16.5	E	-35.6	-22.6	-35.6	746.4	0.028	0.000	21.1	5	-20.1	17.8	1.25	 .0735	23	1	100.0	1
08/06/24	19:54	-22.4	-22.4	-22.5	78	-25.2	16.5	E	0.28	17.4	ESE	-35.8	-22.5	-35.8	746.4	0.028	0.000	21.1	5	-20.1	17.8	1.25	 .0735	23	1	100.0	1
08/06/24	19:55	-22.3	-22.3	-22.4	78	-25.1	16.5	ESE	0.28	17.4	E	-35.6	-22.4	-35.7	746.4	0.028	0.000	21.1	5	-20.1	17.8	1.25	 .0735	24	1	100.0	1
08/06/24	19:56	-22.2	-22.2	-22.3	78	-25.0	15.7	ESE	0.26	16.5	E	-35.2	-22.3	-35.2	746.5	0.028	0.000	21.1	5	-20.1	17.8	1.25	 .0735	23	1	100.0	1
08/06/24	19:57	-22.2	-22.2	-22.2	78	-25.0	14.8	ESE	0.25	16.5	ESE	-34.9	-22.3	-34.9	746.5	0.028	0.000	21.1	5	-20.1	17.8	1.25	 .0735	24	1	100.0	1
08/06/24	19:58	-22.2	-22.2	-22.2	78	-25.0	14.8	ESE	0.25	15.7	ESE	-34.9	-22.3	-34.9	746.5	0.028	0.000	21.1	5	-20.1	17.8	1.25	 .0735	23	1	100.0	1
08/06/24	19:59	-22.2	-22.2	-22.2	78	-25.0	15.7	E	0.26	16.5	E	-35.2	-22.3	-35.2	746.5	0.028	0.000	21.1	5	-20.1	17.8	1.25	 .0735	24	1	100.0	1
08/06/24	20:00	-22.2	-22.2	-22.2	78	-25.0	16.5	E	0.28	18.3	E	-35.4	-22.2	-35.4	746.6	0.028	0.000	21.1	5	-20.1	17.8	1.25	 .0735	23	1	100.0	1
08/06/24	20:01	-22.0	-22.0	-22.1	78	-24.8	14.8	E	0.25	15.7	E	-34.6	-22.1	-34.6	746.5	0.028	0.000	21.1	5	-20.1	17.8	1.25	 .0735	23	1	100.0	1
08/06/24	20:02	-21.9	-21.9	-22.0	78	-24.7	13.9	E	0.23	14.8	E	-34.1	-21.9	-34.2	746.6	0.028	0.000	21.1	5	-20.1	17.8	1.25	 .0735	24	1	100.0	1
08/06/24	20:03	-21.8	-21.8	-21.8	78	-24.6	13.9	E	0.23	15.7	E	-34.1	-21.9	-34.1	746.6	0.028	0.000	21.1	5	-20.1	17.8	1.25	 .0735	23	1	100.0	1
08/06/24	20:04	-21.8	-21.8	-21.8	78	-24.6	11.3	E	0.19	13.0	E	-32.9	-21.9	-33.0	746.7	0.028	0.000	21.2	5	-20.1	17.9	1.25	 .0735	24	1	100.0	1
08/06/24	20:05	-21.8	-21.8	-21.8	78	-24.6	13.0	E	0.22	14.8	E	-33.6	-21.8	-33.7	746.7	0.028	0.000	21.1	5	-20.1	17.8	1.25	 .0735	23	1	100.0	1
08/06/24	20:06	-21.7	-21.7	-21.8	78	-24.5	12.2	E	0.20	13.9	E	-33.2	-21.8	-33.2	746.7	0.028	0.000	21.1	5	-20.1	17.8	1.25	 .0735	23	1	100.0	1
08/06/24	20:07	-21.7	-21.7	-21.7	78	-24.5	11.3	E	0.19	13.0	E	-32.8	-21.8	-32.8	746.8	0.028	0.000	21.2	5	-20.1	17.9	1.25	 .0735	24	1	100.0	1
08/06/24	20:08	-21.8	-21.7	-21.8	78	-24.6	13.0	E	0.22	13.9	E	-33.7	-21.9	-33.7	746.8	0.028	0.000	21.2	5	-20.1	17.9	1.25	 .0735	23	1	100.0	1
08/06/24	20:09	-21.8	-21.8	-21.8	78	-24.6	13.0	E	0.22	13.9	E	-33.7	-21.9	-33.7	746.8	0.028	0.000	21.2	5	-20.1	17.9	1.25	 .0735	24	1	100.0	1
08/06/24	20:10	-21.9	-21.8	-21.9	78	-24.7	12.2	E	0.20	13.0	E	-33.4	-21.9	-33.4	746.8	0.028	0.000	21.2	5	-20.1	17.9	1.25	 .0735	23	1	100.0	1
08/06/24	20:11	-21.9	-21.9	-21.9	78	-24.7	11.3	E	0.19	12.2	E	-33.1	-22.0	-33.1	746.8	0.028	0.000	21.2	5	-20.1	17.9	1.25	 .0735	23	1	100.0	1
08/06/24	20:12	-22.1	-22.0	-22.1	78	-24.9	11.3	E	0.19	12.2	E	-33.3	-22.2	-33.3	746.8	0.028	0.000	21.2	5	-20.1	17.9	1.25	 .0735	24	1	100.0	1
08/06/24	20:13	-22.2	-22.2	-22.2	78	-25.0	13.0	E	0.22	13.9	E	-34.2	-22.3	-34.2	746.8	0.028	0.000	21.2	5	-20.1	17.9	1.25	 .0735	23	1	100.0	1
08/06/24	20:14	-22.3	-22.2	-22.3	78	-25.1	13.0	E	0.22	13.9	E	-34.3	-22.4	-34.4	746.9	0.028	0.000	21.2	5	-20.1	17.9	1.25	 .0735	24	1	100.0	1
08/06/24	20:15	-22.3	-22.3	-22.4	78	-25.1	13.0	E	0.22	13.9	E	-34.3	-22.4	-34.4	746.8	0.028	0.000	21.2	5	-20.0	17.9	1.25	 .0735	23	1	100.0	1
08/06/24	20:16	-22.2	-22.2	-22.3	78	-25.0	12.2	E	0.20	13.0	E	-33.8	-22.2	-33.8	746.8	0.028	0.000	21.2	5	-20.0	17.9	1.25	 .0735	24	1	100.0	1
08/06/24	20:17	-22.1	-22.1	-22.1	78	-24.9	11.3	E	0.19	12.2	E	-33.2	-22.1	-33.3	746.9	0.028	0.000	21.2	5	-20.0	17.9	1.25	 .0735	23	1	100.0	1
08/06/24	20:18	-22.0	-22.0	-22.1	78	-24.8	12.2	E	0.20	13.0	E	-33.6	-22.1	-33.6	746.9	0.028	0.000	21.2	5	-20.0	17.9	1.25	 .0735	23	1	100.0	1
08/06/24	20:19	-22.1	-22.0	-22.1	78	-24.9	12.2	E	0.20	13.0	E	-33.6	-22.1	-33.7	746.9	0.028	0.000	21.3	5	-20.0	18.1	1.25	 .0735	24	1	100.0	1
08/06/24	20:20	-22.1	-22.0	-22.1	78	-24.9	13.0	E	0.22	13.9	E	-34.0	-22.1	-34.1	746.9	0.028	0.000	21.3	5	-20.0	18.1	1.25	 .0735	23	1	100.0	1
08/06/24	20:21	-22.1	-22.1	-22.1	78	-24.9	13.0	E	0.22	13.9	E	-34.0	-22.1	-34.1	746.9	0.028	0.000	21.3	5	-20.0	18.1	1.25	 .0735	24	1	100.0	1
08/06/24	20:22	-22.0	-22.0	-22.1	78	-24.8	13.0	E	0.22	13.9	E	-33.9	-22.1	-33.9	746.9	0.028	0.000	21.3	5	-20.0	18.1	1.25	 .0735	23	1	100.0	1
08/06/24	20:23	-21.9	-21.9	-22.0	78	-24.7	13.9	E	0.23	14.8	E	-34.2	-22.0	-34.2	746.9	0.028	0.000	21.3	5	-20.0	18.1	1.25	 .0735	23	1	100.0	1
08/06/24	20:24	-21.9	-21.9	-21.9	78	-24.7	13.9	E	0.23	13.9	E	-34.2	-22.0	-34.2	746.9	0.028	0.000	21.3	5	-20.0	18.1	1.25	 .0735	24	1	100.0	1
08/06/24	20:25	-21.9	-21.9	-21.9	78	-24.7	12.2	E	0.20	13.0	E	-33.4	-22.0	-33.5	746.9	0.028	0.000	21.3	5	-20.0	18.1	1.25	 .0735	23	1	100.0	1
08/06/24	20:26	-21.9	-21.9	-21.9	78	-24.7	13.0	E	0.22	13.9	E	-33.8	-21.9	-33.8	746.9	0.028	0.000	21.3	5	-20.0	18.1	1.25	 .0735	24	1	100.0	1
08/06/24	20:27	-21.9	-21.9	-21.9	78	-24.7	12.2	E	0.20	13.0	E	-33.4	-22.0	-33.5	746.9	0.028	0.000	21.3	5	-20.0	18.1	1.25	 .0735	23	1	100.0	1
08/06/24	20:28	-21.9	-21.9	-21.9	78	-24.7	12.2	E	0.20	13.9	E	-33.4	-22.0	-33.5	746.9	0.028	0.000	21.2	5	-20.0	17.9	1.25	 .0735	24	1	100.0	1
08/06/24	20:29	-21.9	-21.9	-21.9	78	-24.7	13.9	E	0.23	14.8	E	-34.1	-21.9	-34.2	746.9	0.028	0.000	21.2	5	-20.0	17.9	1.25	 .0735	23	1	100.0	1
08/06/24	20:30	-21.7	-21.7	-21.9	78	-24.5	13.0	E	0.22	14.8	E	-33.5	-21.7	-33.6	746.9	0.028	0.000	21.2	5	-20.0	17.9	1.25	 .0735	23	1	100.0	1
08/06/24	20:31	-21.5	-21.5	-21.7	78	-24.3	12.2	E	0.20	13.0	E	-32.9	-21.6	-32.9	746.9	0.028	0.000	21.2	5	-20.1	17.9	1.25	 .0735	24	1	100.0	1
08/06/24	20:32	-21.4	-21.4	-21.4	79	-24.1	12.2	E	0.20	13.9	E	-32.8	-21.4	-32.8	747.0	0.028	0.000	21.2	5	-20.1	17.9	1.25	 .0735	23	1	100.0	1
08/06/24	20:33	-21.4	-21.3	-21.4	79	-24.1	11.3	E	0.19	13.0	E	-32.4	-21.4	-32.4	747.0	0.028	0.000	21.2	5	-20.1	17.9	1.25	 .0735	24	1	100.0	1
08/06/24	20:34	-21.4	-21.4	-21.4	79	-24.1	12.2	E	0.20	13.0	E	-32.8	-21.5	-32.9	747.0	0.028	0.000	21.2	5	-20.1	17.9	1.25	 .0735	23	1	100.0	1
08/06/24	20:35	-21.3	-21.3	-21.4	79	-24.0	13.0	E	0.22	16.5	E	-33.1	-21.4	-33.1	746.9	0.028	0.000	21.1	5	-20.1	17.8	1.25	 .0735	23	1	100.0	1
08/06/24	20:36	-21.2	-21.2	-21.3	79	-23.8	12.2	E	0.20	13.0	E	-32.5	-21.2	-32.6	746.9	0.027	0.000	21.1	5	-20.1	17.8	1.25	 .0735	24	1	100.0	1
08/06/24	20:37	-21.1	-21.1	-21.1	78	-23.9	11.3	E	0.19	13.9	E	-31.9	-21.1	-32.0	746.9	0.027	0.000	21.1	5	-20.1	17.7	1.25	 .0736	23	1	100.0	1
08/06/24	20:38	-20.9	-20.9	-21.0	79	-23.6	13.0	E	0.22	13.9	E	-32.6	-21.0	-32.6	746.9	0.027	0.000	21.1	5	-20.1	17.7	1.25	 .0736	24	1	100.0	1
08/06/24	20:39	-20.8	-20.8	-20.9	78	-23.6	10.4	E	0.17	12.2	E	-31.2	-20.8	-31.3	746.9	0.027	0.000	21.1	5	-20.1	17.7	1.25	 .0736	23	1	100.0	1
08/06/24	20:40	-20.6	-20.6	-20.7	78	-23.4	10.4	E	0.17	12.2	E	-31.0	-20.7	-31.1	747.0	0.027	0.000	21.1	5	-20.1	17.7	1.25	 .0736	24	1	100.0	1
08/06/24	20:41	-20.6	-20.6	-20.7	78	-23.4	11.3	E	0.19	13.0	E	-31.4	-20.7	-31.4	747.0	0.027	0.000	21.1	5	-20.1	17.7	1.25	 .0736	23	1	100.0	1
08/06/24	20:42	-20.6	-20.6	-20.6	78	-23.4	11.3	E	0.19	12.2	E	-31.3	-20.6	-31.4	747.0	0.027	0.000	21.1	5	-20.1	17.7	1.25	 .0736	23	1	100.0	1
08/06/24	20:43	-20.6	-20.6	-20.6	78	-23.4	11.3	E	0.19	13.0	E	-31.4	-20.7	-31.4	747.0	0.027	0.000	21.1	5	-20.1	17.7	1.25	 .0736	24	1	100.0	1
08/06/24	20:44	-20.6	-20.6	-20.7	78	-23.4	8.7	E	0.14	10.4	E	-30.1	-20.7	-30.2	747.0	0.027	0.000	21.0	5	-20.2	17.7	1.25	 .0736	23	1	100.0	1
08/06/24	20:45	-20.6	-20.6	-20.6	78	-23.4	8.7	E	0.14	9.6	E	-30.1	-20.7	-30.2	747.0	0.027	0.000	21.0	5	-20.2	17.7	1.25	 .0736	24	1	100.0	1
08/06/24	20:46	-20.6	-20.6	-20.6	78	-23.4	8.7	E	0.14	10.4	ESE	-30.0	-20.6	-30.1	747.0	0.027	0.000	21.0	5	-20.2	17.7	1.25	 .0736	23	1	100.0	1
08/06/24	20:47	-20.6	-20.6	-20.6	78	-23.4	9.6	E	0.16	10.4	E	-30.5	-20.6	-30.6	747.0	0.027	0.000	21.0	5	-20.2	17.7	1.25	 .0736	23	1	100.0	1
08/06/24	20:48	-20.5	-20.5	-20.6	78	-23.3	8.7	E	0.14	10.4	E	-29.9	-20.6	-30.0	747.1	0.027	0.000	21.0	5	-20.2	17.7	1.25	 .0736	24	1	100.0	1
08/06/24	20:49	-20.4	-20.4	-20.4	78	-23.2	8.7	E	0.14	10.4	E	-29.8	-20.4	-29.9	747.1	0.027	0.000	21.0	5	-20.2	17.7	1.25	 .0736	23	1	100.0	1
08/06/24	20:50	-20.3	-20.3	-20.4	78	-23.2	7.8	E	0.13	7.8	E	-29.2	-20.4	-29.3	747.1	0.027	0.000	21.0	5	-20.2	17.7	1.25	 .0736	24	1	100.0	1
08/06/24	20:51	-20.3	-20.3	-20.3	78	-23.1	7.8	E	0.13	8.7	E	-29.2	-20.3	-29.2	747.1	0.027	0.000	21.0	5	-20.2	17.7	1.25	 .0736	23	1	100.0	1
08/06/24	20:52	-20.1	-20.1	-20.2	78	-23.0	7.0	SE	0.12	8.7	SE	-28.4	-20.2	-28.4	747.1	0.027	0.000	21.1	5	-20.1	17.7	1.25	 .0736	24	1	100.0	1
08/06/24	20:53	-19.9	-19.9	-20.1	78	-22.8	7.8	SSE	0.13	9.6	S	-28.8	-20.0	-28.8	747.2	0.027	0.000	21.1	5	-20.1	17.7	1.25	 .0736	23	1	100.0	1
08/06/24	20:54	-19.8	-19.8	-19.9	78	-22.6	6.1	SSE	0.10	7.8	S	-27.4	-19.8	-27.4	747.2	0.026	0.000	21.1	5	-20.1	17.7	1.25	 .0736	23	1	100.0	1
08/06/24	20:55	-19.6	-19.6	-19.7	78	-22.4	6.1	SSW	0.10	9.6	SSW	-27.1	-19.6	-27.2	747.2	0.026	0.000	21.1	5	-20.1	17.7	1.25	 .0736	24	1	100.0	1
08/06/24	20:56	-19.3	-19.3	-19.5	78	-22.2	7.0	SSW	0.12	8.7	SSW	-27.4	-19.4	-27.5	747.2	0.026	0.000	21.1	5	-20.1	17.7	1.25	 .0736	23	1	100.0	1
08/06/24	20:57	-19.1	-19.1	-19.3	78	-22.0	7.0	SSW	0.12	8.7	SSW	-27.2	-19.2	-27.2	747.2	0.026	0.000	21.1	5	-20.1	17.7	1.25	 .0736	24	1	100.0	1
08/06/24	20:58	-19.0	-19.0	-19.1	78	-21.9	6.1	SSW	0.10	8.7	SSW	-26.4	-19.1	-26.5	747.2	0.026	0.000	21.1	5	-20.1	17.7	1.25	 .0736	23	1	100.0	1
08/06/24	20:59	-18.9	-18.9	-19.0	78	-21.8	5.2	SSW	0.09	7.0	SSW	-25.7	-19.0	-25.8	747.2	0.026	0.000	21.1	5	-20.1	17.7	1.25	 .0736	23	1	100.0	1
08/06/24	21:00	-18.9	-18.9	-18.9	77	-21.9	7.0	S	0.12	7.8	S	-26.9	-18.9	-27.0	747.1	0.026	0.000	21.1	5	-20.1	17.7	1.25	 .0736	24	1	100.0	1
08/06/24	21:01	-18.9	-18.8	-18.9	77	-21.9	7.0	S	0.12	7.8	S	-26.9	-18.9	-27.0	747.2	0.026	0.000	21.1	5	-20.1	17.7	1.25	 .0736	23	1	100.0	1
08/06/24	21:02	-18.8	-18.8	-18.9	77	-21.9	6.1	S	0.10	7.0	S	-26.3	-18.9	-26.3	747.2	0.026	0.000	21.1	5	-20.1	17.7	1.25	 .0736	24	1	100.0	1
08/06/24	21:03	-18.9	-18.8	-18.9	76	-22.1	6.1	S	0.10	7.0	S	-26.3	-18.9	-26.4	747.2	0.026	0.000	21.1	5	-20.1	17.8	1.25	 .0736	23	1	100.0	1
08/06/24	21:04	-18.9	-18.9	-18.9	76	-22.1	6.1	S	0.10	7.0	S	-26.3	-18.9	-26.4	747.2	0.026	0.000	21.1	5	-20.1	17.7	1.25	 .0736	23	1	100.0	1
08/06/24	21:05	-18.9	-18.9	-18.9	76	-22.1	6.1	S	0.10	7.0	S	-26.4	-19.0	-26.4	747.3	0.026	0.000	21.1	5	-20.1	17.7	1.25	 .0736	24	1	100.0	1
08/06/24	21:06	-18.9	-18.9	-18.9	75	-22.3	6.1	S	0.10	6.1	S	-26.4	-19.0	-26.4	747.3	0.026	0.000	21.1	5	-20.1	17.7	1.25	 .0736	23	1	100.0	1
08/06/24	21:07	-19.0	-18.9	-19.0	75	-22.3	6.1	S	0.10	7.0	S	-26.4	-19.1	-26.5	747.3	0.026	0.000	21.1	5	-20.1	17.8	1.25	 .0736	24	1	100.0	1
08/06/24	21:08	-19.1	-19.0	-19.1	74	-22.5	6.1	SSW	0.10	7.0	SSW	-26.5	-19.1	-26.6	747.3	0.026	0.000	21.1	5	-20.1	17.8	1.25	 .0736	23	1	100.0	1
08/06/24	21:09	-19.1	-19.1	-19.1	74	-22.6	7.0	S	0.12	7.8	S	-27.2	-19.2	-27.2	747.3	0.026	0.000	21.1	5	-20.1	17.8	1.25	 .0736	24	1	100.0	1
08/06/24	21:10	-19.2	-19.1	-19.2	74	-22.6	6.1	S	0.10	7.0	S	-26.7	-19.2	-26.7	747.3	0.026	0.000	21.1	5	-20.1	17.8	1.25	 .0736	23	1	100.0	1
08/06/24	21:11	-19.2	-19.1	-19.2	74	-22.6	7.0	S	0.12	7.0	S	-27.3	-19.2	-27.3	747.3	0.026	0.000	21.1	5	-20.1	17.8	1.25	 .0736	23	1	100.0	1
08/06/24	21:12	-19.2	-19.1	-19.2	74	-22.6	7.0	S	0.12	7.8	S	-27.3	-19.2	-27.3	747.3	0.026	0.000	21.1	5	-20.1	17.8	1.25	 .0736	24	1	100.0	1
08/06/24	21:13	-19.1	-19.1	-19.2	74	-22.6	7.8	S	0.13	8.7	S	-27.7	-19.2	-27.8	747.3	0.026	0.000	21.1	5	-20.1	17.8	1.25	 .0736	23	1	100.0	1
08/06/24	21:14	-19.2	-19.1	-19.2	74	-22.6	6.1	S	0.10	7.8	SSE	-26.7	-19.2	-26.7	747.3	0.026	0.000	21.1	5	-20.1	17.8	1.25	 .0736	24	1	100.0	1
08/06/24	21:15	-19.2	-19.2	-19.2	74	-22.7	5.2	SSE	0.09	6.1	SSE	-26.1	-19.3	-26.1	747.3	0.026	0.000	21.1	5	-20.1	17.8	1.25	 .0736	23	1	100.0	1
08/06/24	21:16	-19.3	-19.3	-19.3	74	-22.8	4.3	SE	0.07	6.1	ESE	-25.4	-19.4	-25.4	747.3	0.026	0.000	21.1	5	-20.1	17.8	1.25	 .0736	23	1	100.0	1
08/06/24	21:17	-19.4	-19.3	-19.4	73	-23.1	3.5	SE	0.06	4.3	SE	-24.6	-19.5	-24.7	747.3	0.026	0.000	21.2	5	-20.1	17.9	1.25	 .0736	24	1	100.0	1
08/06/24	21:18	-19.6	-19.5	-19.6	73	-23.2	4.3	SE	0.07	6.1	ESE	-25.7	-19.6	-25.7	747.3	0.026	0.000	21.2	5	-20.1	17.9	1.25	 .0736	23	1	100.0	1
08/06/24	21:19	-19.6	-19.6	-19.6	73	-23.2	3.5	SE	0.06	5.2	ESE	-24.8	-19.7	-24.8	747.3	0.026	0.000	21.2	5	-20.1	17.9	1.25	 .0736	24	1	100.0	1
08/06/24	21:20	-19.7	-19.7	-19.7	73	-23.3	3.5	SE	0.06	4.3	SE	-24.8	-19.7	-24.9	747.3	0.026	0.000	21.2	5	-20.1	17.9	1.25	 .0736	23	1	100.0	1
08/06/24	21:21	-19.7	-19.7	-19.7	74	-23.2	3.5	SE	0.06	4.3	SE	-24.9	-19.8	-24.9	747.4	0.026	0.000	21.2	5	-20.1	17.9	1.25	 .0736	23	1	100.0	1
08/06/24	21:22	-19.8	-19.7	-19.8	74	-23.2	5.2	ESE	0.09	6.1	ESE	-26.7	-19.8	-26.8	747.3	0.026	0.000	21.2	5	-20.1	17.9	1.25	 .0736	24	1	100.0	1
08/06/24	21:23	-19.8	-19.8	-19.8	73	-23.4	6.1	ESE	0.10	7.0	E	-27.4	-19.9	-27.5	747.3	0.027	0.000	21.2	5	-20.1	17.9	1.25	 .0736	23	1	100.0	1
08/06/24	21:24	-19.8	-19.8	-19.8	73	-23.4	6.1	E	0.10	7.8	E	-27.4	-19.9	-27.5	747.4	0.027	0.000	21.2	5	-20.1	17.9	1.25	 .0736	24	1	100.0	1
08/06/24	21:25	-19.8	-19.8	-19.8	73	-23.4	7.8	E	0.13	9.6	E	-28.6	-19.9	-28.7	747.3	0.027	0.000	21.2	5	-20.1	17.9	1.25	 .0736	23	1	100.0	1
08/06/24	21:26	-19.8	-19.8	-19.8	73	-23.4	7.0	E	0.12	7.8	E	-28.0	-19.8	-28.1	747.3	0.026	0.000	21.2	5	-20.0	17.9	1.25	 .0736	24	1	100.0	1
08/06/24	21:27	-19.8	-19.8	-19.8	73	-23.4	6.1	E	0.10	7.8	E	-27.4	-19.8	-27.4	747.4	0.026	0.000	21.2	5	-20.0	17.9	1.25	 .0736	23	1	100.0	1
08/06/24	21:28	-19.8	-19.8	-19.8	73	-23.4	6.1	E	0.10	7.0	E	-27.4	-19.9	-27.5	747.3	0.027	0.000	21.2	5	-20.0	17.9	1.25	 .0736	23	1	100.0	1
08/06/24	21:29	-19.8	-19.8	-19.8	73	-23.4	6.1	ESE	0.10	7.0	ESE	-27.4	-19.9	-27.5	747.4	0.027	0.000	21.2	5	-20.0	17.9	1.25	 .0736	24	1	100.0	1
08/06/24	21:30	-19.9	-19.8	-19.9	73	-23.5	6.1	ESE	0.10	7.0	ESE	-27.5	-19.9	-27.6	747.4	0.027	0.000	21.2	5	-20.0	17.9	1.25	 .0736	23	1	100.0	1
08/06/24	21:31	-19.8	-19.8	-19.9	73	-23.4	7.0	ESE	0.12	8.7	ESE	-28.1	-19.9	-28.1	747.4	0.027	0.000	21.2	5	-20.0	17.9	1.25	 .0736	24	1	100.0	1
08/06/24	21:32	-19.8	-19.8	-19.8	73	-23.4	6.1	SE	0.10	7.8	SE	-27.4	-19.8	-27.4	747.4	0.026	0.000	21.2	5	-20.0	17.9	1.25	 .0736	23	1	100.0	1
08/06/24	21:33	-19.7	-19.7	-19.7	73	-23.3	7.0	SE	0.12	8.7	SSE	-27.9	-19.7	-27.9	747.4	0.026	0.000	21.3	5	-20.0	18.1	1.25	 .0735	23	1	100.0	1
08/06/24	21:34	-19.6	-19.6	-19.7	73	-23.2	7.0	SE	0.12	10.4	SE	-27.7	-19.6	-27.8	747.4	0.026	0.000	21.3	5	-20.0	18.1	1.25	 .0735	24	1	100.0	1
08/06/24	21:35	-19.4	-19.4	-19.5	73	-23.1	7.0	SE	0.12	8.7	SE	-27.6	-19.5	-27.7	747.4	0.026	0.000	21.3	5	-20.0	18.1	1.25	 .0735	23	1	100.0	1
08/06/24	21:36	-19.3	-19.3	-19.4	73	-23.0	7.8	SE	0.13	8.7	SE	-28.0	-19.4	-28.1	747.4	0.026	0.000	21.2	5	-20.0	17.9	1.25	 .0736	24	1	100.0	1
08/06/24	21:37	-19.3	-19.3	-19.3	73	-22.9	9.6	SE	0.16	11.3	SSE	-28.9	-19.3	-28.9	747.4	0.026	0.000	21.2	5	-20.0	17.9	1.25	 .0736	23	1	100.0	1
08/06/24	21:38	-19.2	-19.2	-19.3	73	-22.8	10.4	SSE	0.17	14.8	SSE	-29.2	-19.3	-29.3	747.4	0.026	0.000	21.2	5	-20.0	17.9	1.25	 .0736	24	1	100.0	1
08/06/24	21:39	-19.1	-19.1	-19.2	72	-22.9	10.4	SSE	0.17	13.9	SSE	-29.1	-19.2	-29.2	747.4	0.026	0.000	21.2	5	-20.0	17.9	1.25	 .0736	23	1	100.0	1
08/06/24	21:40	-19.0	-19.0	-19.1	72	-22.8	13.9	SSE	0.23	16.5	SSE	-30.4	-19.1	-30.4	747.4	0.026	0.000	21.2	5	-20.0	17.9	1.25	 .0736	23	1	100.0	1
08/06/24	21:41	-18.8	-18.8	-19.0	71	-22.8	15.7	SSE	0.26	20.0	SSE	-30.8	-18.9	-30.8	747.3	0.026	0.000	21.2	5	-20.1	17.9	1.25	 .0736	24	1	100.0	1
08/06/24	21:42	-18.8	-18.8	-18.8	70	-22.9	13.0	SSE	0.22	15.7	SSE	-29.8	-18.8	-29.8	747.4	0.026	0.000	21.2	5	-20.1	17.9	1.25	 .0736	23	1	100.0	1
08/06/24	21:43	-18.7	-18.7	-18.8	69	-23.0	15.7	SSE	0.26	17.4	SSE	-30.6	-18.8	-30.7	747.4	0.026	0.000	21.2	5	-20.1	17.9	1.25	 .0736	24	1	100.0	1
08/06/24	21:44	-18.7	-18.7	-18.7	68	-23.1	13.0	SSE	0.22	16.5	SSE	-29.6	-18.7	-29.7	747.4	0.026	0.000	21.1	5	-20.1	17.8	1.25	 .0736	23	1	100.0	1
08/06/24	21:45	-18.6	-18.6	-18.6	67	-23.2	13.9	SSE	0.23	17.4	SSE	-29.8	-18.7	-29.9	747.4	0.026	0.000	21.1	5	-20.1	17.8	1.25	 .0736	23	1	100.0	1
08/06/24	21:46	-18.7	-18.6	-18.7	66	-23.4	14.8	SSE	0.25	22.6	S	-30.3	-18.8	-30.4	747.4	0.026	0.000	21.1	5	-20.1	17.8	1.25	 .0736	24	1	100.0	1
08/06/24	21:47	-18.6	-18.6	-18.7	64	-23.7	18.3	SSE	0.30	22.6	SSE	-31.3	-18.7	-31.4	747.4	0.026	0.000	21.1	5	-20.1	17.8	1.25	 .0736	23	1	100.0	1
08/06/24	21:48	-18.6	-18.6	-18.6	63	-23.9	16.5	SSE	0.28	18.3	SSE	-30.7	-18.7	-30.8	747.4	0.026	0.000	21.1	5	-20.1	17.8	1.25	 .0736	24	1	100.0	1
08/06/24	21:49	-18.7	-18.6	-18.7	62	-24.2	18.3	SSE	0.30	22.6	SSE	-31.4	-18.8	-31.5	747.5	0.026	0.000	21.1	5	-20.1	17.7	1.25	 .0736	23	1	100.0	1
08/06/24	21:50	-18.6	-18.6	-18.6	62	-24.1	15.7	SSE	0.26	19.1	SSE	-30.5	-18.7	-30.6	747.5	0.026	0.000	21.1	5	-20.1	17.7	1.25	 .0736	24	1	100.0	1
08/06/24	21:51	-18.6	-18.6	-18.6	61	-24.3	16.5	SSE	0.28	20.0	SSE	-30.8	-18.7	-30.9	747.5	0.026	0.000	21.1	5	-20.1	17.7	1.25	 .0736	23	1	100.0	1
08/06/24	21:52	-18.6	-18.6	-18.6	61	-24.3	13.9	SSE	0.23	16.5	SSE	-29.9	-18.7	-30.0	747.5	0.026	0.000	21.1	5	-20.1	17.7	1.25	 .0736	23	1	100.0	1
08/06/24	21:53	-18.6	-18.6	-18.6	60	-24.5	19.1	SSE	0.32	22.6	S	-31.6	-18.7	-31.7	747.5	0.026	0.000	21.1	5	-20.1	17.7	1.25	 .0736	24	1	100.0	1
08/06/24	21:54	-18.6	-18.6	-18.6	60	-24.5	15.7	SSE	0.26	17.4	SSE	-30.5	-18.7	-30.6	747.6	0.026	0.000	21.0	5	-20.2	17.7	1.25	 .0736	23	1	100.0	1
08/06/24	21:55	-18.6	-18.6	-18.7	60	-24.5	14.8	SSE	0.25	16.5	SSE	-30.2	-18.7	-30.3	747.6	0.026	0.000	21.0	5	-20.2	17.7	1.25	 .0736	24	1	100.0	1
08/06/24	21:56	-18.7	-18.7	-18.7	59	-24.8	16.5	SSE	0.28	19.1	SSE	-30.9	-18.8	-31.0	747.6	0.026	0.000	21.0	5	-20.2	17.7	1.25	 .0736	23	1	100.0	1
08/06/24	21:57	-18.8	-18.7	-18.8	59	-24.9	16.5	SSE	0.28	19.1	SSE	-31.1	-18.9	-31.2	747.6	0.026	0.000	21.0	5	-20.2	17.7	1.25	 .0736	23	1	100.0	1
08/06/24	21:58	-18.9	-18.8	-18.9	59	-24.9	13.9	SSE	0.23	18.3	SSE	-30.2	-19.0	-30.3	747.6	0.026	0.000	21.0	5	-20.2	17.7	1.25	 .0736	24	1	100.0	1
08/06/24	21:59	-18.9	-18.8	-18.9	59	-25.0	14.8	SSE	0.25	17.4	SSE	-30.6	-19.1	-30.7	747.7	0.026	0.000	21.1	5	-20.1	17.7	1.25	 .0736	23	1	100.0	1
08/06/24	22:00	-19.1	-18.9	-19.1	59	-25.1	15.7	SSE	0.26	17.4	SSE	-31.1	-19.2	-31.2	747.7	0.026	0.000	21.0	5	-20.2	17.7	1.25	 .0737	24	1	100.0	1
08/06/24	22:01	-19.1	-19.1	-19.1	59	-25.1	14.8	SSE	0.25	17.4	SSE	-30.8	-19.2	-30.9	747.7	0.026	0.000	21.1	5	-20.1	17.7	1.25	 .0736	23	1	100.0	1
08/06/24	22:02	-19.1	-19.1	-19.1	59	-25.1	16.5	SSE	0.28	19.1	SSE	-31.4	-19.2	-31.6	747.7	0.026	0.000	21.1	5	-20.1	17.7	1.25	 .0736	23	1	100.0	1
08/06/24	22:03	-19.1	-19.1	-19.1	59	-25.1	16.5	SSE	0.28	18.3	SSE	-31.3	-19.2	-31.4	747.8	0.026	0.000	21.1	5	-20.1	17.7	1.25	 .0736	24	1	100.0	1
08/06/24	22:04	-19.0	-19.0	-19.1	59	-25.0	15.7	SSE	0.26	18.3	SSE	-31.0	-19.1	-31.1	747.8	0.026	0.000	21.1	5	-20.1	17.7	1.25	 .0736	23	1	100.0	1
08/06/24	22:05	-19.0	-19.0	-19.0	59	-25.0	13.9	SSE	0.23	16.5	SSE	-30.4	-19.1	-30.5	747.8	0.026	0.000	21.1	5	-20.1	17.7	1.25	 .0736	24	1	100.0	1
08/06/24	22:06	-19.0	-19.0	-19.0	59	-25.0	14.8	SSE	0.25	18.3	SSE	-30.7	-19.1	-30.8	747.8	0.026	0.000	21.1	5	-20.1	17.7	1.25	 .0736	23	1	100.0	1
08/06/24	22:07	-19.0	-19.0	-19.0	59	-25.0	14.8	SSE	0.25	18.3	S	-30.7	-19.1	-30.8	747.9	0.026	0.000	21.1	5	-20.1	17.7	1.25	 .0736	24	1	100.0	1
08/06/24	22:08	-19.1	-19.0	-19.1	59	-25.1	14.8	SSE	0.25	21.7	SSE	-30.8	-19.2	-30.9	747.9	0.026	0.000	21.1	5	-20.1	17.7	1.25	 .0736	23	1	100.0	1
08/06/24	22:09	-19.0	-19.0	-19.0	59	-25.0	14.8	SSE	0.25	18.3	SSE	-30.7	-19.1	-30.8	747.9	0.026	0.000	21.1	5	-20.1	17.7	1.25	 .0737	23	1	100.0	1
08/06/24	22:10	-19.0	-19.0	-19.0	58	-25.2	16.5	SSE	0.28	19.1	SSE	-31.3	-19.1	-31.4	748.0	0.026	0.000	21.1	5	-20.1	17.7	1.25	 .0737	24	1	100.0	1
08/06/24	22:11	-19.1	-19.0	-19.1	58	-25.3	13.9	SSE	0.23	18.3	SSE	-30.4	-19.2	-30.6	748.0	0.026	0.000	21.1	5	-20.1	17.7	1.25	 .0737	23	1	100.0	1
08/06/24	22:12	-19.2	-19.1	-19.2	58	-25.4	13.9	SSE	0.23	17.4	SSE	-30.6	-19.3	-30.7	748.0	0.026	0.000	21.1	5	-20.1	17.8	1.25	 .0736	24	1	100.0	1
08/06/24	22:13	-19.2	-19.2	-19.2	58	-25.4	13.0	S	0.22	16.5	S	-30.3	-19.3	-30.4	747.9	0.026	0.000	21.1	5	-20.1	17.7	1.25	 .0737	23	1	100.0	1
08/06/24	22:14	-19.3	-19.3	-19.3	58	-25.5	13.0	S	0.22	19.1	SSE	-30.5	-19.4	-30.6	748.0	0.026	0.000	21.1	5	-20.1	17.8	1.25	 .0736	24	1	100.0	1
08/06/24	22:15	-19.4	-19.4	-19.4	58	-25.6	17.4	SSE	0.29	20.0	SSE	-32.1	-19.5	-32.2	747.9	0.026	0.000	21.1	5	-20.1	17.8	1.25	 .0736	23	1	100.0	1
08/06/24	22:16	-19.4	-19.4	-19.4	59	-25.4	16.5	SSE	0.28	20.0	SSE	-31.8	-19.5	-31.9	747.9	0.026	0.000	21.1	5	-20.1	17.8	1.25	 .0736	23	1	100.0	1
08/06/24	22:17	-19.4	-19.4	-19.4	59	-25.4	17.4	SSE	0.29	19.1	SSE	-32.1	-19.5	-32.2	748.0	0.026	0.000	21.1	5	-20.1	17.8	1.25	 .0736	24	1	100.0	1
08/06/24	22:18	-19.4	-19.3	-19.4	59	-25.4	15.7	SSE	0.26	20.0	SSE	-31.6	-19.6	-31.7	748.0	0.026	0.000	21.1	5	-20.1	17.8	1.25	 .0736	23	1	100.0	1
08/06/24	22:19	-19.4	-19.4	-19.4	59	-25.4	13.9	SSE	0.23	18.3	SSE	-30.9	-19.6	-31.1	748.0	0.026	0.000	21.1	5	-20.1	17.8	1.25	 .0736	24	1	100.0	1
08/06/24	22:20	-19.6	-19.4	-19.6	59	-25.5	16.5	SSE	0.28	21.7	SSE	-32.0	-19.7	-32.1	748.0	0.026	0.000	21.1	5	-20.1	17.8	1.25	 .0737	23	1	100.0	1
08/06/24	22:21	-19.5	-19.5	-19.6	59	-25.5	15.7	SSE	0.26	21.7	SSE	-31.7	-19.6	-31.8	748.0	0.026	0.000	21.1	5	-20.1	17.8	1.25	 .0736	23	1	100.0	1
08/06/24	22:22	-19.6	-19.5	-19.6	59	-25.5	15.7	SSE	0.26	18.3	SSE	-31.7	-19.7	-31.8	748.0	0.026	0.000	21.2	5	-20.1	17.9	1.25	 .0736	24	1	100.0	1
08/06/24	22:23	-19.6	-19.6	-19.6	59	-25.6	13.9	SSE	0.23	18.3	SSE	-31.2	-19.7	-31.3	748.0	0.026	0.000	21.1	5	-20.1	17.8	1.25	 .0737	23	1	100.0	1
08/06/24	22:24	-19.7	-19.6	-19.7	59	-25.7	15.7	SSE	0.26	20.0	SSE	-31.9	-19.8	-32.0	748.1	0.026	0.000	21.1	5	-20.1	17.8	1.25	 .0737	24	1	100.0	1
08/06/24	22:25	-19.7	-19.7	-19.7	59	-25.7	18.3	SSE	0.30	20.9	SSE	-32.7	-19.8	-32.8	748.1	0.026	0.000	21.1	5	-20.1	17.8	1.25	 .0737	23	1	100.0	1
08/06/24	22:26	-19.6	-19.6	-19.7	59	-25.6	16.5	SSE	0.28	20.0	SSE	-32.1	-19.7	-32.2	748.1	0.026	0.000	21.2	5	-20.1	17.9	1.25	 .0736	23	1	100.0	1
08/06/24	22:27	-19.7	-19.7	-19.7	59	-25.7	16.5	SSE	0.28	22.6	SSE	-32.2	-19.8	-32.3	748.1	0.026	0.000	21.2	5	-20.1	17.9	1.25	 .0736	24	1	100.0	1
08/06/24	22:28	-19.7	-19.6	-19.7	59	-25.7	15.7	SSE	0.26	19.1	SSE	-31.9	-19.8	-32.0	748.1	0.026	0.000	21.2	5	-20.1	17.9	1.25	 .0736	23	1	100.0	1
08/06/24	22:29	-19.7	-19.7	-19.7	59	-25.7	19.1	SSE	0.32	24.3	S	-32.9	-19.8	-33.1	748.1	0.026	0.000	21.2	5	-20.1	17.9	1.25	 .0736	24	1	100.0	1
08/06/24	22:30	-19.7	-19.7	-19.7	59	-25.7	19.1	SSE	0.32	22.6	S	-32.9	-19.8	-33.1	748.1	0.026	0.000	21.2	5	-20.1	17.9	1.25	 .0736	23	1	100.0	1
08/06/24	22:31	-19.6	-19.6	-19.7	59	-25.5	20.0	S	0.33	22.6	S	-33.0	-19.7	-33.1	748.1	0.026	0.000	21.2	5	-20.1	17.9	1.25	 .0736	24	1	100.0	1
08/06/24	22:32	-19.3	-19.3	-19.6	59	-25.3	20.9	SSE	0.35	23.5	S	-32.9	-19.4	-33.1	748.2	0.026	0.000	21.2	5	-20.1	17.9	1.25	 .0737	23	1	100.0	1
08/06/24	22:33	-19.3	-19.3	-19.3	59	-25.3	19.1	SSE	0.32	22.6	SSE	-32.4	-19.4	-32.6	748.2	0.026	0.000	21.2	5	-20.1	17.9	1.25	 .0737	23	1	100.0	1
08/06/24	22:34	-19.2	-19.2	-19.3	58	-25.4	20.9	SSE	0.35	22.6	SSE	-32.8	-19.3	-32.9	748.2	0.026	0.000	21.2	5	-20.1	17.9	1.25	 .0737	24	1	100.0	1
08/06/24	22:35	-19.1	-19.1	-19.2	58	-25.3	20.0	SSE	0.33	23.5	SSE	-32.4	-19.2	-32.5	748.2	0.026	0.000	21.2	5	-20.0	17.9	1.25	 .0736	23	1	100.0	1
08/06/24	22:36	-18.8	-18.8	-19.0	58	-25.1	17.4	SSE	0.29	20.0	SSE	-31.3	-18.9	-31.4	748.2	0.026	0.000	21.2	5	-20.1	17.9	1.25	 .0737	24	1	100.0	1
08/06/24	22:37	-18.9	-18.8	-18.9	58	-25.1	15.7	SSE	0.26	17.4	SSE	-30.8	-19.0	-30.9	748.3	0.026	0.000	21.2	5	-20.0	17.9	1.25	 .0737	23	1	100.0	1
08/06/24	22:38	-18.9	-18.9	-18.9	57	-25.3	14.8	SSE	0.25	18.3	SSE	-30.6	-19.0	-30.7	748.3	0.026	0.000	21.2	5	-20.0	17.9	1.25	 .0737	23	1	100.0	1
08/06/24	22:39	-18.7	-18.7	-18.9	57	-25.1	13.9	SSE	0.23	16.5	SSE	-30.1	-18.8	-30.2	748.4	0.026	0.000	21.2	5	-20.0	17.9	1.25	 .0737	24	1	100.0	1
08/06/24	22:40	-18.6	-18.6	-18.7	58	-24.8	12.2	SSE	0.20	15.7	SSE	-29.2	-18.7	-29.3	748.4	0.026	0.000	21.2	5	-20.0	17.9	1.25	 .0737	23	1	100.0	1
08/06/24	22:41	-18.4	-18.4	-18.5	58	-24.6	13.0	SSE	0.22	16.5	SSE	-29.3	-18.5	-29.4	748.4	0.026	0.000	21.2	5	-20.0	17.9	1.25	 .0737	24	1	100.0	1
08/06/24	22:42	-18.3	-18.3	-18.4	57	-24.7	13.9	S	0.23	17.4	SSE	-29.4	-18.4	-29.6	748.4	0.025	0.000	21.2	5	-20.0	17.9	1.25	 .0737	23	1	100.0	1
08/06/24	22:43	-18.1	-18.1	-18.2	57	-24.6	12.2	SSE	0.20	13.9	SSE	-28.6	-18.2	-28.7	748.4	0.025	0.000	21.2	5	-20.0	17.9	1.25	 .0737	24	1	100.0	1
08/06/24	22:44	-18.1	-18.1	-18.1	56	-24.7	10.4	SSE	0.17	12.2	SSE	-27.8	-18.2	-27.9	748.4	0.025	0.000	21.2	5	-20.0	17.9	1.25	 .0737	23	1	100.0	1
08/06/24	22:45	-18.1	-18.1	-18.1	56	-24.7	11.3	SSE	0.19	13.0	SSE	-28.2	-18.2	-28.3	748.5	0.025	0.000	21.2	5	-20.0	17.9	1.25	 .0737	23	1	100.0	1
08/06/24	22:46	-18.1	-18.1	-18.1	55	-24.9	9.6	S	0.16	12.2	S	-27.4	-18.2	-27.5	748.5	0.025	0.000	21.2	5	-20.0	17.9	1.25	 .0737	24	1	100.0	1
08/06/24	22:47	-18.1	-18.1	-18.1	55	-25.0	10.4	SSE	0.17	13.9	SSE	-27.8	-18.2	-27.9	748.5	0.025	0.000	21.2	5	-20.0	17.9	1.25	 .0737	23	1	100.0	1
08/06/24	22:48	-18.1	-18.1	-18.1	55	-25.0	9.6	S	0.16	12.2	S	-27.4	-18.2	-27.6	748.5	0.025	0.000	21.2	5	-20.1	17.9	1.25	 .0737	24	1	100.0	1
08/06/24	22:49	-18.2	-18.2	-18.2	55	-25.0	9.6	SSE	0.16	13.0	SSE	-27.5	-18.3	-27.6	748.5	0.025	0.000	21.2	5	-20.0	17.9	1.25	 .0737	23	1	100.0	1
08/06/24	22:50	-18.2	-18.2	-18.2	55	-25.0	10.4	SSE	0.17	13.9	SSE	-27.9	-18.3	-28.0	748.5	0.025	0.000	21.2	5	-20.1	17.9	1.25	 .0737	23	1	100.0	1
08/06/24	22:51	-18.2	-18.2	-18.2	55	-25.1	9.6	SSE	0.16	13.9	SSE	-27.6	-18.3	-27.7	748.5	0.025	0.000	21.2	5	-20.1	17.9	1.25	 .0737	24	1	100.0	1
08/06/24	22:52	-18.2	-18.2	-18.2	55	-25.1	8.7	S	0.14	13.0	S	-27.1	-18.3	-27.2	748.4	0.025	0.000	21.2	5	-20.1	17.9	1.25	 .0737	23	1	100.0	1
08/06/24	22:53	-18.2	-18.2	-18.3	55	-25.1	9.6	S	0.16	14.8	SSE	-27.6	-18.3	-27.7	748.4	0.025	0.000	21.2	5	-20.1	17.9	1.25	 .0737	24	1	100.0	1
08/06/24	22:54	-18.3	-18.2	-18.3	55	-25.1	9.6	S	0.16	15.7	S	-27.7	-18.4	-27.8	748.5	0.025	0.000	21.1	5	-20.1	17.8	1.25	 .0737	23	1	100.0	1
08/06/24	22:55	-18.3	-18.3	-18.3	55	-25.1	11.3	S	0.19	13.9	SSE	-28.4	-18.4	-28.6	748.5	0.025	0.000	21.1	5	-20.1	17.8	1.25	 .0737	23	1	100.0	1
08/06/24	22:56	-18.4	-18.3	-18.4	55	-25.2	12.2	S	0.20	14.8	S	-28.9	-18.5	-29.1	748.5	0.026	0.000	21.1	5	-20.1	17.8	1.25	 .0737	24	1	100.0	1
08/06/24	22:57	-18.5	-18.4	-18.5	54	-25.5	9.6	S	0.16	12.2	S	-27.9	-18.6	-28.1	748.4	0.026	0.000	21.1	5	-20.1	17.8	1.25	 .0737	23	1	100.0	1
08/06/24	22:58	-18.6	-18.5	-18.6	55	-25.4	11.3	SSE	0.19	13.0	SSE	-28.8	-18.7	-28.9	748.4	0.026	0.000	21.1	5	-20.1	17.7	1.25	 .0737	24	1	100.0	1
08/06/24	22:59	-18.7	-18.6	-18.7	55	-25.5	11.3	S	0.19	13.9	SSE	-28.9	-18.8	-29.1	748.4	0.026	0.000	21.1	5	-20.1	17.7	1.25	 .0737	23	1	100.0	1
08/06/24	23:00	-18.8	-18.7	-18.8	55	-25.6	11.3	SSE	0.19	13.0	SSE	-29.1	-18.9	-29.2	748.5	0.026	0.000	21.1	5	-20.1	17.7	1.25	 .0737	24	1	100.0	1
08/06/24	23:01	-18.8	-18.8	-18.8	55	-25.6	11.3	S	0.19	13.0	SSE	-29.2	-18.9	-29.3	748.5	0.026	0.000	21.1	5	-20.1	17.7	1.25	 .0737	23	1	100.0	1
08/06/24	23:02	-18.9	-18.8	-18.9	55	-25.7	12.2	S	0.20	13.9	S	-29.6	-19.0	-29.7	748.5	0.026	0.000	21.0	5	-20.2	17.7	1.25	 .0737	23	1	100.0	1
08/06/24	23:03	-18.9	-18.9	-18.9	55	-25.7	10.4	SSE	0.17	13.0	SSE	-28.9	-19.1	-29.0	748.5	0.026	0.000	21.1	5	-20.1	17.7	1.25	 .0737	24	1	100.0	1
08/06/24	23:04	-19.0	-18.9	-19.0	55	-25.8	12.2	SSE	0.20	13.9	S	-29.7	-19.1	-29.8	748.5	0.026	0.000	21.0	5	-20.2	17.7	1.25	 .0737	23	1	100.0	1
08/06/24	23:05	-19.1	-19.1	-19.1	55	-25.9	10.4	SSE	0.17	13.0	SSE	-29.1	-19.2	-29.2	748.4	0.026	0.000	21.0	5	-20.2	17.7	1.25	 .0737	24	1	100.0	1
08/06/24	23:06	-19.2	-19.1	-19.2	55	-26.0	10.4	SSE	0.17	12.2	SSE	-29.2	-19.3	-29.3	748.5	0.026	0.000	21.0	5	-20.2	17.7	1.25	 .0737	23	1	100.0	1
08/06/24	23:07	-19.3	-19.3	-19.3	56	-25.9	11.3	SSE	0.19	13.0	SSE	-29.8	-19.4	-29.9	748.4	0.026	0.000	21.0	5	-20.2	17.7	1.25	 .0737	23	1	100.0	1
08/06/24	23:08	-19.4	-19.4	-19.4	56	-26.0	8.7	SSE	0.14	10.4	SSE	-28.7	-19.6	-28.8	748.5	0.026	0.000	21.0	5	-20.2	17.7	1.25	 .0737	24	1	100.0	1
08/06/24	23:09	-19.5	-19.4	-19.5	56	-26.1	8.7	SSE	0.14	10.4	SSE	-28.7	-19.6	-28.8	748.5	0.026	0.000	21.0	5	-20.2	17.7	1.25	 .0737	23	1	100.0	1
08/06/24	23:10	-19.6	-19.6	-19.6	57	-26.0	8.7	SSE	0.14	9.6	SSE	-28.8	-19.7	-28.9	748.5	0.026	0.000	21.0	5	-20.2	17.7	1.25	 .0737	24	1	100.0	1
08/06/24	23:11	-19.7	-19.6	-19.7	57	-26.1	8.7	SE	0.14	9.6	SE	-29.0	-19.8	-29.1	748.5	0.026	0.000	21.0	5	-20.2	17.7	1.25	 .0737	23	1	100.0	1
08/06/24	23:12	-19.8	-19.7	-19.8	57	-26.1	8.7	SE	0.14	9.6	SE	-29.1	-19.9	-29.2	748.5	0.026	0.000	21.1	5	-20.1	17.7	1.25	 .0737	23	1	100.0	1
08/06/24	23:13	-19.9	-19.8	-19.9	57	-26.2	8.7	SSE	0.14	9.6	SE	-29.2	-20.0	-29.3	748.5	0.027	0.000	21.1	5	-20.1	17.7	1.25	 .0737	24	1	100.0	1
08/06/24	23:14	-19.9	-19.9	-19.9	57	-26.3	9.6	SSE	0.16	10.4	SSE	-29.7	-20.1	-29.8	748.5	0.027	0.000	21.1	5	-20.1	17.7	1.25	 .0737	23	1	100.0	1
08/06/24	23:15	-20.1	-20.0	-20.1	57	-26.4	8.7	SE	0.14	9.6	SSE	-29.4	-20.2	-29.5	748.6	0.027	0.000	21.1	5	-20.1	17.7	1.25	 .0737	24	1	100.0	1
08/06/24	23:16	-20.2	-20.1	-20.2	58	-26.3	8.7	SE	0.14	9.6	SSE	-29.6	-20.3	-29.7	748.6	0.027	0.000	21.1	5	-20.1	17.7	1.25	 .0737	23	1	100.0	1
08/06/24	23:17	-20.3	-20.2	-20.3	58	-26.5	8.7	SE	0.14	8.7	SE	-29.7	-20.4	-29.8	748.6	0.027	0.000	21.1	5	-20.1	17.7	1.25	 .0737	24	1	100.0	1
08/06/24	23:18	-20.4	-20.3	-20.4	58	-26.6	8.7	SE	0.14	9.6	SE	-29.9	-20.6	-30.0	748.7	0.027	0.000	21.1	5	-20.1	17.7	1.25	 .0737	23	1	100.0	1
08/06/24	23:19	-20.5	-20.4	-20.5	58	-26.6	8.7	ESE	0.14	9.6	SE	-29.9	-20.6	-30.1	748.6	0.027	0.000	21.1	5	-20.1	17.7	1.25	 .0737	23	1	100.0	1
08/06/24	23:20	-20.7	-20.6	-20.7	58	-26.8	9.6	ESE	0.16	10.4	ESE	-30.7	-20.8	-30.8	748.7	0.027	0.000	21.1	5	-20.1	17.7	1.25	 .0737	24	1	100.0	1
08/06/24	23:21	-20.9	-20.8	-20.9	58	-27.0	9.6	ESE	0.16	10.4	ESE	-30.9	-21.1	-31.1	748.7	0.027	0.000	21.1	5	-20.1	17.7	1.25	 .0737	23	1	100.0	1
08/06/24	23:22	-21.2	-21.0	-21.2	58	-27.3	9.6	ESE	0.16	10.4	ESE	-31.2	-21.3	-31.3	748.7	0.027	0.000	21.1	5	-20.1	17.8	1.25	 .0737	24	1	100.0	1
08/06/24	23:23	-21.3	-21.2	-21.3	58	-27.4	9.6	ESE	0.16	10.4	E	-31.4	-21.4	-31.5	748.7	0.028	0.000	21.1	5	-20.1	17.8	1.25	 .0737	23	1	100.0	1
08/06/24	23:24	-21.4	-21.3	-21.4	59	-27.3	9.6	ESE	0.16	10.4	ESE	-31.5	-21.5	-31.6	748.7	0.028	0.000	21.1	5	-20.1	17.8	1.25	 .0737	24	1	100.0	1
08/06/24	23:25	-21.4	-21.4	-21.4	59	-27.3	8.7	ESE	0.14	9.6	ESE	-31.1	-21.5	-31.2	748.7	0.028	0.000	21.1	5	-20.1	17.8	1.25	 .0737	23	1	100.0	1
08/06/24	23:26	-21.3	-21.3	-21.4	60	-27.0	10.4	E	0.17	12.2	E	-31.9	-21.4	-32.0	748.8	0.028	0.000	21.1	5	-20.1	17.8	1.25	 .0737	23	1	100.0	1
08/06/24	23:27	-21.2	-21.2	-21.3	61	-26.8	13.0	E	0.22	14.8	E	-32.9	-21.3	-33.0	748.7	0.027	0.000	21.1	5	-20.1	17.8	1.25	 .0737	24	1	100.0	1
08/06/24	23:28	-20.8	-20.8	-21.2	61	-26.4	13.0	E	0.22	14.8	E	-32.4	-20.9	-32.5	748.7	0.027	0.000	21.1	5	-20.1	17.8	1.25	 .0737	23	1	100.0	1
08/06/24	23:29	-20.4	-20.4	-20.8	62	-25.8	12.2	E	0.20	13.9	ENE	-31.6	-20.5	-31.6	748.7	0.027	0.000	21.2	5	-20.1	17.9	1.25	 .0737	24	1	100.0	1
08/06/24	23:30	-20.2	-20.2	-20.4	61	-25.8	13.0	ENE	0.22	13.9	ENE	-31.6	-20.3	-31.7	748.7	0.027	0.000	21.2	5	-20.1	17.9	1.25	 .0737	23	1	100.0	1
08/06/24	23:31	-19.8	-19.8	-20.2	61	-25.4	9.6	E	0.16	13.0	ENE	-29.6	-19.9	-29.7	748.7	0.027	0.000	21.2	5	-20.1	17.9	1.25	 .0737	23	1	100.0	1
08/06/24	23:32	-19.4	-19.4	-19.8	60	-25.3	13.0	ENE	0.22	15.7	ESE	-30.6	-19.6	-30.7	748.7	0.026	0.000	21.2	5	-20.1	17.9	1.25	 .0737	24	1	100.0	1
08/06/24	23:33	-19.1	-19.1	-19.3	59	-25.1	11.3	ENE	0.19	13.0	ENE	-29.5	-19.2	-29.6	748.7	0.026	0.000	21.2	5	-20.1	17.9	1.25	 .0737	23	1	100.0	1
08/06/24	23:34	-18.8	-18.8	-19.1	58	-25.0	9.6	ENE	0.16	12.2	ENE	-28.3	-18.9	-28.4	748.7	0.026	0.000	21.2	5	-20.1	17.9	1.25	 .0737	24	1	100.0	1
08/06/24	23:35	-18.4	-18.4	-18.7	58	-24.7	11.3	ENE	0.19	13.0	ENE	-28.7	-18.6	-28.8	748.7	0.026	0.000	21.2	5	-20.1	17.9	1.25	 .0737	23	1	100.0	1
08/06/24	23:36	-18.3	-18.3	-18.4	57	-24.7	10.4	ENE	0.17	12.2	ENE	-28.1	-18.4	-28.2	748.8	0.025	0.000	21.2	5	-20.1	17.9	1.25	 .0737	23	1	100.0	1
08/06/24	23:37	-18.2	-18.2	-18.3	56	-24.9	8.7	E	0.14	11.3	E	-27.1	-18.3	-27.2	748.8	0.025	0.000	21.2	5	-20.1	17.9	1.25	 .0737	24	1	100.0	1
08/06/24	23:38	-18.1	-18.1	-18.2	55	-25.0	7.8	E	0.13	8.7	ESE	-26.5	-18.2	-26.6	748.9	0.025	0.000	21.2	5	-20.1	17.9	1.25	 .0737	23	1	100.0	1
08/06/24	23:39	-17.9	-17.9	-18.1	55	-24.8	8.7	E	0.14	9.6	E	-26.8	-18.1	-26.9	748.8	0.025	0.000	21.2	5	-20.1	17.9	1.25	 .0737	24	1	100.0	1
08/06/24	23:40	-17.9	-17.9	-17.9	55	-24.8	8.7	ESE	0.14	10.4	E	-26.7	-18.0	-26.8	748.9	0.025	0.000	21.2	5	-20.1	17.9	1.25	 .0737	23	1	100.0	1
08/06/24	23:41	-17.9	-17.8	-17.9	55	-24.8	8.7	ESE	0.14	10.4	E	-26.7	-18.0	-26.8	748.9	0.025	0.000	21.2	5	-20.1	17.9	1.25	 .0737	24	1	100.0	1
08/06/24	23:42	-17.6	-17.6	-17.8	54	-24.7	7.8	SE	0.13	9.6	ESE	-25.9	-17.7	-26.0	748.9	0.025	0.000	21.2	5	-20.1	17.9	1.25	 .0737	23	1	100.0	1
08/06/24	23:43	-17.3	-17.3	-17.6	55	-24.2	7.8	SE	0.13	9.6	ESE	-25.6	-17.4	-25.7	748.9	0.025	0.000	21.2	5	-20.1	17.9	1.25	 .0737	23	1	100.0	1
08/06/24	23:44	-17.1	-17.1	-17.3	54	-24.2	9.6	ESE	0.16	11.3	ESE	-26.1	-17.2	-26.2	748.9	0.025	0.000	21.2	5	-20.0	17.9	1.25	 .0737	24	1	100.0	1
08/06/24	23:45	-17.0	-16.9	-17.1	54	-24.1	7.8	ESE	0.13	10.4	SE	-25.1	-17.1	-25.2	749.0	0.025	0.000	21.2	5	-20.1	17.9	1.25	 .0737	23	1	100.0	1
08/06/24	23:46	-17.0	-16.9	-17.0	53	-24.3	8.7	E	0.14	11.3	E	-25.6	-17.1	-25.7	749.0	0.025	0.000	21.2	5	-20.1	17.9	1.25	 .0737	24	1	100.0	1
08/06/24	23:47	-17.2	-17.0	-17.2	53	-24.5	12.2	E	0.20	13.9	E	-27.4	-17.3	-27.6	749.0	0.025	0.000	21.2	5	-20.0	17.9	1.25	 .0737	23	1	100.0	1
08/06/24	23:48	-17.5	-17.2	-17.5	52	-25.0	11.3	E	0.19	13.0	E	-27.4	-17.6	-27.6	749.0	0.025	0.000	21.2	5	-20.0	17.9	1.25	 .0737	23	1	100.0	1
08/06/24	23:49	-17.7	-17.6	-17.7	52	-25.2	12.2	E	0.20	14.8	ENE	-28.0	-17.8	-28.1	749.0	0.025	0.000	21.2	5	-20.0	17.9	1.25	 .0737	24	1	100.0	1
08/06/24	23:50	-17.7	-17.7	-17.7	53	-25.0	11.3	E	0.19	13.0	E	-27.7	-17.8	-27.8	749.0	0.025	0.000	21.2	5	-20.0	17.9	1.25	 .0737	23	1	100.0	1
08/06/24	23:51	-17.9	-17.7	-17.9	53	-25.2	9.6	E	0.16	13.0	ENE	-27.2	-18.0	-27.3	749.1	0.025	0.000	21.2	5	-20.0	17.9	1.25	 .0737	24	1	100.0	1
08/06/24	23:52	-18.1	-17.9	-18.1	53	-25.4	13.9	E	0.23	17.4	E	-29.2	-18.2	-29.3	749.0	0.025	0.000	21.2	5	-20.0	17.9	1.25	 .0737	23	1	100.0	1
08/06/24	23:53	-18.3	-18.2	-18.3	53	-25.6	13.0	E	0.22	15.7	E	-29.2	-18.4	-29.3	749.0	0.025	0.000	21.2	5	-20.0	17.9	1.25	 .0737	23	1	100.0	1
08/06/24	23:54	-18.5	-18.3	-18.5	53	-25.7	10.4	E	0.17	13.0	E	-28.3	-18.6	-28.4	749.0	0.026	0.000	21.2	5	-20.0	17.9	1.25	 .0737	24	1	100.0	1
08/06/24	23:55	-18.8	-18.6	-18.8	54	-25.8	13.9	E	0.23	15.7	E	-30.1	-18.9	-30.2	749.0	0.026	0.000	21.2	5	-20.0	17.9	1.25	 .0737	23	1	100.0	1
08/06/24	23:56	-18.8	-18.8	-18.8	54	-25.8	13.0	E	0.22	14.8	E	-29.8	-18.9	-29.9	749.0	0.026	0.000	21.2	5	-20.1	17.9	1.25	 .0737	24	1	100.0	1
08/06/24	23:57	-18.8	-18.8	-18.8	55	-25.6	13.0	E	0.22	14.8	E	-29.8	-18.9	-29.9	749.0	0.026	0.000	21.2	5	-20.1	17.9	1.25	 .0737	23	1	100.0	1
08/06/24	23:58	-18.7	-18.7	-18.8	56	-25.3	13.0	E	0.22	14.8	E	-29.7	-18.8	-29.8	749.0	0.026	0.000	21.2	5	-20.1	17.9	1.25	 .0737	24	1	100.0	1
08/06/24	23:59	-18.7	-18.7	-18.7	56	-25.3	13.0	E	0.22	14.8	E	-29.7	-18.8	-29.8	749.0	0.026	0.000	21.2	5	-20.1	17.9	1.25	 .0737	23	1	100.0	1
08/07/24	00:00	-18.7	-18.7	-18.7	56	-25.3	12.2	E	0.20	14.8	E	-29.3	-18.8	-29.4	749.0	0.026	0.000	21.2	5	-20.1	17.9	1.25	 .0737	23	1	100.0	1
08/07/24	0:01	-18.6	-18.6	-18.7	57	-25.0	13.0	E	0.22	14.8	E	-29.5	-18.7	-29.6	749.0	0.026	0.000	21.2	5	-20.1	17.9	1.25	 .0737	22	1	95.7	1
08/07/24	0:02	-18.4	-18.4	-18.6	57	-24.9	13.0	E	0.22	14.8	E	-29.3	-18.6	-29.4	749.0	0.026	0.000	21.1	5	-20.1	17.8	1.25	 .0737	24	1	100.0	1
08/07/24	0:03	-18.3	-18.3	-18.4	57	-24.8	13.0	ESE	0.22	14.8	ESE	-29.2	-18.4	-29.3	749.0	0.025	0.000	21.1	5	-20.1	17.8	1.25	 .0738	23	1	100.0	1
08/07/24	0:04	-18.2	-18.2	-18.3	57	-24.7	13.9	ESE	0.23	15.7	E	-29.4	-18.3	-29.5	749.0	0.025	0.000	21.1	5	-20.1	17.8	1.25	 .0738	23	1	100.0	1
08/07/24	0:05	-18.2	-18.2	-18.2	57	-24.6	14.8	ESE	0.25	17.4	ESE	-29.6	-18.3	-29.7	749.1	0.025	0.000	21.1	5	-20.1	17.8	1.25	 .0738	24	1	100.0	1
08/07/24	0:06	-18.2	-18.2	-18.2	57	-24.6	14.8	E	0.25	16.5	E	-29.6	-18.3	-29.7	749.1	0.025	0.000	21.1	5	-20.1	17.7	1.25	 .0738	23	1	100.0	1
08/07/24	0:07	-18.3	-18.2	-18.3	56	-25.0	13.9	ESE	0.23	15.7	ESE	-29.6	-18.4	-29.7	749.1	0.025	0.000	21.1	5	-20.1	17.7	1.25	 .0738	24	1	100.0	1
08/07/24	0:08	-18.4	-18.3	-18.4	56	-25.1	14.8	E	0.25	16.5	ESE	-30.0	-18.6	-30.1	749.2	0.026	0.000	21.1	5	-20.1	17.7	1.25	 .0738	23	1	100.0	1
08/07/24	0:09	-18.6	-18.4	-18.6	57	-25.0	14.8	ESE	0.25	15.7	ESE	-30.1	-18.7	-30.2	749.2	0.026	0.000	21.1	5	-20.1	17.7	1.25	 .0738	23	1	100.0	1
08/07/24	0:10	-18.6	-18.6	-18.6	57	-25.0	14.8	ESE	0.25	16.5	ESE	-30.1	-18.7	-30.2	749.2	0.026	0.000	21.1	5	-20.1	17.7	1.25	 .0738	24	1	100.0	1
08/07/24	0:11	-18.4	-18.4	-18.6	58	-24.7	15.7	ESE	0.26	16.5	ESE	-30.3	-18.6	-30.4	749.2	0.026	0.000	21.1	5	-20.1	17.7	1.25	 .0738	23	1	100.0	1
08/07/24	0:12	-18.3	-18.3	-18.4	58	-24.5	14.8	ESE	0.25	16.5	ESE	-29.8	-18.4	-29.9	749.2	0.025	0.000	21.1	5	-20.1	17.7	1.25	 .0738	24	1	100.0	1
08/07/24	0:13	-18.3	-18.3	-18.3	58	-24.6	13.0	ESE	0.22	14.8	SE	-29.2	-18.4	-29.3	749.2	0.025	0.000	21.1	5	-20.1	17.7	1.25	 .0738	23	1	100.0	1
08/07/24	0:14	-18.2	-18.2	-18.3	58	-24.5	13.9	SE	0.23	15.7	SE	-29.4	-18.3	-29.5	749.3	0.025	0.000	21.1	5	-20.1	17.7	1.25	 .0738	24	1	100.0	1
08/07/24	0:15	-18.1	-18.1	-18.2	57	-24.5	13.9	SE	0.23	16.5	SE	-29.2	-18.2	-29.3	749.3	0.025	0.000	21.1	5	-20.1	17.7	1.25	 .0738	23	1	100.0	1
08/07/24	0:16	-17.9	-17.9	-18.1	57	-24.4	13.9	SE	0.23	15.7	SE	-29.1	-18.1	-29.2	749.3	0.025	0.000	21.1	5	-20.1	17.7	1.25	 .0738	23	1	100.0	1
08/07/24	0:17	-17.8	-17.8	-17.9	57	-24.2	14.8	SE	0.25	16.5	SE	-29.1	-17.9	-29.2	749.2	0.025	0.000	21.0	5	-20.2	17.7	1.25	 .0738	24	1	100.0	1
08/07/24	0:18	-17.7	-17.7	-17.8	56	-24.4	13.9	SE	0.23	17.4	SE	-28.7	-17.8	-28.8	749.2	0.025	0.000	21.0	5	-20.2	17.7	1.25	 .0738	23	1	100.0	1
08/07/24	0:19	-17.7	-17.7	-17.7	56	-24.3	14.8	SE	0.25	15.7	SE	-29.0	-17.8	-29.1	749.3	0.025	0.000	21.0	5	-20.2	17.7	1.25	 .0738	24	1	100.0	1
08/07/24	0:20	-17.7	-17.7	-17.7	56	-24.4	14.8	SE	0.25	15.7	SE	-29.1	-17.8	-29.2	749.2	0.025	0.000	21.1	5	-20.1	17.7	1.25	 .0738	23	1	100.0	1
08/07/24	0:21	-17.7	-17.7	-17.7	56	-24.4	14.8	SE	0.25	16.5	SE	-29.1	-17.8	-29.2	749.3	0.025	0.000	21.1	5	-20.1	17.7	1.25	 .0738	23	1	100.0	1
08/07/24	0:22	-17.7	-17.7	-17.7	56	-24.4	15.7	SE	0.26	17.4	SE	-29.3	-17.8	-29.4	749.2	0.025	0.000	21.1	5	-20.1	17.7	1.25	 .0738	24	1	100.0	1
08/07/24	0:23	-17.6	-17.6	-17.7	57	-24.1	15.7	SE	0.26	16.5	SE	-29.2	-17.7	-29.3	749.2	0.025	0.000	21.1	5	-20.1	17.7	1.25	 .0738	23	1	100.0	1
08/07/24	0:24	-17.6	-17.6	-17.6	56	-24.2	15.7	SE	0.26	17.4	SE	-29.1	-17.7	-29.2	749.1	0.025	0.000	21.1	5	-20.1	17.7	1.25	 .0738	24	1	100.0	1
08/07/24	0:25	-17.6	-17.6	-17.6	56	-24.2	15.7	SE	0.26	16.5	SE	-29.1	-17.7	-29.2	749.1	0.025	0.000	21.1	5	-20.1	17.7	1.25	 .0738	23	1	100.0	1
08/07/24	0:26	-17.6	-17.6	-17.6	56	-24.2	15.7	SE	0.26	16.5	SE	-29.1	-17.7	-29.2	749.2	0.025	0.000	21.1	5	-20.1	17.7	1.25	 .0738	24	1	100.0	1
08/07/24	0:27	-17.5	-17.5	-17.6	56	-24.2	16.5	SE	0.28	18.3	SE	-29.3	-17.6	-29.4	749.2	0.025	0.000	21.1	5	-20.1	17.7	1.25	 .0738	23	1	100.0	1
08/07/24	0:28	-17.5	-17.5	-17.5	56	-24.2	16.5	SE	0.28	19.1	SSE	-29.3	-17.6	-29.4	749.2	0.025	0.000	21.1	5	-20.1	17.7	1.25	 .0738	23	1	100.0	1
08/07/24	0:29	-17.5	-17.5	-17.5	55	-24.4	15.7	SE	0.26	18.3	SE	-29.1	-17.6	-29.2	749.2	0.025	0.000	21.1	5	-20.1	17.8	1.25	 .0738	24	1	100.0	1
08/07/24	0:30	-17.6	-17.5	-17.6	55	-24.4	16.5	SE	0.28	18.3	SE	-29.4	-17.7	-29.5	749.2	0.025	0.000	21.1	5	-20.1	17.8	1.25	 .0738	23	1	100.0	1
08/07/24	0:31	-17.6	-17.6	-17.6	55	-24.5	16.5	SE	0.28	17.4	SE	-29.4	-17.7	-29.6	749.2	0.025	0.000	21.1	5	-20.1	17.8	1.25	 .0738	24	1	100.0	1
08/07/24	0:32	-17.7	-17.6	-17.7	56	-24.3	16.5	SE	0.28	18.3	SE	-29.6	-17.8	-29.7	749.1	0.025	0.000	21.1	5	-20.1	17.8	1.25	 .0738	23	1	100.0	1
08/07/24	0:33	-17.7	-17.7	-17.7	56	-24.3	18.3	SE	0.30	19.1	SE	-30.1	-17.8	-30.2	749.1	0.025	0.000	21.1	5	-20.1	17.8	1.25	 .0738	23	1	100.0	1
08/07/24	0:34	-17.7	-17.7	-17.7	56	-24.3	18.3	SE	0.30	20.9	SE	-30.1	-17.8	-30.2	749.1	0.025	0.000	21.2	5	-20.1	17.9	1.25	 .0737	24	1	100.0	1
08/07/24	0:35	-17.7	-17.7	-17.7	56	-24.3	19.1	SE	0.32	20.9	SE	-30.3	-17.8	-30.4	749.1	0.025	0.000	21.2	5	-20.1	17.9	1.25	 .0737	23	1	100.0	1
08/07/24	0:36	-17.6	-17.6	-17.7	56	-24.3	18.3	SE	0.30	20.9	SE	-30.0	-17.7	-30.1	749.2	0.025	0.000	21.2	5	-20.1	17.9	1.25	 .0738	24	1	100.0	1
08/07/24	0:37	-17.6	-17.6	-17.6	56	-24.2	18.3	SE	0.30	20.0	SSE	-29.9	-17.7	-30.0	749.1	0.025	0.000	21.2	5	-20.1	17.9	1.25	 .0737	23	1	100.0	1
08/07/24	0:38	-17.5	-17.5	-17.6	56	-24.2	18.3	SE	0.30	20.9	SE	-29.8	-17.6	-29.9	749.1	0.025	0.000	21.2	5	-20.1	17.9	1.25	 .0737	23	1	100.0	1
08/07/24	0:39	-17.4	-17.4	-17.4	56	-24.1	18.3	SE	0.30	20.9	SE	-29.8	-17.6	-29.9	749.1	0.025	0.000	21.2	5	-20.1	17.9	1.25	 .0737	24	1	100.0	1
08/07/24	0:40	-17.4	-17.4	-17.4	57	-23.9	17.4	SE	0.29	20.0	SE	-29.5	-17.6	-29.6	749.2	0.025	0.000	21.2	5	-20.1	17.9	1.25	 .0738	23	1	100.0	1
08/07/24	0:41	-17.4	-17.4	-17.4	57	-23.9	18.3	SE	0.30	20.0	SE	-29.7	-17.5	-29.8	749.1	0.025	0.000	21.2	5	-20.1	17.9	1.25	 .0737	24	1	100.0	1
08/07/24	0:42	-17.4	-17.4	-17.4	57	-23.9	17.4	SE	0.29	19.1	SE	-29.5	-17.6	-29.6	749.1	0.025	0.000	21.2	5	-20.1	17.9	1.25	 .0737	23	1	100.0	1
08/07/24	0:43	-17.4	-17.4	-17.4	57	-23.9	17.4	SE	0.29	19.1	SE	-29.4	-17.5	-29.6	749.2	0.025	0.000	21.2	5	-20.1	17.9	1.25	 .0738	24	1	100.0	1
08/07/24	0:44	-17.4	-17.4	-17.4	57	-23.9	17.4	SE	0.29	20.0	SE	-29.4	-17.5	-29.6	749.2	0.025	0.000	21.2	5	-20.1	17.9	1.25	 .0738	23	1	100.0	1
08/07/24	0:45	-17.4	-17.3	-17.4	57	-23.9	17.4	SE	0.29	20.0	SE	-29.4	-17.5	-29.6	749.2	0.025	0.000	21.2	5	-20.1	17.9	1.25	 .0738	23	1	100.0	1
08/07/24	0:46	-17.4	-17.4	-17.4	57	-23.9	17.4	SE	0.29	18.3	SE	-29.4	-17.5	-29.6	749.3	0.025	0.000	21.2	5	-20.1	17.9	1.25	 .0738	24	1	100.0	1
08/07/24	0:47	-17.3	-17.3	-17.4	58	-23.6	16.5	SE	0.28	18.3	SE	-29.0	-17.4	-29.1	749.2	0.025	0.000	21.2	5	-20.0	17.9	1.25	 .0737	23	1	100.0	1
08/07/24	0:48	-17.2	-17.2	-17.3	58	-23.5	17.4	SE	0.29	20.0	SE	-29.2	-17.3	-29.3	749.3	0.025	0.000	21.2	5	-20.0	17.9	1.25	 .0737	24	1	100.0	1
08/07/24	0:49	-17.1	-17.1	-17.2	57	-23.6	17.4	SE	0.29	20.9	SE	-29.1	-17.2	-29.2	749.3	0.025	0.000	21.2	5	-20.0	17.9	1.25	 .0737	23	1	100.0	1
08/07/24	0:50	-17.1	-17.1	-17.1	57	-23.6	16.5	SE	0.28	20.0	SE	-28.7	-17.2	-28.8	749.3	0.025	0.000	21.2	5	-20.0	17.9	1.25	 .0737	23	1	100.0	1
08/07/24	0:51	-17.1	-17.0	-17.1	57	-23.6	16.5	SE	0.28	19.1	ESE	-28.7	-17.2	-28.8	749.3	0.025	0.000	21.2	5	-20.0	17.9	1.25	 .0737	24	1	100.0	1
08/07/24	0:52	-17.1	-17.1	-17.2	57	-23.6	16.5	ESE	0.28	17.4	ESE	-28.8	-17.2	-28.9	749.2	0.025	0.000	21.2	5	-20.0	17.9	1.25	 .0737	23	1	100.0	1
08/07/24	0:53	-17.1	-17.1	-17.2	57	-23.6	15.7	ESE	0.26	17.4	ESE	-28.6	-17.2	-28.7	749.2	0.025	0.000	21.2	5	-20.0	17.9	1.25	 .0737	24	1	100.0	1
08/07/24	0:54	-17.2	-17.1	-17.2	58	-23.5	16.5	ESE	0.28	19.1	ESE	-28.9	-17.3	-29.0	749.2	0.025	0.000	21.2	5	-20.0	17.9	1.25	 .0737	23	1	100.0	1
08/07/24	0:55	-17.3	-17.2	-17.3	57	-23.8	13.9	ESE	0.23	15.7	ESE	-28.2	-17.4	-28.3	749.3	0.025	0.000	21.2	5	-20.0	17.9	1.25	 .0737	24	1	100.0	1
08/07/24	0:56	-17.3	-17.3	-17.3	58	-23.6	15.7	ESE	0.26	16.5	SE	-28.8	-17.4	-28.9	749.2	0.025	0.000	21.2	5	-20.0	17.9	1.25	 .0737	23	1	100.0	1
08/07/24	0:57	-17.3	-17.3	-17.3	59	-23.4	15.7	ESE	0.26	17.4	ESE	-28.8	-17.4	-28.9	749.2	0.025	0.000	21.2	5	-20.0	17.9	1.25	 .0737	23	1	100.0	1
08/07/24	0:58	-17.3	-17.3	-17.3	59	-23.4	16.5	ESE	0.28	17.4	ESE	-29.1	-17.4	-29.2	749.2	0.025	0.000	21.2	5	-20.0	17.9	1.25	 .0737	24	1	100.0	1
08/07/24	0:59	-17.3	-17.3	-17.3	59	-23.4	15.7	ESE	0.26	18.3	SE	-28.8	-17.4	-28.9	749.3	0.025	0.000	21.2	5	-20.1	17.9	1.25	 .0738	23	1	100.0	1
08/07/24	1:00	-17.4	-17.3	-17.4	59	-23.5	16.5	SE	0.28	18.3	ESE	-29.2	-17.5	-29.3	749.2	0.025	0.000	21.2	5	-20.1	17.9	1.25	 .0738	24	1	100.0	1
08/07/24	1:01	-17.3	-17.3	-17.3	60	-23.2	17.4	SE	0.29	19.1	SSE	-29.3	-17.4	-29.4	749.2	0.025	0.000	21.2	5	-20.1	17.9	1.25	 .0738	23	1	100.0	1
08/07/24	1:02	-17.0	-17.0	-17.3	61	-22.7	20.0	SE	0.33	21.7	SE	-29.6	-17.1	-29.7	749.2	0.025	0.000	21.2	5	-20.1	17.9	1.25	 .0738	23	1	100.0	1
08/07/24	1:03	-16.9	-16.9	-17.0	60	-22.8	20.0	ESE	0.33	21.7	SE	-29.5	-17.0	-29.6	749.2	0.024	0.000	21.2	5	-20.1	17.9	1.25	 .0738	24	1	100.0	1
08/07/24	1:04	-16.9	-16.9	-16.9	59	-23.1	20.0	ESE	0.33	22.6	ESE	-29.6	-17.1	-29.7	749.2	0.024	0.000	21.2	5	-20.1	17.9	1.25	 .0738	23	1	100.0	1
08/07/24	1:05	-17.1	-16.9	-17.1	59	-23.2	18.3	ESE	0.30	22.6	ESE	-29.3	-17.2	-29.4	749.2	0.025	0.000	21.2	5	-20.1	17.9	1.25	 .0738	24	1	100.0	1
08/07/24	1:06	-17.2	-17.1	-17.2	59	-23.3	19.1	ESE	0.32	20.9	ESE	-29.6	-17.3	-29.7	749.2	0.025	0.000	21.1	5	-20.1	17.8	1.25	 .0738	23	1	100.0	1
08/07/24	1:07	-17.2	-17.1	-17.2	60	-23.1	18.3	ESE	0.30	20.9	ESE	-29.4	-17.3	-29.5	749.2	0.025	0.000	21.1	5	-20.1	17.8	1.25	 .0738	24	1	100.0	1
08/07/24	1:08	-17.2	-17.2	-17.2	60	-23.1	19.1	ESE	0.32	20.9	ESE	-29.7	-17.3	-29.8	749.2	0.025	0.000	21.1	5	-20.1	17.8	1.25	 .0738	23	1	100.0	1
08/07/24	1:09	-17.3	-17.2	-17.3	60	-23.2	16.5	ESE	0.28	17.4	ESE	-29.0	-17.4	-29.1	749.2	0.025	0.000	21.1	5	-20.1	17.8	1.25	 .0738	23	1	100.0	1
08/07/24	1:10	-17.4	-17.3	-17.4	60	-23.4	17.4	ESE	0.29	19.1	ESE	-29.5	-17.6	-29.6	749.3	0.025	0.000	21.1	5	-20.1	17.8	1.25	 .0738	24	1	100.0	1
08/07/24	1:11	-17.5	-17.4	-17.5	60	-23.4	17.4	ESE	0.29	20.0	ESE	-29.6	-17.6	-29.7	749.3	0.025	0.000	21.1	5	-20.1	17.8	1.25	 .0738	23	1	100.0	1
08/07/24	1:12	-17.6	-17.6	-17.6	61	-23.3	20.0	ESE	0.33	22.6	ESE	-30.4	-17.7	-30.5	749.4	0.025	0.000	21.1	5	-20.1	17.7	1.25	 .0738	24	1	100.0	1
08/07/24	1:13	-17.6	-17.6	-17.6	61	-23.3	19.1	ESE	0.32	21.7	ESE	-30.2	-17.7	-30.3	749.3	0.025	0.000	21.1	5	-20.1	17.7	1.25	 .0738	23	1	100.0	1
08/07/24	1:14	-17.6	-17.6	-17.6	61	-23.3	20.9	ESE	0.35	22.6	ESE	-30.6	-17.7	-30.7	749.3	0.025	0.000	21.1	5	-20.1	17.7	1.25	 .0738	23	1	100.0	1
08/07/24	1:15	-17.6	-17.6	-17.6	61	-23.3	20.9	ESE	0.35	22.6	ESE	-30.6	-17.7	-30.7	749.4	0.025	0.000	21.1	5	-20.1	17.7	1.25	 .0738	24	1	100.0	1
08/07/24	1:16	-17.6	-17.6	-17.6	61	-23.3	21.7	ESE	0.36	22.6	ESE	-30.8	-17.7	-30.9	749.4	0.025	0.000	21.1	5	-20.1	17.7	1.25	 .0738	23	1	100.0	1
08/07/24	1:17	-17.5	-17.5	-17.6	61	-23.2	20.9	ESE	0.35	23.5	ESE	-30.5	-17.6	-30.6	749.4	0.025	0.000	21.1	5	-20.1	17.7	1.25	 .0738	24	1	100.0	1
08/07/24	1:18	-17.4	-17.4	-17.5	62	-22.9	21.7	ESE	0.36	25.2	ESE	-30.6	-17.5	-30.7	749.4	0.025	0.000	21.1	5	-20.1	17.7	1.25	 .0738	23	1	100.0	1
08/07/24	1:19	-17.3	-17.3	-17.4	61	-23.1	20.0	ESE	0.33	25.2	ESE	-30.1	-17.4	-30.2	749.4	0.025	0.000	21.1	5	-20.1	17.7	1.25	 .0738	23	1	100.0	1
08/07/24	1:20	-17.4	-17.3	-17.4	61	-23.1	20.0	ESE	0.33	22.6	ESE	-30.2	-17.5	-30.3	749.5	0.025	0.000	21.1	5	-20.1	17.7	1.25	 .0738	24	1	100.0	1
08/07/24	1:21	-17.3	-17.3	-17.4	61	-23.1	20.0	ESE	0.33	22.6	ESE	-30.1	-17.4	-30.2	749.5	0.025	0.000	21.1	5	-20.1	17.7	1.25	 .0738	23	1	100.0	1
08/07/24	1:22	-17.4	-17.3	-17.4	61	-23.2	16.5	ESE	0.28	18.3	ESE	-29.2	-17.6	-29.3	749.5	0.025	0.000	21.1	5	-20.1	17.7	1.25	 .0738	24	1	100.0	1
08/07/24	1:23	-17.4	-17.4	-17.4	61	-23.1	20.9	ESE	0.35	22.6	ESE	-30.4	-17.5	-30.5	749.5	0.025	0.000	21.1	5	-20.1	17.7	1.25	 .0738	23	1	100.0	1
08/07/24	1:24	-17.3	-17.3	-17.3	62	-22.8	20.9	ESE	0.35	22.6	ESE	-30.2	-17.4	-30.3	749.5	0.025	0.000	21.1	5	-20.1	17.7	1.25	 .0738	24	1	100.0	1
08/07/24	1:25	-17.1	-17.1	-17.2	62	-22.7	20.9	ESE	0.35	22.6	ESE	-30.0	-17.2	-30.1	749.4	0.025	0.000	21.1	5	-20.1	17.7	1.25	 .0738	23	1	100.0	1
08/07/24	1:26	-17.1	-17.1	-17.1	62	-22.6	20.9	ESE	0.35	22.6	ESE	-29.9	-17.2	-30.1	749.5	0.025	0.000	21.1	5	-20.1	17.7	1.25	 .0738	23	1	100.0	1
08/07/24	1:27	-17.1	-17.1	-17.1	62	-22.6	20.9	ESE	0.35	22.6	ESE	-29.9	-17.2	-30.1	749.4	0.025	0.000	21.1	5	-20.1	17.7	1.25	 .0738	24	1	100.0	1
08/07/24	1:28	-17.2	-17.1	-17.2	61	-22.9	20.0	ESE	0.33	21.7	ESE	-29.8	-17.3	-29.9	749.5	0.025	0.000	21.1	5	-20.1	17.7	1.25	 .0738	23	1	100.0	1
08/07/24	1:29	-17.2	-17.2	-17.2	61	-23.0	18.3	ESE	0.30	20.9	ESE	-29.4	-17.3	-29.6	749.5	0.025	0.000	21.1	5	-20.1	17.7	1.25	 .0738	24	1	100.0	1
08/07/24	1:30	-17.3	-17.2	-17.3	62	-22.8	19.1	ESE	0.32	21.7	ESE	-29.8	-17.4	-29.9	749.5	0.025	0.000	21.1	5	-20.1	17.7	1.25	 .0738	23	1	100.0	1
08/07/24	1:31	-17.3	-17.3	-17.3	62	-22.9	18.3	E	0.30	20.9	E	-29.6	-17.4	-29.7	749.5	0.025	0.000	21.1	5	-20.1	17.7	1.25	 .0738	23	1	100.0	1
08/07/24	1:32	-17.4	-17.4	-17.4	62	-23.0	18.3	ESE	0.30	20.9	ESE	-29.8	-17.6	-29.9	749.5	0.025	0.000	21.1	5	-20.1	17.7	1.25	 .0738	24	1	100.0	1
08/07/24	1:33	-17.5	-17.4	-17.5	63	-22.9	21.7	ESE	0.36	23.5	ESE	-30.7	-17.6	-30.8	749.5	0.025	0.000	21.1	5	-20.1	17.8	1.25	 .0738	23	1	100.0	1
08/07/24	1:34	-17.4	-17.4	-17.5	63	-22.8	21.7	ESE	0.36	23.5	ESE	-30.7	-17.6	-30.8	749.5	0.025	0.000	21.1	5	-20.1	17.8	1.25	 .0738	24	1	100.0	1
08/07/24	1:35	-17.4	-17.4	-17.5	64	-22.6	20.9	ESE	0.35	23.5	ESE	-30.4	-17.6	-30.6	749.5	0.025	0.000	21.1	5	-20.1	17.8	1.25	 .0738	23	1	100.0	1
08/07/24	1:36	-17.4	-17.4	-17.5	64	-22.6	20.9	ESE	0.35	22.6	ESE	-30.4	-17.6	-30.6	749.5	0.025	0.000	21.1	5	-20.1	17.8	1.25	 .0738	24	1	100.0	1
08/07/24	1:37	-17.4	-17.4	-17.5	64	-22.6	20.9	ESE	0.35	23.5	ESE	-30.4	-17.6	-30.6	749.5	0.025	0.000	21.1	5	-20.1	17.8	1.25	 .0738	23	1	100.0	1
08/07/24	1:38	-17.4	-17.4	-17.4	64	-22.6	20.0	E	0.33	22.6	ESE	-30.2	-17.6	-30.3	749.5	0.025	0.000	21.1	5	-20.1	17.8	1.25	 .0738	23	1	100.0	1
08/07/24	1:39	-17.4	-17.4	-17.4	64	-22.6	20.0	ESE	0.33	22.6	ESE	-30.2	-17.6	-30.3	749.5	0.025	0.000	21.1	5	-20.1	17.8	1.25	 .0738	24	1	100.0	1
08/07/24	1:40	-17.4	-17.4	-17.4	64	-22.6	20.0	E	0.33	23.5	E	-30.2	-17.6	-30.3	749.5	0.025	0.000	21.1	5	-20.1	17.8	1.25	 .0738	23	1	100.0	1
08/07/24	1:41	-17.4	-17.4	-17.4	64	-22.6	19.1	E	0.32	21.7	E	-29.9	-17.5	-30.1	749.5	0.025	0.000	21.1	5	-20.1	17.8	1.25	 .0738	24	1	100.0	1
08/07/24	1:42	-17.4	-17.4	-17.4	65	-22.5	17.4	ESE	0.29	20.0	ESE	-29.5	-17.6	-29.6	749.6	0.025	0.000	21.1	5	-20.1	17.8	1.25	 .0738	23	1	100.0	1
08/07/24	1:43	-17.4	-17.4	-17.4	65	-22.5	19.1	ESE	0.32	21.7	ESE	-30.0	-17.6	-30.1	749.6	0.025	0.000	21.2	5	-20.1	17.9	1.25	 .0738	23	1	100.0	1
08/07/24	1:44	-17.4	-17.4	-17.4	65	-22.5	20.9	ESE	0.35	22.6	ESE	-30.4	-17.6	-30.6	749.6	0.025	0.000	21.2	5	-20.1	17.9	1.25	 .0738	24	1	100.0	1
08/07/24	1:45	-17.4	-17.4	-17.4	65	-22.5	20.9	E	0.35	22.6	E	-30.4	-17.6	-30.6	749.6	0.025	0.000	21.2	5	-20.1	17.9	1.25	 .0738	23	1	100.0	1
08/07/24	1:46	-17.4	-17.4	-17.4	65	-22.5	19.1	E	0.32	21.7	E	-30.0	-17.6	-30.1	749.5	0.025	0.000	21.2	5	-20.1	17.9	1.25	 .0738	24	1	100.0	1
08/07/24	1:47	-17.5	-17.4	-17.5	65	-22.5	20.0	E	0.33	22.6	E	-30.3	-17.6	-30.4	749.6	0.025	0.000	21.2	5	-20.1	17.9	1.25	 .0738	23	1	100.0	1
08/07/24	1:48	-17.6	-17.5	-17.6	65	-22.6	21.7	ESE	0.36	23.5	ESE	-30.8	-17.7	-30.9	749.5	0.025	0.000	21.2	5	-20.0	17.9	1.25	 .0738	24	1	100.0	1
08/07/24	1:49	-17.6	-17.6	-17.6	66	-22.4	21.7	ESE	0.36	23.5	E	-30.8	-17.7	-30.9	749.5	0.025	0.000	21.2	5	-20.0	17.9	1.25	 .0738	23	1	100.0	1
08/07/24	1:50	-17.5	-17.5	-17.6	66	-22.3	20.9	E	0.35	23.5	E	-30.5	-17.6	-30.6	749.5	0.025	0.000	21.2	5	-20.0	17.9	1.25	 .0738	23	1	100.0	1
08/07/24	1:51	-17.5	-17.5	-17.6	66	-22.3	21.7	E	0.36	24.3	ESE	-30.7	-17.6	-30.8	749.5	0.025	0.000	21.3	5	-20.0	18.1	1.25	 .0738	24	1	100.0	1
08/07/24	1:52	-17.6	-17.5	-17.6	66	-22.4	22.6	ESE	0.38	25.2	ESE	-31.0	-17.7	-31.1	749.5	0.025	0.000	21.3	5	-20.0	18.1	1.25	 .0738	23	1	100.0	1
08/07/24	1:53	-17.5	-17.5	-17.6	67	-22.2	22.6	ESE	0.38	25.2	ESE	-30.9	-17.6	-31.1	749.4	0.025	0.000	21.3	5	-20.0	18.1	1.25	 .0737	24	1	100.0	1
08/07/24	1:54	-17.4	-17.4	-17.5	67	-22.1	24.3	ESE	0.41	26.1	ESE	-31.3	-17.6	-31.4	749.5	0.025	0.000	21.3	5	-20.0	18.1	1.25	 .0737	23	1	100.0	1
08/07/24	1:55	-17.4	-17.4	-17.4	67	-22.1	23.5	E	0.39	26.1	E	-31.0	-17.5	-31.1	749.5	0.025	0.000	21.3	5	-20.0	18.1	1.25	 .0738	23	1	100.0	1
08/07/24	1:56	-17.4	-17.3	-17.4	67	-22.1	25.2	ESE	0.42	27.0	E	-31.4	-17.5	-31.5	749.5	0.025	0.000	21.3	5	-20.0	18.1	1.25	 .0737	24	1	100.0	1
08/07/24	1:57	-17.4	-17.3	-17.4	67	-22.1	26.1	E	0.43	27.8	E	-31.6	-17.5	-31.7	749.5	0.025	0.000	21.3	5	-20.0	18.1	1.25	 .0737	23	1	100.0	1
08/07/24	1:58	-17.4	-17.4	-17.4	67	-22.1	26.1	E	0.43	27.8	E	-31.7	-17.6	-31.8	749.4	0.025	0.000	21.3	5	-20.0	18.1	1.25	 .0737	24	1	100.0	1
08/07/24	1:59	-17.4	-17.4	-17.4	67	-22.1	25.2	E	0.42	27.8	ESE	-31.4	-17.6	-31.6	749.5	0.025	0.000	21.3	5	-20.0	18.1	1.25	 .0737	23	1	100.0	1
08/07/24	2:00	-17.4	-17.4	-17.4	67	-22.1	23.5	E	0.39	26.1	E	-31.1	-17.6	-31.2	749.5	0.025	0.000	21.3	5	-20.0	18.1	1.25	 .0738	23	1	100.0	1
08/07/24	2:01	-17.4	-17.4	-17.5	67	-22.1	24.3	E	0.41	27.8	E	-31.3	-17.6	-31.4	749.5	0.025	0.000	21.3	5	-20.0	18.1	1.25	 .0738	24	1	100.0	1
08/07/24	2:02	-17.4	-17.4	-17.4	67	-22.1	24.3	ESE	0.41	27.0	E	-31.3	-17.6	-31.4	749.5	0.025	0.000	21.3	5	-20.0	18.1	1.25	 .0737	23	1	100.0	1
08/07/24	2:03	-17.4	-17.4	-17.4	68	-21.9	24.3	ESE	0.41	27.0	ESE	-31.3	-17.6	-31.4	749.5	0.025	0.000	21.3	5	-20.0	18.1	1.25	 .0737	24	1	100.0	1
08/07/24	2:04	-17.4	-17.4	-17.4	68	-21.9	24.3	ESE	0.41	27.0	ESE	-31.3	-17.6	-31.4	749.5	0.025	0.000	21.3	5	-20.0	18.1	1.25	 .0738	23	1	100.0	1
08/07/24	2:05	-17.4	-17.4	-17.4	68	-21.9	23.5	ESE	0.39	25.2	E	-31.1	-17.6	-31.2	749.5	0.025	0.000	21.3	5	-20.0	18.1	1.25	 .0738	24	1	100.0	1
08/07/24	2:06	-17.4	-17.4	-17.4	68	-21.9	24.3	ESE	0.41	27.0	ESE	-31.3	-17.6	-31.4	749.6	0.025	0.000	21.2	5	-20.0	17.9	1.25	 .0738	23	1	100.0	1
08/07/24	2:07	-17.3	-17.3	-17.4	68	-21.8	24.3	ESE	0.41	27.0	ESE	-31.1	-17.4	-31.2	749.5	0.025	0.000	21.2	5	-20.0	17.9	1.25	 .0738	23	1	100.0	1
08/07/24	2:08	-17.3	-17.3	-17.3	69	-21.6	24.3	ESE	0.41	27.0	ESE	-31.1	-17.4	-31.2	749.6	0.025	0.000	21.2	5	-20.0	17.9	1.25	 .0738	24	1	100.0	1
08/07/24	2:09	-17.1	-17.1	-17.2	69	-21.5	23.5	ESE	0.39	27.8	ESE	-30.6	-17.2	-30.7	749.6	0.025	0.000	21.2	5	-20.0	17.9	1.25	 .0738	23	1	100.0	1
08/07/24	2:10	-17.1	-17.1	-17.1	69	-21.4	20.9	ESE	0.35	23.5	ESE	-29.9	-17.2	-30.1	749.6	0.025	0.000	21.2	5	-20.1	17.9	1.25	 .0738	24	1	100.0	1
08/07/24	2:11	-16.9	-16.9	-17.0	70	-21.1	21.7	ESE	0.36	24.3	ESE	-29.9	-17.0	-30.1	749.6	0.024	0.000	21.2	5	-20.1	17.9	1.25	 .0738	23	1	100.0	1
08/07/24	2:12	-16.8	-16.8	-16.9	70	-21.0	20.0	ESE	0.33	21.7	ESE	-29.3	-16.9	-29.4	749.7	0.024	0.000	21.2	5	-20.1	17.9	1.25	 .0738	23	1	100.0	1
08/07/24	2:13	-16.7	-16.7	-16.8	70	-20.9	20.0	ESE	0.33	22.6	ESE	-29.3	-16.8	-29.4	749.7	0.024	0.000	21.2	5	-20.1	17.9	1.25	 .0738	24	1	100.0	1
08/07/24	2:14	-16.7	-16.7	-16.7	69	-21.1	19.1	ESE	0.32	21.7	ESE	-29.1	-16.8	-29.2	749.7	0.024	0.000	21.1	5	-20.1	17.8	1.25	 .0738	23	1	100.0	1
08/07/24	2:15	-16.7	-16.7	-16.7	69	-21.0	18.3	ESE	0.30	20.0	SE	-28.7	-16.8	-28.8	749.7	0.024	0.000	21.1	5	-20.1	17.8	1.25	 .0738	24	1	100.0	1
08/07/24	2:16	-16.6	-16.6	-16.7	69	-20.9	17.4	SE	0.29	19.1	ESE	-28.3	-16.7	-28.4	749.7	0.024	0.000	21.1	5	-20.1	17.8	1.25	 .0738	23	1	100.0	1
08/07/24	2:17	-16.3	-16.3	-16.5	70	-20.5	16.5	SE	0.28	18.3	SE	-27.8	-16.4	-27.9	749.8	0.024	0.000	21.1	5	-20.1	17.8	1.25	 .0738	24	1	100.0	1
08/07/24	2:18	-16.2	-16.2	-16.3	70	-20.4	15.7	SE	0.26	18.3	SSE	-27.3	-16.3	-27.4	749.8	0.024	0.000	21.1	5	-20.1	17.8	1.25	 .0738	23	1	100.0	1
08/07/24	2:19	-16.1	-16.1	-16.2	70	-20.3	15.7	SE	0.26	17.4	SSE	-27.2	-16.2	-27.3	749.8	0.024	0.000	21.1	5	-20.1	17.8	1.25	 .0738	23	1	100.0	1
08/07/24	2:20	-15.8	-15.8	-16.0	70	-20.1	14.8	SSE	0.25	18.3	SSE	-26.6	-15.9	-26.7	749.8	0.024	0.000	21.1	5	-20.1	17.8	1.25	 .0738	24	1	100.0	1
08/07/24	2:21	-15.8	-15.8	-15.8	70	-20.0	13.9	SE	0.23	15.7	SE	-26.2	-15.9	-26.3	749.8	0.024	0.000	21.1	5	-20.1	17.8	1.25	 .0738	23	1	100.0	1
08/07/24	2:22	-15.7	-15.7	-15.8	70	-19.9	13.9	SSE	0.23	15.7	SE	-26.2	-15.8	-26.3	749.8	0.024	0.000	21.1	5	-20.1	17.8	1.25	 .0738	24	1	100.0	1
08/07/24	2:23	-15.6	-15.6	-15.7	69	-20.0	13.0	SE	0.22	14.8	SE	-25.7	-15.7	-25.8	749.9	0.024	0.000	21.1	5	-20.1	17.8	1.25	 .0738	23	1	100.0	1
08/07/24	2:24	-15.6	-15.6	-15.6	69	-20.0	13.0	SE	0.22	14.8	SE	-25.7	-15.7	-25.8	749.9	0.024	0.000	21.2	5	-20.1	17.9	1.25	 .0738	23	1	100.0	1
08/07/24	2:25	-15.7	-15.6	-15.7	68	-20.2	12.2	SE	0.20	13.9	SE	-25.5	-15.8	-25.6	750.0	0.024	0.000	21.2	5	-20.1	17.9	1.25	 .0738	24	1	100.0	1
08/07/24	2:26	-15.8	-15.7	-15.8	68	-20.4	11.3	ESE	0.19	14.8	ESE	-25.3	-15.9	-25.4	750.0	0.024	0.000	21.2	5	-20.1	17.9	1.25	 .0738	23	1	100.0	1
08/07/24	2:27	-16.0	-15.9	-16.0	68	-20.6	13.0	ESE	0.22	14.8	ESE	-26.2	-16.1	-26.3	750.0	0.024	0.000	21.2	5	-20.1	17.9	1.25	 .0738	24	1	100.0	1
08/07/24	2:28	-16.1	-16.0	-16.1	68	-20.6	11.3	ESE	0.19	13.9	E	-25.6	-16.2	-25.7	749.9	0.024	0.000	21.2	5	-20.0	17.9	1.25	 .0738	23	1	100.0	1
08/07/24	2:29	-16.1	-16.1	-16.1	68	-20.6	12.2	SE	0.20	13.0	SE	-25.9	-16.2	-26.1	749.9	0.024	0.000	21.2	5	-20.0	17.9	1.25	 .0738	24	1	100.0	1
08/07/24	2:30	-15.9	-15.9	-16.0	69	-20.3	11.3	SE	0.19	13.0	SE	-25.4	-16.0	-25.5	750.0	0.024	0.000	21.2	5	-20.0	17.9	1.25	 .0738	23	1	100.0	1
08/07/24	2:31	-15.8	-15.8	-15.9	69	-20.2	10.4	ESE	0.17	12.2	SE	-24.9	-15.9	-25.0	750.0	0.024	0.000	21.3	5	-20.0	18.1	1.25	 .0738	23	1	100.0	1
08/07/24	2:32	-15.8	-15.8	-15.8	69	-20.2	10.4	ESE	0.17	12.2	E	-25.0	-15.9	-25.1	750.0	0.024	0.000	21.3	5	-20.0	18.1	1.25	 .0738	24	1	100.0	1
08/07/24	2:33	-15.9	-15.8	-15.9	68	-20.5	11.3	ESE	0.19	12.2	ESE	-25.5	-16.1	-25.6	749.9	0.024	0.000	21.3	5	-20.0	18.1	1.25	 .0738	23	1	100.0	1
08/07/24	2:34	-15.9	-15.9	-15.9	68	-20.5	11.3	SE	0.19	13.0	SE	-25.5	-16.1	-25.6	750.0	0.024	0.000	21.3	5	-19.9	18.2	1.25	 .0738	24	1	100.0	1
08/07/24	2:35	-15.8	-15.8	-15.9	68	-20.4	10.4	ESE	0.17	11.3	SE	-25.0	-15.9	-25.1	750.0	0.024	0.000	21.3	5	-19.9	18.2	1.25	 .0738	23	1	100.0	1
08/07/24	2:36	-15.7	-15.7	-15.8	68	-20.3	10.4	SE	0.17	12.2	ESE	-24.8	-15.8	-24.9	750.1	0.024	0.000	21.3	5	-19.9	18.2	1.25	 .0738	23	1	100.0	1
08/07/24	2:37	-15.8	-15.7	-15.8	68	-20.3	11.3	ESE	0.19	12.2	E	-25.3	-15.9	-25.4	750.0	0.024	0.000	21.4	5	-19.9	18.2	1.25	 .0738	24	1	100.0	1
08/07/24	2:38	-15.9	-15.8	-15.9	68	-20.5	10.4	ESE	0.17	11.3	ESE	-25.1	-16.1	-25.2	750.1	0.024	0.000	21.4	5	-19.9	18.2	1.25	 .0738	23	1	100.0	1
08/07/24	2:39	-16.2	-16.0	-16.2	67	-20.9	11.3	ESE	0.19	12.2	ESE	-25.8	-16.3	-25.9	750.0	0.024	0.000	21.4	5	-19.9	18.3	1.25	 .0738	24	1	100.0	1
08/07/24	2:40	-16.4	-16.2	-16.4	66	-21.3	11.3	ESE	0.19	11.3	ESE	-26.1	-16.5	-26.2	750.0	0.024	0.000	21.4	5	-19.9	18.3	1.25	 .0738	23	1	100.0	1
08/07/24	2:41	-16.6	-16.4	-16.6	67	-21.3	10.4	E	0.17	12.2	E	-25.9	-16.7	-26.0	750.0	0.024	0.000	21.5	5	-19.8	18.4	1.25	 .0738	23	1	100.0	1
08/07/24	2:42	-16.7	-16.6	-16.7	67	-21.4	11.3	E	0.19	12.2	E	-26.4	-16.8	-26.6	750.1	0.024	0.000	21.5	5	-19.8	18.4	1.25	 .0738	24	1	100.0	1
08/07/24	2:43	-16.8	-16.8	-16.8	67	-21.5	11.3	E	0.19	13.0	E	-26.6	-16.9	-26.7	750.1	0.024	0.000	21.6	5	-19.8	18.6	1.25	 .0737	23	1	100.0	1
08/07/24	2:44	-16.9	-16.8	-16.9	68	-21.4	13.0	E	0.22	13.9	ENE	-27.3	-17.0	-27.4	750.1	0.024	0.000	21.6	5	-19.7	18.6	1.25	 .0737	24	1	100.0	1
08/07/24	2:45	-16.9	-16.9	-16.9	68	-21.5	13.9	ENE	0.23	13.9	E	-27.7	-17.1	-27.8	750.2	0.024	0.000	21.7	5	-19.7	18.7	1.25	 .0737	23	1	100.0	1
08/07/24	2:46	-17.0	-16.9	-17.0	69	-21.3	13.9	ENE	0.23	14.8	ENE	-27.8	-17.1	-27.9	750.1	0.025	0.000	21.7	5	-19.7	18.7	1.25	 .0737	24	1	100.0	1
08/07/24	2:47	-17.1	-17.0	-17.1	69	-21.4	12.2	ENE	0.20	13.0	ENE	-27.2	-17.2	-27.3	750.1	0.025	0.000	21.7	5	-19.7	18.8	1.25	 .0737	23	1	100.0	1
08/07/24	2:48	-17.1	-17.1	-17.1	69	-21.5	11.3	ENE	0.19	12.2	ENE	-26.9	-17.2	-27.1	750.2	0.025	0.000	21.8	5	-19.6	18.8	1.25	 .0737	23	1	100.0	1
08/07/24	2:49	-17.1	-17.1	-17.2	69	-21.5	10.4	ENE	0.17	12.2	ENE	-26.6	-17.2	-26.7	750.2	0.025	0.000	21.8	5	-19.6	18.8	1.25	 .0737	24	1	100.0	1
08/07/24	2:50	-17.0	-17.0	-17.1	70	-21.2	7.8	E	0.13	9.6	E	-25.1	-17.1	-25.2	750.1	0.025	0.000	21.8	5	-19.6	18.8	1.25	 .0737	23	1	100.0	1
08/07/24	2:51	-16.8	-16.8	-17.0	70	-21.0	8.7	E	0.14	10.4	E	-25.4	-16.9	-25.5	750.1	0.024	0.000	21.8	5	-19.6	18.8	1.25	 .0737	24	1	100.0	1
08/07/24	2:52	-16.7	-16.7	-16.8	71	-20.7	7.8	E	0.13	8.7	E	-24.8	-16.8	-24.9	750.1	0.024	0.000	21.8	5	-19.6	18.9	1.25	 .0737	23	1	100.0	1
08/07/24	2:53	-16.6	-16.6	-16.7	71	-20.6	7.0	E	0.12	7.8	E	-24.2	-16.7	-24.3	750.1	0.024	0.000	21.8	5	-19.6	18.9	1.25	 .0737	23	1	100.0	1
08/07/24	2:54	-16.4	-16.4	-16.6	71	-20.5	7.0	E	0.12	7.8	E	-23.9	-16.6	-24.1	750.1	0.024	0.000	21.8	5	-19.6	18.9	1.25	 .0737	24	1	100.0	1
08/07/24	2:55	-16.3	-16.3	-16.4	71	-20.4	7.8	E	0.13	9.6	ESE	-24.3	-16.4	-24.4	750.1	0.024	0.000	21.8	5	-19.6	18.9	1.25	 .0737	23	1	100.0	1
08/07/24	2:56	-16.2	-16.2	-16.3	70	-20.4	7.8	ESE	0.13	8.7	ESE	-24.2	-16.3	-24.3	750.1	0.024	0.000	21.9	5	-19.5	18.9	1.25	 .0737	24	1	100.0	1
08/07/24	2:57	-16.0	-16.0	-16.2	70	-20.2	7.8	SE	0.13	9.6	SE	-23.9	-16.1	-24.0	750.0	0.024	0.000	21.9	5	-19.5	18.9	1.25	 .0737	23	1	100.0	1
08/07/24	2:58	-15.7	-15.7	-15.9	70	-19.9	7.0	SE	0.12	7.8	SE	-23.1	-15.8	-23.2	750.0	0.024	0.000	21.9	5	-19.5	18.9	1.25	 .0736	24	1	100.0	1
08/07/24	2:59	-15.5	-15.5	-15.7	70	-19.7	7.0	SE	0.12	7.8	SE	-22.8	-15.6	-22.9	750.0	0.023	0.000	21.9	5	-19.5	18.9	1.25	 .0736	23	1	100.0	1
08/07/24	3:00	-15.2	-15.2	-15.5	70	-19.5	7.0	SE	0.12	7.0	SE	-22.4	-15.3	-22.6	750.0	0.023	0.000	21.9	5	-19.5	18.9	1.25	 .0737	23	1	100.0	1
08/07/24	3:01	-15.1	-15.1	-15.2	70	-19.3	6.1	SE	0.10	7.0	SE	-21.7	-15.2	-21.8	750.1	0.023	0.000	21.9	5	-19.5	18.9	1.25	 .0737	24	1	100.0	1
08/07/24	3:02	-14.8	-14.8	-15.0	69	-19.3	5.2	SE	0.09	7.0	SE	-20.8	-14.9	-20.9	750.1	0.023	0.000	21.9	5	-19.5	18.9	1.25	 .0737	23	1	100.0	1
08/07/24	3:03	-14.9	-14.8	-14.9	69	-19.3	6.1	ESE	0.10	7.0	ESE	-21.5	-15.0	-21.6	750.2	0.023	0.000	21.9	5	-19.5	18.9	1.25	 .0737	24	1	100.0	1
08/07/24	3:04	-15.0	-14.9	-15.0	66	-19.9	5.2	ESE	0.09	7.0	ESE	-21.0	-15.1	-21.1	750.1	0.023	0.000	21.9	5	-19.5	18.9	1.25	 .0737	23	1	100.0	1
08/07/24	3:05	-15.1	-15.0	-15.1	66	-20.0	4.3	SE	0.07	6.1	ESE	-20.4	-15.2	-20.6	750.2	0.023	0.000	21.9	5	-19.5	18.9	1.25	 .0737	23	1	100.0	1
08/07/24	3:06	-15.2	-15.2	-15.2	66	-20.2	4.3	ESE	0.07	6.1	ESE	-20.6	-15.3	-20.7	750.1	0.023	0.000	21.9	5	-19.5	18.9	1.25	 .0737	24	1	100.0	1
08/07/24	3:07	-15.2	-15.2	-15.2	66	-20.2	4.3	SE	0.07	6.1	SE	-20.6	-15.3	-20.7	750.1	0.023	0.000	21.9	5	-19.5	18.9	1.25	 .0737	23	1	100.0	1
08/07/24	3:08	-15.2	-15.2	-15.2	67	-20.0	6.1	SE	0.10	7.0	SE	-21.9	-15.3	-22.0	750.1	0.023	0.000	21.9	5	-19.5	18.9	1.25	 .0737	24	1	100.0	1
08/07/24	3:09	-15.2	-15.2	-15.2	67	-20.0	7.8	E	0.13	11.3	E	-22.9	-15.3	-23.1	750.2	0.023	0.000	21.8	5	-19.6	18.9	1.25	 .0737	23	1	100.0	1
08/07/24	3:10	-15.3	-15.2	-15.3	66	-20.3	6.1	ESE	0.10	7.8	ESE	-22.1	-15.4	-22.2	750.2	0.023	0.000	21.8	5	-19.6	18.9	1.25	 .0737	24	1	100.0	1
08/07/24	3:11	-15.5	-15.4	-15.5	66	-20.4	5.2	ESE	0.09	6.1	E	-21.6	-15.6	-21.7	750.2	0.023	0.000	21.8	5	-19.6	18.9	1.25	 .0737	23	1	100.0	1
08/07/24	3:12	-15.6	-15.5	-15.6	66	-20.5	5.2	ESE	0.09	7.0	SE	-21.7	-15.7	-21.8	750.2	0.024	0.000	21.8	5	-19.6	18.9	1.25	 .0737	23	1	100.0	1
08/07/24	3:13	-15.7	-15.6	-15.7	67	-20.4	7.0	ESE	0.12	7.8	ESE	-23.0	-15.8	-23.1	750.2	0.024	0.000	21.8	5	-19.6	18.9	1.25	 .0737	24	1	100.0	1
08/07/24	3:14	-15.7	-15.7	-15.7	67	-20.5	7.8	E	0.13	8.7	ESE	-23.6	-15.8	-23.7	750.2	0.024	0.000	21.8	5	-19.6	18.9	1.25	 .0737	23	1	100.0	1
08/07/24	3:15	-15.8	-15.8	-15.8	67	-20.6	7.8	ESE	0.13	9.6	ESE	-23.7	-15.9	-23.8	750.3	0.024	0.000	21.8	5	-19.6	18.8	1.25	 .0737	24	1	100.0	1
08/07/24	3:16	-15.9	-15.9	-15.9	67	-20.7	7.8	E	0.13	8.7	ESE	-23.8	-16.1	-23.9	750.2	0.024	0.000	21.8	5	-19.6	18.8	1.25	 .0737	23	1	100.0	1
08/07/24	3:17	-16.1	-15.9	-16.1	67	-20.8	7.8	ESE	0.13	9.6	E	-24.0	-16.2	-24.1	750.2	0.024	0.000	21.8	5	-19.6	18.8	1.25	 .0737	23	1	100.0	1
08/07/24	3:18	-16.1	-16.1	-16.1	68	-20.7	7.8	ESE	0.13	8.7	ESE	-24.1	-16.2	-24.2	750.2	0.024	0.000	21.8	5	-19.6	18.8	1.25	 .0737	24	1	100.0	1
08/07/24	3:19	-16.1	-16.1	-16.1	68	-20.7	7.8	ESE	0.13	8.7	ESE	-24.1	-16.2	-24.2	750.3	0.024	0.000	21.8	5	-19.6	18.8	1.25	 .0737	23	1	100.0	1
08/07/24	3:20	-16.2	-16.2	-16.2	68	-20.7	8.7	ESE	0.14	10.4	ESE	-24.6	-16.3	-24.7	750.3	0.024	0.000	21.8	5	-19.6	18.9	1.25	 .0737	24	1	100.0	1
08/07/24	3:21	-16.2	-16.2	-16.2	69	-20.5	11.3	ESE	0.19	12.2	ESE	-25.8	-16.3	-25.9	750.2	0.024	0.000	21.8	5	-19.6	18.8	1.25	 .0737	23	1	100.0	1
08/07/24	3:22	-16.1	-16.1	-16.2	69	-20.5	11.3	ESE	0.19	12.2	ESE	-25.7	-16.2	-25.8	750.2	0.024	0.000	21.8	5	-19.6	18.8	1.25	 .0737	23	1	100.0	1
08/07/24	3:23	-16.0	-16.0	-16.1	69	-20.4	8.7	ESE	0.14	9.6	ESE	-24.4	-16.1	-24.5	750.2	0.024	0.000	21.8	5	-19.6	18.8	1.25	 .0737	24	1	100.0	1
08/07/24	3:24	-16.0	-16.0	-16.0	69	-20.4	9.6	ESE	0.16	12.2	ESE	-24.8	-16.1	-24.9	750.2	0.024	0.000	21.8	5	-19.6	18.8	1.25	 .0737	23	1	100.0	1
08/07/24	3:25	-15.8	-15.8	-15.9	69	-20.2	11.3	ESE	0.19	12.2	ESE	-25.3	-15.9	-25.4	750.3	0.024	0.000	21.8	5	-19.6	18.8	1.25	 .0737	24	1	100.0	1
08/07/24	3:26	-15.7	-15.7	-15.8	69	-20.1	11.3	ESE	0.19	13.0	SE	-25.2	-15.8	-25.3	750.3	0.024	0.000	21.8	5	-19.6	18.8	1.25	 .0737	23	1	100.0	1
08/07/24	3:27	-15.5	-15.5	-15.7	69	-19.9	11.3	SE	0.19	12.2	ESE	-24.9	-15.6	-25.1	750.3	0.023	0.000	21.8	5	-19.6	18.8	1.25	 .0737	24	1	100.0	1
08/07/24	3:28	-15.2	-15.2	-15.4	69	-19.6	12.2	SE	0.20	14.8	SE	-24.9	-15.3	-25.0	750.2	0.023	0.000	21.8	5	-19.6	18.8	1.25	 .0737	23	1	100.0	1
08/07/24	3:29	-15.0	-15.0	-15.2	69	-19.4	12.2	SE	0.20	13.0	SE	-24.6	-15.1	-24.7	750.3	0.023	0.000	21.8	5	-19.6	18.8	1.25	 .0737	23	1	100.0	1
08/07/24	3:30	-14.9	-14.9	-14.9	69	-19.3	12.2	ESE	0.20	13.0	ESE	-24.5	-15.0	-24.6	750.3	0.023	0.000	21.8	5	-19.6	18.8	1.25	 .0737	24	1	100.0	1
08/07/24	3:31	-14.9	-14.9	-14.9	68	-19.5	11.3	ESE	0.19	13.0	ESE	-24.2	-15.1	-24.3	750.3	0.023	0.000	21.8	5	-19.6	18.8	1.25	 .0737	23	1	100.0	1
08/07/24	3:32	-15.0	-14.9	-15.0	67	-19.8	11.3	ESE	0.19	12.2	ESE	-24.3	-15.1	-24.4	750.3	0.023	0.000	21.7	5	-19.7	18.8	1.25	 .0737	24	1	100.0	1
08/07/24	3:33	-14.9	-14.9	-15.0	67	-19.7	11.3	SE	0.19	12.2	SE	-24.2	-15.1	-24.3	750.3	0.023	0.000	21.8	5	-19.6	18.8	1.25	 .0737	23	1	100.0	1
08/07/24	3:34	-14.8	-14.8	-14.9	68	-19.4	12.2	SE	0.20	13.0	SE	-24.3	-14.9	-24.4	750.3	0.023	0.000	21.7	5	-19.7	18.8	1.25	 .0737	23	1	100.0	1
08/07/24	3:35	-14.6	-14.6	-14.7	68	-19.2	12.2	SE	0.20	13.9	SE	-24.1	-14.7	-24.2	750.3	0.023	0.000	21.7	5	-19.7	18.8	1.25	 .0737	24	1	100.0	1
08/07/24	3:36	-14.4	-14.4	-14.5	68	-19.0	11.3	SSE	0.19	12.2	SSE	-23.5	-14.5	-23.6	750.3	0.023	0.000	21.7	5	-19.7	18.8	1.25	 .0737	23	1	100.0	1
08/07/24	3:37	-14.3	-14.3	-14.3	68	-19.0	9.6	SE	0.16	10.4	SE	-22.7	-14.4	-22.8	750.2	0.023	0.000	21.7	5	-19.7	18.8	1.25	 .0737	24	1	100.0	1
08/07/24	3:38	-14.3	-14.3	-14.3	67	-19.1	10.4	SSE	0.17	12.2	SSE	-23.0	-14.4	-23.1	750.2	0.023	0.000	21.7	5	-19.7	18.8	1.25	 .0737	23	1	100.0	1
08/07/24	3:39	-14.2	-14.2	-14.3	67	-19.0	11.3	SSE	0.19	13.0	SSE	-23.3	-14.3	-23.4	750.2	0.023	0.000	21.7	5	-19.7	18.8	1.25	 .0737	24	1	100.0	1
08/07/24	3:40	-14.2	-14.2	-14.2	67	-19.0	10.4	SE	0.17	12.2	SSE	-22.9	-14.3	-23.1	750.2	0.023	0.000	21.7	5	-19.7	18.8	1.25	 .0737	23	1	100.0	1
08/07/24	3:41	-14.3	-14.2	-14.3	66	-19.2	11.3	SE	0.19	18.3	SSE	-23.4	-14.4	-23.5	750.2	0.023	0.000	21.7	5	-19.7	18.8	1.25	 .0737	23	1	100.0	1
08/07/24	3:42	-14.2	-14.2	-14.3	66	-19.2	11.3	SSE	0.19	16.5	SSE	-23.3	-14.3	-23.4	750.2	0.023	0.000	21.7	5	-19.7	18.8	1.25	 .0737	24	1	100.0	1
08/07/24	3:43	-14.1	-14.1	-14.2	67	-18.9	13.0	SE	0.22	17.4	SSE	-23.8	-14.2	-23.9	750.2	0.023	0.000	21.7	5	-19.7	18.8	1.25	 .0737	23	1	100.0	1
08/07/24	3:44	-13.9	-13.9	-14.1	67	-18.8	13.0	SE	0.22	15.7	SE	-23.6	-14.1	-23.7	750.2	0.022	0.000	21.7	5	-19.7	18.8	1.25	 .0737	24	1	100.0	1
08/07/24	3:45	-13.8	-13.8	-13.9	66	-18.8	15.7	SSE	0.26	17.4	SE	-24.3	-13.9	-24.4	750.2	0.022	0.000	21.7	5	-19.7	18.8	1.25	 .0737	23	1	100.0	1
08/07/24	3:46	-13.8	-13.8	-13.8	66	-18.8	13.0	SE	0.22	15.7	SE	-23.4	-13.9	-23.6	750.1	0.022	0.000	21.7	5	-19.7	18.8	1.25	 .0737	23	1	100.0	1
08/07/24	3:47	-13.8	-13.8	-13.8	66	-18.8	14.8	SE	0.25	20.0	SSE	-24.0	-13.9	-24.1	750.2	0.022	0.000	21.7	5	-19.7	18.8	1.25	 .0737	24	1	100.0	1
08/07/24	3:48	-13.8	-13.8	-13.8	66	-18.8	13.9	SE	0.23	15.7	SSE	-23.7	-13.9	-23.8	750.1	0.022	0.000	21.7	5	-19.7	18.8	1.25	 .0737	7	1	30.4	1
08/07/24	3:49	-13.9	-13.8	-13.9	66	-18.9	17.4	SSE	0.29	18.3	SSE	-24.9	-14.1	-25.0	750.1	0.022	0.000	21.7	5	-19.7	18.7	1.25	 .0737	12	1	52.2	1
08/07/24	3:50	-13.9	-13.9	-13.9	65	-19.1	20.0	SSE	0.33	32.2	SSE	-25.6	-14.1	-25.7	750.1	0.022	0.000	21.7	5	-19.7	18.8	1.25	 .0737	23	1	100.0	1
08/07/24	3:51	-13.8	-13.8	-13.9	64	-19.1	26.1	SSE	0.43	31.3	SSE	-26.7	-13.9	-26.8	750.0	0.022	0.000	21.7	5	-19.7	18.7	1.25	 .0737	24	1	100.0	1
08/07/24	3:52	-13.7	-13.7	-13.8	64	-19.0	21.7	SSE	0.36	25.2	SSE	-25.6	-13.8	-25.7	750.0	0.022	0.000	21.7	6	-17.6	18.8	1.53	 .0737	23	1	100.0	1
08/07/24	3:53	-13.6	-13.6	-13.6	63	-19.2	21.7	SSE	0.36	27.0	SSE	-25.6	-13.7	-25.7	750.0	0.022	0.000	21.7	5	-19.7	18.7	1.25	 .0737	23	1	100.0	1
08/07/24	3:54	-13.6	-13.6	-13.6	63	-19.1	25.2	SSE	0.42	30.4	SSE	-26.2	-13.7	-26.3	750.0	0.022	0.000	21.6	5	-19.7	18.6	1.25	 .0737	24	1	100.0	1
08/07/24	3:55	-13.4	-13.4	-13.5	62	-19.1	25.2	SSE	0.42	27.0	SSE	-25.9	-13.6	-26.1	750.0	0.022	0.000	21.6	6	-17.6	18.7	1.53	 .0737	23	1	100.0	1
08/07/24	3:56	-13.4	-13.4	-13.4	61	-19.3	27.0	SSE	0.45	31.3	SSE	-26.3	-13.6	-26.4	749.9	0.022	0.000	21.6	6	-17.6	18.6	1.53	 .0737	24	1	100.0	1
08/07/24	3:57	-13.3	-13.3	-13.4	60	-19.5	25.2	SSE	0.42	30.4	SSE	-25.9	-13.5	-26.1	750.0	0.022	0.000	21.6	6	-17.6	18.6	1.53	 .0737	23	1	100.0	1
08/07/24	3:58	-13.4	-13.3	-13.4	60	-19.5	26.1	SSE	0.43	31.3	SSE	-26.1	-13.6	-26.3	750.0	0.022	0.000	21.6	6	-17.6	18.6	1.53	 .0737	23	1	100.0	1
08/07/24	3:59	-13.4	-13.4	-13.4	60	-19.6	27.0	SSE	0.45	33.0	SSE	-26.4	-13.6	-26.6	750.0	0.022	0.000	21.5	6	-17.7	18.5	1.54	 .0737	24	1	100.0	1
08/07/24	4:00	-13.5	-13.4	-13.5	60	-19.6	22.6	SSE	0.38	29.6	SSE	-25.6	-13.7	-25.7	750.0	0.022	0.000	21.5	6	-17.7	18.5	1.54	 .0737	23	1	100.0	1
08/07/24	4:01	-13.6	-13.5	-13.6	60	-19.7	24.3	SSE	0.41	30.4	SSE	-26.1	-13.8	-26.3	750.0	0.022	0.000	21.5	6	-17.7	18.5	1.54	 .0737	24	1	100.0	1
08/07/24	4:02	-13.7	-13.6	-13.7	61	-19.6	24.3	SSE	0.41	31.3	SSE	-26.2	-13.8	-26.3	750.0	0.022	0.000	21.5	6	-17.7	18.5	1.54	 .0737	23	1	100.0	1
08/07/24	4:03	-13.7	-13.7	-13.7	61	-19.6	27.0	SSE	0.45	33.9	SSE	-26.7	-13.8	-26.8	750.0	0.022	0.000	21.4	5	-19.9	18.3	1.25	 .0738	23	1	100.0	1
08/07/24	4:04	-13.6	-13.6	-13.7	61	-19.5	30.4	SSE	0.51	35.7	SSE	-27.2	-13.8	-27.4	750.0	0.022	0.000	21.4	5	-19.9	18.3	1.25	 .0738	24	1	100.0	1
08/07/24	4:05	-13.5	-13.5	-13.6	61	-19.4	28.7	SSE	0.48	34.8	SSE	-26.8	-13.7	-26.9	749.9	0.022	0.000	21.4	5	-19.9	18.3	1.25	 .0738	23	1	100.0	1
08/07/24	4:06	-13.3	-13.3	-13.4	61	-19.3	28.7	SSE	0.48	34.8	SSE	-26.6	-13.5	-26.7	749.9	0.022	0.000	21.4	5	-19.9	18.2	1.25	 .0738	24	1	100.0	1
08/07/24	4:07	-13.3	-13.3	-13.3	60	-19.5	25.2	SSE	0.42	35.7	SSE	-25.9	-13.5	-26.1	749.9	0.022	0.000	21.4	5	-19.9	18.2	1.25	 .0738	23	1	100.0	1
08/07/24	4:08	-13.4	-13.3	-13.4	60	-19.6	28.7	SSE	0.48	33.9	SSE	-26.7	-13.6	-26.8	750.0	0.022	0.000	21.4	5	-19.9	18.2	1.25	 .0738	24	1	100.0	1
08/07/24	4:09	-13.4	-13.4	-13.4	61	-19.4	27.0	SSE	0.45	32.2	SSE	-26.4	-13.6	-26.6	750.0	0.022	0.000	21.4	5	-19.9	18.2	1.25	 .0738	23	1	100.0	1
08/07/24	4:10	-13.4	-13.4	-13.5	61	-19.4	29.6	SE	0.49	40.0	SSE	-26.8	-13.6	-27.0	750.0	0.022	0.000	21.4	5	-19.9	18.2	1.25	 .0738	23	1	100.0	1
08/07/24	4:11	-13.4	-13.3	-13.4	61	-19.3	28.7	SSE	0.48	39.1	SSE	-26.6	-13.6	-26.8	750.0	0.022	0.000	21.4	5	-19.9	18.2	1.25	 .0738	24	1	100.0	1
08/07/24	4:12	-13.4	-13.3	-13.4	61	-19.3	28.7	SSE	0.48	33.9	SSE	-26.6	-13.6	-26.8	750.1	0.022	0.000	21.4	5	-19.9	18.2	1.25	 .0738	23	1	100.0	1
08/07/24	4:13	-13.4	-13.4	-13.4	61	-19.4	27.0	SSE	0.45	33.0	SSE	-26.4	-13.6	-26.6	750.1	0.022	0.000	21.4	5	-19.9	18.2	1.25	 .0738	24	1	100.0	1
08/07/24	4:14	-13.4	-13.4	-13.4	61	-19.3	29.6	SSE	0.49	40.0	SSE	-26.8	-13.6	-26.9	750.1	0.022	0.000	21.4	5	-19.9	18.2	1.25	 .0738	23	1	100.0	1
08/07/24	4:15	-13.3	-13.3	-13.4	60	-19.5	31.3	SSE	0.52	42.6	SSE	-26.9	-13.5	-27.1	750.1	0.022	0.000	21.4	5	-19.9	18.2	1.25	 .0738	23	1	100.0	1
08/07/24	4:16	-13.3	-13.3	-13.3	60	-19.5	27.8	SSE	0.46	33.0	SSE	-26.4	-13.5	-26.6	750.0	0.022	0.000	21.4	5	-19.9	18.2	1.25	 .0738	24	1	100.0	1
08/07/24	4:17	-13.4	-13.3	-13.4	60	-19.5	21.7	SSE	0.36	28.7	SSE	-25.2	-13.6	-25.4	750.2	0.022	0.000	21.4	5	-19.9	18.2	1.25	 .0738	23	1	100.0	1
08/07/24	4:18	-13.5	-13.4	-13.5	60	-19.6	23.5	SSE	0.39	27.8	SSE	-25.8	-13.7	-25.9	750.1	0.022	0.000	21.4	5	-19.9	18.2	1.25	 .0738	24	1	100.0	1
08/07/24	4:19	-13.5	-13.5	-13.6	61	-19.4	26.1	SSE	0.43	34.8	SSE	-26.3	-13.7	-26.4	750.2	0.022	0.000	21.4	5	-19.9	18.2	1.25	 .0738	23	1	100.0	1
08/07/24	4:20	-13.6	-13.5	-13.6	62	-19.3	29.6	SSE	0.49	37.4	SSE	-27.0	-13.7	-27.2	750.1	0.022	0.000	21.4	5	-19.9	18.2	1.25	 .0738	24	1	100.0	1
08/07/24	4:21	-13.6	-13.6	-13.6	62	-19.3	33.0	SE	0.55	39.1	SE	-27.6	-13.7	-27.7	749.9	0.022	0.000	21.4	5	-19.9	18.2	1.25	 .0738	23	1	100.0	1
08/07/24	4:22	-13.6	-13.6	-13.6	62	-19.3	33.0	SSE	0.55	39.1	SSE	-27.6	-13.7	-27.7	750.0	0.022	0.000	21.4	5	-19.9	18.2	1.25	 .0738	23	1	100.0	1
08/07/24	4:23	-13.7	-13.6	-13.7	61	-19.6	26.1	SSE	0.43	33.9	SSE	-26.5	-13.8	-26.7	750.1	0.022	0.000	21.4	5	-19.9	18.3	1.25	 .0738	24	1	100.0	1
08/07/24	4:24	-13.8	-13.7	-13.8	62	-19.5	27.0	SSE	0.45	30.4	SSE	-26.8	-13.9	-27.0	750.2	0.022	0.000	21.4	5	-19.9	18.3	1.25	 .0738	23	1	100.0	1
08/07/24	4:25	-13.8	-13.8	-13.8	63	-19.3	27.8	SE	0.46	33.9	SSE	-27.0	-13.9	-27.1	749.9	0.022	0.000	21.4	5	-19.9	18.3	1.25	 .0738	24	1	100.0	1
08/07/24	4:26	-13.9	-13.8	-13.9	64	-19.2	26.1	SE	0.43	35.7	SE	-26.8	-14.0	-26.9	750.1	0.022	0.000	21.4	5	-19.9	18.3	1.25	 .0738	23	1	100.0	1
08/07/24	4:27	-13.9	-13.9	-13.9	64	-19.3	23.5	SE	0.39	31.3	SE	-26.3	-14.1	-26.4	750.0	0.022	0.000	21.4	5	-19.9	18.3	1.25	 .0738	23	1	100.0	1
08/07/24	4:28	-13.9	-13.9	-14.0	65	-19.1	24.3	SSE	0.41	28.7	SSE	-26.6	-14.1	-26.7	750.2	0.022	0.000	21.4	5	-19.9	18.3	1.25	 .0738	24	1	100.0	1
08/07/24	4:29	-14.0	-13.9	-14.0	64	-19.3	22.6	SE	0.38	26.1	SE	-26.2	-14.1	-26.3	750.2	0.022	0.000	21.4	5	-19.9	18.3	1.25	 .0738	23	1	100.0	1
08/07/24	4:30	-14.1	-14.0	-14.1	64	-19.4	26.1	SE	0.43	32.2	SE	-27.1	-14.2	-27.2	750.1	0.023	0.000	21.4	5	-19.9	18.3	1.25	 .0738	24	1	100.0	1
08/07/24	4:31	-14.2	-14.1	-14.2	65	-19.4	25.2	SE	0.42	35.7	SSE	-27.1	-14.3	-27.2	750.1	0.023	0.000	21.4	5	-19.9	18.3	1.25	 .0738	23	1	100.0	1
08/07/24	4:32	-14.3	-14.2	-14.3	65	-19.4	23.5	SE	0.39	27.8	SE	-26.8	-14.4	-26.9	750.3	0.023	0.000	21.5	5	-19.8	18.4	1.25	 .0738	24	1	100.0	1
08/07/24	4:33	-14.3	-14.3	-14.3	66	-19.3	27.0	SSE	0.45	32.2	SSE	-27.6	-14.4	-27.7	750.3	0.023	0.000	21.5	5	-19.8	18.4	1.25	 .0738	23	1	100.0	1
08/07/24	4:34	-14.3	-14.3	-14.3	65	-19.5	24.3	SSE	0.41	27.0	SSE	-27.1	-14.4	-27.2	750.3	0.023	0.000	21.5	5	-19.8	18.4	1.25	 .0738	23	1	100.0	1
08/07/24	4:35	-14.4	-14.3	-14.4	65	-19.5	23.5	SSE	0.39	27.0	SSE	-26.9	-14.5	-27.1	750.5	0.023	0.000	21.5	5	-19.8	18.4	1.25	 .0738	24	1	100.0	1
08/07/24	4:36	-14.5	-14.4	-14.5	65	-19.6	19.1	SSE	0.32	24.3	SSE	-26.1	-14.6	-26.2	750.5	0.023	0.000	21.5	5	-19.8	18.4	1.25	 .0738	23	1	100.0	1
08/07/24	4:37	-14.6	-14.5	-14.6	65	-19.7	21.7	SSE	0.36	26.1	SSE	-26.9	-14.7	-27.0	750.4	0.023	0.000	21.5	5	-19.8	18.4	1.25	 .0738	24	1	100.0	1
08/07/24	4:38	-14.7	-14.6	-14.7	65	-19.8	20.9	SSE	0.35	23.5	SSE	-26.7	-14.8	-26.8	750.5	0.023	0.000	21.5	5	-19.8	18.4	1.25	 .0738	23	1	100.0	1
08/07/24	4:39	-14.8	-14.7	-14.8	65	-19.9	20.9	SSE	0.35	25.2	SSE	-26.9	-14.9	-27.0	750.5	0.023	0.000	21.5	5	-19.8	18.4	1.25	 .0738	23	1	100.0	1
08/07/24	4:40	-14.8	-14.8	-14.8	65	-20.0	20.0	SSE	0.33	23.5	SSE	-26.8	-14.9	-26.9	750.6	0.023	0.000	21.4	5	-19.9	18.3	1.25	 .0738	24	1	100.0	1
08/07/24	4:41	-14.8	-14.8	-14.8	66	-19.8	21.7	SSE	0.36	26.1	SSE	-27.2	-14.9	-27.3	750.5	0.023	0.000	21.4	5	-19.9	18.3	1.25	 .0738	23	1	100.0	1
08/07/24	4:42	-14.8	-14.8	-14.9	66	-19.8	19.1	SSE	0.32	25.2	SSE	-26.6	-14.9	-26.7	750.7	0.023	0.000	21.4	5	-19.9	18.3	1.25	 .0738	24	1	100.0	1
08/07/24	4:43	-14.7	-14.7	-14.8	66	-19.7	23.5	SSE	0.39	27.0	SSE	-27.4	-14.8	-27.5	750.6	0.023	0.000	21.4	5	-19.9	18.3	1.25	 .0738	23	1	100.0	1
08/07/24	4:44	-14.7	-14.7	-14.7	66	-19.6	19.1	SE	0.32	27.0	SSE	-26.3	-14.8	-26.4	750.6	0.023	0.000	21.4	5	-19.9	18.3	1.25	 .0738	24	1	100.0	1
08/07/24	4:45	-14.4	-14.4	-14.6	66	-19.4	22.6	SSE	0.38	26.1	SSE	-26.8	-14.6	-26.9	750.5	0.023	0.000	21.4	5	-19.9	18.2	1.25	 .0738	23	1	100.0	1
08/07/24	4:46	-14.4	-14.4	-14.4	66	-19.4	18.3	SSE	0.30	24.3	SSE	-25.8	-14.6	-25.9	750.6	0.023	0.000	21.4	5	-19.9	18.2	1.25	 .0738	23	1	100.0	1
08/07/24	4:47	-14.4	-14.4	-14.4	65	-19.6	21.7	SSE	0.36	25.2	SSE	-26.7	-14.6	-26.8	750.5	0.023	0.000	21.4	5	-19.9	18.2	1.25	 .0738	24	1	100.0	1
08/07/24	4:48	-14.5	-14.4	-14.5	65	-19.6	16.5	SSE	0.28	20.0	S	-25.4	-14.6	-25.5	750.7	0.023	0.000	21.4	5	-19.9	18.2	1.25	 .0738	23	1	100.0	1
08/07/24	4:49	-14.6	-14.5	-14.6	65	-19.7	16.5	SSE	0.28	19.1	SSE	-25.4	-14.7	-25.6	750.7	0.023	0.000	21.4	5	-19.9	18.2	1.25	 .0738	24	1	100.0	1
08/07/24	4:50	-14.6	-14.6	-14.6	66	-19.6	18.3	SSE	0.30	23.5	SSE	-26.0	-14.7	-26.1	750.7	0.023	0.000	21.4	5	-19.9	18.2	1.25	 .0738	23	1	100.0	1
08/07/24	4:51	-14.6	-14.6	-14.6	66	-19.6	19.1	SSE	0.32	25.2	SSE	-26.2	-14.7	-26.3	750.6	0.023	0.000	21.3	5	-19.9	18.2	1.25	 .0739	23	1	100.0	1
08/07/24	4:52	-14.5	-14.5	-14.6	65	-19.6	20.0	SSE	0.33	25.2	SSE	-26.3	-14.6	-26.4	750.7	0.023	0.000	21.3	5	-19.9	18.2	1.25	 .0739	24	1	100.0	1
08/07/24	4:53	-14.5	-14.5	-14.5	65	-19.6	16.5	SSE	0.28	20.0	SSE	-25.4	-14.6	-25.5	750.8	0.023	0.000	21.3	5	-19.9	18.2	1.25	 .0739	23	1	100.0	1
08/07/24	4:54	-14.5	-14.5	-14.5	65	-19.6	20.0	SSE	0.33	23.5	SSE	-26.3	-14.6	-26.4	750.8	0.023	0.000	21.3	5	-19.9	18.2	1.25	 .0739	24	1	100.0	1
08/07/24	4:55	-14.4	-14.4	-14.4	65	-19.6	19.1	SSE	0.32	23.5	SSE	-26.0	-14.6	-26.1	750.8	0.023	0.000	21.3	5	-20.0	18.1	1.25	 .0739	23	1	100.0	1
08/07/24	4:56	-14.3	-14.3	-14.4	65	-19.5	20.9	SSE	0.35	26.1	SSE	-26.3	-14.4	-26.4	750.8	0.023	0.000	21.3	5	-20.0	18.1	1.25	 .0739	23	1	100.0	1
08/07/24	4:57	-14.2	-14.2	-14.3	65	-19.4	21.7	SSE	0.36	25.2	SSE	-26.3	-14.3	-26.4	750.8	0.023	0.000	21.3	5	-20.0	18.1	1.25	 .0739	24	1	100.0	1
08/07/24	4:58	-14.1	-14.1	-14.2	64	-19.4	21.7	SSE	0.36	23.5	SSE	-26.1	-14.2	-26.2	750.7	0.022	0.000	21.3	5	-20.0	18.1	1.25	 .0739	23	1	100.0	1
08/07/24	4:59	-13.9	-13.9	-14.1	64	-19.3	24.3	SSE	0.41	27.8	SSE	-26.6	-14.1	-26.7	750.8	0.022	0.000	21.3	5	-20.0	18.1	1.25	 .0739	24	1	100.0	1
08/07/24	5:00	-13.8	-13.8	-13.9	64	-19.2	24.3	SSE	0.41	28.7	SSE	-26.4	-13.9	-26.5	750.8	0.022	0.000	21.3	5	-20.0	18.1	1.25	 .0739	23	1	100.0	1
08/07/24	5:01	-13.8	-13.8	-13.8	64	-19.1	20.9	SSE	0.35	24.3	SSE	-25.6	-13.9	-25.7	750.7	0.022	0.000	21.3	5	-20.0	18.1	1.25	 .0739	24	1	100.0	1
08/07/24	5:02	-13.8	-13.8	-13.8	64	-19.2	20.9	SSE	0.35	25.2	SSE	-25.6	-13.9	-25.7	750.7	0.022	0.000	21.3	5	-20.0	18.1	1.25	 .0739	23	1	100.0	1
08/07/24	5:03	-13.8	-13.8	-13.8	64	-19.1	26.1	SSE	0.43	34.8	SSE	-26.7	-13.9	-26.8	750.7	0.022	0.000	21.3	5	-19.9	18.2	1.25	 .0739	23	1	100.0	1
08/07/24	5:04	-13.6	-13.6	-13.8	66	-18.6	27.0	SSE	0.45	30.4	S	-26.6	-13.7	-26.7	750.7	0.022	0.000	21.3	5	-19.9	18.2	1.25	 .0739	24	1	100.0	1
08/07/24	5:05	-13.5	-13.5	-13.6	66	-18.5	26.1	SSE	0.43	27.8	SSE	-26.3	-13.6	-26.4	750.7	0.022	0.000	21.3	5	-20.0	18.1	1.25	 .0739	23	1	100.0	1
08/07/24	5:06	-13.6	-13.5	-13.6	66	-18.6	22.6	SSE	0.38	27.0	SSE	-25.7	-13.7	-25.8	750.7	0.022	0.000	21.3	5	-20.0	18.1	1.25	 .0739	24	1	100.0	1
08/07/24	5:07	-13.7	-13.6	-13.7	66	-18.7	20.9	SE	0.35	22.6	SSE	-25.5	-13.8	-25.6	750.7	0.022	0.000	21.3	5	-20.0	18.1	1.25	 .0739	23	1	100.0	1
08/07/24	5:08	-13.8	-13.7	-13.8	66	-18.8	20.0	SE	0.33	21.7	SE	-25.4	-13.9	-25.6	750.8	0.022	0.000	21.3	5	-19.9	18.2	1.25	 .0739	23	1	100.0	1
08/07/24	5:09	-14.0	-13.9	-14.0	66	-19.0	18.3	SE	0.30	20.0	SE	-25.2	-14.1	-25.3	750.8	0.022	0.000	21.3	5	-19.9	18.2	1.25	 .0739	24	1	100.0	1
08/07/24	5:10	-14.2	-14.1	-14.2	66	-19.1	18.3	SE	0.30	20.0	SE	-25.4	-14.3	-25.6	750.8	0.023	0.000	21.3	5	-19.9	18.2	1.25	 .0739	23	1	100.0	1
08/07/24	5:11	-14.2	-14.2	-14.2	67	-19.0	17.4	SE	0.29	18.3	SE	-25.3	-14.3	-25.4	750.9	0.023	0.000	21.3	5	-19.9	18.2	1.25	 .0739	24	1	100.0	1
08/07/24	5:12	-14.3	-14.3	-14.3	67	-19.1	18.3	SE	0.30	20.9	ESE	-25.7	-14.4	-25.8	751.0	0.023	0.000	21.3	5	-19.9	18.2	1.25	 .0739	23	1	100.0	1
08/07/24	5:13	-14.5	-14.4	-14.5	67	-19.3	20.0	ESE	0.33	23.5	ESE	-26.3	-14.6	-26.4	750.8	0.023	0.000	21.3	5	-19.9	18.2	1.25	 .0739	24	1	100.0	1
08/07/24	5:14	-14.4	-14.4	-14.5	68	-19.0	21.7	SE	0.36	26.1	ESE	-26.6	-14.5	-26.7	750.8	0.023	0.000	21.3	5	-19.9	18.2	1.25	 .0739	23	1	100.0	1
08/07/24	5:15	-14.3	-14.3	-14.3	69	-18.7	22.6	ESE	0.38	27.8	SE	-26.6	-14.4	-26.7	751.0	0.023	0.000	21.3	5	-19.9	18.2	1.25	 .0739	23	1	100.0	1
08/07/24	5:16	-14.3	-14.3	-14.3	69	-18.7	21.7	SE	0.36	30.4	SSE	-26.4	-14.4	-26.6	750.9	0.023	0.000	21.4	5	-19.9	18.2	1.25	 .0739	24	1	100.0	1
08/07/24	5:17	-13.9	-13.9	-14.2	70	-18.2	23.5	SSE	0.39	28.7	S	-26.3	-14.1	-26.4	750.9	0.022	0.000	21.4	5	-19.9	18.2	1.25	 .0739	23	1	100.0	1
08/07/24	5:18	-13.5	-13.5	-13.9	71	-17.6	34.8	SSE	0.58	47.0	SSE	-27.7	-13.6	-27.8	750.6	0.022	0.000	21.4	5	-19.9	18.2	1.25	 .0738	24	1	100.0	1
08/07/24	5:19	-13.3	-13.3	-13.4	73	-17.1	25.2	SSE	0.42	47.0	SE	-25.8	-13.4	-25.9	751.0	0.022	0.000	21.4	5	-19.9	18.2	1.25	 .0739	23	1	100.0	1
08/07/24	5:20	-13.3	-13.3	-13.3	73	-17.1	40.9	SSE	0.68	58.3	SSE	-28.3	-13.4	-28.4	750.7	0.022	0.000	21.4	5	-19.9	18.2	1.25	 .0738	23	1	100.0	1
08/07/24	5:21	-13.3	-13.3	-13.3	73	-17.1	32.2	S	0.54	46.1	S	-27.1	-13.4	-27.2	750.6	0.022	0.000	21.4	5	-19.9	18.2	1.25	 .0738	24	1	100.0	1
08/07/24	5:22	-13.4	-13.3	-13.4	74	-17.1	31.3	S	0.52	56.5	SSE	-27.1	-13.6	-27.2	750.9	0.022	0.000	21.4	5	-19.9	18.2	1.25	 .0739	23	1	100.0	1
08/07/24	5:23	-13.6	-13.4	-13.6	74	-17.2	34.8	SSE	0.58	38.3	SSE	-27.8	-13.7	-27.9	750.7	0.022	0.000	21.4	5	-19.9	18.2	1.25	 .0738	24	1	100.0	1
08/07/24	5:24	-13.7	-13.6	-13.7	74	-17.4	27.0	S	0.45	32.2	SSE	-26.7	-13.8	-26.8	750.8	0.022	0.000	21.4	5	-19.9	18.2	1.25	 .0739	23	1	100.0	1
08/07/24	5:25	-13.8	-13.7	-13.8	74	-17.4	28.7	S	0.48	34.8	S	-27.2	-13.9	-27.3	751.1	0.022	0.000	21.4	5	-19.9	18.2	1.25	 .0739	23	1	100.0	1
08/07/24	5:26	-13.8	-13.8	-13.8	74	-17.5	26.1	SSE	0.43	34.8	S	-26.7	-13.9	-26.8	750.9	0.022	0.000	21.4	5	-19.9	18.2	1.25	 .0739	24	1	100.0	1
08/07/24	5:27	-13.9	-13.8	-13.9	75	-17.4	27.8	SSE	0.46	34.8	SSE	-27.2	-14.1	-27.3	750.9	0.022	0.000	21.4	5	-19.9	18.2	1.25	 .0739	23	1	100.0	1
08/07/24	5:28	-14.1	-14.0	-14.1	75	-17.6	26.1	SSE	0.43	33.0	SSE	-27.1	-14.2	-27.2	751.1	0.023	0.000	21.4	5	-19.9	18.2	1.25	 .0739	24	1	100.0	1
08/07/24	5:29	-14.2	-14.2	-14.2	75	-17.7	28.7	SE	0.48	32.2	SSE	-27.7	-14.3	-27.8	750.8	0.023	0.000	21.4	5	-19.9	18.2	1.25	 .0739	23	1	100.0	1
08/07/24	5:30	-14.4	-14.3	-14.4	75	-17.8	29.6	SSE	0.49	34.8	SSE	-28.1	-14.5	-28.2	751.0	0.023	0.000	21.4	5	-19.9	18.2	1.25	 .0739	24	1	100.0	1
08/07/24	5:31	-14.5	-14.4	-14.5	75	-18.0	28.7	SSE	0.48	31.3	SSE	-28.1	-14.6	-28.2	751.0	0.023	0.000	21.4	5	-19.9	18.2	1.25	 .0739	23	1	100.0	1
08/07/24	5:32	-14.5	-14.5	-14.5	75	-18.0	30.4	SSE	0.51	40.9	SSE	-28.4	-14.6	-28.6	750.9	0.023	0.000	21.3	5	-19.9	18.2	1.25	 .0739	23	1	100.0	1
08/07/24	5:33	-14.6	-14.6	-14.6	76	-17.9	33.0	SSE	0.55	45.2	SSE	-29.0	-14.7	-29.1	750.7	0.023	0.000	21.3	5	-19.9	18.2	1.25	 .0739	24	1	100.0	1
08/07/24	5:34	-14.6	-14.6	-14.6	75	-18.1	24.3	SSE	0.41	35.7	SSE	-27.4	-14.7	-27.6	751.2	0.023	0.000	21.3	5	-19.9	18.2	1.25	 .0739	23	1	100.0	1
08/07/24	5:35	-14.7	-14.7	-14.7	76	-18.0	25.2	SSE	0.42	35.7	SSE	-27.7	-14.8	-27.8	751.1	0.023	0.000	21.3	5	-20.0	18.1	1.25	 .0739	24	1	100.0	1
08/07/24	5:36	-14.7	-14.7	-14.7	75	-18.2	13.9	SSE	0.23	22.6	S	-24.9	-14.8	-25.0	751.5	0.023	0.000	21.3	5	-20.0	18.1	1.25	 .0739	23	1	100.0	1
08/07/24	5:37	-14.8	-14.7	-14.8	75	-18.2	21.7	SSE	0.36	30.4	SSE	-27.1	-14.9	-27.2	751.3	0.023	0.000	21.3	5	-20.0	18.1	1.25	 .0739	23	1	100.0	1
08/07/24	5:38	-14.9	-14.8	-14.9	75	-18.3	23.5	S	0.39	32.2	SSE	-27.6	-15.0	-27.7	751.3	0.023	0.000	21.3	5	-20.0	18.1	1.25	 .0739	24	1	100.0	1
08/07/24	5:39	-14.9	-14.9	-14.9	75	-18.4	14.8	SSW	0.25	20.0	SW	-25.4	-15.1	-25.6	751.4	0.023	0.000	21.3	5	-20.0	18.1	1.25	 .0739	23	1	100.0	1
08/07/24	5:40	-15.0	-14.9	-15.0	75	-18.4	13.0	S	0.22	17.4	SSW	-24.9	-15.1	-25.1	751.5	0.023	0.000	21.3	5	-20.0	18.1	1.25	 .0739	24	1	100.0	1
08/07/24	5:41	-15.1	-15.0	-15.1	75	-18.5	14.8	S	0.25	17.4	S	-25.6	-15.2	-25.7	751.5	0.023	0.000	21.2	5	-20.0	17.9	1.25	 .0740	23	1	100.0	1
08/07/24	5:42	-15.1	-15.1	-15.1	75	-18.5	16.5	S	0.28	20.9	S	-26.2	-15.2	-26.3	751.5	0.023	0.000	21.2	5	-20.0	17.9	1.25	 .0740	24	1	100.0	1
08/07/24	5:43	-15.2	-15.2	-15.2	75	-18.6	19.1	SSE	0.32	25.2	SSE	-27.0	-15.3	-27.1	751.6	0.023	0.000	21.2	5	-20.0	17.9	1.25	 .0740	23	1	100.0	1
08/07/24	5:44	-15.2	-15.2	-15.2	74	-18.8	19.1	SSE	0.32	23.5	SSE	-27.0	-15.3	-27.1	751.4	0.023	0.000	21.2	5	-20.0	17.9	1.25	 .0740	23	1	100.0	1
08/07/24	5:45	-15.3	-15.2	-15.3	74	-18.9	18.3	S	0.30	27.8	SSE	-26.9	-15.4	-27.0	751.5	0.023	0.000	21.2	5	-20.0	17.9	1.25	 .0740	24	1	100.0	1
08/07/24	5:46	-15.3	-15.3	-15.3	74	-18.9	17.4	SSE	0.29	21.7	SSE	-26.7	-15.4	-26.8	751.5	0.023	0.000	21.2	5	-20.1	17.9	1.25	 .0740	23	1	100.0	1
08/07/24	5:47	-15.4	-15.3	-15.4	73	-19.1	15.7	S	0.26	21.7	SSE	-26.3	-15.5	-26.4	751.6	0.023	0.000	21.2	5	-20.1	17.9	1.25	 .0740	24	1	100.0	1
08/07/24	5:48	-15.4	-15.4	-15.4	73	-19.2	15.7	SSE	0.26	22.6	SSE	-26.4	-15.6	-26.5	751.7	0.023	0.000	21.2	5	-20.1	17.9	1.25	 .0740	23	1	100.0	1
08/07/24	5:49	-15.5	-15.4	-15.5	73	-19.2	20.9	S	0.35	27.8	S	-27.8	-15.6	-27.9	751.7	0.023	0.000	21.2	5	-20.1	17.9	1.25	 .0740	23	1	100.0	1
08/07/24	5:50	-15.6	-15.5	-15.6	73	-19.3	17.4	SSE	0.29	21.7	SSE	-27.0	-15.6	-27.1	751.8	0.024	0.000	21.2	5	-20.1	17.9	1.25	 .0740	24	1	100.0	1
08/07/24	5:51	-15.6	-15.6	-15.6	73	-19.4	26.1	SSE	0.43	35.7	S	-29.2	-15.7	-29.2	751.6	0.024	0.000	21.2	5	-20.1	17.9	1.25	 .0740	23	1	100.0	1
08/07/24	5:52	-15.7	-15.6	-15.7	73	-19.5	23.5	SSE	0.39	29.6	S	-28.8	-15.8	-28.8	751.7	0.024	0.000	21.2	5	-20.1	17.9	1.25	 .0740	24	1	100.0	1
08/07/24	5:53	-15.8	-15.8	-15.8	73	-19.6	19.1	SSE	0.32	22.6	SSE	-27.9	-15.9	-27.9	751.7	0.024	0.000	21.2	5	-20.1	17.9	1.25	 .0740	23	1	100.0	1
08/07/24	5:54	-15.9	-15.8	-15.9	73	-19.6	20.0	SSE	0.33	26.1	SSE	-28.2	-15.9	-28.2	751.7	0.024	0.000	21.2	5	-20.0	17.9	1.25	 .0740	24	1	100.0	1
08/07/24	5:55	-15.9	-15.9	-15.9	74	-19.5	22.6	SSE	0.38	28.7	SSE	-28.8	-16.0	-28.9	751.8	0.024	0.000	21.2	5	-20.0	17.9	1.25	 .0740	23	1	100.0	1
08/07/24	5:56	-15.9	-15.9	-15.9	74	-19.5	27.0	SSE	0.45	31.3	SSE	-29.7	-15.9	-29.8	751.7	0.024	0.000	21.2	5	-20.0	17.9	1.25	 .0740	23	1	100.0	1
08/07/24	5:57	-15.9	-15.9	-15.9	75	-19.3	34.8	SSE	0.58	39.1	SSE	-31.1	-15.9	-31.1	751.6	0.024	0.000	21.2	5	-20.0	17.9	1.25	 .0740	24	1	100.0	1
08/07/24	5:58	-15.9	-15.9	-15.9	75	-19.4	27.8	S	0.46	33.9	SSE	-29.9	-16.0	-30.0	751.7	0.024	0.000	21.2	5	-20.0	17.9	1.25	 .0740	23	1	100.0	1
08/07/24	5:59	-15.9	-15.9	-15.9	76	-19.2	27.0	SSE	0.45	31.3	SSE	-29.8	-16.0	-29.8	751.8	0.024	0.000	21.2	5	-20.0	17.9	1.25	 .0740	24	1	100.0	1
08/07/24	6:00	-15.9	-15.9	-15.9	77	-19.0	24.3	SSE	0.41	27.0	SSE	-29.2	-16.0	-29.3	751.8	0.024	0.000	21.2	5	-20.0	17.9	1.25	 .0740	23	1	100.0	1
08/07/24	6:01	-15.9	-15.9	-15.9	77	-19.0	23.5	SSE	0.39	28.7	SSE	-29.1	-16.0	-29.1	751.8	0.024	0.000	21.2	5	-20.0	17.9	1.25	 .0740	23	1	100.0	1
08/07/24	6:02	-16.0	-15.9	-16.0	77	-19.1	22.6	S	0.38	26.1	SSE	-28.9	-16.1	-29.0	751.7	0.024	0.000	21.2	5	-20.0	17.9	1.25	 .0740	24	1	100.0	1
08/07/24	6:03	-16.0	-16.0	-16.0	77	-19.1	27.0	SSE	0.45	30.4	SSE	-29.8	-16.1	-29.9	751.7	0.024	0.000	21.2	5	-20.0	17.9	1.25	 .0740	23	1	100.0	1
08/07/24	6:04	-16.1	-16.0	-16.1	77	-19.2	25.2	SSE	0.42	30.4	SSE	-29.6	-16.1	-29.6	751.8	0.024	0.000	21.3	5	-20.0	18.1	1.25	 .0740	24	1	100.0	1
08/07/24	6:05	-16.1	-16.1	-16.1	77	-19.2	22.6	S	0.38	27.8	SSE	-29.1	-16.2	-29.1	751.8	0.024	0.000	21.3	5	-20.0	18.1	1.25	 .0740	23	1	100.0	1
08/07/24	6:06	-16.2	-16.1	-16.2	78	-19.1	21.7	S	0.36	27.8	S	-28.9	-16.2	-29.0	751.9	0.024	0.000	21.3	5	-20.0	18.1	1.25	 .0740	23	1	100.0	1
08/07/24	6:07	-16.2	-16.2	-16.2	78	-19.1	28.7	S	0.48	34.8	S	-30.4	-16.2	-30.4	751.9	0.024	0.000	21.3	5	-20.0	18.1	1.25	 .0740	24	1	100.0	1
08/07/24	6:08	-16.1	-16.1	-16.2	78	-19.1	27.0	S	0.45	34.8	S	-30.0	-16.2	-30.1	751.8	0.024	0.000	21.3	5	-20.0	18.1	1.25	 .0740	23	1	100.0	1
08/07/24	6:09	-16.2	-16.1	-16.2	78	-19.1	24.3	S	0.41	28.7	SSE	-29.6	-16.2	-29.6	751.8	0.024	0.000	21.3	5	-20.0	18.1	1.25	 .0740	24	1	100.0	1
08/07/24	6:10	-16.1	-16.1	-16.2	78	-19.1	20.0	S	0.33	27.0	SSE	-28.4	-16.2	-28.5	751.8	0.024	0.000	21.3	5	-20.0	18.1	1.25	 .0740	23	1	100.0	1
08/07/24	6:11	-16.0	-16.0	-16.1	78	-19.0	24.3	S	0.41	28.7	SSE	-29.3	-16.1	-29.4	751.7	0.024	0.000	21.3	5	-20.0	18.1	1.25	 .0740	24	1	100.0	1
08/07/24	6:12	-15.8	-15.8	-16.0	78	-18.8	25.2	SSE	0.42	27.8	SSE	-29.3	-15.9	-29.3	751.6	0.024	0.000	21.3	5	-19.9	18.2	1.25	 .0740	23	1	100.0	1
08/07/24	6:13	-15.6	-15.6	-15.8	78	-18.5	24.3	SSE	0.41	32.2	SSE	-28.7	-15.6	-28.8	751.6	0.024	0.000	21.3	5	-19.9	18.2	1.25	 .0739	23	1	100.0	1
08/07/24	6:14	-15.4	-15.4	-15.6	78	-18.4	27.0	SSE	0.45	31.3	SE	-29.1	-15.5	-29.2	751.6	0.023	0.000	21.3	5	-19.9	18.2	1.25	 .0739	24	1	100.0	1
08/07/24	6:15	-15.6	-15.4	-15.6	78	-18.5	33.9	SE	0.57	40.0	SE	-30.4	-15.6	-30.5	751.3	0.024	0.000	21.3	5	-19.9	18.2	1.25	 .0739	23	1	100.0	1
08/07/24	6:16	-15.8	-15.6	-15.8	78	-18.7	27.0	S	0.45	33.9	SSE	-29.6	-15.8	-29.6	751.6	0.024	0.000	21.3	5	-19.9	18.2	1.25	 .0739	24	1	100.0	1
08/07/24	6:17	-16.0	-15.8	-16.0	78	-19.0	30.4	SSE	0.51	37.4	SSE	-30.5	-16.1	-30.6	751.6	0.024	0.000	21.4	5	-19.9	18.2	1.25	 .0739	23	1	100.0	1
08/07/24	6:18	-16.2	-16.1	-16.2	78	-19.2	33.9	SSE	0.57	45.2	SSE	-31.4	-16.3	-31.4	751.4	0.024	0.000	21.4	5	-19.9	18.2	1.25	 .0739	23	1	100.0	1
08/07/24	6:19	-16.4	-16.2	-16.4	78	-19.3	33.9	SSE	0.57	40.0	SSE	-31.6	-16.4	-31.7	751.4	0.024	0.000	21.4	5	-19.9	18.2	1.25	 .0739	24	1	100.0	1
08/07/24	6:20	-16.4	-16.4	-16.4	78	-19.4	37.4	SSE	0.62	45.2	S	-32.3	-16.5	-32.3	751.5	0.024	0.000	21.4	5	-19.9	18.2	1.25	 .0739	23	1	100.0	1
08/07/24	6:21	-16.4	-16.4	-16.4	78	-19.4	31.3	SSE	0.52	40.0	SSE	-31.3	-16.5	-31.3	751.4	0.024	0.000	21.4	5	-19.9	18.2	1.25	 .0739	24	1	100.0	1
08/07/24	6:22	-16.3	-16.3	-16.4	78	-19.3	33.9	SSE	0.57	41.7	SSE	-31.6	-16.4	-31.6	751.3	0.024	0.000	21.4	5	-19.9	18.2	1.25	 .0739	23	1	100.0	1
08/07/24	6:23	-16.3	-16.3	-16.3	78	-19.2	35.7	SSE	0.59	43.5	S	-31.8	-16.3	-31.8	751.2	0.024	0.000	21.3	5	-19.9	18.2	1.25	 .0739	24	1	100.0	1
08/07/24	6:24	-16.3	-16.2	-16.3	78	-19.2	35.7	SSE	0.59	43.5	SSE	-31.8	-16.3	-31.8	751.3	0.024	0.000	21.4	5	-19.9	18.2	1.25	 .0739	23	1	100.0	1
08/07/24	6:25	-16.3	-16.3	-16.3	78	-19.2	36.5	SSE	0.61	46.1	SSE	-31.9	-16.3	-31.9	751.3	0.024	0.000	21.4	5	-19.9	18.2	1.25	 .0739	23	1	100.0	1
08/07/24	6:26	-16.3	-16.3	-16.3	78	-19.3	40.9	SSE	0.68	52.2	SSE	-32.6	-16.4	-32.7	751.2	0.024	0.000	21.4	5	-19.9	18.2	1.25	 .0739	24	1	100.0	1
08/07/24	6:27	-16.4	-16.3	-16.4	78	-19.3	39.1	SSE	0.65	52.2	SSE	-32.4	-16.4	-32.5	751.2	0.024	0.000	21.3	5	-19.9	18.2	1.25	 .0739	23	1	100.0	1
08/07/24	6:28	-16.4	-16.4	-16.4	78	-19.3	35.7	SSE	0.59	45.2	SSE	-31.9	-16.4	-31.9	751.5	0.024	0.000	21.4	5	-19.9	18.2	1.25	 .0739	24	1	100.0	1
08/07/24	6:29	-16.3	-16.3	-16.4	78	-19.3	43.5	SSE	0.72	54.8	SSE	-32.9	-16.4	-33.0	751.2	0.024	0.000	21.3	5	-19.9	18.2	1.25	 .0739	23	1	100.0	1
08/07/24	6:30	-16.2	-16.2	-16.3	78	-19.2	39.1	SSE	0.65	47.8	SSE	-32.2	-16.3	-32.3	751.3	0.024	0.000	21.3	5	-19.9	18.2	1.25	 .0739	23	1	100.0	1
08/07/24	6:31	-16.2	-16.2	-16.2	78	-19.1	37.4	SSE	0.62	42.6	SSE	-31.9	-16.2	-31.9	751.4	0.024	0.000	21.3	5	-19.9	18.2	1.25	 .0739	24	1	100.0	1
08/07/24	6:32	-16.1	-16.1	-16.1	78	-19.1	34.8	SSE	0.58	44.3	SSE	-31.4	-16.2	-31.4	751.5	0.024	0.000	21.3	5	-19.9	18.2	1.25	 .0739	23	1	100.0	1
08/07/24	6:33	-16.2	-16.1	-16.2	78	-19.1	37.4	SSE	0.62	43.5	SSE	-31.9	-16.2	-31.9	751.5	0.024	0.000	21.3	5	-19.9	18.2	1.25	 .0739	24	1	100.0	1
08/07/24	6:34	-16.3	-16.2	-16.3	78	-19.2	35.7	SSE	0.59	40.9	SSE	-31.8	-16.3	-31.8	751.5	0.024	0.000	21.3	5	-20.0	18.1	1.25	 .0740	23	1	100.0	1
08/07/24	6:35	-16.3	-16.3	-16.3	78	-19.3	39.1	SSE	0.65	46.1	SSE	-32.3	-16.4	-32.4	751.3	0.024	0.000	21.3	5	-20.0	18.1	1.25	 .0739	24	1	100.0	1
08/07/24	6:36	-16.3	-16.3	-16.3	78	-19.3	35.7	SSE	0.59	44.3	SSE	-31.8	-16.4	-31.9	751.3	0.024	0.000	21.3	5	-20.0	18.1	1.25	 .0739	23	1	100.0	1
08/07/24	6:37	-16.3	-16.3	-16.3	78	-19.2	37.4	SSE	0.62	46.1	SSE	-32.0	-16.3	-32.1	751.4	0.024	0.000	21.3	5	-20.0	18.1	1.25	 .0739	23	1	100.0	1
08/07/24	6:38	-16.3	-16.3	-16.3	79	-19.1	38.3	SSE	0.64	46.1	SSE	-32.2	-16.4	-32.3	751.4	0.024	0.000	21.3	5	-20.0	18.1	1.25	 .0739	24	1	100.0	1
08/07/24	6:39	-16.4	-16.3	-16.4	79	-19.2	40.9	SSE	0.68	46.1	SSE	-32.7	-16.4	-32.7	751.4	0.024	0.000	21.3	5	-20.0	18.1	1.25	 .0739	23	1	100.0	1
08/07/24	6:40	-16.4	-16.4	-16.4	79	-19.2	37.4	SSE	0.62	42.6	SSE	-32.3	-16.5	-32.3	751.5	0.024	0.000	21.3	5	-20.0	18.1	1.25	 .0739	24	1	100.0	1
08/07/24	6:41	-16.4	-16.4	-16.4	79	-19.2	36.5	S	0.61	41.7	S	-32.1	-16.5	-32.2	751.6	0.024	0.000	21.2	5	-20.0	17.9	1.25	 .0740	23	1	100.0	1
08/07/24	6:42	-16.5	-16.5	-16.5	78	-19.4	39.1	SSE	0.65	46.1	S	-32.6	-16.6	-32.7	751.6	0.024	0.000	21.2	5	-20.0	17.9	1.25	 .0740	23	1	100.0	1
08/07/24	6:43	-16.6	-16.5	-16.6	78	-19.5	39.1	SSE	0.65	47.0	SSE	-32.7	-16.6	-32.7	751.6	0.024	0.000	21.2	5	-20.0	17.9	1.25	 .0740	24	1	100.0	1
08/07/24	6:44	-16.4	-16.4	-16.6	78	-19.4	41.7	SSE	0.70	46.1	SSE	-32.9	-16.5	-32.9	751.4	0.024	0.000	21.2	5	-20.0	17.9	1.25	 .0740	23	1	100.0	1
08/07/24	6:45	-16.4	-16.4	-16.4	79	-19.2	41.7	SSE	0.70	47.0	SSE	-32.8	-16.4	-32.8	751.5	0.024	0.000	21.2	5	-20.0	17.9	1.25	 .0740	24	1	100.0	1
08/07/24	6:46	-16.3	-16.3	-16.3	79	-19.1	36.5	S	0.61	49.6	SSE	-31.9	-16.3	-31.9	751.5	0.024	0.000	21.2	5	-20.0	17.9	1.25	 .0740	23	1	100.0	1
08/07/24	6:47	-16.2	-16.2	-16.2	78	-19.1	40.9	SSE	0.68	50.4	SSE	-32.4	-16.2	-32.4	751.5	0.024	0.000	21.2	5	-20.0	17.9	1.25	 .0740	23	1	100.0	1
08/07/24	6:48	-16.1	-16.1	-16.1	78	-19.0	40.0	SSE	0.67	45.2	SSE	-32.1	-16.1	-32.2	751.7	0.024	0.000	21.2	5	-20.0	17.9	1.25	 .0740	24	1	100.0	1
08/07/24	6:49	-16.0	-16.0	-16.1	79	-18.8	42.6	SSE	0.71	49.6	SSE	-32.4	-16.1	-32.4	751.6	0.024	0.000	21.2	5	-20.0	17.9	1.25	 .0740	23	1	100.0	1
08/07/24	6:50	-16.0	-16.0	-16.0	79	-18.8	43.5	SSE	0.72	49.6	SSE	-32.5	-16.1	-32.6	751.6	0.024	0.000	21.3	5	-20.0	18.1	1.25	 .0740	24	1	100.0	1
08/07/24	6:51	-16.0	-16.0	-16.0	79	-18.8	39.1	S	0.65	47.8	SSE	-31.9	-16.1	-31.9	751.5	0.024	0.000	21.3	5	-20.0	18.1	1.25	 .0740	23	1	100.0	1
08/07/24	6:52	-15.9	-15.9	-16.0	79	-18.7	38.3	S	0.64	45.2	SSE	-31.7	-16.0	-31.7	751.7	0.024	0.000	21.3	5	-20.0	18.1	1.25	 .0740	24	1	100.0	1
08/07/24	6:53	-15.8	-15.8	-15.9	78	-18.8	37.4	SSE	0.62	46.1	SSE	-31.4	-15.9	-31.4	751.8	0.024	0.000	21.3	5	-20.0	18.1	1.25	 .0740	23	1	100.0	1
08/07/24	6:54	-15.7	-15.7	-15.8	78	-18.7	36.5	S	0.61	47.8	S	-31.1	-15.8	-31.2	751.9	0.024	0.000	21.3	5	-20.0	18.1	1.25	 .0740	23	1	100.0	1
08/07/24	6:55	-15.6	-15.6	-15.7	78	-18.6	40.0	S	0.67	46.1	SSE	-31.4	-15.7	-31.5	751.8	0.024	0.000	21.3	5	-20.0	18.1	1.25	 .0740	24	1	100.0	1
08/07/24	6:56	-15.5	-15.5	-15.6	78	-18.5	36.5	S	0.61	48.7	SSE	-30.8	-15.6	-30.8	751.9	0.023	0.000	21.3	5	-20.0	18.1	1.25	 .0740	23	1	100.0	1
08/07/24	6:57	-15.4	-15.4	-15.5	78	-18.4	39.1	S	0.65	47.8	SSE	-31.1	-15.5	-31.2	751.8	0.023	0.000	21.3	5	-20.0	18.1	1.25	 .0740	24	1	100.0	1
08/07/24	6:58	-15.4	-15.4	-15.4	79	-18.2	37.4	SSE	0.62	43.5	SSE	-30.8	-15.4	-30.8	752.0	0.023	0.000	21.3	5	-20.0	18.1	1.25	 .0740	23	1	100.0	1
08/07/24	6:59	-15.4	-15.4	-15.4	79	-18.2	40.0	S	0.67	46.1	SSE	-31.2	-15.4	-31.2	751.8	0.023	0.000	21.3	5	-20.0	18.1	1.25	 .0740	24	1	100.0	1
08/07/24	7:00	-15.4	-15.4	-15.4	79	-18.3	35.7	SSE	0.59	44.3	SSE	-30.6	-15.5	-30.7	751.7	0.023	0.000	21.3	5	-19.9	18.2	1.25	 .0740	23	1	100.0	1
08/07/24	7:01	-15.4	-15.4	-15.4	78	-18.4	47.0	SSE	0.78	61.7	SSE	-32.1	-15.5	-32.2	751.6	0.023	0.000	21.3	5	-19.9	18.2	1.25	 .0739	23	1	100.0	1
08/07/24	7:02	-15.4	-15.4	-15.4	78	-18.4	44.3	SSE	0.74	49.6	SSE	-31.8	-15.5	-31.8	751.5	0.023	0.000	21.3	5	-19.9	18.2	1.25	 .0739	24	1	100.0	1
08/07/24	7:03	-15.5	-15.4	-15.5	78	-18.5	41.7	SSE	0.70	57.4	SSE	-31.6	-15.6	-31.6	751.6	0.023	0.000	21.3	5	-19.9	18.2	1.25	 .0739	23	1	100.0	1
08/07/24	7:04	-15.4	-15.4	-15.4	78	-18.4	41.7	S	0.70	51.3	SSE	-31.4	-15.5	-31.5	751.7	0.023	0.000	21.3	5	-19.9	18.2	1.25	 .0740	24	1	100.0	1
08/07/24	7:05	-15.3	-15.3	-15.4	78	-18.3	45.2	S	0.75	53.9	SSE	-31.8	-15.4	-31.8	751.5	0.023	0.000	21.3	5	-19.9	18.2	1.25	 .0739	23	1	100.0	1
08/07/24	7:06	-15.3	-15.3	-15.3	78	-18.2	47.8	SSE	0.80	53.9	SSE	-32.0	-15.3	-32.1	751.4	0.023	0.000	21.3	5	-19.9	18.2	1.25	 .0739	23	1	100.0	1
08/07/24	7:07	-15.3	-15.2	-15.3	79	-18.2	38.3	SSE	0.64	48.7	SSE	-30.8	-15.4	-30.9	751.5	0.023	0.000	21.4	5	-19.9	18.2	1.25	 .0739	24	1	100.0	1
08/07/24	7:08	-15.6	-15.4	-15.6	78	-18.5	34.8	SSE	0.58	40.9	SSE	-30.6	-15.6	-30.7	751.7	0.024	0.000	21.4	5	-19.9	18.2	1.25	 .0739	23	1	100.0	1
08/07/24	7:09	-15.6	-15.6	-15.6	79	-18.4	38.3	SSE	0.64	44.3	SSE	-31.1	-15.6	-31.2	751.5	0.024	0.000	21.4	5	-19.9	18.2	1.25	 .0739	24	1	100.0	1
08/07/24	7:10	-15.4	-15.4	-15.6	78	-18.4	42.6	SSE	0.71	53.9	S	-31.5	-15.4	-31.6	751.4	0.023	0.000	21.4	5	-19.9	18.2	1.25	 .0739	23	1	100.0	1
08/07/24	7:11	-15.3	-15.3	-15.3	78	-18.2	38.3	SSE	0.64	45.2	SSE	-30.7	-15.3	-30.8	751.5	0.023	0.000	21.4	5	-19.9	18.3	1.25	 .0739	23	1	100.0	1
08/07/24	7:12	-15.2	-15.2	-15.3	78	-18.1	41.7	SSE	0.70	47.8	SSE	-31.1	-15.2	-31.1	751.7	0.023	0.000	21.4	5	-19.9	18.3	1.25	 .0739	24	1	100.0	1
08/07/24	7:13	-15.1	-15.1	-15.2	78	-18.1	40.0	SSE	0.67	47.8	SSE	-30.8	-15.2	-30.8	751.7	0.023	0.000	21.4	5	-19.9	18.3	1.25	 .0739	23	1	100.0	1
08/07/24	7:14	-15.1	-15.1	-15.1	78	-18.0	43.5	SSE	0.72	54.8	SSE	-31.1	-15.1	-31.2	751.5	0.023	0.000	21.4	5	-19.9	18.3	1.25	 .0739	24	1	100.0	1
08/07/24	7:15	-14.9	-14.9	-15.0	78	-17.9	45.2	SSE	0.75	53.9	SSE	-31.2	-15.0	-31.3	751.4	0.023	0.000	21.4	5	-19.9	18.3	1.25	 .0739	23	1	100.0	1
08/07/24	7:16	-14.9	-14.9	-14.9	78	-17.9	45.2	SSE	0.75	52.2	SSE	-31.1	-14.9	-31.2	751.7	0.023	0.000	21.4	5	-19.9	18.3	1.25	 .0739	24	1	100.0	1
08/07/24	7:17	-14.9	-14.9	-14.9	78	-17.9	46.1	SSE	0.77	53.9	SSE	-31.2	-14.9	-31.3	751.6	0.023	0.000	21.4	5	-19.9	18.3	1.25	 .0739	23	1	100.0	1
08/07/24	7:18	-15.0	-14.9	-15.0	78	-18.0	40.9	SSE	0.68	49.6	SSE	-30.7	-15.1	-30.8	751.6	0.023	0.000	21.4	5	-19.9	18.3	1.25	 .0739	23	1	100.0	1
08/07/24	7:19	-15.1	-15.0	-15.1	78	-18.1	37.4	SSE	0.62	42.6	SSE	-30.4	-15.2	-30.4	751.9	0.023	0.000	21.4	5	-19.9	18.3	1.25	 .0739	24	1	100.0	1
08/07/24	7:20	-15.2	-15.1	-15.2	78	-18.2	37.4	SSE	0.62	42.6	SSE	-30.6	-15.3	-30.6	751.9	0.023	0.000	21.4	5	-19.9	18.3	1.25	 .0739	23	1	100.0	1
08/07/24	7:21	-15.3	-15.2	-15.3	78	-18.2	40.9	SSE	0.68	46.1	SSE	-31.1	-15.3	-31.2	751.8	0.023	0.000	21.4	5	-19.9	18.3	1.25	 .0739	24	1	100.0	1
08/07/24	7:22	-15.3	-15.3	-15.3	78	-18.2	44.3	SSE	0.74	51.3	SSE	-31.6	-15.3	-31.6	751.9	0.023	0.000	21.4	5	-19.9	18.3	1.25	 .0740	23	1	100.0	1
08/07/24	7:23	-15.2	-15.2	-15.3	78	-18.2	42.6	SSE	0.71	47.0	SSE	-31.3	-15.3	-31.3	751.9	0.023	0.000	21.4	5	-19.9	18.3	1.25	 .0739	23	1	100.0	1
08/07/24	7:24	-15.3	-15.2	-15.3	78	-18.2	35.7	SSE	0.59	40.9	SSE	-30.3	-15.3	-30.4	752.0	0.023	0.000	21.4	5	-19.9	18.3	1.25	 .0740	24	1	100.0	1
08/07/24	7:25	-15.3	-15.3	-15.3	78	-18.2	35.7	SSE	0.59	45.2	SSE	-30.3	-15.3	-30.4	752.1	0.023	0.000	21.4	5	-19.9	18.2	1.25	 .0740	23	1	100.0	1
08/07/24	7:26	-15.2	-15.2	-15.3	78	-18.2	40.9	SSE	0.68	45.2	SSE	-31.1	-15.3	-31.1	752.0	0.023	0.000	21.4	5	-19.9	18.2	1.25	 .0740	24	1	100.0	1
08/07/24	7:27	-15.2	-15.2	-15.2	78	-18.1	40.9	SSE	0.68	47.0	SSE	-30.9	-15.2	-31.0	752.0	0.023	0.000	21.4	5	-19.9	18.2	1.25	 .0740	23	1	100.0	1
08/07/24	7:28	-15.2	-15.2	-15.2	78	-18.2	40.9	SSE	0.68	52.2	SSE	-31.1	-15.3	-31.1	752.0	0.023	0.000	21.4	5	-19.9	18.2	1.25	 .0740	24	1	100.0	1
08/07/24	7:29	-15.2	-15.2	-15.2	78	-18.1	35.7	SSE	0.59	41.7	S	-30.2	-15.2	-30.3	752.0	0.023	0.000	21.4	5	-19.9	18.2	1.25	 .0740	23	1	100.0	1
08/07/24	7:30	-15.2	-15.2	-15.2	78	-18.2	37.4	SSE	0.62	43.5	SSE	-30.6	-15.3	-30.6	752.1	0.023	0.000	21.4	5	-19.9	18.2	1.25	 .0740	23	1	100.0	1
08/07/24	7:31	-15.2	-15.2	-15.2	78	-18.1	39.1	SSE	0.65	45.2	S	-30.7	-15.2	-30.8	752.0	0.023	0.000	21.3	5	-19.9	18.2	1.25	 .0740	24	1	100.0	1
08/07/24	7:32	-15.2	-15.2	-15.2	78	-18.1	40.0	SSE	0.67	47.8	SSE	-30.8	-15.2	-30.9	752.0	0.023	0.000	21.3	5	-19.9	18.2	1.25	 .0740	23	1	100.0	1
08/07/24	7:33	-15.2	-15.2	-15.2	78	-18.1	41.7	SSE	0.70	47.0	SSE	-31.1	-15.2	-31.1	752.0	0.023	0.000	21.3	5	-20.0	18.1	1.25	 .0740	24	1	100.0	1
08/07/24	7:34	-15.2	-15.2	-15.2	78	-18.2	40.0	SSE	0.67	47.0	SSE	-30.9	-15.3	-30.9	752.1	0.023	0.000	21.3	5	-20.0	18.1	1.25	 .0740	23	1	100.0	1
08/07/24	7:35	-15.2	-15.2	-15.2	78	-18.2	37.4	SSE	0.62	46.1	SSE	-30.6	-15.3	-30.6	752.2	0.023	0.000	21.3	5	-20.0	18.1	1.25	 .0740	23	1	100.0	1
08/07/24	7:36	-15.2	-15.2	-15.2	78	-18.1	41.7	SSE	0.70	47.8	SSE	-31.1	-15.2	-31.1	752.2	0.023	0.000	21.3	5	-20.0	18.1	1.25	 .0740	24	1	100.0	1
08/07/24	7:37	-15.0	-15.0	-15.1	78	-18.0	39.1	SSE	0.65	47.0	SSE	-30.5	-15.1	-30.6	752.1	0.023	0.000	21.3	5	-20.0	18.1	1.25	 .0740	23	1	100.0	1
08/07/24	7:38	-14.9	-14.9	-15.0	78	-17.9	40.9	SSE	0.68	47.8	SSE	-30.6	-14.9	-30.6	752.2	0.023	0.000	21.2	5	-20.0	17.9	1.25	 .0740	24	1	100.0	1
08/07/24	7:39	-14.9	-14.9	-14.9	78	-17.9	38.3	SSE	0.64	48.7	SSE	-30.2	-14.9	-30.3	752.0	0.023	0.000	21.2	5	-20.0	17.9	1.25	 .0740	23	1	100.0	1
08/07/24	7:40	-14.9	-14.9	-14.9	78	-17.9	40.0	SSE	0.67	48.7	SSE	-30.5	-15.0	-30.6	751.9	0.023	0.000	21.2	5	-20.0	17.9	1.25	 .0740	23	1	100.0	1
08/07/24	7:41	-14.8	-14.8	-14.9	78	-17.8	43.5	SSE	0.72	49.6	SSE	-30.8	-14.9	-30.9	752.0	0.023	0.000	21.2	5	-20.0	17.9	1.25	 .0740	24	1	100.0	1
08/07/24	7:42	-14.8	-14.8	-14.8	78	-17.8	42.6	SSE	0.71	47.8	SSE	-30.6	-14.8	-30.7	751.9	0.023	0.000	21.2	5	-20.0	17.9	1.25	 .0740	23	1	100.0	1
08/07/24	7:43	-14.8	-14.8	-14.8	78	-17.8	42.6	SSE	0.71	47.8	SSE	-30.6	-14.8	-30.7	751.9	0.023	0.000	21.2	5	-20.0	17.9	1.25	 .0740	24	1	100.0	1
08/07/24	7:44	-14.8	-14.8	-14.8	78	-17.8	35.7	SSE	0.59	46.1	SSE	-29.7	-14.9	-29.8	752.1	0.023	0.000	21.2	5	-20.0	17.9	1.25	 .0740	23	1	100.0	1
08/07/24	7:45	-14.9	-14.9	-14.9	78	-17.9	43.5	SSE	0.72	51.3	SSE	-31.0	-15.0	-31.1	751.9	0.023	0.000	21.2	5	-20.0	17.9	1.25	 .0740	24	1	100.0	1
08/07/24	7:46	-14.9	-14.9	-14.9	78	-17.9	41.7	SSE	0.70	50.4	S	-30.8	-15.0	-30.8	751.7	0.023	0.000	21.2	5	-20.0	17.9	1.25	 .0740	23	1	100.0	1
08/07/24	7:47	-14.9	-14.9	-15.0	78	-17.9	47.0	SSE	0.78	59.1	SSE	-31.3	-14.9	-31.4	751.9	0.023	0.000	21.2	5	-20.0	17.9	1.25	 .0740	23	1	100.0	1
08/07/24	7:48	-14.8	-14.8	-14.9	78	-17.8	44.3	SSE	0.74	52.2	S	-30.9	-14.9	-31.0	751.8	0.023	0.000	21.2	5	-20.0	17.9	1.25	 .0740	24	1	100.0	1
08/07/24	7:49	-14.7	-14.7	-14.8	78	-17.7	44.3	SSE	0.74	53.0	SSE	-30.8	-14.8	-30.8	751.8	0.023	0.000	21.2	5	-20.0	17.9	1.25	 .0740	23	1	100.0	1
08/07/24	7:50	-14.7	-14.7	-14.7	78	-17.7	41.7	SSE	0.70	50.4	SSE	-30.3	-14.7	-30.4	751.9	0.023	0.000	21.2	5	-20.0	17.9	1.25	 .0740	24	1	100.0	1
08/07/24	7:51	-14.6	-14.6	-14.7	78	-17.5	45.2	SSE	0.75	47.8	SSE	-30.7	-14.6	-30.7	751.8	0.023	0.000	21.2	5	-20.0	17.9	1.25	 .0740	23	1	100.0	1
08/07/24	7:52	-14.5	-14.5	-14.6	78	-17.5	46.1	SSE	0.77	55.7	SSE	-30.7	-14.6	-30.7	751.9	0.023	0.000	21.3	5	-20.0	18.1	1.25	 .0740	23	1	100.0	1
08/07/24	7:53	-14.5	-14.5	-14.5	78	-17.5	46.1	SSE	0.77	58.3	SSE	-30.7	-14.6	-30.7	751.9	0.023	0.000	21.2	5	-20.0	17.9	1.25	 .0740	24	1	100.0	1
08/07/24	7:54	-14.4	-14.4	-14.5	78	-17.4	47.8	SSE	0.80	53.9	SSE	-30.8	-14.5	-30.8	751.8	0.023	0.000	21.3	5	-20.0	18.1	1.25	 .0740	23	1	100.0	1
08/07/24	7:55	-14.4	-14.4	-14.4	78	-17.4	42.6	SSE	0.71	49.6	SSE	-30.1	-14.4	-30.1	751.8	0.023	0.000	21.3	5	-20.0	18.1	1.25	 .0740	24	1	100.0	1
08/07/24	7:56	-14.3	-14.3	-14.4	78	-17.3	47.0	SSE	0.78	54.8	SSE	-30.6	-14.4	-30.6	752.0	0.023	0.000	21.3	5	-20.0	18.1	1.25	 .0740	23	1	100.0	1
08/07/24	7:57	-14.3	-14.3	-14.3	78	-17.3	48.7	SSE	0.81	60.0	SSE	-30.7	-14.3	-30.7	751.6	0.023	0.000	21.3	5	-20.0	18.1	1.25	 .0740	24	1	100.0	1
08/07/24	7:58	-14.7	-14.3	-14.7	78	-17.7	36.5	SSE	0.61	41.7	SSE	-29.6	-14.7	-29.7	751.8	0.023	0.000	21.3	5	-20.0	18.1	1.25	 .0740	23	1	100.0	1
08/07/24	7:59	-15.1	-14.8	-15.1	78	-18.1	38.3	SSE	0.64	47.8	SSE	-30.5	-15.2	-30.6	752.1	0.023	0.000	21.3	5	-20.0	18.1	1.25	 .0740	23	1	100.0	1
08/07/24	8:00	-15.3	-15.2	-15.3	78	-18.2	38.3	SSE	0.64	44.3	SSE	-30.7	-15.3	-30.8	751.9	0.023	0.000	21.3	5	-20.0	18.1	1.25	 .0740	24	1	100.0	1
08/07/24	8:01	-15.2	-15.2	-15.3	78	-18.2	38.3	SSE	0.64	48.7	SSE	-30.7	-15.3	-30.7	752.2	0.023	0.000	21.3	6	-17.8	18.2	1.54	 .0740	23	1	100.0	1
08/07/24	8:02	-14.9	-14.9	-15.2	78	-17.9	45.2	SSE	0.75	51.3	SSE	-31.2	-15.0	-31.3	751.9	0.023	0.000	21.3	6	-17.8	18.2	1.54	 .0740	24	1	100.0	1
08/07/24	8:03	-14.8	-14.8	-14.9	78	-17.8	37.4	SSE	0.62	45.2	SSE	-30.0	-14.9	-30.1	752.1	0.023	0.000	21.3	5	-19.9	18.2	1.25	 .0740	23	1	100.0	1
08/07/24	8:04	-15.0	-14.8	-15.0	78	-18.0	34.8	SSE	0.58	46.1	SSE	-29.8	-15.1	-29.9	752.2	0.023	0.000	21.3	6	-17.8	18.2	1.54	 .0740	23	1	100.0	1
08/07/24	8:05	-14.9	-14.9	-15.0	78	-17.9	42.6	SSE	0.71	53.9	SSE	-30.9	-15.0	-30.9	752.0	0.023	0.000	21.3	6	-17.8	18.2	1.54	 .0740	24	1	100.0	1
08/07/24	8:06	-14.8	-14.8	-14.9	78	-17.8	40.0	SSE	0.67	47.8	SSE	-30.3	-14.8	-30.3	752.2	0.023	0.000	21.3	6	-17.8	18.2	1.54	 .0740	23	1	100.0	1
08/07/24	8:07	-14.6	-14.6	-14.7	78	-17.6	40.0	SSE	0.67	47.0	SSE	-30.1	-14.7	-30.1	752.2	0.023	0.000	21.3	6	-17.8	18.2	1.54	 .0740	24	1	100.0	1
08/07/24	8:08	-14.6	-14.6	-14.6	78	-17.5	46.1	SSE	0.77	55.7	SSE	-30.8	-14.6	-30.8	752.3	0.023	0.000	21.3	6	-17.8	18.2	1.54	 .0740	23	1	100.0	1
08/07/24	8:09	-14.4	-14.4	-14.5	78	-17.4	43.5	SSE	0.72	48.7	SSE	-30.3	-14.5	-30.3	752.3	0.023	0.000	21.3	6	-17.8	18.1	1.54	 .0740	23	1	100.0	1
08/07/24	8:10	-14.3	-14.3	-14.4	78	-17.3	40.0	S	0.67	62.6	SSE	-29.7	-14.4	-29.7	752.4	0.023	0.000	21.3	6	-17.8	18.1	1.54	 .0740	24	1	100.0	1
08/07/24	8:11	-14.4	-14.3	-14.4	78	-17.4	36.5	SSE	0.61	43.5	SSE	-29.3	-14.5	-29.4	752.5	0.023	0.000	21.3	6	-17.8	18.1	1.54	 .0740	23	1	100.0	1
08/07/24	8:12	-14.6	-14.4	-14.6	78	-17.5	38.3	SSE	0.64	48.7	SSE	-29.7	-14.6	-29.8	752.5	0.023	0.000	21.3	6	-17.8	18.1	1.54	 .0740	24	1	100.0	1
08/07/24	8:13	-14.8	-14.6	-14.8	78	-17.8	36.5	SSE	0.61	44.3	SSE	-29.9	-14.9	-29.9	752.4	0.023	0.000	21.3	6	-17.8	18.1	1.54	 .0740	23	1	100.0	1
08/07/24	8:14	-14.8	-14.8	-14.8	78	-17.8	37.4	SSE	0.62	42.6	SSE	-29.9	-14.8	-29.9	752.5	0.023	0.000	21.3	6	-17.8	18.1	1.54	 .0740	24	1	100.0	1
08/07/24	8:15	-14.7	-14.7	-14.8	78	-17.7	39.1	SSE	0.65	47.0	SSE	-30.0	-14.7	-30.1	752.5	0.023	0.000	21.2	6	-17.9	18.0	1.55	 .0740	23	1	100.0	1
08/07/24	8:16	-14.5	-14.5	-14.6	78	-17.5	40.0	SSE	0.67	44.3	SSE	-29.9	-14.6	-29.9	752.4	0.023	0.000	21.2	6	-17.9	18.0	1.55	 .0740	23	1	100.0	1
08/07/24	8:17	-14.7	-14.5	-14.7	78	-17.7	34.8	SSE	0.58	41.7	SSE	-29.4	-14.8	-29.5	752.5	0.023	0.000	21.2	6	-17.9	18.0	1.55	 .0740	24	1	100.0	1
08/07/24	8:18	-15.1	-14.8	-15.1	78	-18.0	34.8	SSE	0.58	43.5	SSE	-29.9	-15.1	-29.9	752.6	0.023	0.000	21.2	6	-17.9	18.0	1.55	 .0741	23	1	100.0	1
08/07/24	8:19	-15.2	-15.1	-15.2	78	-18.2	36.5	SSE	0.61	41.7	SSE	-30.4	-15.3	-30.4	752.6	0.023	0.000	21.2	6	-17.9	17.9	1.55	 .0741	24	1	100.0	1
08/07/24	8:20	-15.3	-15.2	-15.3	78	-18.3	34.8	SSE	0.58	41.7	SSE	-30.3	-15.4	-30.3	752.5	0.023	0.000	21.2	6	-17.9	18.0	1.55	 .0740	23	1	100.0	1
08/07/24	8:21	-15.6	-15.4	-15.6	79	-18.4	38.3	SSE	0.64	45.2	SSE	-31.1	-15.6	-31.2	752.5	0.024	0.000	21.2	6	-17.9	17.9	1.55	 .0741	23	1	100.0	1
08/07/24	8:22	-15.7	-15.6	-15.7	78	-18.7	33.0	SSE	0.55	40.0	SSE	-30.6	-15.8	-30.6	752.6	0.024	0.000	21.2	6	-17.9	17.9	1.55	 .0741	24	1	100.0	1
08/07/24	8:23	-15.8	-15.7	-15.8	79	-18.6	33.0	SSE	0.55	39.1	SSE	-30.7	-15.9	-30.8	752.6	0.024	0.000	21.2	6	-17.9	17.9	1.55	 .0741	23	1	100.0	1
08/07/24	8:24	-15.8	-15.8	-15.9	79	-18.6	34.8	SSE	0.58	43.5	SSE	-31.0	-15.9	-31.1	752.6	0.024	0.000	21.2	6	-17.9	17.9	1.55	 .0741	24	1	100.0	1
08/07/24	8:25	-15.8	-15.8	-15.8	79	-18.6	35.7	SSE	0.59	40.0	SSE	-31.1	-15.9	-31.2	752.6	0.024	0.000	21.2	6	-17.9	17.9	1.55	 .0741	23	1	100.0	1
08/07/24	8:26	-15.8	-15.8	-15.8	79	-18.6	34.8	SSE	0.58	42.6	SSE	-31.0	-15.9	-31.1	752.7	0.024	0.000	21.2	6	-17.9	17.9	1.55	 .0741	24	1	100.0	1
08/07/24	8:27	-15.9	-15.8	-15.9	79	-18.7	33.0	SSE	0.55	35.7	SSE	-30.9	-16.0	-30.9	752.7	0.024	0.000	21.2	6	-17.9	17.9	1.55	 .0741	23	1	100.0	1
08/07/24	8:28	-15.9	-15.9	-16.0	79	-18.7	36.5	SSE	0.61	43.5	SSE	-31.3	-15.9	-31.4	752.6	0.024	0.000	21.2	6	-17.9	17.9	1.55	 .0741	23	1	100.0	1
08/07/24	8:29	-15.9	-15.8	-15.9	79	-18.7	34.8	SSE	0.58	40.0	SSE	-31.2	-16.0	-31.2	752.7	0.024	0.000	21.2	6	-17.9	17.9	1.55	 .0741	24	1	100.0	1
08/07/24	8:30	-16.1	-16.0	-16.1	79	-18.9	35.7	SSE	0.59	40.9	SSE	-31.5	-16.2	-31.6	752.6	0.024	0.000	21.2	5	-20.1	17.9	1.25	 .0741	23	1	100.0	1
08/07/24	8:31	-16.2	-16.2	-16.2	79	-19.0	36.5	SSE	0.61	41.7	SSE	-31.8	-16.3	-31.9	752.7	0.024	0.000	21.2	6	-17.9	17.9	1.55	 .0741	24	1	100.0	1
08/07/24	8:32	-16.3	-16.2	-16.3	79	-19.1	37.4	SSE	0.62	40.0	SSE	-32.0	-16.3	-32.1	752.7	0.024	0.000	21.2	6	-17.9	17.9	1.55	 .0741	23	1	100.0	1
08/07/24	8:33	-16.3	-16.3	-16.3	79	-19.1	34.8	SSE	0.58	43.5	SSE	-31.6	-16.3	-31.7	752.7	0.024	0.000	21.2	6	-17.9	17.9	1.55	 .0741	23	1	100.0	1
08/07/24	8:34	-16.3	-16.3	-16.3	79	-19.1	33.9	SSE	0.57	37.4	SSE	-31.5	-16.3	-31.6	752.8	0.024	0.000	21.2	6	-17.9	18.0	1.55	 .0741	24	1	100.0	1
08/07/24	8:35	-16.2	-16.2	-16.3	79	-19.0	36.5	SE	0.61	43.5	SSE	-31.7	-16.2	-31.8	752.8	0.024	0.000	21.2	6	-17.9	18.0	1.55	 .0741	23	1	100.0	1
08/07/24	8:36	-16.1	-16.1	-16.2	79	-18.9	34.8	SSE	0.58	41.7	SSE	-31.4	-16.2	-31.4	752.8	0.024	0.000	21.2	6	-17.9	18.0	1.55	 .0741	24	1	100.0	1
08/07/24	8:37	-16.2	-16.1	-16.2	79	-19.0	33.9	SE	0.57	39.1	SSE	-31.3	-16.2	-31.4	752.8	0.024	0.000	21.3	6	-17.8	18.1	1.54	 .0741	23	1	100.0	1
08/07/24	8:38	-16.2	-16.2	-16.2	79	-19.0	38.3	SSE	0.64	43.5	SE	-32.1	-16.3	-32.1	752.8	0.024	0.000	21.2	6	-17.9	18.0	1.55	 .0741	24	1	100.0	1
08/07/24	8:39	-16.3	-16.2	-16.3	79	-19.1	37.4	SSE	0.62	46.1	SSE	-32.0	-16.3	-32.1	752.7	0.024	0.000	21.3	6	-17.8	18.1	1.54	 .0740	23	1	100.0	1
08/07/24	8:40	-16.3	-16.3	-16.3	79	-19.1	35.7	SSE	0.59	43.5	SSE	-31.8	-16.4	-31.9	752.8	0.024	0.000	21.3	6	-17.8	18.1	1.54	 .0741	23	1	100.0	1
08/07/24	8:41	-16.2	-16.2	-16.3	79	-19.0	36.5	SSE	0.61	43.5	SSE	-31.8	-16.3	-31.9	752.7	0.024	0.000	21.3	6	-17.8	18.1	1.54	 .0740	24	1	100.0	1
08/07/24	8:42	-16.2	-16.2	-16.2	79	-19.0	36.5	SSE	0.61	39.1	SE	-31.7	-16.2	-31.8	752.8	0.024	0.000	21.3	6	-17.8	18.1	1.54	 .0741	23	1	100.0	1
08/07/24	8:43	-16.2	-16.2	-16.2	79	-19.0	36.5	SSE	0.61	40.9	SSE	-31.7	-16.2	-31.8	752.8	0.024	0.000	21.3	6	-17.8	18.1	1.54	 .0741	24	1	100.0	1
08/07/24	8:44	-16.1	-16.1	-16.2	79	-18.9	37.4	SSE	0.62	40.9	SSE	-31.8	-16.2	-31.8	752.7	0.024	0.000	21.3	6	-17.8	18.1	1.54	 .0741	23	1	100.0	1
08/07/24	8:45	-16.1	-16.1	-16.2	79	-18.9	38.3	SSE	0.64	44.3	SSE	-31.9	-16.2	-31.9	752.7	0.024	0.000	21.3	6	-17.8	18.1	1.54	 .0740	23	1	100.0	1
08/07/24	8:46	-16.2	-16.1	-16.2	79	-19.0	42.6	SSE	0.71	52.2	SSE	-32.6	-16.2	-32.7	752.6	0.024	0.000	21.3	6	-17.8	18.2	1.54	 .0740	24	1	100.0	1
08/07/24	8:47	-16.2	-16.2	-16.2	79	-19.0	42.6	SSE	0.71	47.0	SSE	-32.7	-16.3	-32.7	752.5	0.024	0.000	21.3	6	-17.8	18.2	1.54	 .0740	23	1	100.0	1
08/07/24	8:48	-16.2	-16.2	-16.2	79	-19.0	43.5	SSE	0.72	51.3	SSE	-32.8	-16.3	-32.8	752.5	0.024	0.000	21.3	6	-17.8	18.2	1.54	 .0740	24	1	100.0	1
08/07/24	8:49	-16.2	-16.2	-16.2	79	-19.0	45.2	SSE	0.75	49.6	SE	-32.9	-16.2	-33.0	752.5	0.024	0.000	21.3	6	-17.8	18.2	1.54	 .0740	23	1	100.0	1
08/07/24	8:50	-16.2	-16.2	-16.2	79	-19.0	43.5	SSE	0.72	51.3	SSE	-32.8	-16.3	-32.8	752.5	0.024	0.000	21.3	6	-17.8	18.2	1.54	 .0740	24	1	100.0	1
08/07/24	8:51	-16.3	-16.2	-16.3	79	-19.1	43.5	SSE	0.72	53.0	SSE	-32.9	-16.3	-32.9	752.5	0.024	0.000	21.4	6	-17.8	18.3	1.54	 .0740	23	1	100.0	1
08/07/24	8:52	-16.3	-16.3	-16.3	79	-19.1	43.5	SSE	0.72	51.3	SSE	-32.9	-16.4	-33.0	752.6	0.024	0.000	21.4	6	-17.8	18.3	1.54	 .0740	23	1	100.0	1
08/07/24	8:53	-16.4	-16.3	-16.4	79	-19.2	46.1	SSE	0.77	53.0	SSE	-33.4	-16.4	-33.4	752.5	0.024	0.000	21.4	6	-17.8	18.3	1.54	 .0740	24	1	100.0	1
08/07/24	8:54	-16.4	-16.4	-16.4	79	-19.2	46.1	SSE	0.77	50.4	SSE	-33.4	-16.4	-33.4	752.5	0.024	0.000	21.4	6	-17.8	18.3	1.54	 .0740	23	1	100.0	1
08/07/24	8:55	-16.4	-16.4	-16.4	79	-19.2	45.2	SSE	0.75	51.3	SSE	-33.3	-16.4	-33.3	752.5	0.024	0.000	21.4	6	-17.8	18.3	1.54	 .0740	24	1	100.0	1
08/07/24	8:56	-16.4	-16.4	-16.4	79	-19.2	47.0	SSE	0.78	51.3	SSE	-33.6	-16.5	-33.6	752.4	0.024	0.000	21.4	6	-17.8	18.3	1.54	 .0740	23	1	100.0	1
08/07/24	8:57	-16.4	-16.4	-16.4	79	-19.2	45.2	SSE	0.75	52.2	SSE	-33.3	-16.4	-33.3	752.5	0.024	0.000	21.4	6	-17.8	18.3	1.54	 .0740	23	1	100.0	1
08/07/24	8:58	-16.4	-16.4	-16.4	79	-19.2	46.1	SSE	0.77	52.2	SSE	-33.4	-16.4	-33.4	752.6	0.024	0.000	21.4	6	-17.8	18.3	1.54	 .0740	24	1	100.0	1
08/07/24	8:59	-16.4	-16.4	-16.4	79	-19.2	46.1	SSE	0.77	51.3	SSE	-33.4	-16.5	-33.5	752.4	0.024	0.000	21.4	6	-17.8	18.3	1.54	 .0740	23	1	100.0	1
08/07/24	9:00	-16.4	-16.4	-16.4	79	-19.2	43.5	SSE	0.72	49.6	SSE	-33.1	-16.5	-33.2	752.7	0.024	0.000	21.4	6	-17.8	18.3	1.54	 .0740	24	1	100.0	1
08/07/24	9:01	-16.4	-16.4	-16.4	79	-19.2	44.3	SSE	0.74	48.7	SSE	-33.2	-16.5	-33.3	752.6	0.024	0.000	21.4	6	-17.8	18.3	1.54	 .0740	23	1	100.0	1
08/07/24	9:02	-16.3	-16.3	-16.4	79	-19.1	46.1	SSE	0.77	54.8	SSE	-33.3	-16.4	-33.3	752.5	0.024	0.000	21.4	6	-17.8	18.3	1.54	 .0740	23	1	100.0	1
08/07/24	9:03	-16.3	-16.3	-16.3	79	-19.1	44.3	SSE	0.74	51.3	SSE	-33.1	-16.4	-33.1	752.6	0.024	0.000	21.4	6	-17.8	18.3	1.54	 .0740	24	1	100.0	1
08/07/24	9:04	-16.3	-16.3	-16.3	79	-19.1	45.2	SSE	0.75	53.0	SE	-33.2	-16.4	-33.2	752.4	0.024	0.000	21.3	6	-17.8	18.2	1.54	 .0740	23	1	100.0	1
08/07/24	9:05	-16.3	-16.3	-16.3	79	-19.1	45.2	SSE	0.75	50.4	SSE	-33.2	-16.4	-33.2	752.5	0.024	0.000	21.3	6	-17.8	18.2	1.54	 .0740	24	1	100.0	1
08/07/24	9:06	-16.3	-16.3	-16.3	79	-19.1	45.2	SSE	0.75	53.0	SSE	-33.1	-16.3	-33.2	752.7	0.024	0.000	21.3	6	-17.8	18.2	1.54	 .0740	23	1	100.0	1
08/07/24	9:07	-16.3	-16.3	-16.3	79	-19.1	47.0	SSE	0.78	54.8	SSE	-33.3	-16.3	-33.4	752.6	0.024	0.000	21.3	6	-17.8	18.2	1.54	 .0740	24	1	100.0	1
08/07/24	9:08	-16.3	-16.3	-16.3	79	-19.1	45.2	SSE	0.75	54.8	SSE	-33.1	-16.3	-33.2	752.5	0.024	0.000	21.3	6	-17.8	18.2	1.54	 .0740	23	1	100.0	1
08/07/24	9:09	-16.2	-16.2	-16.2	79	-19.0	46.1	SSE	0.77	52.2	SSE	-33.1	-16.3	-33.2	752.6	0.024	0.000	21.3	6	-17.8	18.1	1.54	 .0740	23	1	100.0	1
08/07/24	9:10	-16.2	-16.2	-16.2	79	-19.0	47.0	SSE	0.78	52.2	SSE	-33.2	-16.2	-33.2	752.7	0.024	0.000	21.3	6	-17.8	18.1	1.54	 .0740	24	1	100.0	1
08/07/24	9:11	-16.1	-16.1	-16.2	79	-18.9	47.0	SSE	0.78	53.0	SSE	-33.1	-16.2	-33.1	752.6	0.024	0.000	21.3	6	-17.8	18.1	1.54	 .0740	23	1	100.0	1
08/07/24	9:12	-16.1	-16.1	-16.1	79	-18.9	46.1	SSE	0.77	50.4	SSE	-33.0	-16.2	-33.1	752.6	0.024	0.000	21.3	6	-17.8	18.1	1.54	 .0740	24	1	100.0	1
08/07/24	9:13	-16.1	-16.1	-16.1	79	-18.9	47.8	SSE	0.80	52.2	SSE	-33.1	-16.1	-33.2	752.6	0.024	0.000	21.3	6	-17.8	18.1	1.54	 .0740	23	1	100.0	1
08/07/24	9:14	-16.0	-16.0	-16.1	79	-18.8	46.1	SSE	0.77	51.3	SSE	-32.8	-16.1	-32.9	752.7	0.024	0.000	21.3	6	-17.8	18.1	1.54	 .0741	23	1	100.0	1
08/07/24	9:15	-16.0	-16.0	-16.0	79	-18.8	41.7	SSE	0.70	48.7	SSE	-32.2	-16.1	-32.3	752.9	0.024	0.000	21.3	6	-17.8	18.1	1.54	 .0741	24	1	100.0	1
08/07/24	9:16	-16.0	-16.0	-16.0	79	-18.8	45.2	SSE	0.75	54.8	SSE	-32.7	-16.1	-32.8	752.8	0.024	0.000	21.3	6	-17.8	18.1	1.54	 .0741	23	1	100.0	1
08/07/24	9:17	-16.0	-16.0	-16.0	79	-18.8	46.1	SSE	0.77	52.2	SSE	-32.8	-16.1	-32.9	752.7	0.024	0.000	21.3	6	-17.8	18.1	1.54	 .0740	24	1	100.0	1
08/07/24	9:18	-15.9	-15.9	-16.0	79	-18.7	46.1	SSE	0.77	58.3	SSE	-32.7	-16.0	-32.8	752.8	0.024	0.000	21.2	6	-17.9	18.0	1.55	 .0741	23	1	100.0	1
08/07/24	9:19	-15.9	-15.9	-15.9	79	-18.7	47.0	SSE	0.78	58.3	SSE	-32.8	-16.0	-32.9	752.8	0.024	0.000	21.3	6	-17.8	18.1	1.54	 .0741	24	1	100.0	1
08/07/24	9:20	-15.9	-15.9	-15.9	79	-18.7	43.5	SSE	0.72	49.6	SSE	-32.4	-16.0	-32.4	752.8	0.024	0.000	21.3	6	-17.8	18.1	1.54	 .0741	23	1	100.0	1
08/07/24	9:21	-16.0	-15.9	-16.0	79	-18.8	43.5	SSE	0.72	47.8	SSE	-32.5	-16.1	-32.6	752.9	0.024	0.000	21.2	6	-17.9	18.0	1.55	 .0741	23	1	100.0	1
08/07/24	9:22	-16.0	-16.0	-16.0	79	-18.8	46.1	SSE	0.77	52.2	SSE	-32.8	-16.1	-32.9	752.9	0.024	0.000	21.3	6	-17.8	18.1	1.54	 .0741	24	1	100.0	1
08/07/24	9:23	-16.0	-16.0	-16.0	79	-18.8	43.5	SSE	0.72	47.0	SSE	-32.5	-16.1	-32.6	753.0	0.024	0.000	21.3	6	-17.8	18.1	1.54	 .0741	23	1	100.0	1
08/07/24	9:24	-16.1	-16.0	-16.1	79	-18.9	43.5	SSE	0.72	49.6	SSE	-32.6	-16.1	-32.6	753.0	0.024	0.000	21.3	6	-17.8	18.1	1.54	 .0741	24	1	100.0	1
08/07/24	9:25	-16.0	-16.0	-16.1	79	-18.8	46.1	SSE	0.77	53.0	SSE	-32.8	-16.1	-32.9	752.9	0.024	0.000	21.3	6	-17.8	18.1	1.54	 .0741	23	1	100.0	1
08/07/24	9:26	-15.9	-15.9	-16.0	79	-18.7	47.0	SSE	0.78	53.0	SSE	-32.8	-16.0	-32.9	753.0	0.024	0.000	21.3	6	-17.8	18.1	1.54	 .0741	23	1	100.0	1
08/07/24	9:27	-16.0	-15.9	-16.0	79	-18.8	42.6	SSE	0.71	47.8	SSE	-32.4	-16.1	-32.4	752.9	0.024	0.000	21.3	6	-17.8	18.1	1.54	 .0741	24	1	100.0	1
08/07/24	9:28	-16.0	-16.0	-16.0	79	-18.8	42.6	SSE	0.71	48.7	SSE	-32.4	-16.1	-32.4	753.1	0.024	0.000	21.3	6	-17.8	18.1	1.54	 .0741	23	1	100.0	1
08/07/24	9:29	-15.9	-15.9	-16.0	79	-18.7	44.3	SSE	0.74	53.9	SSE	-32.5	-16.0	-32.6	753.0	0.024	0.000	21.3	6	-17.8	18.1	1.54	 .0741	24	1	100.0	1
08/07/24	9:30	-15.9	-15.9	-15.9	79	-18.7	44.3	SSE	0.74	47.8	SSE	-32.4	-15.9	-32.5	753.0	0.024	0.000	21.3	6	-17.8	18.2	1.54	 .0741	23	1	100.0	1
08/07/24	9:31	-15.8	-15.8	-15.8	79	-18.6	44.3	SSE	0.74	48.7	SSE	-32.3	-15.9	-32.4	753.0	0.024	0.000	21.3	6	-17.8	18.2	1.54	 .0741	24	1	100.0	1
08/07/24	9:32	-15.8	-15.8	-15.8	79	-18.6	44.3	SSE	0.74	52.2	SSE	-32.3	-15.9	-32.4	753.1	0.024	0.000	21.3	6	-17.8	18.2	1.54	 .0741	23	1	100.0	1
08/07/24	9:33	-15.8	-15.8	-15.8	79	-18.6	45.2	SSE	0.75	52.2	SSE	-32.4	-15.8	-32.4	753.0	0.024	0.000	21.3	6	-17.8	18.2	1.54	 .0741	23	1	100.0	1
08/07/24	9:34	-15.8	-15.8	-15.8	79	-18.6	44.3	SSE	0.74	51.3	SSE	-32.3	-15.8	-32.3	753.1	0.024	0.000	21.3	6	-17.8	18.2	1.54	 .0741	24	1	100.0	1
08/07/24	9:35	-15.8	-15.8	-15.8	79	-18.6	44.3	SSE	0.74	50.4	SSE	-32.3	-15.8	-32.3	753.0	0.024	0.000	21.3	6	-17.8	18.2	1.54	 .0741	23	1	100.0	1
08/07/24	9:36	-15.8	-15.8	-15.8	79	-18.6	42.6	SSE	0.71	51.3	SSE	-32.1	-15.8	-32.1	752.9	0.024	0.000	21.3	6	-17.8	18.2	1.54	 .0741	24	1	100.0	1
08/07/24	9:37	-15.8	-15.8	-15.8	79	-18.6	41.7	SSE	0.70	46.1	SSE	-32.0	-15.9	-32.1	753.2	0.024	0.000	21.3	6	-17.8	18.2	1.54	 .0741	23	1	100.0	1
08/07/24	9:38	-15.8	-15.8	-15.8	79	-18.6	40.9	SSE	0.68	49.6	SSE	-31.8	-15.8	-31.9	752.9	0.024	0.000	21.4	6	-17.8	18.3	1.54	 .0740	23	1	100.0	1
08/07/24	9:39	-15.8	-15.8	-15.8	79	-18.6	42.6	SSE	0.71	47.0	SSE	-32.1	-15.8	-32.1	753.2	0.024	0.000	21.4	6	-17.8	18.3	1.54	 .0741	24	1	100.0	1
08/07/24	9:40	-15.8	-15.8	-15.8	79	-18.6	42.6	SSE	0.71	49.6	SSE	-32.1	-15.8	-32.1	753.1	0.024	0.000	21.4	6	-17.8	18.3	1.54	 .0741	23	1	100.0	1
08/07/24	9:41	-15.8	-15.8	-15.8	79	-18.6	41.7	SSE	0.70	47.8	SSE	-31.9	-15.8	-32.0	753.2	0.024	0.000	21.4	6	-17.8	18.3	1.54	 .0741	24	1	100.0	1
08/07/24	9:42	-15.8	-15.7	-15.8	79	-18.6	43.5	SSE	0.72	50.4	SSE	-32.2	-15.8	-32.2	753.1	0.024	0.000	21.4	6	-17.8	18.3	1.54	 .0741	23	1	100.0	1
08/07/24	9:43	-15.7	-15.7	-15.7	79	-18.5	42.6	SSE	0.71	47.0	N	-31.9	-15.8	-32.0	753.1	0.024	0.000	21.4	6	-17.8	18.3	1.54	 .0741	24	1	100.0	1
08/07/24	9:44	-15.8	-15.7	-15.8	79	-18.6	41.7	SSE	0.70	49.6	SSE	-31.9	-15.8	-32.0	753.2	0.024	0.000	21.4	6	-17.8	18.3	1.54	 .0741	23	1	100.0	1
08/07/24	9:45	-15.8	-15.8	-15.8	79	-18.6	42.6	SSE	0.71	51.3	SSE	-32.1	-15.8	-32.1	753.2	0.024	0.000	21.4	6	-17.8	18.3	1.54	 .0741	23	1	100.0	1
08/07/24	9:46	-15.8	-15.8	-15.8	79	-18.6	41.7	SSE	0.70	46.1	SSE	-31.9	-15.8	-32.0	753.3	0.024	0.000	21.4	6	-17.7	18.4	1.54	 .0741	24	1	100.0	1
08/07/24	9:47	-15.7	-15.7	-15.8	79	-18.5	44.3	SSE	0.74	53.0	SSE	-32.1	-15.7	-32.2	753.3	0.024	0.000	21.4	6	-17.7	18.4	1.54	 .0741	23	1	100.0	1
08/07/24	9:48	-15.7	-15.7	-15.7	79	-18.5	43.5	SSE	0.72	48.7	SSE	-32.0	-15.7	-32.1	753.3	0.024	0.000	21.4	6	-17.7	18.4	1.54	 .0741	24	1	100.0	1
08/07/24	9:49	-15.6	-15.6	-15.7	79	-18.4	43.5	SSE	0.72	53.9	SSE	-31.9	-15.7	-32.0	753.3	0.024	0.000	21.4	6	-17.7	18.4	1.54	 .0741	23	1	100.0	1
08/07/24	9:50	-15.4	-15.4	-15.6	79	-18.3	43.5	SSE	0.72	53.9	SSE	-31.7	-15.5	-31.7	753.2	0.023	0.000	21.4	6	-17.7	18.4	1.54	 .0741	23	1	100.0	1
08/07/24	9:51	-15.6	-15.5	-15.6	79	-18.4	39.1	SSE	0.65	45.2	SSE	-31.3	-15.6	-31.3	753.5	0.024	0.000	21.4	6	-17.7	18.4	1.54	 .0741	24	1	100.0	1
08/07/24	9:52	-15.7	-15.6	-15.7	79	-18.5	42.6	SSE	0.71	49.6	SSE	-31.9	-15.7	-31.9	753.4	0.024	0.000	21.4	6	-17.7	18.4	1.54	 .0741	23	1	100.0	1
08/07/24	9:53	-15.7	-15.7	-15.7	79	-18.5	39.1	SSE	0.65	43.5	SSE	-31.5	-15.8	-31.6	753.4	0.024	0.000	21.4	6	-17.7	18.4	1.54	 .0741	24	1	100.0	1
08/07/24	9:54	-15.8	-15.7	-15.8	79	-18.6	40.9	SSE	0.68	46.1	SSE	-31.8	-15.8	-31.9	753.5	0.024	0.000	21.4	6	-17.7	18.4	1.54	 .0741	23	1	100.0	1
08/07/24	9:55	-15.8	-15.8	-15.8	79	-18.6	40.0	SSE	0.67	49.6	SSE	-31.7	-15.8	-31.7	753.6	0.024	0.000	21.4	6	-17.8	18.3	1.54	 .0741	23	1	100.0	1
08/07/24	9:56	-15.8	-15.8	-15.8	79	-18.6	38.3	SSE	0.64	45.2	SSE	-31.5	-15.9	-31.6	753.7	0.024	0.000	21.4	6	-17.8	18.3	1.54	 .0741	24	1	100.0	1
08/07/24	9:57	-15.9	-15.8	-15.9	79	-18.7	40.0	SSE	0.67	49.6	SSE	-31.9	-16.0	-32.0	753.6	0.024	0.000	21.4	6	-17.8	18.3	1.54	 .0741	23	1	100.0	1
08/07/24	9:58	-15.9	-15.9	-15.9	79	-18.7	40.9	SSE	0.68	47.0	SSE	-32.1	-16.0	-32.1	753.6	0.024	0.000	21.4	6	-17.8	18.3	1.54	 .0741	24	1	100.0	1
08/07/24	9:59	-16.0	-16.0	-16.0	79	-18.8	40.0	SSE	0.67	47.8	SSE	-32.0	-16.1	-32.1	753.6	0.024	0.000	21.4	6	-17.8	18.3	1.54	 .0741	23	1	100.0	1
08/07/24	10:00	-16.0	-16.0	-16.0	79	-18.8	40.0	SSE	0.67	43.5	SSE	-32.0	-16.1	-32.1	753.5	0.024	0.000	21.4	6	-17.8	18.3	1.54	 .0741	24	1	100.0	1
08/07/24	10:01	-16.1	-16.0	-16.1	79	-18.9	39.1	SSE	0.65	42.6	SSE	-31.9	-16.1	-32.0	753.5	0.024	0.000	21.4	6	-17.8	18.3	1.54	 .0741	23	1	100.0	1
08/07/24	10:02	-16.0	-16.0	-16.1	79	-18.8	38.3	SSE	0.64	41.7	SSE	-31.8	-16.1	-31.8	753.6	0.024	0.000	21.3	6	-17.8	18.2	1.54	 .0741	23	1	100.0	1
08/07/24	10:03	-16.0	-16.0	-16.0	79	-18.8	36.5	SSE	0.61	40.9	SSE	-31.5	-16.1	-31.6	753.7	0.024	0.000	21.3	6	-17.8	18.2	1.54	 .0741	24	1	100.0	1
08/07/24	10:04	-16.0	-16.0	-16.1	79	-18.8	35.7	SSE	0.59	41.7	SSE	-31.4	-16.1	-31.4	753.7	0.024	0.000	21.3	6	-17.8	18.2	1.54	 .0741	23	1	100.0	1
08/07/24	10:05	-16.1	-16.0	-16.1	79	-18.9	36.5	SSE	0.61	40.9	SSE	-31.6	-16.1	-31.6	753.7	0.024	0.000	21.3	6	-17.8	18.2	1.54	 .0741	24	1	100.0	1
08/07/24	10:06	-16.0	-16.0	-16.0	79	-18.8	35.7	SSE	0.59	41.7	SSE	-31.4	-16.1	-31.4	753.9	0.024	0.000	21.3	6	-17.8	18.2	1.54	 .0742	23	1	100.0	1
08/07/24	10:07	-16.0	-16.0	-16.0	79	-18.8	36.5	SSE	0.61	40.9	SSE	-31.5	-16.1	-31.6	753.7	0.024	0.000	21.3	6	-17.8	18.2	1.54	 .0741	23	1	100.0	1
08/07/24	10:08	-16.0	-16.0	-16.0	79	-18.8	37.4	SSE	0.62	43.5	SSE	-31.6	-16.1	-31.7	753.7	0.024	0.000	21.3	6	-17.8	18.1	1.54	 .0742	24	1	100.0	1
08/07/24	10:09	-15.9	-15.9	-16.0	79	-18.7	40.9	SSE	0.68	47.0	SSE	-32.1	-16.0	-32.1	753.8	0.024	0.000	21.3	6	-17.8	18.1	1.54	 .0742	23	1	100.0	1
08/07/24	10:10	-15.9	-15.9	-15.9	79	-18.7	39.1	SSE	0.65	44.3	SSE	-31.8	-16.0	-31.8	753.8	0.024	0.000	21.3	6	-17.8	18.1	1.54	 .0742	24	1	100.0	1
08/07/24	10:11	-15.9	-15.9	-15.9	79	-18.7	37.4	SSE	0.62	42.6	SSE	-31.5	-15.9	-31.6	753.7	0.024	0.000	21.3	6	-17.8	18.1	1.54	 .0741	23	1	100.0	1
08/07/24	10:12	-15.9	-15.9	-15.9	79	-18.7	34.8	SSE	0.58	39.1	SSE	-31.1	-15.9	-31.1	753.8	0.024	0.000	21.3	6	-17.8	18.1	1.54	 .0742	24	1	100.0	1
08/07/24	10:13	-15.9	-15.9	-15.9	79	-18.7	37.4	SSE	0.62	40.9	SSE	-31.5	-15.9	-31.6	753.8	0.024	0.000	21.3	6	-17.8	18.1	1.54	 .0742	23	1	100.0	1
08/07/24	10:14	-15.8	-15.8	-15.9	79	-18.6	37.4	SSE	0.62	41.7	SSE	-31.4	-15.9	-31.4	753.9	0.024	0.000	21.3	6	-17.8	18.1	1.54	 .0742	23	1	100.0	1
08/07/24	10:15	-15.8	-15.8	-15.8	79	-18.6	35.7	SSE	0.59	41.7	SSE	-31.1	-15.9	-31.2	753.9	0.024	0.000	21.3	6	-17.8	18.1	1.54	 .0742	24	1	100.0	1
08/07/24	10:16	-15.8	-15.8	-15.8	79	-18.6	37.4	SSE	0.62	43.5	SSE	-31.3	-15.8	-31.4	753.9	0.024	0.000	21.3	6	-17.8	18.1	1.54	 .0742	23	1	100.0	1
08/07/24	10:17	-15.8	-15.8	-15.8	79	-18.6	36.5	SSE	0.61	42.6	SSE	-31.2	-15.8	-31.2	753.9	0.024	0.000	21.3	6	-17.8	18.1	1.54	 .0742	24	1	100.0	1
08/07/24	10:18	-15.8	-15.8	-15.8	79	-18.6	37.4	SSE	0.62	40.9	SSE	-31.3	-15.8	-31.4	753.9	0.024	0.000	21.3	6	-17.8	18.1	1.54	 .0742	23	1	100.0	1
08/07/24	10:19	-15.7	-15.7	-15.8	79	-18.5	37.4	SE	0.62	41.7	SSE	-31.2	-15.8	-31.3	753.8	0.024	0.000	21.3	6	-17.8	18.1	1.54	 .0742	23	1	100.0	1
08/07/24	10:20	-15.7	-15.7	-15.7	79	-18.5	37.4	SSE	0.62	40.9	SSE	-31.2	-15.8	-31.3	753.8	0.024	0.000	21.3	6	-17.8	18.1	1.54	 .0742	24	1	100.0	1
08/07/24	10:21	-15.8	-15.7	-15.8	79	-18.6	35.7	SSE	0.59	40.0	SSE	-31.1	-15.8	-31.1	753.9	0.024	0.000	21.3	6	-17.8	18.1	1.54	 .0742	23	1	100.0	1
08/07/24	10:22	-15.8	-15.7	-15.8	79	-18.6	35.7	SSE	0.59	39.1	SSE	-31.1	-15.8	-31.1	753.8	0.024	0.000	21.3	6	-17.8	18.1	1.54	 .0742	24	1	100.0	1
08/07/24	10:23	-15.7	-15.7	-15.8	79	-18.5	36.5	SSE	0.61	40.0	SSE	-31.1	-15.8	-31.2	753.9	0.024	0.000	21.3	6	-17.8	18.1	1.54	 .0742	23	1	100.0	1
08/07/24	10:24	-15.7	-15.7	-15.7	79	-18.5	36.5	SSE	0.61	40.9	SSE	-31.1	-15.7	-31.1	753.9	0.024	0.000	21.3	6	-17.8	18.1	1.54	 .0742	23	1	100.0	1
08/07/24	10:25	-15.6	-15.6	-15.7	79	-18.4	35.7	SSE	0.59	40.9	SSE	-30.7	-15.6	-30.8	753.9	0.024	0.000	21.3	6	-17.8	18.1	1.54	 .0742	24	1	100.0	1
08/07/24	10:26	-15.6	-15.6	-15.6	79	-18.4	33.0	SSE	0.55	35.7	SSE	-30.3	-15.6	-30.4	754.0	0.024	0.000	21.3	6	-17.8	18.2	1.54	 .0742	23	1	100.0	1
08/07/24	10:27	-15.7	-15.6	-15.7	79	-18.5	33.0	SE	0.55	36.5	SSE	-30.5	-15.7	-30.6	754.0	0.024	0.000	21.3	6	-17.8	18.2	1.54	 .0742	24	1	100.0	1
08/07/24	10:28	-15.8	-15.7	-15.8	79	-18.6	29.6	SE	0.49	33.0	SSE	-30.1	-15.8	-30.1	754.0	0.024	0.000	21.3	6	-17.8	18.2	1.54	 .0742	23	1	100.0	1
08/07/24	10:29	-15.8	-15.8	-15.8	79	-18.6	32.2	SE	0.54	34.8	SE	-30.6	-15.9	-30.6	754.2	0.024	0.000	21.3	6	-17.8	18.2	1.54	 .0742	24	1	100.0	1
08/07/24	10:30	-15.8	-15.8	-15.8	79	-18.6	31.3	SE	0.52	34.8	SE	-30.4	-15.9	-30.5	754.1	0.024	0.000	21.3	6	-17.8	18.2	1.54	 .0742	23	1	100.0	1
08/07/24	10:31	-15.9	-15.8	-15.9	79	-18.7	31.3	SE	0.52	34.8	SE	-30.6	-16.0	-30.6	754.2	0.024	0.000	21.3	6	-17.8	18.2	1.54	 .0742	23	1	100.0	1
08/07/24	10:32	-15.9	-15.9	-15.9	79	-18.7	32.2	SE	0.54	35.7	SE	-30.7	-16.0	-30.8	754.2	0.024	0.000	21.3	6	-17.8	18.2	1.54	 .0742	24	1	100.0	1
08/07/24	10:33	-16.0	-15.9	-16.0	79	-18.8	31.3	SE	0.52	33.9	SE	-30.7	-16.1	-30.7	754.3	0.024	0.000	21.3	6	-17.8	18.2	1.54	 .0742	23	1	100.0	1
08/07/24	10:34	-15.9	-15.9	-16.0	79	-18.7	32.2	SE	0.54	35.7	SE	-30.7	-16.0	-30.8	754.2	0.024	0.000	21.4	6	-17.8	18.3	1.54	 .0742	24	1	100.0	1
08/07/24	10:35	-15.9	-15.9	-15.9	79	-18.7	31.3	SE	0.52	33.9	SE	-30.6	-16.0	-30.6	754.2	0.024	0.000	21.4	6	-17.8	18.3	1.54	 .0742	23	1	100.0	1
08/07/24	10:36	-15.9	-15.9	-15.9	79	-18.7	34.8	SE	0.58	36.5	SE	-31.1	-15.9	-31.1	754.2	0.024	0.000	21.4	6	-17.8	18.3	1.54	 .0742	23	1	100.0	1
08/07/24	10:37	-15.9	-15.9	-15.9	79	-18.7	33.9	SE	0.57	37.4	SE	-30.9	-15.9	-31.0	754.2	0.024	0.000	21.4	6	-17.8	18.3	1.54	 .0742	24	1	100.0	1
08/07/24	10:38	-15.9	-15.8	-15.9	79	-18.7	30.4	SE	0.51	33.0	SE	-30.3	-15.9	-30.4	754.3	0.024	0.000	21.4	6	-17.8	18.3	1.54	 .0742	23	1	100.0	1
08/07/24	10:39	-15.9	-15.9	-15.9	79	-18.7	34.8	SE	0.58	40.0	SE	-31.1	-15.9	-31.1	754.3	0.024	0.000	21.4	6	-17.7	18.4	1.54	 .0742	24	1	100.0	1
08/07/24	10:40	-15.8	-15.8	-15.9	79	-18.6	35.7	SE	0.59	39.1	SE	-31.1	-15.9	-31.2	754.1	0.024	0.000	21.4	6	-17.7	18.4	1.54	 .0741	23	1	100.0	1
08/07/24	10:41	-15.8	-15.8	-15.8	79	-18.6	34.8	SE	0.58	39.1	SE	-31.0	-15.9	-31.1	754.2	0.024	0.000	21.4	6	-17.7	18.4	1.54	 .0742	24	1	100.0	1
08/07/24	10:42	-15.8	-15.8	-15.8	79	-18.6	33.9	SE	0.57	37.4	SE	-30.8	-15.9	-30.9	754.3	0.024	0.000	21.4	6	-17.7	18.4	1.54	 .0742	23	1	100.0	1
08/07/24	10:43	-15.8	-15.8	-15.8	79	-18.6	33.9	SE	0.57	38.3	SE	-30.8	-15.9	-30.9	754.2	0.024	0.000	21.4	6	-17.7	18.4	1.54	 .0742	23	1	100.0	1
08/07/24	10:44	-15.8	-15.8	-15.8	79	-18.6	33.0	SE	0.55	40.0	SSE	-30.7	-15.9	-30.8	754.4	0.024	0.000	21.5	6	-17.7	18.5	1.54	 .0742	24	1	100.0	1
08/07/24	10:45	-15.8	-15.8	-15.8	79	-18.6	35.7	SE	0.59	39.1	SE	-31.1	-15.9	-31.2	754.2	0.024	0.000	21.5	6	-17.7	18.5	1.54	 .0741	23	1	100.0	1
08/07/24	10:46	-15.8	-15.8	-15.8	79	-18.6	36.5	SE	0.61	40.0	SE	-31.2	-15.8	-31.2	754.3	0.024	0.000	21.5	6	-17.7	18.5	1.54	 .0742	24	1	100.0	1
08/07/24	10:47	-15.8	-15.8	-15.8	79	-18.6	35.7	SE	0.59	39.1	SSE	-31.1	-15.9	-31.2	754.3	0.024	0.000	21.5	6	-17.7	18.5	1.54	 .0741	23	1	100.0	1
08/07/24	10:48	-15.8	-15.8	-15.8	79	-18.6	36.5	SE	0.61	39.1	SE	-31.3	-15.9	-31.3	754.2	0.024	0.000	21.5	5	-19.8	18.4	1.25	 .0742	23	1	100.0	1
08/07/24	10:49	-15.8	-15.8	-15.8	79	-18.6	36.5	SE	0.61	40.0	SE	-31.3	-15.9	-31.3	754.2	0.024	0.000	21.4	6	-17.7	18.4	1.54	 .0742	24	1	100.0	1
08/07/24	10:50	-15.8	-15.8	-15.8	79	-18.6	37.4	SE	0.62	41.7	SSE	-31.4	-15.9	-31.4	754.3	0.024	0.000	21.4	6	-17.7	18.4	1.54	 .0742	23	1	100.0	1
08/07/24	10:51	-15.8	-15.8	-15.9	79	-18.6	36.5	SE	0.61	40.9	SE	-31.3	-15.9	-31.3	754.3	0.024	0.000	21.4	6	-17.7	18.4	1.54	 .0742	24	1	100.0	1
08/07/24	10:52	-15.8	-15.8	-15.8	79	-18.6	37.4	SE	0.62	40.0	SE	-31.4	-15.9	-31.4	754.3	0.024	0.000	21.4	6	-17.7	18.4	1.54	 .0742	23	1	100.0	1
08/07/24	10:53	-15.8	-15.8	-15.8	79	-18.6	37.4	SE	0.62	40.9	SSE	-31.4	-15.9	-31.4	754.3	0.024	0.000	21.4	6	-17.8	18.3	1.54	 .0742	24	1	100.0	1
08/07/24	10:54	-15.8	-15.8	-15.8	79	-18.6	36.5	SE	0.61	41.7	SE	-31.3	-15.9	-31.3	754.4	0.024	0.000	21.4	6	-17.8	18.3	1.54	 .0742	23	1	100.0	1
08/07/24	10:55	-15.8	-15.8	-15.8	79	-18.6	37.4	SE	0.62	41.7	SSE	-31.4	-15.9	-31.4	754.3	0.024	0.000	21.4	6	-17.8	18.3	1.54	 .0742	23	1	100.0	1
08/07/24	10:56	-15.8	-15.8	-15.8	79	-18.6	36.5	SSE	0.61	42.6	SSE	-31.2	-15.8	-31.2	754.5	0.024	0.000	21.4	6	-17.8	18.3	1.54	 .0742	24	1	100.0	1
08/07/24	10:57	-15.8	-15.8	-15.8	79	-18.6	37.4	SE	0.62	40.9	SE	-31.3	-15.8	-31.4	754.4	0.024	0.000	21.4	6	-17.8	18.3	1.54	 .0742	23	1	100.0	1
08/07/24	10:58	-15.8	-15.8	-15.8	79	-18.6	37.4	SE	0.62	41.7	SE	-31.4	-15.9	-31.4	754.3	0.024	0.000	21.3	6	-17.8	18.2	1.54	 .0742	24	1	100.0	1
08/07/24	10:59	-15.9	-15.8	-15.9	79	-18.7	34.8	SE	0.58	38.3	SE	-31.2	-16.0	-31.2	754.4	0.024	0.000	21.3	6	-17.8	18.2	1.54	 .0742	23	1	100.0	1
08/07/24	11:00	-15.9	-15.9	-15.9	79	-18.7	39.1	SE	0.65	40.9	SE	-31.8	-16.0	-31.8	754.3	0.024	0.000	21.3	6	-17.8	18.2	1.54	 .0742	23	1	100.0	1
08/07/24	11:01	-16.0	-15.9	-16.0	79	-18.8	38.3	SE	0.64	41.7	SE	-31.8	-16.1	-31.8	754.4	0.024	0.000	21.3	6	-17.8	18.1	1.54	 .0742	24	1	100.0	1
08/07/24	11:02	-16.0	-16.0	-16.0	79	-18.8	35.7	SE	0.59	39.1	SE	-31.4	-16.1	-31.4	754.5	0.024	0.000	21.3	6	-17.8	18.1	1.54	 .0742	23	1	100.0	1
08/07/24	11:03	-16.0	-16.0	-16.0	79	-18.8	35.7	SE	0.59	39.1	SE	-31.4	-16.1	-31.4	754.5	0.024	0.000	21.3	6	-17.8	18.1	1.54	 .0742	24	1	100.0	1
08/07/24	11:04	-15.9	-15.9	-16.0	79	-18.7	37.4	SE	0.62	40.9	SE	-31.6	-16.0	-31.6	754.4	0.024	0.000	21.3	6	-17.8	18.1	1.54	 .0742	23	1	100.0	1
08/07/24	11:05	-15.9	-15.9	-15.9	79	-18.7	33.9	SE	0.57	38.3	SE	-30.9	-15.9	-31.0	754.6	0.024	0.000	21.2	6	-17.9	18.0	1.55	 .0743	23	1	100.0	1
08/07/24	11:06	-15.6	-15.6	-15.9	78	-18.5	40.0	SSE	0.67	51.3	SSE	-31.4	-15.6	-31.4	754.4	0.024	0.000	21.2	6	-17.9	18.0	1.55	 .0742	24	1	100.0	1
08/07/24	11:07	-15.4	-15.4	-15.5	79	-18.3	36.5	SE	0.61	40.0	SE	-30.7	-15.5	-30.8	754.6	0.023	0.000	21.2	6	-17.9	18.0	1.55	 .0742	23	1	100.0	1
08/07/24	11:08	-15.4	-15.4	-15.4	79	-18.3	36.5	SE	0.61	41.7	SE	-30.7	-15.5	-30.8	754.4	0.023	0.000	21.2	6	-17.9	18.0	1.55	 .0742	24	1	100.0	1
08/07/24	11:09	-15.5	-15.4	-15.5	79	-18.3	35.7	ESE	0.59	40.0	ESE	-30.7	-15.6	-30.7	754.6	0.023	0.000	21.2	6	-17.9	18.0	1.55	 .0742	23	1	100.0	1
08/07/24	11:10	-15.6	-15.5	-15.6	79	-18.4	30.4	ESE	0.51	36.5	ESE	-29.9	-15.7	-30.0	754.7	0.024	0.000	21.2	6	-17.9	18.0	1.55	 .0743	24	1	100.0	1
08/07/24	11:11	-15.7	-15.6	-15.7	79	-18.5	29.6	ESE	0.49	34.8	SE	-29.9	-15.7	-29.9	754.6	0.024	0.000	21.2	6	-17.9	18.0	1.55	 .0743	23	1	100.0	1
08/07/24	11:12	-15.7	-15.7	-15.7	79	-18.5	30.4	ESE	0.51	38.3	ESE	-30.1	-15.8	-30.2	754.9	0.024	0.000	21.2	6	-17.9	17.9	1.55	 .0743	23	1	100.0	1
08/07/24	11:13	-15.8	-15.8	-15.8	79	-18.6	37.4	ESE	0.62	44.3	ESE	-31.4	-15.9	-31.4	754.4	0.024	0.000	21.2	6	-17.9	18.0	1.55	 .0742	24	1	100.0	1
08/07/24	11:14	-15.9	-15.8	-15.9	79	-18.7	33.9	E	0.57	38.3	E	-30.9	-15.9	-31.0	754.6	0.024	0.000	21.2	6	-17.9	18.0	1.55	 .0743	23	1	100.0	1
08/07/24	11:15	-15.8	-15.8	-15.9	79	-18.6	26.1	ESE	0.43	33.0	ESE	-29.4	-15.8	-29.4	754.6	0.024	0.000	21.2	6	-17.9	18.0	1.55	 .0743	24	1	100.0	1
08/07/24	11:16	-15.8	-15.7	-15.8	79	-18.6	33.9	ESE	0.57	39.1	ESE	-30.8	-15.9	-30.9	754.8	0.024	0.000	21.2	6	-17.9	18.0	1.55	 .0743	23	1	100.0	1
08/07/24	11:17	-15.9	-15.8	-15.9	79	-18.7	32.2	ESE	0.54	39.1	ESE	-30.7	-16.0	-30.8	754.9	0.024	0.000	21.2	6	-17.9	18.0	1.55	 .0743	23	1	100.0	1
08/07/24	11:18	-16.1	-16.0	-16.1	79	-18.9	30.4	ESE	0.51	39.1	ESE	-30.6	-16.1	-30.6	754.8	0.024	0.000	21.2	6	-17.9	18.0	1.55	 .0743	24	1	100.0	1
08/07/24	11:19	-16.1	-16.1	-16.1	79	-18.9	28.7	ESE	0.48	33.9	ESE	-30.3	-16.1	-30.3	754.8	0.024	0.000	21.2	6	-17.9	18.0	1.55	 .0743	23	1	100.0	1
08/07/24	11:20	-15.9	-15.9	-16.1	79	-18.7	26.1	ESE	0.43	33.0	ESE	-29.6	-16.0	-29.7	754.7	0.024	0.000	21.3	6	-17.8	18.1	1.54	 .0742	24	1	100.0	1
08/07/24	11:21	-15.8	-15.8	-15.9	79	-18.6	31.3	ESE	0.52	39.1	E	-30.4	-15.9	-30.5	754.7	0.024	0.000	21.3	6	-17.8	18.1	1.54	 .0743	23	1	100.0	1
08/07/24	11:22	-15.9	-15.8	-15.9	79	-18.7	30.4	E	0.51	39.1	E	-30.4	-16.0	-30.5	754.8	0.024	0.000	21.3	6	-17.8	18.1	1.54	 .0743	24	1	100.0	1
08/07/24	11:23	-16.0	-15.9	-16.0	79	-18.8	27.8	E	0.46	33.0	ESE	-30.0	-16.1	-30.1	754.8	0.024	0.000	21.3	6	-17.8	18.1	1.54	 .0743	23	1	100.0	1
08/07/24	11:24	-16.0	-16.0	-16.0	79	-18.8	26.1	E	0.43	30.4	ESE	-29.7	-16.1	-29.7	754.5	0.024	0.000	21.3	6	-17.8	18.1	1.54	 .0742	23	1	100.0	1
08/07/24	11:25	-16.1	-16.0	-16.1	79	-18.9	31.3	E	0.52	48.7	ENE	-30.8	-16.2	-30.8	754.6	0.024	0.000	21.3	6	-17.8	18.1	1.54	 .0742	24	1	100.0	1
08/07/24	11:26	-16.2	-16.2	-16.2	79	-19.0	30.4	E	0.51	33.9	E	-30.8	-16.3	-30.8	754.7	0.024	0.000	21.3	6	-17.8	18.2	1.54	 .0742	23	1	100.0	1
08/07/24	11:27	-16.3	-16.3	-16.3	79	-19.1	33.9	E	0.57	46.1	E	-31.6	-16.4	-31.6	754.6	0.024	0.000	21.3	6	-17.8	18.2	1.54	 .0742	24	1	100.0	1
08/07/24	11:28	-16.4	-16.3	-16.4	79	-19.2	32.2	E	0.54	34.8	E	-31.3	-16.4	-31.4	754.6	0.024	0.000	21.3	6	-17.8	18.2	1.54	 .0742	23	1	100.0	1
08/07/24	11:29	-16.4	-16.4	-16.4	79	-19.2	31.3	E	0.52	39.1	E	-31.3	-16.5	-31.3	754.6	0.024	0.000	21.3	6	-17.8	18.2	1.54	 .0742	23	1	100.0	1
08/07/24	11:30	-16.4	-16.4	-16.4	79	-19.2	31.3	ESE	0.52	37.4	ESE	-31.3	-16.5	-31.3	754.6	0.024	0.000	21.3	6	-17.8	18.2	1.54	 .0742	24	1	100.0	1
08/07/24	11:31	-16.4	-16.4	-16.4	79	-19.2	27.8	ESE	0.46	30.4	ESE	-30.6	-16.5	-30.7	754.8	0.024	0.000	21.3	6	-17.8	18.2	1.54	 .0742	23	1	100.0	1
08/07/24	11:32	-16.4	-16.4	-16.4	79	-19.2	26.1	ESE	0.43	30.4	SE	-30.2	-16.4	-30.3	754.9	0.024	0.000	21.3	6	-17.8	18.2	1.54	 .0743	24	1	100.0	1
08/07/24	11:33	-16.2	-16.2	-16.4	79	-19.0	25.2	SE	0.42	28.7	SE	-29.7	-16.2	-29.8	754.9	0.024	0.000	21.4	6	-17.8	18.3	1.54	 .0742	23	1	100.0	1
08/07/24	11:34	-15.9	-15.9	-16.1	79	-18.7	27.0	SE	0.45	31.3	SE	-29.7	-15.9	-29.8	754.9	0.024	0.000	21.4	6	-17.8	18.3	1.54	 .0742	24	1	100.0	1
08/07/24	11:35	-15.7	-15.7	-15.8	79	-18.5	27.0	SE	0.45	30.4	ESE	-29.4	-15.8	-29.5	754.8	0.024	0.000	21.4	6	-17.8	18.3	1.54	 .0742	23	1	100.0	1
08/07/24	11:36	-15.7	-15.7	-15.7	79	-18.5	24.3	SE	0.41	28.7	SE	-28.9	-15.8	-29.0	754.8	0.024	0.000	21.4	6	-17.8	18.3	1.54	 .0742	23	1	100.0	1
08/07/24	11:37	-15.7	-15.7	-15.7	79	-18.5	27.0	SE	0.45	30.4	SE	-29.4	-15.8	-29.5	754.9	0.024	0.000	21.4	6	-17.8	18.3	1.54	 .0742	24	1	100.0	1
08/07/24	11:38	-15.7	-15.7	-15.7	79	-18.5	24.3	SE	0.41	27.8	SE	-28.9	-15.8	-29.0	754.9	0.024	0.000	21.4	6	-17.8	18.3	1.54	 .0742	23	1	100.0	1
08/07/24	11:39	-15.7	-15.7	-15.7	79	-18.5	25.2	SE	0.42	28.7	SE	-29.1	-15.7	-29.1	754.9	0.024	0.000	21.4	6	-17.8	18.3	1.54	 .0742	24	1	100.0	1
08/07/24	11:40	-15.7	-15.7	-15.7	79	-18.5	27.0	SE	0.45	30.4	SSE	-29.4	-15.8	-29.5	754.9	0.024	0.000	21.4	6	-17.7	18.4	1.54	 .0742	23	1	100.0	1
08/07/24	11:41	-15.6	-15.6	-15.7	79	-18.4	25.2	SE	0.42	29.6	SE	-29.0	-15.7	-29.1	755.0	0.024	0.000	21.4	6	-17.7	18.4	1.54	 .0742	23	1	100.0	1
08/07/24	11:42	-15.7	-15.6	-15.7	79	-18.5	26.1	SE	0.43	29.6	SE	-29.2	-15.7	-29.3	754.9	0.024	0.000	21.4	6	-17.8	18.3	1.54	 .0742	24	1	100.0	1
08/07/24	11:43	-15.7	-15.7	-15.7	79	-18.5	29.6	SE	0.49	33.9	SE	-29.9	-15.7	-29.9	754.8	0.024	0.000	21.4	6	-17.7	18.4	1.54	 .0742	23	1	100.0	1
08/07/24	11:44	-15.7	-15.7	-15.7	79	-18.5	27.8	SE	0.46	33.0	SE	-29.7	-15.8	-29.7	754.7	0.024	0.000	21.4	6	-17.8	18.3	1.54	 .0742	24	1	100.0	1
08/07/24	11:45	-15.7	-15.7	-15.7	79	-18.5	29.6	SE	0.49	36.5	SE	-29.9	-15.8	-30.0	754.8	0.024	0.000	21.4	6	-17.8	18.3	1.54	 .0742	23	1	100.0	1
08/07/24	11:46	-15.7	-15.7	-15.7	79	-18.5	33.0	SE	0.55	35.7	SE	-30.6	-15.8	-30.6	754.7	0.024	0.000	21.4	6	-17.8	18.3	1.54	 .0742	23	1	100.0	1
08/07/24	11:47	-15.7	-15.7	-15.7	79	-18.5	33.9	SE	0.57	36.5	SE	-30.7	-15.8	-30.8	754.8	0.024	0.000	21.4	6	-17.8	18.3	1.54	 .0742	24	1	100.0	1
08/07/24	11:48	-15.7	-15.7	-15.7	79	-18.5	33.0	SE	0.55	36.5	SE	-30.6	-15.8	-30.6	754.8	0.024	0.000	21.4	6	-17.8	18.3	1.54	 .0742	23	1	100.0	1
08/07/24	11:49	-15.7	-15.7	-15.7	79	-18.5	37.4	SE	0.62	40.0	SE	-31.2	-15.7	-31.2	754.6	0.024	0.000	21.4	6	-17.8	18.3	1.54	 .0742	24	1	100.0	1
08/07/24	11:50	-15.7	-15.7	-15.7	79	-18.5	36.5	SE	0.61	40.0	ESE	-31.1	-15.7	-31.1	754.5	0.024	0.000	21.3	6	-17.8	18.2	1.54	 .0742	23	1	100.0	1
08/07/24	11:51	-15.6	-15.6	-15.7	79	-18.4	34.8	SE	0.58	40.9	ESE	-30.7	-15.7	-30.7	754.6	0.024	0.000	21.3	6	-17.8	18.2	1.54	 .0742	24	1	100.0	1
08/07/24	11:52	-15.7	-15.7	-15.7	79	-18.5	37.4	ESE	0.62	41.7	ESE	-31.2	-15.7	-31.2	754.6	0.024	0.000	21.3	6	-17.8	18.2	1.54	 .0742	23	1	100.0	1
08/07/24	11:53	-15.7	-15.7	-15.7	79	-18.5	36.5	ESE	0.61	41.7	ESE	-31.1	-15.7	-31.1	754.6	0.024	0.000	21.3	6	-17.8	18.2	1.54	 .0742	23	1	100.0	1
08/07/24	11:54	-15.7	-15.7	-15.7	79	-18.5	36.5	SE	0.61	40.0	SE	-31.1	-15.8	-31.2	754.6	0.024	0.000	21.3	6	-17.8	18.1	1.54	 .0742	24	1	100.0	1
08/07/24	11:55	-15.8	-15.7	-15.8	79	-18.6	38.3	ESE	0.64	44.3	SE	-31.4	-15.8	-31.5	754.6	0.024	0.000	21.3	6	-17.8	18.1	1.54	 .0742	23	1	100.0	1
08/07/24	11:56	-15.7	-15.7	-15.7	79	-18.5	40.0	SE	0.67	46.1	SE	-31.6	-15.7	-31.6	754.5	0.024	0.000	21.3	6	-17.8	18.1	1.54	 .0742	24	1	100.0	1
08/07/24	11:57	-15.7	-15.7	-15.7	79	-18.5	36.5	SE	0.61	43.5	SE	-31.1	-15.7	-31.1	754.3	0.024	0.000	21.3	6	-17.8	18.1	1.54	 .0742	23	1	100.0	1
08/07/24	11:58	-15.7	-15.7	-15.7	79	-18.5	38.3	SE	0.64	41.7	ESE	-31.3	-15.7	-31.3	754.5	0.024	0.000	21.3	6	-17.8	18.1	1.54	 .0742	23	1	100.0	1
08/07/24	11:59	-15.7	-15.7	-15.7	79	-18.5	38.3	SE	0.64	43.5	ESE	-31.3	-15.7	-31.3	754.5	0.024	0.000	21.3	6	-17.8	18.1	1.54	 .0742	24	1	100.0	1
08/07/24	12:00	-15.7	-15.7	-15.7	79	-18.5	36.5	SE	0.61	42.6	SE	-31.1	-15.8	-31.2	754.7	0.024	0.000	21.3	6	-17.8	18.1	1.54	 .0742	23	1	100.0	1
08/07/24	12:01	-15.7	-15.7	-15.7	79	-18.5	38.3	SE	0.64	44.3	SE	-31.3	-15.7	-31.3	754.6	0.024	0.000	21.2	6	-17.9	18.0	1.55	 .0742	24	1	100.0	1
08/07/24	12:02	-15.6	-15.6	-15.7	79	-18.4	36.5	SE	0.61	39.1	SE	-30.9	-15.7	-31.0	754.6	0.024	0.000	21.2	6	-17.9	18.0	1.55	 .0743	23	1	100.0	1
08/07/24	12:03	-15.6	-15.6	-15.6	79	-18.4	38.3	SE	0.64	41.7	SE	-31.1	-15.6	-31.2	754.6	0.024	0.000	21.2	6	-17.9	18.0	1.55	 .0743	24	1	100.0	1
08/07/24	12:04	-15.6	-15.6	-15.6	79	-18.4	38.3	SE	0.64	44.3	SE	-31.2	-15.7	-31.3	754.5	0.024	0.000	21.2	6	-17.9	18.0	1.55	 .0742	23	1	100.0	1
08/07/24	12:05	-15.7	-15.6	-15.7	79	-18.5	37.4	SE	0.62	40.9	SE	-31.2	-15.7	-31.2	754.6	0.024	0.000	21.2	6	-17.9	18.0	1.55	 .0743	23	1	100.0	1
08/07/24	12:06	-15.7	-15.7	-15.7	79	-18.5	37.4	SE	0.62	40.9	SE	-31.2	-15.7	-31.2	754.6	0.024	0.000	21.2	6	-17.9	18.0	1.55	 .0743	24	1	100.0	1
08/07/24	12:07	-15.7	-15.7	-15.7	79	-18.5	35.7	SE	0.59	40.0	SE	-31.0	-15.8	-31.1	754.7	0.024	0.000	21.3	6	-17.8	18.1	1.54	 .0742	23	1	100.0	1
08/07/24	12:08	-15.7	-15.7	-15.7	79	-18.5	37.4	SE	0.62	40.0	SE	-31.2	-15.7	-31.2	754.6	0.024	0.000	21.3	6	-17.8	18.1	1.54	 .0742	24	1	100.0	1
08/07/24	12:09	-15.7	-15.7	-15.7	79	-18.5	36.5	SE	0.61	39.1	SE	-31.1	-15.7	-31.1	754.5	0.024	0.000	21.3	6	-17.8	18.1	1.54	 .0742	23	1	100.0	1
08/07/24	12:10	-15.6	-15.6	-15.7	79	-18.4	40.0	SE	0.67	42.6	SE	-31.4	-15.7	-31.5	754.5	0.024	0.000	21.3	6	-17.8	18.1	1.54	 .0742	23	1	100.0	1
08/07/24	12:11	-15.6	-15.6	-15.6	79	-18.4	39.1	SE	0.65	41.7	SE	-31.3	-15.6	-31.3	754.6	0.024	0.000	21.3	6	-17.8	18.1	1.54	 .0742	24	1	100.0	1
08/07/24	12:12	-15.6	-15.6	-15.6	79	-18.4	38.3	SE	0.64	40.9	ESE	-31.1	-15.6	-31.2	754.7	0.024	0.000	21.3	6	-17.8	18.1	1.54	 .0742	23	1	100.0	1
08/07/24	12:13	-15.5	-15.5	-15.6	79	-18.3	40.0	SE	0.67	44.3	SE	-31.3	-15.6	-31.3	754.6	0.023	0.000	21.3	6	-17.8	18.1	1.54	 .0742	24	1	100.0	1
08/07/24	12:14	-15.4	-15.4	-15.4	79	-18.3	39.1	ESE	0.65	41.7	ESE	-31.1	-15.5	-31.2	754.6	0.023	0.000	21.3	6	-17.8	18.1	1.54	 .0742	23	1	100.0	1
08/07/24	12:15	-15.5	-15.4	-15.5	79	-18.3	39.1	ESE	0.65	43.5	ESE	-31.2	-15.6	-31.2	754.4	0.023	0.000	21.3	6	-17.8	18.1	1.54	 .0742	24	1	100.0	1
08/07/24	12:16	-15.6	-15.5	-15.6	79	-18.4	39.1	ESE	0.65	41.7	ESE	-31.3	-15.7	-31.4	754.6	0.024	0.000	21.3	6	-17.8	18.2	1.54	 .0742	23	1	100.0	1
08/07/24	12:17	-15.7	-15.6	-15.7	79	-18.5	38.3	SE	0.64	41.7	SE	-31.3	-15.7	-31.3	754.8	0.024	0.000	21.3	6	-17.8	18.2	1.54	 .0742	23	1	100.0	1
08/07/24	12:18	-15.6	-15.6	-15.7	79	-18.4	39.1	ESE	0.65	43.5	SE	-31.3	-15.7	-31.4	754.7	0.024	0.000	21.3	6	-17.8	18.2	1.54	 .0742	24	1	100.0	1
08/07/24	12:19	-15.6	-15.6	-15.7	79	-18.4	38.3	ESE	0.64	40.9	ESE	-31.2	-15.7	-31.3	754.6	0.024	0.000	21.3	6	-17.8	18.2	1.54	 .0742	23	1	100.0	1
08/07/24	12:20	-15.7	-15.6	-15.7	79	-18.5	38.3	ESE	0.64	42.6	ESE	-31.3	-15.7	-31.3	754.5	0.024	0.000	21.3	6	-17.8	18.2	1.54	 .0742	24	1	100.0	1
08/07/24	12:21	-15.7	-15.7	-15.7	79	-18.5	40.9	ESE	0.68	42.6	ESE	-31.7	-15.8	-31.8	754.6	0.024	0.000	21.3	6	-17.8	18.2	1.54	 .0742	23	1	100.0	1
08/07/24	12:22	-15.7	-15.7	-15.7	79	-18.5	38.3	ESE	0.64	42.6	ESE	-31.4	-15.8	-31.4	754.6	0.024	0.000	21.3	6	-17.8	18.2	1.54	 .0742	23	1	100.0	1
08/07/24	12:23	-15.8	-15.8	-15.8	79	-18.6	38.3	ESE	0.64	40.9	ESE	-31.4	-15.8	-31.5	754.7	0.024	0.000	21.4	6	-17.8	18.3	1.54	 .0742	24	1	100.0	1
08/07/24	12:24	-15.8	-15.8	-15.8	79	-18.6	38.3	ESE	0.64	40.9	SE	-31.4	-15.8	-31.5	754.7	0.024	0.000	21.4	6	-17.8	18.3	1.54	 .0742	23	1	100.0	1
08/07/24	12:25	-15.7	-15.7	-15.7	79	-18.5	38.3	ESE	0.64	41.7	SE	-31.4	-15.8	-31.4	754.8	0.024	0.000	21.4	6	-17.8	18.3	1.54	 .0742	24	1	100.0	1
08/07/24	12:26	-15.7	-15.7	-15.7	79	-18.5	35.7	ESE	0.59	41.7	SE	-30.9	-15.7	-30.9	755.0	0.024	0.000	21.4	6	-17.8	18.3	1.54	 .0742	23	1	100.0	1
08/07/24	12:27	-15.7	-15.7	-15.7	79	-18.5	35.7	ESE	0.59	38.3	ESE	-31.0	-15.8	-31.1	755.0	0.024	0.000	21.4	6	-17.8	18.3	1.54	 .0743	23	1	100.0	1
08/07/24	12:28	-15.7	-15.7	-15.7	79	-18.5	37.4	ESE	0.62	40.0	ESE	-31.2	-15.8	-31.3	754.9	0.024	0.000	21.4	6	-17.8	18.3	1.54	 .0742	24	1	100.0	1
08/07/24	12:29	-15.8	-15.7	-15.8	79	-18.6	37.4	ESE	0.62	39.1	ESE	-31.3	-15.8	-31.4	754.9	0.024	0.000	21.4	6	-17.8	18.3	1.54	 .0742	23	1	100.0	1
08/07/24	12:30	-15.8	-15.8	-15.8	79	-18.6	38.3	ESE	0.64	42.6	ESE	-31.4	-15.8	-31.5	754.8	0.024	0.000	21.4	6	-17.7	18.4	1.54	 .0742	24	1	100.0	1
08/07/24	12:31	-15.8	-15.8	-15.8	79	-18.6	37.4	ESE	0.62	43.5	ESE	-31.3	-15.8	-31.4	754.8	0.024	0.000	21.4	6	-17.8	18.3	1.54	 .0742	23	1	100.0	1
08/07/24	12:32	-15.7	-15.7	-15.7	79	-18.5	38.3	ESE	0.64	43.5	ESE	-31.4	-15.8	-31.4	754.8	0.024	0.000	21.4	6	-17.7	18.4	1.54	 .0742	24	1	100.0	1
08/07/24	12:33	-15.7	-15.7	-15.7	79	-18.5	36.5	ESE	0.61	40.0	ESE	-31.1	-15.8	-31.2	755.1	0.024	0.000	21.4	6	-17.7	18.4	1.54	 .0742	23	1	100.0	1
08/07/24	12:34	-15.7	-15.7	-15.7	79	-18.5	35.7	ESE	0.59	39.1	ESE	-31.0	-15.8	-31.1	755.1	0.024	0.000	21.4	6	-17.7	18.4	1.54	 .0742	23	1	100.0	1
08/07/24	12:35	-15.7	-15.7	-15.7	79	-18.5	35.7	ESE	0.59	39.1	ESE	-30.9	-15.7	-30.9	754.9	0.024	0.000	21.4	6	-17.7	18.4	1.54	 .0742	24	1	100.0	1
08/07/24	12:36	-15.7	-15.7	-15.7	79	-18.5	38.3	ESE	0.64	40.9	ESE	-31.3	-15.7	-31.3	754.9	0.024	0.000	21.5	6	-17.7	18.5	1.54	 .0742	23	1	100.0	1
08/07/24	12:37	-15.6	-15.6	-15.7	79	-18.4	38.3	ESE	0.64	41.7	ESE	-31.2	-15.7	-31.3	754.9	0.024	0.000	21.5	6	-17.7	18.5	1.54	 .0742	24	1	100.0	1
08/07/24	12:38	-15.6	-15.6	-15.6	79	-18.4	40.0	ESE	0.67	46.1	ESE	-31.4	-15.6	-31.4	754.7	0.024	0.000	21.5	6	-17.7	18.5	1.54	 .0742	23	1	100.0	1
08/07/24	12:39	-15.5	-15.5	-15.6	79	-18.3	36.5	ESE	0.61	44.3	ESE	-30.8	-15.6	-30.8	754.9	0.023	0.000	21.5	6	-17.7	18.5	1.54	 .0742	23	1	100.0	1
08/07/24	12:40	-15.4	-15.4	-15.5	79	-18.3	30.4	E	0.51	37.4	ESE	-29.7	-15.5	-29.8	755.0	0.023	0.000	21.5	6	-17.7	18.5	1.54	 .0742	24	1	100.0	1
08/07/24	12:41	-15.3	-15.3	-15.4	79	-18.2	36.5	ESE	0.61	44.3	E	-30.6	-15.4	-30.6	755.0	0.023	0.000	21.5	6	-17.7	18.5	1.54	 .0742	23	1	100.0	1
08/07/24	12:42	-15.3	-15.3	-15.3	79	-18.2	36.5	ESE	0.61	44.3	SE	-30.6	-15.4	-30.6	755.0	0.023	0.000	21.5	6	-17.7	18.5	1.54	 .0742	24	1	100.0	1
08/07/24	12:43	-15.2	-15.2	-15.3	79	-18.0	35.7	E	0.59	40.9	E	-30.3	-15.3	-30.3	755.1	0.023	0.000	21.5	6	-17.7	18.5	1.54	 .0742	23	1	100.0	1
08/07/24	12:44	-15.2	-15.2	-15.2	79	-18.0	24.3	ESE	0.41	31.3	ESE	-28.2	-15.2	-28.2	755.2	0.023	0.000	21.5	6	-17.7	18.5	1.54	 .0742	24	1	100.0	1
08/07/24	12:45	-15.1	-15.1	-15.2	79	-17.9	33.9	ESE	0.57	38.3	ESE	-29.8	-15.1	-29.8	755.3	0.023	0.000	21.5	6	-17.7	18.5	1.54	 .0742	23	1	100.0	1
08/07/24	12:46	-15.1	-15.1	-15.1	79	-17.9	30.4	ESE	0.51	40.0	ESE	-29.3	-15.2	-29.3	755.2	0.023	0.000	21.5	6	-17.7	18.5	1.54	 .0742	23	1	100.0	1
08/07/24	12:47	-15.2	-15.1	-15.2	79	-18.0	32.2	ESE	0.54	41.7	ESE	-29.7	-15.2	-29.7	755.1	0.023	0.000	21.5	6	-17.7	18.5	1.54	 .0742	24	1	100.0	1
08/07/24	12:48	-15.2	-15.2	-15.2	79	-18.0	36.5	ESE	0.61	43.5	ESE	-30.3	-15.2	-30.4	755.2	0.023	0.000	21.5	6	-17.7	18.5	1.54	 .0742	23	1	100.0	1
08/07/24	12:49	-15.1	-15.1	-15.2	79	-17.9	31.3	ESE	0.52	43.5	ESE	-29.3	-15.1	-29.4	754.7	0.023	0.000	21.4	6	-17.7	18.4	1.54	 .0742	24	1	100.0	1
08/07/24	12:50	-15.1	-15.1	-15.1	79	-17.9	27.0	ESE	0.45	43.5	ESE	-28.7	-15.2	-28.7	755.1	0.023	0.000	21.4	6	-17.7	18.4	1.54	 .0742	23	1	100.0	1
08/07/24	12:51	-15.2	-15.2	-15.2	79	-18.0	32.2	ESE	0.54	35.7	ESE	-29.7	-15.2	-29.7	755.4	0.023	0.000	21.4	6	-17.7	18.4	1.54	 .0743	23	1	100.0	1
08/07/24	12:52	-15.3	-15.2	-15.3	79	-18.1	30.4	ESE	0.51	33.9	ESE	-29.5	-15.3	-29.6	755.6	0.023	0.000	21.4	6	-17.8	18.3	1.54	 .0743	24	1	100.0	1
08/07/24	12:53	-15.2	-15.2	-15.3	79	-18.0	29.6	ESE	0.49	38.3	ESE	-29.3	-15.3	-29.3	755.7	0.023	0.000	21.4	6	-17.7	18.4	1.54	 .0743	23	1	100.0	1
08/07/24	12:54	-15.2	-15.2	-15.2	79	-18.0	28.7	ESE	0.48	37.4	ESE	-29.1	-15.2	-29.1	755.4	0.023	0.000	21.4	6	-17.8	18.3	1.54	 .0743	24	1	100.0	1
08/07/24	12:55	-14.9	-14.9	-15.1	79	-17.8	28.7	ESE	0.48	40.0	ESE	-28.7	-15.0	-28.8	755.3	0.023	0.000	21.4	6	-17.8	18.3	1.54	 .0743	23	1	100.0	1
08/07/24	12:56	-14.9	-14.9	-14.9	79	-17.8	27.8	ESE	0.46	51.3	E	-28.6	-15.0	-28.6	755.0	0.023	0.000	21.4	6	-17.8	18.3	1.54	 .0742	24	1	100.0	1
08/07/24	12:57	-14.9	-14.9	-14.9	79	-17.7	26.1	ESE	0.43	35.7	ESE	-28.2	-14.9	-28.2	755.4	0.023	0.000	21.4	6	-17.8	18.3	1.54	 .0743	23	1	100.0	1
08/07/24	12:58	-14.7	-14.7	-14.8	79	-17.6	30.4	ESE	0.51	37.4	SSE	-28.7	-14.8	-28.8	755.3	0.023	0.000	21.3	6	-17.8	18.2	1.54	 .0743	23	1	100.0	1
08/07/24	12:59	-14.6	-14.6	-14.7	78	-17.6	33.9	ESE	0.57	43.5	SSE	-29.2	-14.7	-29.2	755.3	0.023	0.000	21.3	6	-17.8	18.2	1.54	 .0743	24	1	100.0	1
08/07/24	13:00	-14.5	-14.5	-14.6	78	-17.5	28.7	SE	0.48	42.6	SE	-28.1	-14.6	-28.2	755.8	0.023	0.000	21.3	6	-17.8	18.2	1.54	 .0743	23	1	100.0	1
08/07/24	13:01	-14.4	-14.4	-14.5	79	-17.3	25.2	ESE	0.42	33.0	ESE	-27.4	-14.5	-27.4	755.8	0.023	0.000	21.3	6	-17.8	18.2	1.54	 .0743	24	1	100.0	1
08/07/24	13:02	-14.5	-14.4	-14.5	79	-17.3	26.1	ESE	0.43	39.1	ESE	-27.7	-14.6	-27.7	755.4	0.023	0.000	21.3	6	-17.8	18.2	1.54	 .0743	23	1	100.0	1
08/07/24	13:03	-14.6	-14.5	-14.6	79	-17.4	27.0	ESE	0.45	35.7	ESE	-27.9	-14.6	-27.9	755.7	0.023	0.000	21.3	6	-17.8	18.1	1.54	 .0743	23	1	100.0	1
08/07/24	13:04	-14.6	-14.6	-14.6	79	-17.4	27.8	ESE	0.46	36.5	ESE	-28.1	-14.6	-28.1	755.6	0.023	0.000	21.3	6	-17.8	18.1	1.54	 .0743	24	1	100.0	1
08/07/24	13:05	-14.6	-14.6	-14.6	78	-17.5	30.4	ESE	0.51	46.1	ESE	-28.5	-14.6	-28.6	755.6	0.023	0.000	21.3	6	-17.8	18.2	1.54	 .0743	23	1	100.0	1
08/07/24	13:06	-14.7	-14.6	-14.7	78	-17.7	28.7	E	0.48	37.4	E	-28.3	-14.7	-28.4	755.5	0.023	0.000	21.3	6	-17.8	18.1	1.54	 .0743	24	1	100.0	1
08/07/24	13:07	-14.8	-14.7	-14.8	79	-17.6	34.8	ESE	0.58	42.6	ESE	-29.5	-14.8	-29.6	755.5	0.023	0.000	21.3	6	-17.8	18.1	1.54	 .0743	23	1	100.0	1
08/07/24	13:08	-14.8	-14.8	-14.8	79	-17.7	25.2	ESE	0.42	35.7	ESE	-27.9	-14.9	-28.0	755.8	0.023	0.000	21.3	6	-17.8	18.2	1.54	 .0743	23	1	100.0	1
08/07/24	13:09	-14.9	-14.8	-14.9	78	-17.9	30.4	ESE	0.51	32.2	ESE	-28.9	-14.9	-29.0	755.8	0.023	0.000	21.3	6	-17.8	18.2	1.54	 .0743	24	1	100.0	1
08/07/24	13:10	-14.9	-14.9	-14.9	79	-17.8	29.6	E	0.49	31.3	E	-28.9	-15.0	-28.9	755.8	0.023	0.000	21.3	6	-17.8	18.2	1.54	 .0743	23	1	100.0	1
08/07/24	13:11	-15.1	-15.0	-15.1	79	-17.9	29.6	ESE	0.49	33.9	ESE	-29.1	-15.1	-29.1	755.7	0.023	0.000	21.3	6	-17.8	18.2	1.54	 .0743	24	1	100.0	1
08/07/24	13:12	-15.1	-15.1	-15.1	79	-17.9	29.6	ESE	0.49	33.0	ESE	-29.1	-15.1	-29.1	755.8	0.023	0.000	21.3	6	-17.8	18.2	1.54	 .0743	23	1	100.0	1
08/07/24	13:13	-15.1	-15.1	-15.1	79	-17.9	27.8	ESE	0.46	29.6	ESE	-28.8	-15.2	-28.8	755.8	0.023	0.000	21.3	6	-17.8	18.2	1.54	 .0743	24	1	100.0	1
08/07/24	13:14	-15.1	-15.1	-15.1	79	-17.9	28.7	ESE	0.48	30.4	ESE	-28.9	-15.2	-29.0	755.6	0.023	0.000	21.4	6	-17.8	18.3	1.54	 .0743	23	1	100.0	1
08/07/24	13:15	-15.1	-15.1	-15.2	79	-17.9	30.4	ESE	0.51	33.9	ESE	-29.3	-15.2	-29.3	755.6	0.023	0.000	21.4	6	-17.8	18.3	1.54	 .0743	23	1	100.0	1
08/07/24	13:16	-15.1	-15.1	-15.1	79	-17.9	28.7	ESE	0.48	32.2	ESE	-28.9	-15.1	-28.9	755.6	0.023	0.000	21.4	6	-17.8	18.3	1.54	 .0743	24	1	100.0	1
08/07/24	13:17	-15.1	-15.1	-15.1	79	-17.9	27.8	ESE	0.46	32.2	ESE	-28.7	-15.1	-28.8	755.6	0.023	0.000	21.4	6	-17.7	18.4	1.54	 .0743	23	1	100.0	1
08/07/24	13:18	-15.1	-15.1	-15.1	79	-17.9	29.6	ESE	0.49	32.2	E	-29.1	-15.2	-29.2	755.6	0.023	0.000	21.4	6	-17.7	18.4	1.54	 .0743	24	1	100.0	1
08/07/24	13:19	-15.1	-15.1	-15.1	79	-17.9	30.4	ESE	0.51	33.0	ESE	-29.3	-15.2	-29.3	755.6	0.023	0.000	21.4	6	-17.7	18.4	1.54	 .0743	23	1	100.0	1
08/07/24	13:20	-15.0	-15.0	-15.1	79	-17.8	31.3	ESE	0.52	33.9	ESE	-29.3	-15.1	-29.3	755.7	0.023	0.000	21.5	6	-17.7	18.5	1.54	 .0743	23	1	100.0	1
08/07/24	13:21	-14.9	-14.9	-15.0	78	-17.9	28.7	ESE	0.48	33.9	ESE	-28.7	-15.0	-28.8	755.6	0.023	0.000	21.4	6	-17.7	18.4	1.54	 .0743	24	1	100.0	1
08/07/24	13:22	-14.9	-14.9	-15.0	78	-17.9	30.4	ESE	0.51	36.5	ESE	-28.9	-14.9	-29.0	755.5	0.023	0.000	21.5	6	-17.7	18.5	1.54	 .0743	23	1	100.0	1
08/07/24	13:23	-14.8	-14.8	-14.9	79	-17.7	30.4	ESE	0.51	33.0	ESE	-28.9	-14.9	-28.9	755.6	0.023	0.000	21.6	6	-17.6	18.6	1.53	 .0743	24	1	100.0	1
08/07/24	13:24	-14.8	-14.8	-14.9	79	-17.7	29.6	ESE	0.49	33.0	ESE	-28.7	-14.9	-28.8	755.6	0.023	0.000	21.6	6	-17.6	18.6	1.53	 .0743	23	1	100.0	1
08/07/24	13:25	-14.8	-14.8	-14.8	79	-17.7	28.7	ESE	0.48	32.2	ESE	-28.6	-14.9	-28.7	755.7	0.023	0.000	21.6	6	-17.6	18.6	1.53	 .0743	24	1	100.0	1
08/07/24	13:26	-14.8	-14.8	-14.8	79	-17.7	29.6	ESE	0.49	32.2	ESE	-28.7	-14.9	-28.8	755.7	0.023	0.000	21.6	6	-17.6	18.6	1.53	 .0743	23	1	100.0	1
08/07/24	13:27	-14.8	-14.8	-14.8	79	-17.7	29.6	ESE	0.49	33.9	ESE	-28.7	-14.9	-28.8	755.5	0.023	0.000	21.6	6	-17.6	18.7	1.53	 .0742	23	1	100.0	1
08/07/24	13:28	-14.8	-14.8	-14.8	79	-17.6	29.6	ESE	0.49	39.1	ESE	-28.7	-14.8	-28.7	755.6	0.023	0.000	21.6	6	-17.6	18.7	1.53	 .0743	24	1	100.0	1
08/07/24	13:29	-14.8	-14.8	-14.8	79	-17.6	27.0	ESE	0.45	30.4	ESE	-28.2	-14.8	-28.2	755.8	0.023	0.000	21.6	6	-17.6	18.7	1.53	 .0743	23	1	100.0	1
08/07/24	13:30	-14.8	-14.8	-14.8	79	-17.7	26.1	ESE	0.43	29.6	ESE	-28.1	-14.9	-28.2	755.7	0.023	0.000	21.6	6	-17.6	18.7	1.53	 .0743	24	1	100.0	1
08/07/24	13:31	-14.8	-14.8	-14.8	79	-17.6	26.1	ESE	0.43	31.3	SE	-28.0	-14.8	-28.1	755.8	0.023	0.000	21.6	6	-17.6	18.7	1.53	 .0743	23	1	100.0	1
08/07/24	13:32	-14.8	-14.8	-14.8	78	-17.8	27.8	ESE	0.46	31.3	ESE	-28.3	-14.8	-28.4	755.7	0.023	0.000	21.6	6	-17.6	18.7	1.53	 .0743	23	1	100.0	1
08/07/24	13:33	-14.8	-14.8	-14.8	79	-17.7	27.8	ESE	0.46	30.4	ESE	-28.4	-14.9	-28.5	755.7	0.023	0.000	21.6	6	-17.6	18.7	1.53	 .0743	24	1	100.0	1
08/07/24	13:34	-14.8	-14.8	-14.8	78	-17.8	27.8	ESE	0.46	33.0	ESE	-28.4	-14.9	-28.5	755.7	0.023	0.000	21.6	6	-17.6	18.7	1.53	 .0743	23	1	100.0	1
08/07/24	13:35	-14.8	-14.8	-14.8	79	-17.7	27.8	ESE	0.46	31.3	ESE	-28.4	-14.9	-28.5	755.7	0.023	0.000	21.6	6	-17.6	18.7	1.53	 .0743	24	1	100.0	1
08/07/24	13:36	-14.8	-14.8	-14.8	79	-17.7	24.3	ESE	0.41	28.7	ESE	-27.7	-14.9	-27.8	755.8	0.023	0.000	21.6	6	-17.6	18.6	1.53	 .0743	23	1	100.0	1
08/07/24	13:37	-14.8	-14.8	-14.8	79	-17.6	25.2	ESE	0.42	30.4	ESE	-27.8	-14.8	-27.9	755.7	0.023	0.000	21.6	6	-17.6	18.6	1.53	 .0743	24	1	100.0	1
08/07/24	13:38	-14.8	-14.8	-14.8	79	-17.6	24.3	SE	0.41	29.6	ESE	-27.7	-14.8	-27.7	755.7	0.023	0.000	21.6	6	-17.6	18.6	1.53	 .0743	23	1	100.0	1
08/07/24	13:39	-14.8	-14.8	-14.8	79	-17.7	24.3	SE	0.41	28.7	ESE	-27.7	-14.9	-27.8	755.8	0.023	0.000	21.6	6	-17.6	18.6	1.53	 .0743	23	1	100.0	1
08/07/24	13:40	-14.8	-14.8	-14.9	79	-17.7	23.5	SE	0.39	27.8	SE	-27.6	-14.9	-27.6	755.9	0.023	0.000	21.6	6	-17.6	18.6	1.53	 .0743	24	1	100.0	1
08/07/24	13:41	-14.9	-14.9	-14.9	78	-17.9	24.3	SE	0.41	37.4	SSE	-27.8	-14.9	-27.9	755.9	0.023	0.000	21.5	6	-17.7	18.5	1.54	 .0743	23	1	100.0	1
08/07/24	13:42	-14.7	-14.7	-14.9	78	-17.7	30.4	SSE	0.51	41.7	SSE	-28.7	-14.8	-28.8	755.4	0.023	0.000	21.5	6	-17.7	18.5	1.54	 .0743	24	1	100.0	1
08/07/24	13:43	-14.6	-14.6	-14.7	78	-17.6	25.2	SE	0.42	33.0	SSE	-27.6	-14.7	-27.7	755.8	0.023	0.000	21.5	6	-17.7	18.5	1.54	 .0743	23	1	100.0	1
08/07/24	13:44	-14.7	-14.6	-14.7	78	-17.7	22.6	SE	0.38	27.0	SE	-27.2	-14.7	-27.2	755.9	0.023	0.000	21.5	6	-17.7	18.5	1.54	 .0743	23	1	100.0	1
08/07/24	13:45	-14.7	-14.7	-14.7	78	-17.7	25.2	SE	0.42	27.0	SE	-27.8	-14.8	-27.8	755.8	0.023	0.000	21.4	6	-17.7	18.4	1.54	 .0743	24	1	100.0	1
08/07/24	13:46	-14.8	-14.8	-14.8	79	-17.7	26.1	SE	0.43	28.7	SE	-28.1	-14.9	-28.2	755.8	0.023	0.000	21.4	6	-17.7	18.4	1.54	 .0743	23	1	100.0	1
08/07/24	13:47	-14.8	-14.8	-14.8	79	-17.6	27.0	SE	0.45	36.5	SSE	-28.2	-14.8	-28.2	755.7	0.023	0.000	21.4	6	-17.7	18.4	1.54	 .0743	24	1	100.0	1
08/07/24	13:48	-14.6	-14.6	-14.8	78	-17.6	33.0	SE	0.55	43.5	SSE	-29.0	-14.7	-29.1	755.7	0.023	0.000	21.4	6	-17.8	18.3	1.54	 .0743	23	1	100.0	1
08/07/24	13:49	-14.5	-14.4	-14.6	79	-17.3	29.6	SE	0.49	34.8	SSE	-28.3	-14.6	-28.3	755.6	0.023	0.000	21.4	6	-17.8	18.3	1.54	 .0743	23	1	100.0	1
08/07/24	13:50	-14.6	-14.5	-14.6	79	-17.4	25.2	SE	0.42	27.8	SE	-27.6	-14.7	-27.7	755.8	0.023	0.000	21.4	6	-17.8	18.3	1.54	 .0743	24	1	100.0	1
08/07/24	13:51	-14.6	-14.6	-14.7	78	-17.6	29.6	SE	0.49	40.0	SSE	-28.4	-14.7	-28.5	755.8	0.023	0.000	21.4	6	-17.8	18.3	1.54	 .0743	23	1	100.0	1
08/07/24	13:52	-14.4	-14.4	-14.6	79	-17.3	28.7	SSE	0.48	36.5	SSE	-28.1	-14.5	-28.1	755.8	0.023	0.000	21.4	6	-17.8	18.3	1.54	 .0743	24	1	100.0	1
08/07/24	13:53	-14.4	-14.4	-14.4	78	-17.4	27.0	SE	0.45	32.2	SE	-27.7	-14.5	-27.8	755.7	0.023	0.000	21.4	6	-17.8	18.3	1.54	 .0743	23	1	100.0	1
08/07/24	13:54	-14.7	-14.5	-14.7	78	-17.7	26.1	SE	0.43	30.4	SE	-27.9	-14.7	-27.9	755.8	0.023	0.000	21.4	6	-17.8	18.3	1.54	 .0743	24	1	100.0	1
08/07/24	13:55	-14.7	-14.7	-14.7	79	-17.6	23.5	SE	0.39	27.8	SE	-27.4	-14.8	-27.4	755.9	0.023	0.000	21.4	6	-17.8	18.3	1.54	 .0743	23	1	100.0	1
08/07/24	13:56	-14.8	-14.8	-14.8	78	-17.8	22.6	SE	0.38	27.0	SE	-27.4	-14.9	-27.4	756.0	0.023	0.000	21.4	6	-17.8	18.3	1.54	 .0743	23	1	100.0	1
08/07/24	13:57	-14.9	-14.9	-14.9	79	-17.8	26.1	SE	0.43	29.6	ESE	-28.2	-15.0	-28.3	755.9	0.023	0.000	21.4	6	-17.8	18.3	1.54	 .0743	24	1	100.0	1
08/07/24	13:58	-15.1	-14.9	-15.1	79	-17.9	24.3	ESE	0.41	33.9	SE	-28.1	-15.1	-28.1	755.9	0.023	0.000	21.3	6	-17.8	18.2	1.54	 .0743	23	1	100.0	1
08/07/24	13:59	-15.1	-15.1	-15.1	79	-17.9	27.0	ESE	0.45	30.4	ESE	-28.7	-15.2	-28.7	755.9	0.023	0.000	21.4	6	-17.8	18.3	1.54	 .0743	24	1	100.0	1
08/07/24	14:00	-15.2	-15.1	-15.2	79	-18.0	28.7	ESE	0.48	33.0	ESE	-29.1	-15.3	-29.2	755.9	0.023	0.000	21.3	6	-17.8	18.2	1.54	 .0743	23	1	100.0	1
08/07/24	14:01	-15.2	-15.2	-15.2	79	-18.0	29.6	ESE	0.49	33.0	ESE	-29.3	-15.3	-29.3	755.9	0.023	0.000	21.4	6	-17.8	18.3	1.54	 .0743	24	1	100.0	1
08/07/24	14:02	-15.2	-15.2	-15.2	79	-18.0	30.4	ESE	0.51	35.7	ESE	-29.4	-15.3	-29.5	755.8	0.023	0.000	21.4	6	-17.8	18.3	1.54	 .0743	23	1	100.0	1
08/07/24	14:03	-15.3	-15.2	-15.3	79	-18.1	27.8	ESE	0.46	30.4	ESE	-29.1	-15.3	-29.1	755.9	0.023	0.000	21.4	6	-17.8	18.3	1.54	 .0743	23	1	100.0	1
08/07/24	14:04	-15.3	-15.3	-15.3	79	-18.1	30.4	ESE	0.51	37.4	ESE	-29.5	-15.3	-29.6	756.0	0.023	0.000	21.4	6	-17.8	18.3	1.54	 .0744	24	1	100.0	1
08/07/24	14:05	-15.2	-15.2	-15.2	79	-18.0	27.0	ESE	0.45	33.0	ESE	-28.8	-15.3	-28.8	756.0	0.023	0.000	21.4	6	-17.8	18.3	1.54	 .0744	23	1	100.0	1
08/07/24	14:06	-15.2	-15.2	-15.3	79	-18.0	26.1	ESE	0.43	30.4	ESE	-28.6	-15.3	-28.7	756.1	0.023	0.000	21.4	6	-17.7	18.4	1.54	 .0743	24	1	100.0	1
08/07/24	14:07	-15.2	-15.2	-15.2	79	-18.0	26.1	SE	0.43	30.4	SE	-28.6	-15.3	-28.7	756.1	0.023	0.000	21.4	6	-17.7	18.4	1.54	 .0743	23	1	100.0	1
08/07/24	14:08	-15.2	-15.2	-15.2	79	-18.0	26.1	SE	0.43	30.4	SE	-28.6	-15.3	-28.7	756.2	0.023	0.000	21.4	6	-17.7	18.4	1.54	 .0743	23	1	100.0	1
08/07/24	14:09	-15.3	-15.2	-15.3	79	-18.1	24.3	SE	0.41	26.1	ESE	-28.3	-15.3	-28.4	756.1	0.023	0.000	21.4	6	-17.7	18.4	1.54	 .0743	24	1	100.0	1
08/07/24	14:10	-15.3	-15.3	-15.3	79	-18.2	23.5	SE	0.39	26.1	SE	-28.2	-15.4	-28.3	756.2	0.023	0.000	21.4	6	-17.7	18.4	1.54	 .0744	23	1	100.0	1
08/07/24	14:11	-15.3	-15.3	-15.3	79	-18.2	20.9	SE	0.35	23.5	SE	-27.6	-15.4	-27.7	756.3	0.023	0.000	21.4	6	-17.7	18.4	1.54	 .0744	24	1	100.0	1
08/07/24	14:12	-15.3	-15.3	-15.3	79	-18.2	22.6	SE	0.38	27.8	SE	-28.1	-15.4	-28.1	756.2	0.023	0.000	21.4	6	-17.7	18.4	1.54	 .0744	23	1	100.0	1
08/07/24	14:13	-15.3	-15.3	-15.3	79	-18.2	22.6	SE	0.38	24.3	SE	-28.1	-15.4	-28.1	756.2	0.023	0.000	21.4	6	-17.7	18.4	1.54	 .0744	23	1	100.0	1
08/07/24	14:14	-15.3	-15.3	-15.3	79	-18.1	24.3	SE	0.41	28.7	SE	-28.3	-15.3	-28.4	756.2	0.023	0.000	21.5	6	-17.7	18.5	1.54	 .0743	24	1	100.0	1
08/07/24	14:15	-15.2	-15.2	-15.2	79	-18.0	24.3	SE	0.41	27.8	SSE	-28.2	-15.2	-28.2	756.3	0.023	0.000	21.5	6	-17.7	18.5	1.54	 .0743	23	1	100.0	1
08/07/24	14:16	-15.1	-15.1	-15.2	79	-17.9	22.6	SE	0.38	26.1	SSE	-27.7	-15.1	-27.7	756.2	0.023	0.000	21.5	6	-17.7	18.5	1.54	 .0743	24	1	100.0	1
08/07/24	14:17	-15.1	-15.1	-15.1	79	-17.9	20.9	SE	0.35	23.5	SSE	-27.3	-15.2	-27.4	756.3	0.023	0.000	21.5	6	-17.7	18.5	1.54	 .0744	23	1	100.0	1
08/07/24	14:18	-15.2	-15.1	-15.2	79	-18.0	20.0	SE	0.33	25.2	SE	-27.3	-15.3	-27.3	756.3	0.023	0.000	21.5	6	-17.7	18.5	1.54	 .0743	24	1	100.0	1
08/07/24	14:19	-15.4	-15.2	-15.4	79	-18.2	23.5	SE	0.39	26.1	SE	-28.3	-15.4	-28.3	756.3	0.023	0.000	21.5	6	-17.7	18.5	1.54	 .0743	23	1	100.0	1
08/07/24	14:20	-15.5	-15.4	-15.5	79	-18.3	22.6	SE	0.38	26.1	SE	-28.3	-15.6	-28.3	756.3	0.023	0.000	21.6	6	-17.6	18.6	1.53	 .0743	23	1	100.0	1
08/07/24	14:21	-15.6	-15.5	-15.6	79	-18.4	23.5	SE	0.39	28.7	ESE	-28.6	-15.7	-28.7	756.3	0.024	0.000	21.5	6	-17.7	18.5	1.54	 .0743	24	1	100.0	1
08/07/24	14:22	-15.7	-15.6	-15.7	79	-18.5	23.5	SE	0.39	27.0	SE	-28.7	-15.7	-28.7	756.2	0.024	0.000	21.6	6	-17.6	18.6	1.53	 .0743	23	1	100.0	1
08/07/24	14:23	-15.7	-15.7	-15.7	79	-18.5	23.5	SE	0.39	27.0	SE	-28.7	-15.7	-28.7	756.2	0.024	0.000	21.6	6	-17.6	18.6	1.53	 .0743	24	1	100.0	1
08/07/24	14:24	-15.7	-15.7	-15.7	79	-18.5	26.1	SE	0.43	30.4	ESE	-29.2	-15.7	-29.3	756.2	0.024	0.000	21.6	6	-17.6	18.6	1.53	 .0743	23	1	100.0	1
08/07/24	14:25	-15.6	-15.6	-15.7	79	-18.4	27.8	SE	0.46	30.4	ESE	-29.5	-15.7	-29.6	756.2	0.024	0.000	21.6	6	-17.6	18.6	1.53	 .0743	23	1	100.0	1
08/07/24	14:26	-15.6	-15.6	-15.7	79	-18.4	28.7	ESE	0.48	33.0	SE	-29.7	-15.7	-29.7	756.1	0.024	0.000	21.6	6	-17.6	18.7	1.53	 .0743	24	1	100.0	1
08/07/24	14:27	-15.6	-15.6	-15.6	79	-18.4	27.8	ESE	0.46	31.3	SE	-29.4	-15.6	-29.4	756.0	0.024	0.000	21.6	6	-17.6	18.7	1.53	 .0743	23	1	100.0	1
08/07/24	14:28	-15.6	-15.6	-15.6	79	-18.4	27.8	ESE	0.46	32.2	ESE	-29.5	-15.7	-29.6	756.1	0.024	0.000	21.6	6	-17.6	18.7	1.53	 .0743	24	1	100.0	1
08/07/24	14:29	-15.7	-15.7	-15.7	79	-18.5	27.0	ESE	0.45	29.6	ESE	-29.4	-15.7	-29.4	756.0	0.024	0.000	21.6	6	-17.6	18.7	1.53	 .0743	23	1	100.0	1
08/07/24	14:30	-15.7	-15.7	-15.7	79	-18.5	27.8	ESE	0.46	29.6	ESE	-29.6	-15.7	-29.6	756.1	0.024	0.000	21.6	6	-17.6	18.7	1.53	 .0743	23	1	100.0	1
08/07/24	14:31	-15.7	-15.7	-15.7	79	-18.5	27.0	ESE	0.45	29.6	ESE	-29.4	-15.7	-29.4	756.1	0.024	0.000	21.6	6	-17.6	18.7	1.53	 .0743	24	1	100.0	1
08/07/24	14:32	-15.7	-15.7	-15.7	79	-18.5	25.2	ESE	0.42	28.7	SE	-29.1	-15.8	-29.2	756.1	0.024	0.000	21.6	6	-17.6	18.7	1.53	 .0743	23	1	100.0	1
08/07/24	14:33	-15.7	-15.7	-15.7	79	-18.5	27.0	ESE	0.45	28.7	ESE	-29.4	-15.8	-29.5	756.1	0.024	0.000	21.6	6	-17.6	18.7	1.53	 .0743	24	1	100.0	1
08/07/24	14:34	-15.7	-15.7	-15.7	79	-18.5	27.0	SE	0.45	30.4	SE	-29.4	-15.7	-29.4	756.2	0.024	0.000	21.6	6	-17.6	18.7	1.53	 .0743	23	1	100.0	1
08/07/24	14:35	-15.7	-15.7	-15.7	79	-18.5	27.8	ESE	0.46	31.3	SE	-29.6	-15.7	-29.6	756.1	0.024	0.000	21.6	6	-17.6	18.7	1.53	 .0743	24	1	100.0	1
08/07/24	14:36	-15.6	-15.6	-15.7	79	-18.4	27.8	ESE	0.46	31.3	SE	-29.5	-15.7	-29.6	756.1	0.024	0.000	21.6	6	-17.6	18.7	1.53	 .0743	23	1	100.0	1
08/07/24	14:37	-15.5	-15.5	-15.6	79	-18.3	27.0	ESE	0.45	31.3	SE	-29.2	-15.6	-29.2	756.1	0.023	0.000	21.6	6	-17.6	18.7	1.53	 .0743	23	1	100.0	1
08/07/24	14:38	-15.4	-15.4	-15.5	79	-18.3	28.7	SE	0.48	30.4	SE	-29.4	-15.5	-29.5	756.0	0.023	0.000	21.6	6	-17.6	18.6	1.53	 .0743	24	1	100.0	1
08/07/24	14:39	-15.3	-15.3	-15.4	79	-18.2	28.7	SE	0.48	33.0	SE	-29.3	-15.4	-29.3	756.0	0.023	0.000	21.6	6	-17.6	18.6	1.53	 .0743	23	1	100.0	1
08/07/24	14:40	-15.3	-15.3	-15.3	79	-18.2	26.1	ESE	0.43	28.7	ESE	-28.8	-15.4	-28.8	756.0	0.023	0.000	21.6	6	-17.6	18.6	1.53	 .0743	24	1	100.0	1
08/07/24	14:41	-15.4	-15.3	-15.4	79	-18.3	27.8	ESE	0.46	30.4	ESE	-29.3	-15.5	-29.3	756.0	0.023	0.000	21.6	6	-17.6	18.6	1.53	 .0743	23	1	100.0	1
08/07/24	14:42	-15.4	-15.4	-15.4	79	-18.3	27.0	ESE	0.45	29.6	ESE	-29.1	-15.5	-29.2	756.0	0.023	0.000	21.6	6	-17.6	18.6	1.53	 .0743	23	1	100.0	1
08/07/24	14:43	-15.5	-15.5	-15.5	79	-18.3	26.1	ESE	0.43	27.8	ESE	-29.0	-15.6	-29.1	756.0	0.023	0.000	21.5	6	-17.7	18.5	1.54	 .0743	24	1	100.0	1
08/07/24	14:44	-15.5	-15.5	-15.6	79	-18.3	27.8	ESE	0.46	31.3	SE	-29.3	-15.6	-29.4	755.9	0.023	0.000	21.5	6	-17.7	18.5	1.54	 .0743	23	1	100.0	1
08/07/24	14:45	-15.5	-15.5	-15.6	79	-18.3	25.2	ESE	0.42	28.7	SE	-28.8	-15.6	-28.9	756.1	0.023	0.000	21.5	6	-17.7	18.5	1.54	 .0743	24	1	100.0	1
08/07/24	14:46	-15.5	-15.5	-15.5	79	-18.3	26.1	ESE	0.43	28.7	ESE	-29.0	-15.6	-29.1	756.0	0.023	0.000	21.5	6	-17.7	18.5	1.54	 .0743	23	1	100.0	1
08/07/24	14:47	-15.4	-15.4	-15.5	79	-18.3	27.8	ESE	0.46	29.6	ESE	-29.3	-15.5	-29.3	756.0	0.023	0.000	21.4	6	-17.7	18.4	1.54	 .0743	24	1	100.0	1
08/07/24	14:48	-15.4	-15.4	-15.4	79	-18.2	27.8	ESE	0.46	30.4	SE	-29.2	-15.4	-29.2	756.0	0.023	0.000	21.4	6	-17.7	18.4	1.54	 .0743	23	1	100.0	1
08/07/24	14:49	-15.4	-15.4	-15.4	79	-18.2	27.0	ESE	0.45	31.3	ESE	-29.0	-15.4	-29.1	756.0	0.023	0.000	21.4	6	-17.7	18.4	1.54	 .0743	23	1	100.0	1
08/07/24	14:50	-15.4	-15.3	-15.4	79	-18.2	26.1	ESE	0.43	29.6	ESE	-28.8	-15.4	-28.9	756.0	0.023	0.000	21.4	6	-17.8	18.3	1.54	 .0744	24	1	100.0	1
08/07/24	14:51	-15.3	-15.3	-15.3	79	-18.2	27.0	ESE	0.45	31.3	ESE	-28.9	-15.4	-29.0	756.0	0.023	0.000	21.4	6	-17.8	18.3	1.54	 .0743	23	1	100.0	1
08/07/24	14:52	-15.2	-15.2	-15.3	79	-18.0	26.1	ESE	0.43	31.3	ESE	-28.6	-15.2	-28.6	755.9	0.023	0.000	21.4	6	-17.8	18.3	1.54	 .0743	24	1	100.0	1
08/07/24	14:53	-15.2	-15.2	-15.2	79	-18.0	27.8	ESE	0.46	33.0	E	-28.9	-15.2	-28.9	756.0	0.023	0.000	21.4	6	-17.8	18.3	1.54	 .0743	23	1	100.0	1
08/07/24	14:54	-15.1	-15.1	-15.1	79	-17.9	27.0	ESE	0.45	29.6	ESE	-28.7	-15.2	-28.7	755.8	0.023	0.000	21.4	6	-17.8	18.3	1.54	 .0743	23	1	100.0	1
08/07/24	14:55	-15.1	-15.1	-15.1	79	-17.9	31.3	ESE	0.52	36.5	ESE	-29.3	-15.1	-29.4	755.9	0.023	0.000	21.4	6	-17.8	18.3	1.54	 .0743	24	1	100.0	1
08/07/24	14:56	-15.1	-15.1	-15.1	79	-17.9	24.3	ESE	0.41	32.2	ESE	-28.1	-15.1	-28.1	755.9	0.023	0.000	21.4	6	-17.8	18.3	1.54	 .0743	23	1	100.0	1
08/07/24	14:57	-15.0	-15.0	-15.1	79	-17.8	26.1	ESE	0.43	33.9	ESE	-28.3	-15.1	-28.4	756.0	0.023	0.000	21.4	6	-17.8	18.3	1.54	 .0743	24	1	100.0	1
08/07/24	14:58	-14.9	-14.9	-15.0	79	-17.7	27.0	SE	0.45	33.9	ESE	-28.3	-14.9	-28.4	755.9	0.023	0.000	21.4	6	-17.8	18.3	1.54	 .0743	23	1	100.0	1
08/07/24	14:59	-14.8	-14.8	-14.8	79	-17.7	29.6	ESE	0.49	33.9	ESE	-28.7	-14.9	-28.8	755.8	0.023	0.000	21.4	6	-17.8	18.3	1.54	 .0743	24	1	100.0	1
08/07/24	15:00	-14.7	-14.7	-14.8	78	-17.7	27.8	SE	0.46	32.2	SE	-28.2	-14.7	-28.3	755.8	0.023	0.000	21.4	6	-17.8	18.3	1.54	 .0743	23	1	100.0	1
08/07/24	15:01	-14.7	-14.7	-14.7	78	-17.7	27.0	ESE	0.45	29.6	ESE	-28.1	-14.7	-28.1	755.8	0.023	0.000	21.4	6	-17.7	18.4	1.54	 .0743	23	1	100.0	1
08/07/24	15:02	-14.7	-14.7	-14.7	78	-17.7	27.8	ESE	0.46	39.1	SE	-28.3	-14.8	-28.3	755.8	0.023	0.000	21.4	6	-17.7	18.4	1.54	 .0743	24	1	100.0	1
08/07/24	15:03	-14.6	-14.6	-14.7	78	-17.5	32.2	ESE	0.54	43.5	ESE	-28.8	-14.6	-28.8	755.5	0.023	0.000	21.4	6	-17.7	18.4	1.54	 .0743	23	1	100.0	1
08/07/24	15:04	-14.5	-14.5	-14.6	79	-17.3	27.8	ESE	0.46	31.3	ESE	-27.9	-14.6	-28.0	755.7	0.023	0.000	21.4	6	-17.7	18.4	1.54	 .0743	24	1	100.0	1
08/07/24	15:05	-14.4	-14.4	-14.5	79	-17.3	30.4	ESE	0.51	35.7	ESE	-28.3	-14.5	-28.4	755.7	0.023	0.000	21.4	6	-17.7	18.4	1.54	 .0743	23	1	100.0	1
08/07/24	15:06	-14.4	-14.4	-14.4	78	-17.4	31.3	SE	0.52	38.3	SE	-28.4	-14.4	-28.5	755.9	0.023	0.000	21.4	6	-17.7	18.4	1.54	 .0743	23	1	100.0	1
08/07/24	15:07	-14.2	-14.2	-14.3	78	-17.2	28.7	SE	0.48	33.9	SE	-27.7	-14.3	-27.8	755.8	0.023	0.000	21.4	6	-17.7	18.4	1.54	 .0743	24	1	100.0	1
08/07/24	15:08	-14.2	-14.1	-14.2	78	-17.2	27.8	SE	0.46	33.9	SE	-27.5	-14.2	-27.6	755.7	0.023	0.000	21.5	6	-17.7	18.5	1.54	 .0743	23	1	100.0	1
08/07/24	15:09	-14.1	-14.1	-14.1	78	-17.1	28.7	SE	0.48	33.9	ESE	-27.5	-14.1	-27.6	755.8	0.022	0.000	21.5	6	-17.7	18.5	1.54	 .0743	24	1	100.0	1
08/07/24	15:10	-14.1	-14.1	-14.1	78	-17.1	27.0	SE	0.45	32.2	SE	-27.2	-14.1	-27.3	755.7	0.022	0.000	21.5	6	-17.7	18.5	1.54	 .0743	23	1	100.0	1
08/07/24	15:11	-14.1	-14.1	-14.1	78	-17.1	28.7	SE	0.48	33.9	ESE	-27.5	-14.1	-27.6	755.8	0.022	0.000	21.5	6	-17.7	18.5	1.54	 .0743	24	1	100.0	1
08/07/24	15:12	-14.1	-14.1	-14.1	78	-17.1	28.7	SE	0.48	33.9	SE	-27.5	-14.1	-27.6	755.8	0.022	0.000	21.5	6	-17.7	18.5	1.54	 .0743	23	1	100.0	1
08/07/24	15:13	-14.1	-14.1	-14.1	78	-17.1	26.1	SE	0.43	30.4	SE	-27.1	-14.2	-27.2	755.7	0.023	0.000	21.6	6	-17.6	18.6	1.53	 .0743	23	1	100.0	1
08/07/24	15:14	-14.2	-14.2	-14.2	79	-17.0	27.0	SE	0.45	32.2	ESE	-27.3	-14.2	-27.4	755.8	0.023	0.000	21.6	6	-17.6	18.6	1.53	 .0743	24	1	100.0	1
08/07/24	15:15	-14.1	-14.1	-14.2	78	-17.1	27.8	SSE	0.46	38.3	SSE	-27.4	-14.2	-27.5	756.0	0.023	0.000	21.6	6	-17.6	18.6	1.53	 .0743	23	1	100.0	1
08/07/24	15:16	-13.9	-13.9	-14.1	78	-17.0	28.7	SE	0.48	35.7	SSE	-27.4	-14.0	-27.4	755.8	0.022	0.000	21.6	6	-17.6	18.6	1.53	 .0743	24	1	100.0	1
08/07/24	15:17	-13.8	-13.8	-13.9	78	-16.8	31.3	SE	0.52	37.4	SE	-27.6	-13.8	-27.7	755.7	0.022	0.000	21.6	6	-17.6	18.6	1.53	 .0743	23	1	100.0	1
08/07/24	15:18	-13.6	-13.6	-13.8	78	-16.6	27.8	SSE	0.46	37.4	SSE	-26.8	-13.7	-26.8	755.7	0.022	0.000	21.6	6	-17.6	18.6	1.53	 .0743	23	1	100.0	1
08/07/24	15:19	-13.7	-13.6	-13.7	78	-16.7	23.5	SE	0.39	28.7	SE	-26.1	-13.8	-26.1	755.8	0.022	0.000	21.6	6	-17.6	18.6	1.53	 .0743	24	1	100.0	1
08/07/24	15:20	-13.8	-13.7	-13.8	78	-16.8	27.0	SE	0.45	32.2	SSE	-26.9	-13.9	-26.9	755.7	0.022	0.000	21.6	6	-17.6	18.6	1.53	 .0743	23	1	100.0	1
08/07/24	15:21	-14.0	-13.9	-14.0	79	-16.9	27.0	SE	0.45	32.2	SE	-27.1	-14.1	-27.2	755.7	0.022	0.000	21.6	6	-17.6	18.6	1.53	 .0743	24	1	100.0	1
08/07/24	15:22	-14.1	-14.0	-14.1	79	-17.0	25.2	SE	0.42	28.7	SE	-26.9	-14.2	-27.0	755.8	0.023	0.000	21.6	6	-17.6	18.6	1.53	 .0743	23	1	100.0	1
08/07/24	15:23	-14.2	-14.1	-14.2	78	-17.2	27.0	SE	0.45	29.6	SE	-27.3	-14.2	-27.4	755.9	0.023	0.000	21.6	6	-17.6	18.6	1.53	 .0743	23	1	100.0	1
08/07/24	15:24	-14.2	-14.2	-14.2	78	-17.2	21.7	SE	0.36	23.5	SE	-26.3	-14.3	-26.4	755.8	0.023	0.000	21.5	6	-17.7	18.5	1.54	 .0743	24	1	100.0	1
08/07/24	15:25	-14.2	-14.2	-14.3	78	-17.2	26.1	SSE	0.43	32.2	SSE	-27.3	-14.3	-27.3	755.8	0.023	0.000	21.5	6	-17.7	18.5	1.54	 .0743	23	1	100.0	1
08/07/24	15:26	-13.9	-13.9	-14.2	78	-16.9	34.8	SSE	0.58	42.6	SSE	-28.3	-13.9	-28.3	755.7	0.022	0.000	21.5	6	-17.7	18.5	1.54	 .0743	24	1	100.0	1
08/07/24	15:27	-13.7	-13.7	-13.8	78	-16.7	30.4	SSE	0.51	35.7	SSE	-27.4	-13.8	-27.4	755.7	0.022	0.000	21.5	6	-17.7	18.5	1.54	 .0743	23	1	100.0	1
08/07/24	15:28	-13.7	-13.7	-13.7	78	-16.7	28.7	SE	0.48	34.8	SSE	-27.1	-13.8	-27.1	755.7	0.022	0.000	21.5	6	-17.7	18.5	1.54	 .0743	24	1	100.0	1
08/07/24	15:29	-13.7	-13.7	-13.7	78	-16.7	29.6	SE	0.49	33.9	SSE	-27.2	-13.8	-27.3	755.7	0.022	0.000	21.4	6	-17.7	18.4	1.54	 .0743	23	1	100.0	1
08/07/24	15:30	-13.8	-13.7	-13.8	78	-16.8	27.0	SE	0.45	33.9	SSE	-26.8	-13.8	-26.9	755.8	0.022	0.000	21.4	6	-17.7	18.4	1.54	 .0743	23	1	100.0	1
08/07/24	15:31	-13.7	-13.7	-13.8	78	-16.7	27.8	SE	0.46	30.4	SSE	-26.9	-13.8	-26.9	755.7	0.022	0.000	21.4	6	-17.7	18.4	1.54	 .0743	24	1	100.0	1
08/07/24	15:32	-13.7	-13.7	-13.7	78	-16.7	31.3	SSE	0.52	41.7	SSE	-27.4	-13.7	-27.5	755.7	0.022	0.000	21.4	6	-17.8	18.3	1.54	 .0743	23	1	100.0	1
08/07/24	15:33	-13.4	-13.4	-13.6	78	-16.5	35.7	SSE	0.59	45.2	SSE	-27.8	-13.5	-27.8	755.7	0.022	0.000	21.4	6	-17.8	18.3	1.54	 .0743	24	1	100.0	1
08/07/24	15:34	-13.2	-13.2	-13.4	78	-16.2	41.7	SSE	0.70	53.0	SSE	-28.3	-13.3	-28.4	755.4	0.022	0.000	21.4	6	-17.8	18.3	1.54	 .0743	23	1	100.0	1
08/07/24	15:35	-13.2	-13.2	-13.2	78	-16.2	35.7	SSE	0.59	41.7	SSE	-27.4	-13.2	-27.4	755.5	0.022	0.000	21.4	6	-17.8	18.3	1.54	 .0743	23	1	100.0	1
08/07/24	15:36	-13.1	-13.1	-13.2	78	-16.1	36.5	SSE	0.61	42.6	SSE	-27.4	-13.2	-27.5	755.5	0.022	0.000	21.4	6	-17.8	18.3	1.54	 .0743	24	1	100.0	1
08/07/24	15:37	-13.1	-13.1	-13.1	78	-16.1	38.3	SSE	0.64	45.2	SSE	-27.6	-13.1	-27.7	755.4	0.022	0.000	21.4	6	-17.8	18.3	1.54	 .0743	23	1	100.0	1
08/07/24	15:38	-13.1	-13.1	-13.1	78	-16.1	39.1	SSE	0.65	43.5	SSE	-27.7	-13.1	-27.8	755.5	0.022	0.000	21.4	6	-17.8	18.3	1.54	 .0743	24	1	100.0	1
08/07/24	15:39	-13.1	-13.1	-13.1	78	-16.1	33.9	SSE	0.57	41.7	SSE	-27.1	-13.2	-27.1	755.5	0.022	0.000	21.4	6	-17.8	18.3	1.54	 .0743	23	1	100.0	1
08/07/24	15:40	-13.1	-13.1	-13.1	78	-16.1	36.5	SSE	0.61	44.3	SSE	-27.4	-13.2	-27.5	755.3	0.022	0.000	21.4	6	-17.8	18.3	1.54	 .0743	24	1	100.0	1
08/07/24	15:41	-13.1	-13.1	-13.2	78	-16.1	37.4	SSE	0.62	45.2	SSE	-27.6	-13.2	-27.6	755.5	0.022	0.000	21.4	6	-17.8	18.3	1.54	 .0743	23	1	100.0	1
08/07/24	15:42	-13.0	-13.0	-13.1	78	-16.0	39.1	SSE	0.65	47.8	SSE	-27.7	-13.1	-27.7	755.5	0.022	0.000	21.4	6	-17.8	18.3	1.54	 .0743	23	1	100.0	1
08/07/24	15:43	-13.0	-12.9	-13.0	78	-16.0	32.2	SSE	0.54	41.7	SSE	-26.7	-13.1	-26.7	755.7	0.022	0.000	21.4	6	-17.8	18.3	1.54	 .0743	24	1	100.0	1
08/07/24	15:44	-13.0	-13.0	-13.0	78	-16.0	34.8	SSE	0.58	42.6	SSE	-27.1	-13.1	-27.1	755.5	0.022	0.000	21.4	6	-17.8	18.3	1.54	 .0743	23	1	100.0	1
08/07/24	15:45	-12.8	-12.8	-12.9	78	-15.9	32.2	SSE	0.54	40.9	SSE	-26.4	-12.9	-26.5	755.5	0.022	0.000	21.4	6	-17.7	18.4	1.54	 .0743	24	1	100.0	1
08/07/24	15:46	-12.8	-12.8	-12.8	78	-15.9	37.4	SSE	0.62	43.5	SSE	-27.2	-12.9	-27.2	755.7	0.022	0.000	21.4	6	-17.7	18.4	1.54	 .0743	23	1	100.0	1
08/07/24	15:47	-12.8	-12.8	-12.8	78	-15.9	37.4	SSE	0.62	44.3	SSE	-27.2	-12.9	-27.2	755.5	0.022	0.000	21.4	6	-17.7	18.4	1.54	 .0743	23	1	100.0	1
08/07/24	15:48	-12.8	-12.8	-12.8	78	-15.9	38.3	SSE	0.64	45.2	SSE	-27.3	-12.9	-27.4	755.6	0.022	0.000	21.4	6	-17.7	18.4	1.54	 .0743	24	1	100.0	1
08/07/24	15:49	-12.8	-12.8	-12.8	78	-15.8	39.1	SSE	0.65	44.3	SSE	-27.3	-12.8	-27.4	755.5	0.022	0.000	21.4	6	-17.7	18.4	1.54	 .0743	23	1	100.0	1
08/07/24	15:50	-12.7	-12.7	-12.7	78	-15.7	36.5	SSE	0.61	43.5	SSE	-26.8	-12.7	-26.9	755.4	0.022	0.000	21.4	6	-17.7	18.4	1.54	 .0743	24	1	100.0	1
08/07/24	15:51	-12.6	-12.6	-12.6	78	-15.7	40.0	SSE	0.67	45.2	SSE	-27.2	-12.7	-27.3	755.4	0.021	0.000	21.4	6	-17.7	18.4	1.54	 .0743	23	1	100.0	1
08/07/24	15:52	-12.7	-12.6	-12.7	78	-15.7	34.8	SSE	0.58	42.6	SSE	-26.6	-12.7	-26.7	755.6	0.022	0.000	21.4	6	-17.7	18.4	1.54	 .0743	23	1	100.0	1
08/07/24	15:53	-12.8	-12.7	-12.8	78	-15.8	37.4	SSE	0.62	49.6	SSE	-27.1	-12.8	-27.2	755.5	0.022	0.000	21.5	6	-17.7	18.5	1.54	 .0743	24	1	100.0	1
08/07/24	15:54	-12.8	-12.8	-12.8	78	-15.9	35.7	SSE	0.59	42.6	SSE	-26.9	-12.9	-27.0	755.5	0.022	0.000	21.5	6	-17.7	18.5	1.54	 .0743	23	1	100.0	1
08/07/24	15:55	-12.9	-12.8	-12.9	78	-15.9	33.0	SSE	0.55	39.1	S	-26.6	-12.9	-26.7	755.7	0.022	0.000	21.5	6	-17.7	18.5	1.54	 .0743	24	1	100.0	1
08/07/24	15:56	-12.9	-12.8	-12.9	78	-15.9	33.0	SSE	0.55	37.4	SSE	-26.6	-12.9	-26.7	755.6	0.022	0.000	21.5	6	-17.7	18.5	1.54	 .0743	23	1	100.0	1
08/07/24	15:57	-12.9	-12.9	-12.9	78	-16.0	29.6	SSE	0.49	37.4	SSE	-26.2	-13.0	-26.2	755.7	0.022	0.000	21.5	6	-17.7	18.5	1.54	 .0743	24	1	100.0	1
08/07/24	15:58	-13.0	-12.9	-13.0	78	-16.0	34.8	SSE	0.58	43.5	SSE	-27.1	-13.1	-27.1	755.8	0.022	0.000	21.5	6	-17.7	18.5	1.54	 .0743	23	1	100.0	1
08/07/24	15:59	-12.9	-12.9	-12.9	78	-15.9	32.2	SSE	0.54	40.0	SSE	-26.5	-12.9	-26.6	755.8	0.022	0.000	21.5	6	-17.7	18.5	1.54	 .0743	23	1	100.0	1
08/07/24	16:00	-12.8	-12.8	-12.8	78	-15.8	34.8	SSE	0.58	40.0	SSE	-26.7	-12.8	-26.8	755.6	0.022	0.000	21.5	6	-17.7	18.5	1.54	 .0743	24	1	100.0	1
08/07/24	16:01	-13.0	-12.8	-13.0	78	-16.0	28.7	SE	0.48	32.2	SSE	-26.1	-13.1	-26.1	755.7	0.022	0.000	21.6	6	-17.6	18.6	1.53	 .0743	23	1	100.0	1
08/07/24	16:02	-13.1	-13.0	-13.1	78	-16.1	29.6	SE	0.49	32.2	SSE	-26.4	-13.2	-26.4	755.8	0.022	0.000	21.6	6	-17.6	18.6	1.53	 .0743	24	1	100.0	1
08/07/24	16:03	-13.1	-13.1	-13.1	78	-16.1	29.6	SSE	0.49	35.7	SSE	-26.4	-13.2	-26.4	755.7	0.022	0.000	21.6	6	-17.6	18.6	1.53	 .0743	23	1	100.0	1
08/07/24	16:04	-12.9	-12.9	-13.1	78	-16.0	35.7	SSE	0.59	40.0	SSE	-27.1	-13.0	-27.2	755.6	0.022	0.000	21.6	6	-17.6	18.6	1.53	 .0743	24	1	100.0	1
08/07/24	16:05	-12.8	-12.8	-12.9	78	-15.9	35.7	SSE	0.59	46.1	SSE	-26.9	-12.9	-27.0	755.4	0.022	0.000	21.6	6	-17.6	18.6	1.53	 .0742	23	1	100.0	1
08/07/24	16:06	-12.7	-12.7	-12.8	78	-15.8	36.5	SSE	0.61	46.1	SSE	-26.9	-12.8	-26.9	755.6	0.022	0.000	21.6	6	-17.6	18.6	1.53	 .0743	23	1	100.0	1
08/07/24	16:07	-12.7	-12.7	-12.7	78	-15.8	33.0	SE	0.55	39.1	SSE	-26.4	-12.8	-26.4	755.5	0.022	0.000	21.6	6	-17.6	18.6	1.53	 .0743	24	1	100.0	1
08/07/24	16:08	-12.8	-12.7	-12.8	78	-15.9	30.4	SE	0.51	37.4	SSE	-26.2	-12.9	-26.2	755.6	0.022	0.000	21.6	6	-17.6	18.6	1.53	 .0743	23	1	100.0	1
08/07/24	16:09	-12.9	-12.8	-12.9	78	-16.0	30.4	SE	0.51	35.7	SSE	-26.3	-13.0	-26.3	755.7	0.022	0.000	21.6	6	-17.6	18.6	1.53	 .0743	24	1	100.0	1
08/07/24	16:10	-12.9	-12.9	-12.9	78	-16.0	30.4	SSE	0.51	35.7	SSE	-26.3	-13.0	-26.3	755.7	0.022	0.000	21.6	6	-17.6	18.6	1.53	 .0743	23	1	100.0	1
08/07/24	16:11	-12.9	-12.9	-12.9	78	-16.0	34.8	SSE	0.58	39.1	SSE	-26.9	-13.0	-27.0	755.6	0.022	0.000	21.6	6	-17.6	18.6	1.53	 .0743	23	1	100.0	1
08/07/24	16:12	-12.8	-12.8	-12.9	78	-15.9	35.7	SSE	0.59	40.0	SSE	-26.9	-12.9	-27.0	755.6	0.022	0.000	21.6	6	-17.6	18.6	1.53	 .0743	24	1	100.0	1
08/07/24	16:13	-12.8	-12.8	-12.8	78	-15.8	36.5	SSE	0.61	40.0	SE	-27.0	-12.8	-27.1	755.5	0.022	0.000	21.6	6	-17.6	18.6	1.53	 .0743	23	1	100.0	1
08/07/24	16:14	-12.8	-12.8	-12.8	78	-15.8	36.5	SE	0.61	46.1	SE	-27.0	-12.8	-27.1	755.5	0.022	0.000	21.5	6	-17.7	18.5	1.54	 .0743	24	1	100.0	1
08/07/24	16:15	-12.8	-12.7	-12.8	78	-15.8	33.0	SE	0.55	37.4	SSE	-26.5	-12.8	-26.6	755.6	0.022	0.000	21.5	6	-17.7	18.5	1.54	 .0743	23	1	100.0	1
08/07/24	16:16	-12.8	-12.8	-12.8	78	-15.8	32.2	SSE	0.54	41.7	SSE	-26.3	-12.8	-26.4	755.7	0.022	0.000	21.5	6	-17.7	18.5	1.54	 .0743	23	1	100.0	1
08/07/24	16:17	-12.7	-12.7	-12.8	78	-15.8	29.6	SE	0.49	33.9	SE	-25.8	-12.8	-25.9	755.7	0.022	0.000	21.5	6	-17.7	18.5	1.54	 .0743	24	1	100.0	1
08/07/24	16:18	-12.7	-12.7	-12.7	78	-15.8	27.8	SSE	0.46	31.3	SE	-25.6	-12.8	-25.6	755.8	0.022	0.000	21.5	6	-17.7	18.5	1.54	 .0743	23	1	100.0	1
08/07/24	16:19	-12.8	-12.7	-12.8	78	-15.8	27.8	SE	0.46	30.4	SE	-25.6	-12.8	-25.7	755.8	0.022	0.000	21.5	6	-17.7	18.5	1.54	 .0743	24	1	100.0	1
08/07/24	16:20	-13.3	-12.8	-13.3	78	-16.4	27.8	ESE	0.46	29.6	ESE	-26.4	-13.4	-26.4	755.9	0.022	0.000	21.5	6	-17.7	18.5	1.54	 .0743	23	1	100.0	1
08/07/24	16:21	-13.8	-13.4	-13.8	78	-16.8	28.7	ESE	0.48	34.8	ESE	-27.2	-13.9	-27.3	755.9	0.022	0.000	21.4	6	-17.7	18.4	1.54	 .0743	24	1	100.0	1
08/07/24	16:22	-14.2	-13.9	-14.2	78	-17.2	27.0	ESE	0.45	29.6	ESE	-27.4	-14.3	-27.5	755.9	0.023	0.000	21.4	6	-17.7	18.4	1.54	 .0743	23	1	100.0	1
08/07/24	16:23	-14.3	-14.2	-14.3	78	-17.3	25.2	SE	0.42	28.7	ESE	-27.2	-14.4	-27.3	755.9	0.023	0.000	21.4	6	-17.7	18.4	1.54	 .0743	23	1	100.0	1
08/07/24	16:24	-14.3	-14.3	-14.4	78	-17.3	28.7	ESE	0.48	38.3	ESE	-27.9	-14.4	-27.9	755.7	0.023	0.000	21.4	6	-17.8	18.3	1.54	 .0743	24	1	100.0	1
08/07/24	16:25	-14.2	-14.2	-14.3	78	-17.2	27.0	SE	0.45	32.2	ESE	-27.4	-14.3	-27.5	755.9	0.023	0.000	21.4	6	-17.8	18.3	1.54	 .0743	23	1	100.0	1
08/07/24	16:26	-14.1	-14.1	-14.2	78	-17.1	27.0	ESE	0.45	30.4	SE	-27.2	-14.1	-27.3	755.8	0.022	0.000	21.4	6	-17.8	18.3	1.54	 .0743	24	1	100.0	1
08/07/24	16:27	-14.1	-14.0	-14.1	78	-17.1	25.2	SE	0.42	27.8	ESE	-26.9	-14.1	-26.9	755.8	0.022	0.000	21.4	6	-17.8	18.3	1.54	 .0743	23	1	100.0	1
08/07/24	16:28	-14.1	-14.1	-14.1	78	-17.1	26.1	SE	0.43	32.2	SE	-27.1	-14.2	-27.2	755.9	0.023	0.000	21.4	6	-17.8	18.3	1.54	 .0743	23	1	100.0	1
08/07/24	16:29	-14.2	-14.1	-14.2	78	-17.2	27.0	ESE	0.45	32.2	ESE	-27.3	-14.2	-27.4	755.9	0.023	0.000	21.4	6	-17.8	18.3	1.54	 .0743	24	1	100.0	1
08/07/24	16:30	-14.3	-14.2	-14.3	78	-17.3	27.0	ESE	0.45	32.2	ESE	-27.5	-14.3	-27.6	755.7	0.023	0.000	21.4	6	-17.8	18.3	1.54	 .0743	23	1	100.0	1
08/07/24	16:31	-14.3	-14.3	-14.3	78	-17.3	26.1	ESE	0.43	30.4	SE	-27.4	-14.4	-27.4	755.9	0.023	0.000	21.4	6	-17.8	18.3	1.54	 .0743	24	1	100.0	1
08/07/24	16:32	-14.4	-14.3	-14.4	78	-17.4	25.2	ESE	0.42	30.4	ESE	-27.3	-14.4	-27.4	755.9	0.023	0.000	21.4	6	-17.8	18.3	1.54	 .0743	23	1	100.0	1
08/07/24	16:33	-14.4	-14.4	-14.4	78	-17.4	26.1	ESE	0.43	27.8	ESE	-27.6	-14.5	-27.6	755.9	0.023	0.000	21.4	6	-17.8	18.3	1.54	 .0743	24	1	100.0	1
08/07/24	16:34	-14.4	-14.4	-14.4	78	-17.4	27.0	ESE	0.45	30.4	ESE	-27.7	-14.5	-27.8	755.9	0.023	0.000	21.4	6	-17.8	18.3	1.54	 .0743	23	1	100.0	1
08/07/24	16:35	-14.4	-14.4	-14.4	78	-17.4	27.8	ESE	0.46	31.3	ESE	-27.9	-14.5	-27.9	755.8	0.023	0.000	21.4	6	-17.8	18.3	1.54	 .0743	23	1	100.0	1
08/07/24	16:36	-14.4	-14.4	-14.4	78	-17.4	27.0	ESE	0.45	29.6	ESE	-27.7	-14.4	-27.7	755.8	0.023	0.000	21.4	6	-17.8	18.3	1.54	 .0743	24	1	100.0	1
08/07/24	16:37	-14.3	-14.3	-14.4	78	-17.3	27.8	ESE	0.46	35.7	ESE	-27.7	-14.4	-27.8	755.9	0.023	0.000	21.4	6	-17.8	18.3	1.54	 .0743	23	1	100.0	1
08/07/24	16:38	-14.3	-14.3	-14.3	78	-17.3	25.2	ESE	0.42	27.8	ESE	-27.2	-14.3	-27.2	756.0	0.023	0.000	21.4	6	-17.8	18.3	1.54	 .0743	24	1	100.0	1
08/07/24	16:39	-14.3	-14.3	-14.3	78	-17.3	26.1	ESE	0.43	28.7	ESE	-27.4	-14.4	-27.4	755.9	0.023	0.000	21.4	6	-17.8	18.3	1.54	 .0743	23	1	100.0	1
08/07/24	16:40	-14.3	-14.3	-14.3	78	-17.3	25.2	ESE	0.42	27.8	ESE	-27.2	-14.4	-27.3	755.9	0.023	0.000	21.4	6	-17.8	18.3	1.54	 .0743	23	1	100.0	1
08/07/24	16:41	-14.4	-14.4	-14.4	79	-17.2	24.3	ESE	0.41	28.7	ESE	-27.2	-14.4	-27.2	755.9	0.023	0.000	21.4	6	-17.8	18.3	1.54	 .0743	24	1	100.0	1
08/07/24	16:42	-14.4	-14.4	-14.4	79	-17.2	22.6	ESE	0.38	24.3	ESE	-26.8	-14.4	-26.8	755.9	0.023	0.000	21.4	6	-17.7	18.4	1.54	 .0743	23	1	100.0	1
08/07/24	16:43	-14.4	-14.4	-14.4	79	-17.2	25.2	ESE	0.42	28.7	ESE	-27.3	-14.4	-27.4	755.9	0.023	0.000	21.4	6	-17.7	18.4	1.54	 .0743	24	1	100.0	1
08/07/24	16:44	-14.4	-14.4	-14.4	79	-17.3	21.7	ESE	0.36	23.5	ESE	-26.7	-14.5	-26.7	755.9	0.023	0.000	21.4	6	-17.7	18.4	1.54	 .0743	23	1	100.0	1
08/07/24	16:45	-14.4	-14.4	-14.4	79	-17.2	23.5	ESE	0.39	25.2	SE	-26.9	-14.4	-27.0	755.9	0.023	0.000	21.4	6	-17.7	18.4	1.54	 .0743	23	1	100.0	1
08/07/24	16:46	-14.3	-14.3	-14.4	78	-17.3	24.3	ESE	0.41	27.8	ESE	-27.1	-14.4	-27.1	755.9	0.023	0.000	21.5	6	-17.7	18.5	1.54	 .0743	24	1	100.0	1
08/07/24	16:47	-14.3	-14.3	-14.4	79	-17.1	21.7	ESE	0.36	27.8	SE	-26.4	-14.3	-26.5	755.9	0.023	0.000	21.5	6	-17.7	18.5	1.54	 .0743	23	1	100.0	1
08/07/24	16:48	-14.1	-14.1	-14.3	78	-17.1	23.5	ESE	0.39	27.8	ESE	-26.6	-14.2	-26.7	755.9	0.023	0.000	21.5	6	-17.7	18.5	1.54	 .0743	24	1	100.0	1
08/07/24	16:49	-13.9	-13.9	-14.1	78	-17.0	21.7	SE	0.36	32.2	ESE	-26.0	-14.0	-26.1	755.9	0.022	0.000	21.5	6	-17.7	18.5	1.54	 .0743	23	1	100.0	1
08/07/24	16:50	-13.7	-13.7	-13.9	78	-16.7	23.5	SE	0.39	31.3	ESE	-26.1	-13.8	-26.1	755.7	0.022	0.000	21.5	6	-17.7	18.5	1.54	 .0743	24	1	100.0	1
08/07/24	16:51	-13.6	-13.6	-13.7	78	-16.6	20.0	SE	0.33	24.3	ESE	-25.1	-13.7	-25.2	755.9	0.022	0.000	21.6	6	-17.6	18.6	1.53	 .0743	23	1	100.0	1
08/07/24	16:52	-13.7	-13.6	-13.7	78	-16.7	20.0	ESE	0.33	23.5	ESE	-25.2	-13.7	-25.3	756.0	0.022	0.000	21.6	6	-17.6	18.6	1.53	 .0743	23	1	100.0	1
08/07/24	16:53	-13.8	-13.7	-13.8	78	-16.8	20.0	ESE	0.33	21.7	ESE	-25.3	-13.8	-25.4	756.0	0.022	0.000	21.6	6	-17.6	18.6	1.53	 .0743	24	1	100.0	1
08/07/24	16:54	-13.9	-13.8	-13.9	78	-17.0	20.9	ESE	0.35	22.6	ESE	-25.8	-14.0	-25.8	756.0	0.022	0.000	21.6	6	-17.6	18.6	1.53	 .0743	23	1	100.0	1
08/07/24	16:55	-14.1	-14.0	-14.1	79	-16.9	20.9	ESE	0.35	22.6	ESE	-25.9	-14.1	-26.0	756.1	0.022	0.000	21.6	6	-17.6	18.6	1.53	 .0743	24	1	100.0	1
08/07/24	16:56	-14.1	-14.1	-14.1	79	-17.0	17.4	ESE	0.29	19.1	ESE	-25.1	-14.2	-25.2	756.1	0.023	0.000	21.6	6	-17.6	18.7	1.53	 .0743	23	1	100.0	1
08/07/24	16:57	-14.1	-14.1	-14.2	79	-17.0	20.9	ESE	0.35	22.6	ESE	-26.0	-14.2	-26.1	756.1	0.023	0.000	21.6	6	-17.6	18.7	1.53	 .0743	23	1	100.0	1
08/07/24	16:58	-14.1	-14.1	-14.1	78	-17.1	20.9	ESE	0.35	23.5	ESE	-26.0	-14.2	-26.1	756.1	0.023	0.000	21.6	6	-17.6	18.7	1.53	 .0743	24	1	100.0	1
08/07/24	16:59	-14.2	-14.1	-14.2	78	-17.2	21.7	ESE	0.36	23.5	ESE	-26.3	-14.2	-26.3	756.0	0.023	0.000	21.6	6	-17.6	18.7	1.53	 .0743	23	1	100.0	1
08/07/24	17:00	-14.1	-14.1	-14.2	78	-17.1	20.9	ESE	0.35	21.7	ESE	-26.0	-14.2	-26.1	756.0	0.023	0.000	21.6	6	-17.6	18.7	1.53	 .0743	24	1	100.0	1
08/07/24	17:01	-14.1	-14.1	-14.1	78	-17.1	22.6	ESE	0.38	24.3	ESE	-26.3	-14.1	-26.4	756.0	0.022	0.000	21.6	6	-17.6	18.7	1.53	 .0743	23	1	100.0	1
08/07/24	17:02	-14.1	-14.1	-14.1	78	-17.1	22.6	ESE	0.38	25.2	ESE	-26.3	-14.1	-26.4	755.9	0.022	0.000	21.6	6	-17.6	18.7	1.53	 .0743	24	1	100.0	1
08/07/24	17:03	-14.1	-14.1	-14.1	78	-17.1	22.6	ESE	0.38	24.3	ESE	-26.4	-14.2	-26.4	755.9	0.023	0.000	21.6	6	-17.6	18.7	1.53	 .0743	23	1	100.0	1
08/07/24	17:04	-14.2	-14.2	-14.2	79	-17.0	21.7	ESE	0.36	24.3	ESE	-26.3	-14.2	-26.3	755.9	0.023	0.000	21.6	6	-17.6	18.7	1.53	 .0743	23	1	100.0	1
08/07/24	17:05	-14.2	-14.2	-14.2	78	-17.2	22.6	ESE	0.38	23.5	ESE	-26.6	-14.3	-26.6	755.9	0.023	0.000	21.6	6	-17.6	18.7	1.53	 .0743	24	1	100.0	1
08/07/24	17:06	-14.2	-14.2	-14.2	78	-17.2	24.3	ESE	0.41	26.1	ESE	-26.9	-14.3	-26.9	755.8	0.023	0.000	21.6	6	-17.6	18.7	1.53	 .0743	23	1	100.0	1
08/07/24	17:07	-14.2	-14.2	-14.2	78	-17.2	23.5	ESE	0.39	26.1	ESE	-26.7	-14.3	-26.8	755.9	0.023	0.000	21.6	6	-17.6	18.7	1.53	 .0743	24	1	100.0	1
08/07/24	17:08	-14.2	-14.2	-14.2	78	-17.2	24.3	ESE	0.41	26.1	ESE	-26.9	-14.3	-26.9	755.8	0.023	0.000	21.6	6	-17.6	18.7	1.53	 .0743	23	1	100.0	1
08/07/24	17:09	-14.3	-14.2	-14.3	78	-17.3	24.3	ESE	0.41	27.0	ESE	-27.0	-14.3	-27.1	755.8	0.023	0.000	21.6	6	-17.6	18.7	1.53	 .0743	23	1	100.0	1
08/07/24	17:10	-14.3	-14.3	-14.3	78	-17.3	24.3	ESE	0.41	26.1	ESE	-27.0	-14.3	-27.1	755.8	0.023	0.000	21.6	6	-17.6	18.6	1.53	 .0743	24	1	100.0	1
08/07/24	17:11	-14.3	-14.3	-14.3	78	-17.3	24.3	ESE	0.41	26.1	ESE	-27.0	-14.3	-27.1	755.8	0.023	0.000	21.6	6	-17.6	18.6	1.53	 .0743	23	1	100.0	1
08/07/24	17:12	-14.3	-14.3	-14.3	78	-17.3	25.2	ESE	0.42	26.1	ESE	-27.2	-14.3	-27.2	755.8	0.023	0.000	21.6	6	-17.6	18.6	1.53	 .0743	24	1	100.0	1
08/07/24	17:13	-14.2	-14.2	-14.2	78	-17.2	23.5	ESE	0.39	25.2	ESE	-26.7	-14.3	-26.8	755.8	0.023	0.000	21.5	6	-17.7	18.5	1.54	 .0743	23	1	100.0	1
08/07/24	17:14	-14.2	-14.2	-14.2	78	-17.2	24.3	ESE	0.41	25.2	ESE	-26.9	-14.3	-26.9	755.8	0.023	0.000	21.5	6	-17.7	18.5	1.54	 .0743	24	1	100.0	1
08/07/24	17:15	-14.2	-14.2	-14.2	78	-17.2	23.5	ESE	0.39	26.1	ESE	-26.7	-14.2	-26.7	755.7	0.023	0.000	21.5	6	-17.7	18.5	1.54	 .0743	23	1	100.0	1
08/07/24	17:16	-14.2	-14.2	-14.2	78	-17.2	24.3	ESE	0.41	26.1	ESE	-26.8	-14.2	-26.9	755.8	0.023	0.000	21.5	6	-17.7	18.5	1.54	 .0743	23	1	100.0	1
08/07/24	17:17	-14.2	-14.2	-14.2	78	-17.2	25.2	ESE	0.42	27.8	ESE	-27.0	-14.2	-27.1	755.7	0.023	0.000	21.5	6	-17.7	18.5	1.54	 .0743	24	1	100.0	1
08/07/24	17:18	-14.2	-14.2	-14.2	78	-17.2	24.3	ESE	0.41	27.0	SE	-26.8	-14.2	-26.9	755.7	0.023	0.000	21.4	6	-17.7	18.4	1.54	 .0743	23	1	100.0	1
08/07/24	17:19	-14.1	-14.1	-14.2	78	-17.1	25.2	SE	0.42	27.8	SE	-26.9	-14.1	-26.9	755.7	0.022	0.000	21.4	6	-17.7	18.4	1.54	 .0743	24	1	100.0	1
08/07/24	17:20	-14.0	-14.0	-14.1	78	-17.0	26.1	SE	0.43	28.7	SE	-26.9	-14.1	-27.0	755.7	0.022	0.000	21.4	6	-17.7	18.4	1.54	 .0743	23	1	100.0	1
08/07/24	17:21	-13.9	-13.9	-13.9	78	-16.9	27.0	SE	0.45	28.7	SE	-27.0	-13.9	-27.1	755.7	0.022	0.000	21.4	6	-17.7	18.4	1.54	 .0743	23	1	100.0	1
08/07/24	17:22	-13.8	-13.8	-13.8	78	-16.8	24.3	SE	0.41	29.6	SE	-26.3	-13.8	-26.4	755.7	0.022	0.000	21.4	6	-17.7	18.4	1.54	 .0743	24	1	100.0	1
08/07/24	17:23	-13.8	-13.8	-13.8	78	-16.8	26.1	SE	0.43	29.6	SE	-26.7	-13.8	-26.7	755.7	0.022	0.000	21.4	6	-17.7	18.4	1.54	 .0743	23	1	100.0	1
08/07/24	17:24	-13.8	-13.8	-13.8	78	-16.8	26.1	SE	0.43	27.0	SE	-26.7	-13.8	-26.7	755.7	0.022	0.000	21.4	6	-17.7	18.4	1.54	 .0743	24	1	100.0	1
08/07/24	17:25	-13.8	-13.8	-13.8	78	-16.8	24.3	SE	0.41	27.8	SE	-26.3	-13.8	-26.4	755.7	0.022	0.000	21.4	6	-17.7	18.4	1.54	 .0743	23	1	100.0	1
08/07/24	17:26	-13.8	-13.8	-13.8	78	-16.8	25.2	SE	0.42	28.7	SE	-26.5	-13.8	-26.6	755.7	0.022	0.000	21.5	6	-17.7	18.5	1.54	 .0743	23	1	100.0	1
08/07/24	17:27	-13.7	-13.7	-13.8	78	-16.7	27.0	SE	0.45	31.3	SE	-26.7	-13.8	-26.8	755.7	0.022	0.000	21.5	6	-17.7	18.5	1.54	 .0743	24	1	100.0	1
08/07/24	17:28	-13.7	-13.7	-13.7	78	-16.7	25.2	SE	0.42	27.0	SE	-26.4	-13.8	-26.4	755.7	0.022	0.000	21.5	6	-17.7	18.5	1.54	 .0743	23	1	100.0	1
08/07/24	17:29	-13.7	-13.7	-13.7	78	-16.7	25.2	SE	0.42	27.0	SE	-26.4	-13.8	-26.4	755.7	0.022	0.000	21.5	6	-17.7	18.5	1.54	 .0743	24	1	100.0	1
08/07/24	17:30	-13.7	-13.7	-13.7	78	-16.7	27.0	SE	0.45	28.7	SE	-26.7	-13.8	-26.8	755.8	0.022	0.000	21.5	6	-17.7	18.5	1.54	 .0743	23	1	100.0	1
08/07/24	17:31	-13.7	-13.7	-13.7	78	-16.7	28.7	SE	0.48	32.2	ESE	-27.1	-13.8	-27.1	755.7	0.022	0.000	21.5	6	-17.7	18.5	1.54	 .0743	24	1	100.0	1
08/07/24	17:32	-13.7	-13.7	-13.7	78	-16.7	27.0	SE	0.45	29.6	SE	-26.7	-13.7	-26.7	755.7	0.022	0.000	21.5	6	-17.7	18.5	1.54	 .0743	23	1	100.0	1
08/07/24	17:33	-13.7	-13.7	-13.7	78	-16.7	27.0	SE	0.45	29.6	SE	-26.7	-13.7	-26.7	755.7	0.022	0.000	21.6	6	-17.6	18.6	1.53	 .0743	23	1	100.0	1
08/07/24	17:34	-13.7	-13.7	-13.7	78	-16.7	27.0	SE	0.45	28.7	SE	-26.7	-13.7	-26.7	755.8	0.022	0.000	21.6	6	-17.6	18.6	1.53	 .0743	24	1	100.0	1
08/07/24	17:35	-13.7	-13.7	-13.7	78	-16.7	27.8	SE	0.46	29.6	SE	-26.8	-13.7	-26.9	755.7	0.022	0.000	21.6	6	-17.6	18.6	1.53	 .0743	23	1	100.0	1
08/07/24	17:36	-13.7	-13.6	-13.7	78	-16.7	27.8	SE	0.46	30.4	SE	-26.8	-13.7	-26.9	755.8	0.022	0.000	21.6	6	-17.6	18.6	1.53	 .0743	24	1	100.0	1
08/07/24	17:37	-13.7	-13.6	-13.7	78	-16.7	27.0	SE	0.45	29.6	SE	-26.7	-13.7	-26.7	755.8	0.022	0.000	21.6	6	-17.6	18.6	1.53	 .0743	23	1	100.0	1
08/07/24	17:38	-13.7	-13.7	-13.7	78	-16.7	26.1	SE	0.43	29.6	SE	-26.5	-13.7	-26.6	755.8	0.022	0.000	21.6	6	-17.6	18.7	1.53	 .0743	24	1	100.0	1
08/07/24	17:39	-13.7	-13.7	-13.7	78	-16.7	27.0	SE	0.45	29.6	SE	-26.7	-13.7	-26.7	755.8	0.022	0.000	21.6	6	-17.6	18.7	1.53	 .0743	23	1	100.0	1
08/07/24	17:40	-13.7	-13.7	-13.7	78	-16.7	26.1	SE	0.43	30.4	SE	-26.5	-13.7	-26.6	755.8	0.022	0.000	21.6	6	-17.6	18.7	1.53	 .0743	23	1	100.0	1
08/07/24	17:41	-13.7	-13.7	-13.7	78	-16.7	27.0	SE	0.45	30.4	SE	-26.7	-13.7	-26.7	755.7	0.022	0.000	21.6	6	-17.6	18.7	1.53	 .0743	24	1	100.0	1
08/07/24	17:42	-13.6	-13.6	-13.7	78	-16.6	26.1	SE	0.43	27.8	SE	-26.4	-13.7	-26.5	755.8	0.022	0.000	21.6	6	-17.6	18.7	1.53	 .0743	23	1	100.0	1
08/07/24	17:43	-13.6	-13.6	-13.7	78	-16.6	25.2	SE	0.42	27.0	SE	-26.3	-13.7	-26.3	755.9	0.022	0.000	21.7	6	-17.6	18.8	1.53	 .0743	24	1	100.0	1
08/07/24	17:44	-13.7	-13.6	-13.7	78	-16.7	25.2	SE	0.42	27.8	SE	-26.3	-13.7	-26.4	755.8	0.022	0.000	21.7	6	-17.6	18.8	1.53	 .0743	23	1	100.0	1
08/07/24	17:45	-13.6	-13.6	-13.7	78	-16.6	27.0	SE	0.45	29.6	ESE	-26.6	-13.7	-26.7	755.8	0.022	0.000	21.7	6	-17.6	18.8	1.53	 .0743	23	1	100.0	1
08/07/24	17:46	-13.6	-13.6	-13.6	78	-16.6	27.8	ESE	0.46	30.4	ESE	-26.7	-13.6	-26.7	755.8	0.022	0.000	21.7	6	-17.6	18.8	1.53	 .0743	24	1	100.0	1
08/07/24	17:47	-13.6	-13.6	-13.6	78	-16.6	27.0	ESE	0.45	28.7	ESE	-26.5	-13.6	-26.6	755.8	0.022	0.000	21.7	6	-17.6	18.8	1.53	 .0743	23	1	100.0	1
08/07/24	17:48	-13.6	-13.5	-13.6	78	-16.6	27.0	ESE	0.45	28.7	ESE	-26.5	-13.6	-26.6	755.8	0.022	0.000	21.7	6	-17.6	18.8	1.53	 .0743	24	1	100.0	1
08/07/24	17:49	-13.7	-13.6	-13.7	78	-16.7	25.2	ESE	0.42	27.0	ESE	-26.3	-13.7	-26.4	755.8	0.022	0.000	21.7	6	-17.6	18.8	1.53	 .0743	23	1	100.0	1
08/07/24	17:50	-13.8	-13.7	-13.8	78	-16.8	26.1	ESE	0.43	27.8	ESE	-26.7	-13.8	-26.7	755.9	0.022	0.000	21.7	6	-17.6	18.8	1.53	 .0743	23	1	100.0	1
08/07/24	17:51	-13.9	-13.8	-13.9	79	-16.7	24.3	ESE	0.41	26.1	ESE	-26.4	-13.9	-26.5	755.9	0.022	0.000	21.7	6	-17.6	18.8	1.53	 .0743	24	1	100.0	1
08/07/24	17:52	-13.9	-13.9	-13.9	79	-16.8	22.6	ESE	0.38	24.3	ESE	-26.2	-14.0	-26.2	755.9	0.022	0.000	21.7	6	-17.6	18.8	1.53	 .0743	23	1	100.0	1
08/07/24	17:53	-14.0	-13.9	-14.0	78	-17.0	23.5	ESE	0.39	24.3	ESE	-26.4	-14.1	-26.5	756.0	0.022	0.000	21.6	6	-17.6	18.7	1.53	 .0743	24	1	100.0	1
08/07/24	17:54	-14.0	-14.0	-14.0	78	-17.0	26.1	ESE	0.43	28.7	ESE	-26.9	-14.1	-27.0	756.0	0.022	0.000	21.6	6	-17.6	18.7	1.53	 .0743	23	1	100.0	1
08/07/24	17:55	-13.8	-13.8	-13.9	78	-16.8	24.3	ESE	0.41	27.0	SE	-26.4	-13.9	-26.4	755.9	0.022	0.000	21.6	6	-17.6	18.7	1.53	 .0743	24	1	100.0	1
08/07/24	17:56	-13.8	-13.8	-13.8	78	-16.8	25.2	ESE	0.42	28.7	SE	-26.5	-13.8	-26.6	755.9	0.022	0.000	21.6	6	-17.6	18.7	1.53	 .0743	23	1	100.0	1
08/07/24	17:57	-13.8	-13.8	-13.8	78	-16.8	25.2	ESE	0.42	30.4	ESE	-26.6	-13.9	-26.6	755.9	0.022	0.000	21.6	6	-17.6	18.7	1.53	 .0743	23	1	100.0	1
08/07/24	17:58	-13.8	-13.8	-13.8	78	-16.8	26.1	ESE	0.43	27.8	ESE	-26.7	-13.8	-26.7	755.8	0.022	0.000	21.6	6	-17.6	18.6	1.53	 .0743	24	1	100.0	1
08/07/24	17:59	-13.8	-13.8	-13.8	78	-16.8	25.2	ESE	0.42	27.0	ESE	-26.5	-13.8	-26.6	755.8	0.022	0.000	21.6	6	-17.6	18.6	1.53	 .0743	23	1	100.0	1
08/07/24	18:00	-13.8	-13.8	-13.8	78	-16.8	25.2	ESE	0.42	27.0	ESE	-26.6	-13.9	-26.6	755.8	0.022	0.000	21.6	6	-17.6	18.6	1.53	 .0743	24	1	100.0	1
08/07/24	18:01	-13.9	-13.8	-13.9	78	-16.9	26.1	ESE	0.43	27.0	ESE	-26.8	-13.9	-26.9	755.8	0.022	0.000	21.6	6	-17.6	18.6	1.53	 .0743	23	1	100.0	1
08/07/24	18:02	-13.9	-13.9	-13.9	78	-17.0	25.2	ESE	0.42	27.8	ESE	-26.7	-14.0	-26.8	755.8	0.022	0.000	21.5	6	-17.7	18.5	1.54	 .0743	23	1	100.0	1
08/07/24	18:03	-13.9	-13.9	-13.9	78	-17.0	25.2	ESE	0.42	26.1	ESE	-26.7	-14.0	-26.8	755.9	0.022	0.000	21.5	6	-17.7	18.5	1.54	 .0743	24	1	100.0	1
08/07/24	18:04	-13.9	-13.9	-13.9	78	-17.0	24.3	ESE	0.41	25.2	ESE	-26.6	-14.0	-26.6	755.9	0.022	0.000	21.5	6	-17.7	18.5	1.54	 .0743	23	1	100.0	1
08/07/24	18:05	-13.9	-13.9	-14.0	78	-17.0	24.3	ESE	0.41	26.1	ESE	-26.6	-14.0	-26.6	755.9	0.022	0.000	21.5	6	-17.7	18.5	1.54	 .0743	24	1	100.0	1
08/07/24	18:06	-13.8	-13.8	-13.9	78	-16.8	23.5	ESE	0.39	25.2	ESE	-26.2	-13.9	-26.3	755.9	0.022	0.000	21.5	6	-17.7	18.5	1.54	 .0743	23	1	100.0	1
08/07/24	18:07	-13.9	-13.8	-13.9	78	-16.9	23.5	ESE	0.39	26.1	SE	-26.3	-13.9	-26.3	755.9	0.022	0.000	21.5	6	-17.7	18.5	1.54	 .0743	23	1	100.0	1
08/07/24	18:08	-13.8	-13.8	-13.8	78	-16.8	23.5	ESE	0.39	25.2	ESE	-26.2	-13.9	-26.3	755.9	0.022	0.000	21.4	6	-17.7	18.4	1.54	 .0743	24	1	100.0	1
08/07/24	18:09	-13.8	-13.8	-13.8	78	-16.8	24.3	ESE	0.41	26.1	ESE	-26.4	-13.9	-26.4	755.9	0.022	0.000	21.4	6	-17.7	18.4	1.54	 .0743	23	1	100.0	1
08/07/24	18:10	-13.9	-13.9	-13.9	78	-16.9	27.0	ESE	0.45	29.6	ESE	-27.0	-13.9	-27.1	755.8	0.022	0.000	21.4	6	-17.7	18.4	1.54	 .0743	24	1	100.0	1
08/07/24	18:11	-13.9	-13.8	-13.9	78	-16.9	25.2	ESE	0.42	30.4	ESE	-26.7	-13.9	-26.7	755.8	0.022	0.000	21.5	6	-17.7	18.5	1.54	 .0743	23	1	100.0	1
08/07/24	18:12	-13.8	-13.8	-13.9	78	-16.8	27.0	ESE	0.45	31.3	SE	-26.8	-13.8	-26.9	755.7	0.022	0.000	21.5	6	-17.7	18.5	1.54	 .0743	24	1	100.0	1
08/07/24	18:13	-13.8	-13.8	-13.8	78	-16.8	27.8	ESE	0.46	29.6	ESE	-27.1	-13.9	-27.1	755.7	0.022	0.000	21.4	6	-17.7	18.4	1.54	 .0743	23	1	100.0	1
08/07/24	18:14	-13.8	-13.8	-13.8	78	-16.8	27.8	ESE	0.46	29.6	ESE	-27.0	-13.8	-27.1	755.7	0.022	0.000	21.5	6	-17.7	18.5	1.54	 .0743	23	1	100.0	1
08/07/24	18:15	-13.8	-13.8	-13.8	78	-16.8	27.0	ESE	0.45	28.7	ESE	-26.9	-13.9	-26.9	755.7	0.022	0.000	21.5	6	-17.7	18.5	1.54	 .0743	24	1	100.0	1
08/07/24	18:16	-13.9	-13.8	-13.9	78	-16.9	25.2	ESE	0.42	27.0	ESE	-26.7	-13.9	-26.7	755.8	0.022	0.000	21.5	6	-17.7	18.5	1.54	 .0743	23	1	100.0	1
08/07/24	18:17	-14.0	-13.9	-14.0	78	-17.0	26.1	ESE	0.43	27.8	ESE	-26.9	-14.1	-27.0	755.9	0.022	0.000	21.5	6	-17.7	18.5	1.54	 .0743	24	1	100.0	1
08/07/24	18:18	-14.1	-14.0	-14.1	78	-17.1	26.1	ESE	0.43	27.0	ESE	-27.1	-14.1	-27.1	755.8	0.022	0.000	21.5	6	-17.7	18.5	1.54	 .0743	23	1	100.0	1
08/07/24	18:19	-14.1	-14.1	-14.1	78	-17.1	27.0	ESE	0.45	30.4	ESE	-27.3	-14.2	-27.3	755.8	0.023	0.000	21.5	6	-17.7	18.5	1.54	 .0743	23	1	100.0	1
08/07/24	18:20	-14.1	-14.1	-14.1	78	-17.1	27.8	ESE	0.46	30.4	ESE	-27.4	-14.1	-27.4	755.8	0.022	0.000	21.5	6	-17.7	18.5	1.54	 .0743	24	1	100.0	1
08/07/24	18:21	-14.1	-14.1	-14.1	78	-17.1	27.0	ESE	0.45	28.7	ESE	-27.2	-14.1	-27.3	755.8	0.022	0.000	21.5	6	-17.7	18.5	1.54	 .0743	23	1	100.0	1
08/07/24	18:22	-14.0	-14.0	-14.1	78	-17.0	27.0	ESE	0.45	28.7	ESE	-27.1	-14.1	-27.2	755.8	0.022	0.000	21.5	6	-17.7	18.5	1.54	 .0743	24	1	100.0	1
08/07/24	18:23	-13.9	-13.9	-14.0	78	-17.0	27.0	ESE	0.45	28.7	ESE	-27.1	-14.0	-27.1	755.8	0.022	0.000	21.5	6	-17.7	18.5	1.54	 .0743	23	1	100.0	1
08/07/24	18:24	-13.9	-13.9	-13.9	78	-16.9	27.8	ESE	0.46	30.4	ESE	-27.1	-13.9	-27.2	755.8	0.022	0.000	21.6	6	-17.6	18.6	1.53	 .0743	24	1	100.0	1
08/07/24	18:25	-13.8	-13.8	-13.8	78	-16.8	29.6	ESE	0.49	31.3	ESE	-27.3	-13.8	-27.3	755.8	0.022	0.000	21.6	6	-17.6	18.6	1.53	 .0743	23	1	100.0	1
08/07/24	18:26	-13.8	-13.8	-13.8	78	-16.8	27.8	ESE	0.46	30.4	ESE	-27.1	-13.9	-27.1	755.8	0.022	0.000	21.6	6	-17.6	18.6	1.53	 .0743	23	1	100.0	1
08/07/24	18:27	-13.8	-13.8	-13.8	78	-16.8	28.7	E	0.48	31.3	ESE	-27.2	-13.9	-27.3	755.9	0.022	0.000	21.6	6	-17.6	18.6	1.53	 .0743	24	1	100.0	1
08/07/24	18:28	-13.8	-13.8	-13.8	78	-16.8	27.0	E	0.45	30.4	ESE	-26.9	-13.9	-26.9	755.9	0.022	0.000	21.6	6	-17.6	18.7	1.53	 .0743	23	1	100.0	1
08/07/24	18:29	-13.8	-13.8	-13.8	78	-16.8	27.8	E	0.46	31.3	ESE	-27.1	-13.9	-27.1	755.9	0.022	0.000	21.6	6	-17.6	18.7	1.53	 .0743	24	1	100.0	1
08/07/24	18:30	-13.8	-13.8	-13.8	78	-16.8	25.2	E	0.42	27.0	ESE	-26.5	-13.8	-26.6	755.9	0.022	0.000	21.6	6	-17.6	18.7	1.53	 .0743	23	1	100.0	1
08/07/24	18:31	-13.8	-13.8	-13.8	78	-16.8	26.1	E	0.43	29.6	ESE	-26.7	-13.9	-26.8	755.9	0.022	0.000	21.6	6	-17.6	18.7	1.53	 .0743	23	1	100.0	1
08/07/24	18:32	-13.8	-13.8	-13.8	78	-16.8	27.8	E	0.46	29.6	E	-27.1	-13.9	-27.1	755.8	0.022	0.000	21.6	6	-17.6	18.7	1.53	 .0743	24	1	100.0	1
08/07/24	18:33	-13.8	-13.8	-13.8	78	-16.8	27.8	ESE	0.46	29.6	ESE	-27.0	-13.8	-27.1	755.8	0.022	0.000	21.6	6	-17.6	18.7	1.53	 .0743	23	1	100.0	1
08/07/24	18:34	-13.7	-13.7	-13.8	78	-16.7	27.8	ESE	0.46	29.6	ESE	-26.9	-13.8	-26.9	755.7	0.022	0.000	21.6	6	-17.6	18.7	1.53	 .0743	24	1	100.0	1
08/07/24	18:35	-13.7	-13.7	-13.7	78	-16.7	27.8	ESE	0.46	28.7	ESE	-26.9	-13.8	-26.9	755.8	0.022	0.000	21.7	6	-17.6	18.8	1.53	 .0743	23	1	100.0	1
08/07/24	18:36	-13.7	-13.7	-13.7	78	-16.7	27.0	ESE	0.45	28.7	E	-26.7	-13.8	-26.8	755.7	0.022	0.000	21.7	6	-17.6	18.8	1.53	 .0742	24	1	100.0	1
08/07/24	18:37	-13.7	-13.7	-13.7	78	-16.7	27.0	ESE	0.45	27.8	ESE	-26.7	-13.8	-26.8	755.8	0.022	0.000	21.7	6	-17.6	18.8	1.53	 .0743	23	1	100.0	1
08/07/24	18:38	-13.7	-13.7	-13.7	78	-16.7	27.0	ESE	0.45	30.4	ESE	-26.7	-13.7	-26.7	755.7	0.022	0.000	21.6	6	-17.6	18.7	1.53	 .0743	23	1	100.0	1
08/07/24	18:39	-13.7	-13.7	-13.7	78	-16.7	25.2	ESE	0.42	27.8	ESE	-26.3	-13.7	-26.4	755.8	0.022	0.000	21.7	6	-17.6	18.8	1.53	 .0743	24	1	100.0	1
08/07/24	18:40	-13.6	-13.6	-13.7	78	-16.6	27.8	ESE	0.46	30.4	ESE	-26.8	-13.7	-26.8	755.8	0.022	0.000	21.6	6	-17.6	18.7	1.53	 .0743	23	1	100.0	1
08/07/24	18:41	-13.5	-13.5	-13.6	78	-16.5	27.0	ESE	0.45	28.7	ESE	-26.4	-13.6	-26.5	755.7	0.022	0.000	21.6	6	-17.6	18.7	1.53	 .0743	24	1	100.0	1
08/07/24	18:42	-13.6	-13.5	-13.6	78	-16.6	27.0	ESE	0.45	28.7	ESE	-26.5	-13.6	-26.6	755.8	0.022	0.000	21.6	6	-17.6	18.7	1.53	 .0743	23	1	100.0	1
08/07/24	18:43	-13.7	-13.6	-13.7	78	-16.7	27.0	ESE	0.45	28.7	ESE	-26.7	-13.7	-26.7	755.7	0.022	0.000	21.6	6	-17.6	18.7	1.53	 .0743	23	1	100.0	1
08/07/24	18:44	-13.7	-13.7	-13.7	78	-16.7	27.0	ESE	0.45	29.6	ESE	-26.7	-13.8	-26.8	755.7	0.022	0.000	21.6	6	-17.6	18.7	1.53	 .0743	24	1	100.0	1
08/07/24	18:45	-13.8	-13.8	-13.8	78	-16.8	27.0	ESE	0.45	28.7	ESE	-26.9	-13.9	-26.9	755.7	0.022	0.000	21.6	6	-17.6	18.7	1.53	 .0743	23	1	100.0	1
08/07/24	18:46	-13.8	-13.8	-13.8	78	-16.8	27.0	ESE	0.45	27.8	ESE	-26.9	-13.9	-26.9	755.7	0.022	0.000	21.6	6	-17.6	18.6	1.53	 .0743	24	1	100.0	1
08/07/24	18:47	-13.9	-13.8	-13.9	78	-16.9	26.1	ESE	0.43	27.8	ESE	-26.8	-13.9	-26.9	755.7	0.022	0.000	21.6	6	-17.6	18.6	1.53	 .0743	23	1	100.0	1
08/07/24	18:48	-13.9	-13.9	-13.9	78	-16.9	27.0	ESE	0.45	28.7	ESE	-27.0	-13.9	-27.1	755.7	0.022	0.000	21.6	6	-17.6	18.6	1.53	 .0743	23	1	100.0	1
08/07/24	18:49	-13.9	-13.9	-13.9	78	-17.0	25.2	ESE	0.42	27.8	ESE	-26.7	-14.0	-26.8	755.7	0.022	0.000	21.6	6	-17.6	18.6	1.53	 .0743	24	1	100.0	1
08/07/24	18:50	-14.0	-13.9	-14.0	78	-17.0	25.2	ESE	0.42	27.0	ESE	-26.8	-14.1	-26.8	755.7	0.022	0.000	21.6	6	-17.6	18.6	1.53	 .0743	23	1	100.0	1
08/07/24	18:51	-14.0	-14.0	-14.0	78	-17.0	27.0	ESE	0.45	29.6	ESE	-27.1	-14.1	-27.2	755.7	0.022	0.000	21.6	6	-17.6	18.6	1.53	 .0743	24	1	100.0	1
08/07/24	18:52	-13.9	-13.9	-14.0	78	-17.0	26.1	ESE	0.43	27.8	ESE	-26.9	-14.0	-26.9	755.7	0.022	0.000	21.5	6	-17.7	18.5	1.54	 .0743	23	1	100.0	1
08/07/24	18:53	-13.9	-13.9	-13.9	78	-17.0	26.1	ESE	0.43	27.8	ESE	-26.9	-14.0	-26.9	755.7	0.022	0.000	21.6	6	-17.6	18.6	1.53	 .0743	24	1	100.0	1
08/07/24	18:54	-13.9	-13.9	-13.9	78	-17.0	26.1	ESE	0.43	27.8	ESE	-26.9	-14.0	-26.9	755.7	0.022	0.000	21.5	6	-17.7	18.5	1.54	 .0743	23	1	100.0	1
08/07/24	18:55	-13.9	-13.9	-13.9	78	-17.0	25.2	ESE	0.42	27.0	ESE	-26.7	-14.0	-26.8	755.8	0.022	0.000	21.5	6	-17.7	18.5	1.54	 .0743	23	1	100.0	1
08/07/24	18:56	-13.9	-13.9	-13.9	78	-16.9	26.1	ESE	0.43	28.7	ESE	-26.8	-13.9	-26.9	755.7	0.022	0.000	21.5	6	-17.7	18.5	1.54	 .0743	24	1	100.0	1
08/07/24	18:57	-13.8	-13.8	-13.9	78	-16.8	27.0	ESE	0.45	28.7	ESE	-26.9	-13.9	-26.9	755.7	0.022	0.000	21.5	6	-17.7	18.5	1.54	 .0743	23	1	100.0	1
08/07/24	18:58	-13.8	-13.8	-13.8	78	-16.8	27.0	ESE	0.45	28.7	ESE	-26.9	-13.9	-26.9	755.7	0.022	0.000	21.5	6	-17.7	18.5	1.54	 .0743	24	1	100.0	1
08/07/24	18:59	-13.8	-13.8	-13.8	78	-16.8	27.0	ESE	0.45	28.7	ESE	-26.8	-13.8	-26.9	755.7	0.022	0.000	21.5	6	-17.7	18.5	1.54	 .0743	23	1	100.0	1
08/07/24	19:00	-13.8	-13.8	-13.8	78	-16.8	26.1	ESE	0.43	28.7	ESE	-26.7	-13.8	-26.7	755.7	0.022	0.000	21.5	6	-17.7	18.5	1.54	 .0743	23	1	100.0	1
08/07/24	19:01	-13.7	-13.7	-13.8	78	-16.7	26.1	ESE	0.43	27.8	ESE	-26.6	-13.8	-26.7	755.7	0.022	0.000	21.5	6	-17.7	18.5	1.54	 .0743	24	1	100.0	1
08/07/24	19:02	-13.6	-13.6	-13.7	78	-16.6	25.2	ESE	0.42	27.8	ESE	-26.3	-13.7	-26.3	755.7	0.022	0.000	21.6	6	-17.6	18.6	1.53	 .0743	23	1	100.0	1
08/07/24	19:03	-13.7	-13.6	-13.7	78	-16.7	26.1	ESE	0.43	27.0	ESE	-26.5	-13.7	-26.6	755.7	0.022	0.000	21.5	6	-17.7	18.5	1.54	 .0743	24	1	100.0	1
08/07/24	19:04	-13.6	-13.6	-13.7	78	-16.6	27.0	ESE	0.45	31.3	ESE	-26.6	-13.7	-26.7	755.6	0.022	0.000	21.6	6	-17.6	18.6	1.53	 .0743	23	1	100.0	1
08/07/24	19:05	-13.4	-13.4	-13.6	78	-16.5	27.0	ESE	0.45	29.6	ESE	-26.4	-13.5	-26.4	755.6	0.022	0.000	21.6	6	-17.6	18.6	1.53	 .0743	24	1	100.0	1
08/07/24	19:06	-13.3	-13.3	-13.4	78	-16.4	25.2	ESE	0.42	27.0	ESE	-25.9	-13.4	-25.9	755.6	0.022	0.000	21.6	6	-17.6	18.6	1.53	 .0743	23	1	100.0	1
08/07/24	19:07	-13.3	-13.3	-13.4	78	-16.3	27.0	ESE	0.45	31.3	ESE	-26.2	-13.3	-26.2	755.6	0.022	0.000	21.6	6	-17.6	18.6	1.53	 .0743	23	1	100.0	1
08/07/24	19:08	-13.1	-13.1	-13.3	78	-16.1	25.2	ESE	0.42	27.0	ESE	-25.6	-13.2	-25.7	755.6	0.022	0.000	21.6	6	-17.6	18.6	1.53	 .0743	24	1	100.0	1
08/07/24	19:09	-13.1	-13.1	-13.1	78	-16.1	24.3	ESE	0.41	26.1	ESE	-25.3	-13.1	-25.4	755.7	0.022	0.000	21.6	6	-17.6	18.7	1.53	 .0743	23	1	100.0	1
08/07/24	19:10	-13.1	-13.1	-13.2	78	-16.1	23.5	ESE	0.39	25.2	ESE	-25.2	-13.2	-25.3	755.7	0.022	0.000	21.6	6	-17.6	18.6	1.53	 .0743	24	1	100.0	1
08/07/24	19:11	-13.1	-13.1	-13.2	78	-16.1	25.2	ESE	0.42	27.8	ESE	-25.6	-13.2	-25.7	755.7	0.022	0.000	21.6	6	-17.6	18.7	1.53	 .0743	23	1	100.0	1
08/07/24	19:12	-13.1	-13.1	-13.1	78	-16.1	24.3	ESE	0.41	27.8	ESE	-25.3	-13.1	-25.4	755.6	0.022	0.000	21.6	6	-17.6	18.7	1.53	 .0743	23	1	100.0	1
08/07/24	19:13	-13.1	-13.1	-13.1	78	-16.1	23.5	ESE	0.39	24.3	E	-25.2	-13.2	-25.3	755.7	0.022	0.000	21.6	6	-17.6	18.7	1.53	 .0743	24	1	100.0	1
08/07/24	19:14	-13.1	-13.1	-13.2	78	-16.1	25.2	ESE	0.42	27.0	ESE	-25.6	-13.2	-25.7	755.7	0.022	0.000	21.6	6	-17.6	18.7	1.53	 .0743	23	1	100.0	1
08/07/24	19:15	-12.9	-12.9	-13.1	78	-16.0	25.2	ESE	0.42	28.7	ESE	-25.4	-13.0	-25.4	755.7	0.022	0.000	21.6	6	-17.6	18.7	1.53	 .0743	24	1	100.0	1
08/07/24	19:16	-12.9	-12.9	-12.9	78	-16.0	21.7	ESE	0.36	24.3	ESE	-24.7	-13.0	-24.7	755.7	0.022	0.000	21.7	6	-17.6	18.8	1.53	 .0742	23	1	100.0	1
08/07/24	19:17	-13.1	-12.9	-13.1	78	-16.1	20.9	ESE	0.35	22.6	ESE	-24.7	-13.2	-24.7	755.8	0.022	0.000	21.7	6	-17.6	18.8	1.53	 .0743	24	1	100.0	1
08/07/24	19:18	-13.3	-13.2	-13.3	78	-16.3	20.0	ESE	0.33	21.7	ESE	-24.7	-13.3	-24.7	755.8	0.022	0.000	21.7	6	-17.6	18.8	1.53	 .0743	23	1	100.0	1
08/07/24	19:19	-13.3	-13.3	-13.3	78	-16.4	21.7	ESE	0.36	22.6	ESE	-25.2	-13.4	-25.2	755.8	0.022	0.000	21.7	6	-17.6	18.8	1.53	 .0743	23	1	100.0	1
08/07/24	19:20	-13.4	-13.4	-13.4	78	-16.5	21.7	ESE	0.36	24.3	ESE	-25.3	-13.5	-25.4	755.8	0.022	0.000	21.7	6	-17.6	18.8	1.53	 .0743	24	1	100.0	1
08/07/24	19:21	-13.4	-13.4	-13.4	78	-16.4	20.9	ESE	0.35	24.3	ESE	-25.1	-13.4	-25.1	755.8	0.022	0.000	21.7	6	-17.6	18.8	1.53	 .0743	23	1	100.0	1
08/07/24	19:22	-13.5	-13.4	-13.5	78	-16.5	19.1	ESE	0.32	20.9	ESE	-24.8	-13.6	-24.8	755.9	0.022	0.000	21.7	6	-17.5	18.8	1.53	 .0742	24	1	100.0	1
08/07/24	19:23	-13.6	-13.5	-13.6	78	-16.6	18.3	ESE	0.30	20.0	ESE	-24.7	-13.7	-24.8	755.9	0.022	0.000	21.7	6	-17.6	18.8	1.53	 .0743	23	1	100.0	1
08/07/24	19:24	-13.7	-13.7	-13.7	78	-16.7	20.0	ESE	0.33	20.9	ESE	-25.3	-13.8	-25.3	755.9	0.022	0.000	21.7	6	-17.5	18.8	1.53	 .0742	23	1	100.0	1
08/07/24	19:25	-13.8	-13.8	-13.8	78	-16.8	20.0	ESE	0.33	22.6	ESE	-25.4	-13.9	-25.5	755.8	0.022	0.000	21.7	6	-17.5	18.8	1.53	 .0742	24	1	100.0	1
08/07/24	19:26	-13.9	-13.8	-13.9	78	-17.0	20.9	E	0.35	24.3	ESE	-25.8	-14.0	-25.8	755.8	0.022	0.000	21.7	6	-17.5	18.8	1.53	 .0742	23	1	100.0	1
08/07/24	19:27	-13.9	-13.9	-13.9	78	-17.0	20.0	E	0.33	22.6	E	-25.6	-14.0	-25.6	755.8	0.022	0.000	21.7	6	-17.5	18.8	1.53	 .0742	24	1	100.0	1
08/07/24	19:28	-13.9	-13.9	-13.9	78	-16.9	19.1	ESE	0.32	21.7	ESE	-25.3	-13.9	-25.3	755.8	0.022	0.000	21.7	6	-17.5	18.8	1.53	 .0742	23	1	100.0	1
08/07/24	19:29	-13.8	-13.8	-13.9	78	-16.8	19.1	ESE	0.32	21.7	ESE	-25.2	-13.9	-25.3	755.8	0.022	0.000	21.7	6	-17.5	18.8	1.53	 .0742	24	1	100.0	1
08/07/24	19:30	-13.8	-13.8	-13.8	78	-16.8	20.9	ESE	0.35	22.6	ESE	-25.6	-13.8	-25.6	755.7	0.022	0.000	21.7	6	-17.5	18.8	1.53	 .0742	23	1	100.0	1
08/07/24	19:31	-13.7	-13.7	-13.8	78	-16.7	20.9	ESE	0.35	21.7	ESE	-25.5	-13.8	-25.6	755.8	0.022	0.000	21.7	6	-17.5	18.8	1.53	 .0742	23	1	100.0	1
08/07/24	19:32	-13.7	-13.7	-13.7	78	-16.7	20.9	ESE	0.35	22.6	ESE	-25.4	-13.7	-25.4	755.8	0.022	0.000	21.7	6	-17.5	18.8	1.53	 .0742	24	1	100.0	1
08/07/24	19:33	-13.6	-13.6	-13.7	78	-16.6	21.7	ESE	0.36	23.5	ESE	-25.6	-13.7	-25.6	755.7	0.022	0.000	21.7	6	-17.5	18.8	1.53	 .0742	23	1	100.0	1
08/07/24	19:34	-13.6	-13.6	-13.6	78	-16.6	20.9	ESE	0.35	23.5	ESE	-25.3	-13.6	-25.3	755.8	0.022	0.000	21.7	6	-17.6	18.8	1.53	 .0743	24	1	100.0	1
08/07/24	19:35	-13.4	-13.4	-13.6	78	-16.5	22.6	ESE	0.38	24.3	ESE	-25.5	-13.5	-25.6	755.7	0.022	0.000	21.7	6	-17.6	18.8	1.53	 .0742	23	1	100.0	1
08/07/24	19:36	-13.3	-13.3	-13.4	78	-16.4	20.0	ESE	0.33	20.9	E	-24.8	-13.4	-24.8	755.7	0.022	0.000	21.7	6	-17.6	18.8	1.53	 .0742	23	1	100.0	1
08/07/24	19:37	-13.3	-13.3	-13.3	78	-16.4	20.9	E	0.35	23.5	E	-24.9	-13.4	-25.0	755.7	0.022	0.000	21.7	6	-17.6	18.8	1.53	 .0742	24	1	100.0	1
08/07/24	19:38	-13.3	-13.3	-13.3	78	-16.3	19.1	E	0.32	22.6	E	-24.5	-13.3	-24.6	755.7	0.022	0.000	21.7	6	-17.6	18.8	1.53	 .0742	23	1	100.0	1
08/07/24	19:39	-13.3	-13.3	-13.3	78	-16.3	20.9	ESE	0.35	21.7	ESE	-24.9	-13.3	-24.9	755.7	0.022	0.000	21.6	6	-17.6	18.7	1.53	 .0743	24	1	100.0	1
08/07/24	19:40	-13.4	-13.3	-13.4	78	-16.4	20.9	E	0.35	24.3	E	-25.1	-13.4	-25.1	755.7	0.022	0.000	21.6	6	-17.6	18.7	1.53	 .0743	23	1	100.0	1
08/07/24	19:41	-13.5	-13.4	-13.5	78	-16.5	21.7	E	0.36	24.3	ESE	-25.4	-13.6	-25.4	755.7	0.022	0.000	21.6	6	-17.6	18.7	1.53	 .0743	23	1	100.0	1
08/07/24	19:42	-13.7	-13.5	-13.7	78	-16.7	20.9	E	0.35	24.3	ESE	-25.4	-13.7	-25.4	755.7	0.022	0.000	21.6	6	-17.6	18.7	1.53	 .0743	24	1	100.0	1
08/07/24	19:43	-13.8	-13.7	-13.8	78	-16.8	22.6	ESE	0.38	27.0	ESE	-25.9	-13.8	-26.0	755.7	0.022	0.000	21.6	6	-17.6	18.6	1.53	 .0743	23	1	100.0	1
08/07/24	19:44	-13.7	-13.7	-13.8	78	-16.7	22.6	ESE	0.38	25.2	ESE	-25.9	-13.8	-25.9	755.7	0.022	0.000	21.6	6	-17.6	18.6	1.53	 .0743	24	1	100.0	1
08/07/24	19:45	-13.7	-13.7	-13.8	78	-16.7	20.9	E	0.35	21.7	E	-25.5	-13.8	-25.6	755.7	0.022	0.000	21.6	6	-17.6	18.6	1.53	 .0743	23	1	100.0	1
08/07/24	19:46	-13.7	-13.7	-13.7	78	-16.7	20.0	E	0.33	20.9	E	-25.3	-13.8	-25.3	755.7	0.022	0.000	21.5	6	-17.7	18.5	1.54	 .0743	24	1	100.0	1
08/07/24	19:47	-13.8	-13.7	-13.8	78	-16.8	20.0	ESE	0.33	20.9	E	-25.3	-13.8	-25.4	755.7	0.022	0.000	21.5	6	-17.7	18.5	1.54	 .0743	23	1	100.0	1
08/07/24	19:48	-13.8	-13.8	-13.8	78	-16.8	19.1	ESE	0.32	20.9	ESE	-25.2	-13.9	-25.3	755.8	0.022	0.000	21.5	6	-17.7	18.5	1.54	 .0743	23	1	100.0	1
08/07/24	19:49	-13.9	-13.9	-13.9	78	-17.0	20.0	ESE	0.33	20.9	ESE	-25.6	-14.0	-25.6	755.8	0.022	0.000	21.5	6	-17.7	18.5	1.54	 .0743	24	1	100.0	1
08/07/24	19:50	-14.1	-14.0	-14.1	78	-17.1	18.3	E	0.30	20.0	ESE	-25.3	-14.1	-25.3	755.8	0.022	0.000	21.5	6	-17.7	18.5	1.54	 .0743	23	1	100.0	1
08/07/24	19:51	-14.1	-14.1	-14.1	78	-17.1	19.1	E	0.32	21.7	E	-25.6	-14.2	-25.7	755.7	0.023	0.000	21.5	6	-17.7	18.5	1.54	 .0743	24	1	100.0	1
08/07/24	19:52	-14.1	-14.1	-14.1	78	-17.1	18.3	ESE	0.30	20.0	E	-25.4	-14.2	-25.4	755.7	0.023	0.000	21.5	6	-17.7	18.5	1.54	 .0743	23	1	100.0	1
08/07/24	19:53	-14.2	-14.2	-14.2	78	-17.2	19.1	ESE	0.32	20.9	ESE	-25.7	-14.3	-25.8	755.8	0.023	0.000	21.5	6	-17.7	18.5	1.54	 .0743	23	1	100.0	1
08/07/24	19:54	-14.3	-14.2	-14.3	78	-17.3	18.3	ESE	0.30	21.7	E	-25.6	-14.3	-25.6	755.8	0.023	0.000	21.5	6	-17.7	18.5	1.54	 .0743	24	1	100.0	1
08/07/24	19:55	-14.3	-14.3	-14.3	78	-17.3	21.7	E	0.36	23.5	ESE	-26.4	-14.3	-26.5	755.7	0.023	0.000	21.5	6	-17.7	18.5	1.54	 .0743	23	1	100.0	1
08/07/24	19:56	-14.2	-14.2	-14.3	78	-17.2	20.9	E	0.35	22.6	ESE	-26.1	-14.2	-26.1	755.6	0.023	0.000	21.5	6	-17.7	18.5	1.54	 .0743	24	1	100.0	1
08/07/24	19:57	-14.2	-14.2	-14.2	78	-17.2	20.0	E	0.33	21.7	ESE	-25.9	-14.2	-25.9	755.7	0.023	0.000	21.5	6	-17.7	18.5	1.54	 .0743	23	1	100.0	1
08/07/24	19:58	-14.2	-14.2	-14.2	78	-17.2	20.9	E	0.35	21.7	E	-26.2	-14.3	-26.2	755.7	0.023	0.000	21.5	6	-17.7	18.5	1.54	 .0743	24	1	100.0	1
08/07/24	19:59	-14.2	-14.2	-14.3	78	-17.2	20.0	E	0.33	22.6	E	-25.9	-14.3	-26.0	755.7	0.023	0.000	21.5	6	-17.7	18.5	1.54	 .0743	23	1	100.0	1
08/07/24	20:00	-14.3	-14.3	-14.3	78	-17.3	21.7	E	0.36	22.6	E	-26.4	-14.3	-26.5	755.7	0.023	0.000	21.6	6	-17.6	18.6	1.53	 .0743	23	1	100.0	1
08/07/24	20:01	-14.2	-14.2	-14.2	78	-17.2	20.9	E	0.35	22.6	E	-26.1	-14.2	-26.1	755.7	0.023	0.000	21.5	6	-17.7	18.5	1.54	 .0743	24	1	100.0	1
08/07/24	20:02	-14.0	-14.0	-14.1	78	-17.0	19.1	E	0.32	20.9	E	-25.4	-14.1	-25.5	755.7	0.022	0.000	21.6	6	-17.6	18.6	1.53	 .0743	23	1	100.0	1
08/07/24	20:03	-13.8	-13.8	-13.9	78	-16.8	19.1	E	0.32	20.9	E	-25.2	-13.9	-25.3	755.7	0.022	0.000	21.6	6	-17.6	18.6	1.53	 .0743	24	1	100.0	1
08/07/24	20:04	-13.8	-13.8	-13.8	78	-16.8	18.3	E	0.30	21.7	ESE	-25.0	-13.9	-25.1	755.7	0.022	0.000	21.6	6	-17.6	18.6	1.53	 .0743	23	1	100.0	1
08/07/24	20:05	-13.9	-13.8	-13.9	78	-17.0	17.4	E	0.29	18.3	E	-24.9	-14.0	-24.9	755.8	0.022	0.000	21.6	6	-17.6	18.7	1.53	 .0743	23	1	100.0	1
08/07/24	20:06	-13.9	-13.9	-13.9	78	-17.0	18.3	E	0.30	19.1	E	-25.2	-14.0	-25.2	755.7	0.022	0.000	21.6	6	-17.6	18.7	1.53	 .0743	24	1	100.0	1
08/07/24	20:07	-14.1	-14.0	-14.1	78	-17.1	19.1	E	0.32	21.7	E	-25.6	-14.2	-25.7	755.7	0.023	0.000	21.6	6	-17.6	18.7	1.53	 .0743	23	1	100.0	1
08/07/24	20:08	-14.1	-14.1	-14.2	78	-17.1	20.0	E	0.33	22.6	E	-25.8	-14.2	-25.8	755.7	0.023	0.000	21.6	6	-17.6	18.7	1.53	 .0743	24	1	100.0	1
08/07/24	20:09	-14.1	-14.1	-14.1	78	-17.1	20.0	E	0.33	22.6	E	-25.8	-14.2	-25.8	755.7	0.023	0.000	21.6	6	-17.6	18.7	1.53	 .0743	23	1	100.0	1
08/07/24	20:10	-14.2	-14.2	-14.2	78	-17.2	20.0	E	0.33	20.9	E	-25.9	-14.3	-26.0	755.7	0.023	0.000	21.6	6	-17.6	18.7	1.53	 .0743	24	1	100.0	1
08/07/24	20:11	-14.3	-14.3	-14.3	78	-17.3	20.0	E	0.33	21.7	E	-26.1	-14.4	-26.2	755.6	0.023	0.000	21.7	6	-17.6	18.8	1.53	 .0742	23	1	100.0	1
08/07/24	20:12	-14.4	-14.3	-14.4	78	-17.4	20.9	E	0.35	22.6	E	-26.4	-14.5	-26.5	755.6	0.023	0.000	21.7	6	-17.6	18.8	1.53	 .0742	23	1	100.0	1
08/07/24	20:13	-14.6	-14.4	-14.6	78	-17.5	20.9	E	0.35	21.7	E	-26.6	-14.6	-26.7	755.6	0.023	0.000	21.7	6	-17.6	18.8	1.53	 .0742	24	1	100.0	1
08/07/24	20:14	-14.6	-14.6	-14.6	78	-17.5	20.9	E	0.35	21.7	E	-26.6	-14.6	-26.7	755.6	0.023	0.000	21.7	6	-17.6	18.8	1.53	 .0742	23	1	100.0	1
08/07/24	20:15	-14.6	-14.6	-14.6	78	-17.5	20.9	E	0.35	23.5	E	-26.6	-14.6	-26.7	755.6	0.023	0.000	21.7	6	-17.6	18.8	1.53	 .0742	24	1	100.0	1
08/07/24	20:16	-14.4	-14.4	-14.5	78	-17.4	20.0	E	0.33	21.7	E	-26.2	-14.5	-26.3	755.5	0.023	0.000	21.7	6	-17.6	18.8	1.53	 .0742	23	1	100.0	1
08/07/24	20:17	-14.4	-14.4	-14.4	78	-17.4	21.7	ESE	0.36	23.5	ESE	-26.6	-14.4	-26.6	755.5	0.023	0.000	21.7	6	-17.6	18.8	1.53	 .0742	23	1	100.0	1
08/07/24	20:18	-14.2	-14.2	-14.3	78	-17.2	21.7	ESE	0.36	22.6	E	-26.3	-14.2	-26.3	755.6	0.023	0.000	21.7	6	-17.6	18.8	1.53	 .0742	24	1	100.0	1
08/07/24	20:19	-14.1	-14.1	-14.2	78	-17.1	21.7	ESE	0.36	24.3	ESE	-26.1	-14.1	-26.2	755.5	0.022	0.000	21.7	6	-17.6	18.8	1.53	 .0742	23	1	100.0	1
08/07/24	20:20	-13.9	-13.9	-14.1	78	-17.0	21.7	ESE	0.36	24.3	ESE	-26.0	-14.0	-26.1	755.5	0.022	0.000	21.7	6	-17.6	18.8	1.53	 .0742	24	1	100.0	1
08/07/24	20:21	-13.9	-13.9	-13.9	78	-17.0	20.9	ESE	0.35	22.6	E	-25.8	-14.0	-25.8	755.5	0.022	0.000	21.6	6	-17.6	18.7	1.53	 .0742	23	1	100.0	1
08/07/24	20:22	-13.9	-13.9	-13.9	78	-17.0	20.0	ESE	0.33	23.5	ESE	-25.6	-14.0	-25.6	755.5	0.022	0.000	21.6	6	-17.6	18.7	1.53	 .0742	23	1	100.0	1
08/07/24	20:23	-13.9	-13.9	-13.9	78	-16.9	23.5	E	0.39	27.0	E	-26.3	-13.9	-26.3	755.4	0.022	0.000	21.6	6	-17.6	18.7	1.53	 .0742	24	1	100.0	1
08/07/24	20:24	-13.8	-13.8	-13.8	78	-16.8	20.0	E	0.33	21.7	E	-25.4	-13.9	-25.5	755.5	0.022	0.000	21.6	6	-17.6	18.7	1.53	 .0742	23	1	100.0	1
08/07/24	20:25	-13.9	-13.8	-13.9	78	-17.0	20.0	ESE	0.33	24.3	E	-25.6	-14.0	-25.6	755.5	0.022	0.000	21.6	6	-17.6	18.7	1.53	 .0742	24	1	100.0	1
08/07/24	20:26	-14.1	-13.9	-14.1	78	-17.1	20.9	E	0.35	22.6	ESE	-25.9	-14.1	-26.0	755.5	0.022	0.000	21.6	6	-17.6	18.6	1.53	 .0743	23	1	100.0	1
08/07/24	20:27	-14.2	-14.1	-14.2	78	-17.2	21.7	ESE	0.36	22.6	ESE	-26.3	-14.2	-26.3	755.5	0.023	0.000	21.6	6	-17.6	18.6	1.53	 .0743	24	1	100.0	1
08/07/24	20:28	-14.1	-14.1	-14.2	78	-17.1	20.9	ESE	0.35	22.6	ESE	-26.0	-14.2	-26.1	755.5	0.023	0.000	21.6	6	-17.6	18.6	1.53	 .0743	23	1	100.0	1
08/07/24	20:29	-14.1	-14.1	-14.1	78	-17.1	19.1	ESE	0.32	22.6	E	-25.6	-14.2	-25.7	755.5	0.023	0.000	21.6	6	-17.6	18.6	1.53	 .0743	23	1	100.0	1
08/07/24	20:30	-14.1	-14.1	-14.1	78	-17.1	20.0	E	0.33	21.7	ESE	-25.8	-14.2	-25.8	755.5	0.023	0.000	21.5	6	-17.7	18.5	1.54	 .0743	24	1	100.0	1
08/07/24	20:31	-14.2	-14.1	-14.2	78	-17.2	20.0	ESE	0.33	21.7	ESE	-25.9	-14.2	-25.9	755.5	0.023	0.000	21.5	6	-17.7	18.5	1.54	 .0743	23	1	100.0	1
08/07/24	20:32	-14.2	-14.2	-14.2	78	-17.2	21.7	ESE	0.36	23.5	ESE	-26.3	-14.2	-26.3	755.4	0.023	0.000	21.5	6	-17.7	18.5	1.54	 .0743	24	1	100.0	1
08/07/24	20:33	-14.2	-14.2	-14.2	78	-17.2	21.7	ESE	0.36	22.6	ESE	-26.3	-14.3	-26.4	755.4	0.023	0.000	21.5	6	-17.7	18.5	1.54	 .0743	23	1	100.0	1
08/07/24	20:34	-14.3	-14.2	-14.3	78	-17.3	21.7	ESE	0.36	22.6	E	-26.4	-14.3	-26.5	755.4	0.023	0.000	21.5	6	-17.7	18.5	1.54	 .0743	23	1	100.0	1
08/07/24	20:35	-14.3	-14.3	-14.3	78	-17.3	21.7	ESE	0.36	22.6	ESE	-26.5	-14.4	-26.6	755.4	0.023	0.000	21.5	6	-17.7	18.5	1.54	 .0743	24	1	100.0	1
08/07/24	20:36	-14.4	-14.3	-14.4	78	-17.4	21.7	ESE	0.36	22.6	ESE	-26.6	-14.4	-26.6	755.3	0.023	0.000	21.5	6	-17.7	18.5	1.54	 .0743	23	1	100.0	1
08/07/24	20:37	-14.4	-14.3	-14.4	78	-17.4	20.9	ESE	0.35	21.7	ESE	-26.4	-14.5	-26.5	755.3	0.023	0.000	21.5	6	-17.7	18.5	1.54	 .0743	24	1	100.0	1
08/07/24	20:38	-14.4	-14.4	-14.4	78	-17.4	20.9	ESE	0.35	22.6	ESE	-26.4	-14.5	-26.5	755.3	0.023	0.000	21.5	6	-17.7	18.5	1.54	 .0743	23	1	100.0	1
08/07/24	20:39	-14.5	-14.5	-14.5	78	-17.5	20.9	ESE	0.35	21.7	ESE	-26.5	-14.6	-26.6	755.3	0.023	0.000	21.5	6	-17.7	18.5	1.54	 .0743	24	1	100.0	1
08/07/24	20:40	-14.4	-14.4	-14.5	78	-17.4	20.9	ESE	0.35	21.7	ESE	-26.4	-14.5	-26.5	755.4	0.023	0.000	21.5	6	-17.7	18.5	1.54	 .0743	23	1	100.0	1
08/07/24	20:41	-14.4	-14.4	-14.5	78	-17.4	20.0	ESE	0.33	21.7	E	-26.2	-14.5	-26.3	755.4	0.023	0.000	21.5	6	-17.7	18.5	1.54	 .0743	23	1	100.0	1
08/07/24	20:42	-14.3	-14.3	-14.4	78	-17.3	20.0	ESE	0.33	21.7	E	-26.1	-14.4	-26.2	755.4	0.023	0.000	21.5	6	-17.7	18.5	1.54	 .0743	24	1	100.0	1
08/07/24	20:43	-14.3	-14.3	-14.3	78	-17.3	20.9	ESE	0.35	21.7	ESE	-26.3	-14.4	-26.3	755.4	0.023	0.000	21.6	6	-17.6	18.6	1.53	 .0742	23	1	100.0	1
08/07/24	20:44	-14.4	-14.3	-14.4	78	-17.4	20.9	ESE	0.35	21.7	E	-26.4	-14.4	-26.4	755.4	0.023	0.000	21.6	6	-17.6	18.6	1.53	 .0742	24	1	100.0	1
08/07/24	20:45	-14.4	-14.4	-14.4	78	-17.4	20.9	E	0.35	22.6	ESE	-26.4	-14.4	-26.4	755.3	0.023	0.000	21.6	6	-17.6	18.6	1.53	 .0742	23	1	100.0	1
08/07/24	20:46	-14.3	-14.3	-14.4	78	-17.3	20.9	ESE	0.35	21.7	ESE	-26.3	-14.4	-26.3	755.3	0.023	0.000	21.6	6	-17.6	18.6	1.53	 .0742	23	1	100.0	1
08/07/24	20:47	-14.3	-14.3	-14.3	78	-17.3	20.9	ESE	0.35	22.6	ESE	-26.3	-14.4	-26.3	755.3	0.023	0.000	21.6	6	-17.6	18.6	1.53	 .0742	24	1	100.0	1
08/07/24	20:48	-14.3	-14.3	-14.3	78	-17.3	21.7	ESE	0.36	23.5	ESE	-26.5	-14.4	-26.6	755.3	0.023	0.000	21.6	6	-17.6	18.7	1.53	 .0742	23	1	100.0	1
08/07/24	20:49	-14.3	-14.3	-14.3	78	-17.3	20.9	ESE	0.35	22.6	E	-26.3	-14.4	-26.3	755.3	0.023	0.000	21.6	6	-17.6	18.7	1.53	 .0742	24	1	100.0	1
08/07/24	20:50	-14.3	-14.3	-14.3	78	-17.3	20.9	ESE	0.35	21.7	ESE	-26.2	-14.3	-26.3	755.3	0.023	0.000	21.6	6	-17.6	18.7	1.53	 .0742	23	1	100.0	1
08/07/24	20:51	-14.2	-14.2	-14.3	78	-17.2	20.0	ESE	0.33	20.9	ESE	-25.9	-14.3	-26.0	755.3	0.023	0.000	21.6	6	-17.6	18.7	1.53	 .0742	24	1	100.0	1
08/07/24	20:52	-14.2	-14.2	-14.2	78	-17.2	20.9	ESE	0.35	21.7	ESE	-26.2	-14.3	-26.2	755.3	0.023	0.000	21.6	6	-17.6	18.7	1.53	 .0742	23	1	100.0	1
08/07/24	20:53	-14.1	-14.1	-14.2	78	-17.1	20.0	ESE	0.33	23.5	ESE	-25.7	-14.1	-25.8	755.3	0.022	0.000	21.6	6	-17.6	18.7	1.53	 .0742	23	1	100.0	1
08/07/24	20:54	-14.1	-14.1	-14.1	78	-17.1	19.1	ESE	0.32	20.9	ESE	-25.5	-14.1	-25.6	755.3	0.022	0.000	21.7	6	-17.6	18.8	1.53	 .0742	24	1	100.0	1
08/07/24	20:55	-14.2	-14.1	-14.2	78	-17.2	20.0	ESE	0.33	21.7	ESE	-25.9	-14.2	-25.9	755.3	0.023	0.000	21.7	6	-17.6	18.8	1.53	 .0742	23	1	100.0	1
08/07/24	20:56	-14.2	-14.1	-14.2	78	-17.2	20.9	ESE	0.35	23.5	ESE	-26.1	-14.2	-26.1	755.2	0.023	0.000	21.7	6	-17.6	18.8	1.53	 .0742	24	1	100.0	1
08/07/24	20:57	-14.1	-14.1	-14.2	78	-17.1	18.3	ESE	0.30	20.0	ESE	-25.4	-14.2	-25.4	755.3	0.023	0.000	21.7	6	-17.6	18.8	1.53	 .0742	23	1	100.0	1
08/07/24	20:58	-14.1	-14.1	-14.1	78	-17.1	20.0	ESE	0.33	21.7	ESE	-25.8	-14.2	-25.8	755.3	0.023	0.000	21.7	6	-17.6	18.8	1.53	 .0742	23	1	100.0	1
08/07/24	20:59	-14.2	-14.1	-14.2	78	-17.2	20.9	ESE	0.35	22.6	ESE	-26.1	-14.2	-26.1	755.3	0.023	0.000	21.7	6	-17.5	18.8	1.53	 .0742	24	1	100.0	1
08/07/24	21:00	-14.1	-14.1	-14.2	78	-17.1	22.6	ESE	0.38	24.3	ESE	-26.4	-14.2	-26.4	755.2	0.023	0.000	21.7	6	-17.5	18.8	1.53	 .0742	23	1	100.0	1
08/07/24	21:01	-14.1	-14.1	-14.1	78	-17.1	21.7	ESE	0.36	25.2	ESE	-26.1	-14.1	-26.2	755.2	0.022	0.000	21.7	6	-17.5	18.8	1.53	 .0742	24	1	100.0	1
08/07/24	21:02	-14.0	-14.0	-14.1	78	-17.0	19.1	ESE	0.32	20.9	ESE	-25.4	-14.1	-25.5	755.2	0.022	0.000	21.7	6	-17.5	18.8	1.53	 .0742	23	1	100.0	1
08/07/24	21:03	-13.9	-13.9	-14.0	78	-17.0	17.4	ESE	0.29	20.0	ESE	-24.9	-14.0	-24.9	755.4	0.022	0.000	21.7	6	-17.5	18.8	1.53	 .0742	23	1	100.0	1
08/07/24	21:04	-13.9	-13.9	-13.9	78	-17.0	17.4	ESE	0.29	20.0	ESE	-24.9	-14.0	-24.9	755.3	0.022	0.000	21.7	6	-17.5	18.8	1.53	 .0742	24	1	100.0	1
08/07/24	21:05	-13.9	-13.9	-14.0	78	-17.0	19.1	E	0.32	20.9	E	-25.4	-14.0	-25.4	755.3	0.022	0.000	21.7	6	-17.5	18.8	1.53	 .0742	23	1	100.0	1
08/07/24	21:06	-13.8	-13.8	-13.9	78	-16.8	16.5	ESE	0.28	20.0	ESE	-24.5	-13.9	-24.6	755.3	0.022	0.000	21.7	6	-17.5	18.8	1.53	 .0742	24	1	100.0	1
08/07/24	21:07	-13.7	-13.7	-13.8	78	-16.7	18.3	ESE	0.30	22.6	ESE	-24.8	-13.8	-24.9	755.3	0.022	0.000	21.7	6	-17.5	18.8	1.53	 .0742	23	1	100.0	1
08/07/24	21:08	-13.7	-13.7	-13.7	78	-16.7	19.1	ESE	0.32	21.7	ESE	-25.1	-13.8	-25.1	755.3	0.022	0.000	21.7	6	-17.5	18.8	1.53	 .0742	24	1	100.0	1
08/07/24	21:09	-13.5	-13.5	-13.7	78	-16.5	17.4	ESE	0.29	20.9	ESE	-24.3	-13.6	-24.4	755.3	0.022	0.000	21.7	6	-17.6	18.8	1.53	 .0742	23	1	100.0	1
08/07/24	21:10	-13.4	-13.4	-13.5	78	-16.5	16.5	ESE	0.28	20.0	ESE	-24.0	-13.5	-24.1	755.4	0.022	0.000	21.7	6	-17.6	18.8	1.53	 .0742	23	1	100.0	1
08/07/24	21:11	-13.4	-13.4	-13.5	78	-16.5	15.7	ESE	0.26	17.4	E	-23.8	-13.5	-23.8	755.4	0.022	0.000	21.7	6	-17.6	18.8	1.53	 .0742	24	1	100.0	1
08/07/24	21:12	-13.6	-13.5	-13.6	78	-16.6	13.9	ESE	0.23	16.5	ESE	-23.4	-13.7	-23.5	755.3	0.022	0.000	21.7	6	-17.6	18.8	1.53	 .0742	23	1	100.0	1
08/07/24	21:13	-13.7	-13.6	-13.7	78	-16.7	13.9	ESE	0.23	14.8	ESE	-23.6	-13.8	-23.7	755.4	0.022	0.000	21.7	6	-17.6	18.8	1.53	 .0742	24	1	100.0	1
08/07/24	21:14	-13.8	-13.7	-13.8	78	-16.8	13.9	E	0.23	16.5	E	-23.7	-13.9	-23.8	755.4	0.022	0.000	21.6	6	-17.6	18.7	1.53	 .0742	23	1	100.0	1
08/07/24	21:15	-13.9	-13.9	-13.9	78	-16.9	13.9	ESE	0.23	16.5	ESE	-23.8	-13.9	-23.9	755.4	0.022	0.000	21.6	6	-17.6	18.7	1.53	 .0742	23	1	100.0	1
08/07/24	21:16	-13.9	-13.9	-13.9	78	-17.0	13.9	ESE	0.23	14.8	ESE	-23.9	-14.0	-23.9	755.3	0.022	0.000	21.6	6	-17.6	18.7	1.53	 .0742	24	1	100.0	1
08/07/24	21:17	-13.9	-13.9	-13.9	78	-17.0	14.8	ESE	0.25	15.7	E	-24.2	-14.0	-24.2	755.3	0.022	0.000	21.6	6	-17.6	18.7	1.53	 .0742	23	1	100.0	1
08/07/24	21:18	-14.0	-13.9	-14.0	78	-17.0	13.9	ESE	0.23	15.7	ESE	-23.9	-14.1	-24.0	755.3	0.022	0.000	21.6	6	-17.6	18.7	1.53	 .0742	24	1	100.0	1
08/07/24	21:19	-14.1	-14.0	-14.1	78	-17.1	12.2	ESE	0.20	13.9	E	-23.5	-14.2	-23.6	755.4	0.023	0.000	21.6	6	-17.6	18.7	1.53	 .0742	23	1	100.0	1
08/07/24	21:20	-14.2	-14.1	-14.2	78	-17.2	13.0	ESE	0.22	14.8	ESE	-23.9	-14.3	-24.0	755.4	0.023	0.000	21.6	6	-17.6	18.6	1.53	 .0742	24	1	100.0	1
08/07/24	21:21	-14.3	-14.3	-14.3	78	-17.3	12.2	E	0.20	13.9	E	-23.8	-14.4	-23.8	755.4	0.023	0.000	21.6	6	-17.6	18.6	1.53	 .0742	23	1	100.0	1
08/07/24	21:22	-14.4	-14.3	-14.4	78	-17.4	13.9	E	0.23	15.7	E	-24.5	-14.5	-24.6	755.3	0.023	0.000	21.5	6	-17.7	18.5	1.54	 .0743	23	1	100.0	1
08/07/24	21:23	-14.4	-14.4	-14.4	78	-17.4	13.9	ESE	0.23	16.5	E	-24.5	-14.5	-24.6	755.3	0.023	0.000	21.5	6	-17.7	18.5	1.54	 .0743	24	1	100.0	1
08/07/24	21:24	-14.3	-14.3	-14.4	78	-17.3	13.0	ESE	0.22	13.9	ESE	-24.1	-14.4	-24.2	755.3	0.023	0.000	21.5	6	-17.7	18.5	1.54	 .0743	23	1	100.0	1
08/07/24	21:25	-14.2	-14.2	-14.3	78	-17.2	13.9	ESE	0.23	14.8	ESE	-24.2	-14.2	-24.2	755.3	0.023	0.000	21.5	6	-17.7	18.5	1.54	 .0743	24	1	100.0	1
08/07/24	21:26	-14.1	-14.1	-14.2	78	-17.1	13.0	ESE	0.22	13.9	ESE	-23.8	-14.2	-23.8	755.3	0.023	0.000	21.5	6	-17.7	18.5	1.54	 .0742	23	1	100.0	1
08/07/24	21:27	-14.0	-14.0	-14.1	78	-17.0	11.3	ESE	0.19	13.0	E	-23.0	-14.1	-23.1	755.3	0.022	0.000	21.5	6	-17.7	18.5	1.54	 .0743	23	1	100.0	1
08/07/24	21:28	-13.9	-13.9	-14.0	78	-17.0	12.2	ESE	0.20	13.9	ESE	-23.3	-14.0	-23.3	755.3	0.022	0.000	21.5	6	-17.7	18.5	1.54	 .0743	24	1	100.0	1
08/07/24	21:29	-13.7	-13.7	-13.9	78	-16.7	11.3	ESE	0.19	13.0	ESE	-22.7	-13.8	-22.7	755.3	0.022	0.000	21.5	6	-17.7	18.5	1.54	 .0743	23	1	100.0	1
08/07/24	21:30	-13.6	-13.6	-13.7	78	-16.6	10.4	ESE	0.17	13.0	ESE	-22.2	-13.7	-22.2	755.3	0.022	0.000	21.5	6	-17.7	18.5	1.54	 .0743	24	1	100.0	1
08/07/24	21:31	-13.6	-13.6	-13.6	78	-16.6	9.6	ESE	0.16	11.3	E	-21.7	-13.6	-21.8	755.3	0.022	0.000	21.5	6	-17.7	18.5	1.54	 .0743	23	1	100.0	1
08/07/24	21:32	-13.5	-13.5	-13.5	78	-16.5	10.4	ESE	0.17	13.0	E	-22.1	-13.6	-22.1	755.3	0.022	0.000	21.6	6	-17.6	18.6	1.53	 .0742	24	1	100.0	1
08/07/24	21:33	-13.4	-13.4	-13.5	78	-16.5	10.4	ESE	0.17	12.2	E	-22.0	-13.5	-22.1	755.3	0.022	0.000	21.5	6	-17.7	18.5	1.54	 .0743	23	1	100.0	1
08/07/24	21:34	-13.3	-13.3	-13.4	78	-16.4	9.6	E	0.16	11.3	E	-21.4	-13.4	-21.5	755.3	0.022	0.000	21.6	6	-17.6	18.6	1.53	 .0742	23	1	100.0	1
08/07/24	21:35	-13.3	-13.3	-13.3	78	-16.3	11.3	E	0.19	13.9	ESE	-22.1	-13.3	-22.2	755.3	0.022	0.000	21.6	6	-17.6	18.6	1.53	 .0742	24	1	100.0	1
08/07/24	21:36	-13.3	-13.3	-13.3	78	-16.3	9.6	ESE	0.16	12.2	ESE	-21.4	-13.3	-21.4	755.3	0.022	0.000	21.6	6	-17.6	18.6	1.53	 .0742	23	1	100.0	1
08/07/24	21:37	-13.3	-13.3	-13.3	78	-16.3	9.6	ESE	0.16	10.4	ESE	-21.4	-13.3	-21.4	755.3	0.022	0.000	21.6	6	-17.6	18.6	1.53	 .0742	24	1	100.0	1
08/07/24	21:38	-13.2	-13.2	-13.3	78	-16.2	8.7	ESE	0.14	10.4	ESE	-20.9	-13.3	-21.0	755.3	0.022	0.000	21.6	6	-17.6	18.6	1.53	 .0742	23	1	100.0	1
08/07/24	21:39	-13.2	-13.2	-13.2	78	-16.2	9.6	ESE	0.16	10.4	ESE	-21.3	-13.2	-21.3	755.3	0.022	0.000	21.6	6	-17.6	18.6	1.53	 .0742	23	1	100.0	1
08/07/24	21:40	-13.1	-13.1	-13.2	78	-16.1	10.4	ESE	0.17	11.3	ESE	-21.6	-13.2	-21.6	755.3	0.022	0.000	21.6	6	-17.6	18.6	1.53	 .0742	24	1	100.0	1
08/07/24	21:41	-13.1	-13.1	-13.1	78	-16.1	10.4	ESE	0.17	12.2	ESE	-21.5	-13.1	-21.6	755.3	0.022	0.000	21.6	6	-17.6	18.6	1.53	 .0742	23	1	100.0	1
08/07/24	21:42	-13.0	-13.0	-13.1	78	-16.0	8.7	ESE	0.14	10.4	ESE	-20.7	-13.1	-20.7	755.3	0.022	0.000	21.6	6	-17.6	18.7	1.53	 .0742	24	1	100.0	1
08/07/24	21:43	-13.0	-12.9	-13.0	78	-16.0	10.4	ESE	0.17	11.3	E	-21.4	-13.1	-21.4	755.3	0.022	0.000	21.6	6	-17.6	18.7	1.53	 .0742	23	1	100.0	1
08/07/24	21:44	-13.1	-13.0	-13.1	78	-16.1	9.6	ESE	0.16	10.4	ESE	-21.1	-13.1	-21.2	755.2	0.022	0.000	21.6	6	-17.6	18.7	1.53	 .0742	23	1	100.0	1
08/07/24	21:45	-13.1	-13.1	-13.1	78	-16.1	8.7	ESE	0.14	9.6	ESE	-20.7	-13.1	-20.8	755.3	0.022	0.000	21.6	6	-17.6	18.7	1.53	 .0742	24	1	100.0	1
08/07/24	21:46	-13.1	-13.1	-13.1	78	-16.1	8.7	ESE	0.14	9.6	ESE	-20.8	-13.2	-20.8	755.3	0.022	0.000	21.6	6	-17.6	18.7	1.53	 .0742	23	1	100.0	1
08/07/24	21:47	-13.2	-13.1	-13.2	78	-16.2	8.7	ESE	0.14	9.6	ESE	-20.8	-13.2	-20.9	755.3	0.022	0.000	21.6	6	-17.6	18.7	1.53	 .0742	24	1	100.0	1
08/07/24	21:48	-13.1	-13.1	-13.2	78	-16.1	8.7	ESE	0.14	8.7	ESE	-20.7	-13.1	-20.8	755.3	0.022	0.000	21.6	6	-17.6	18.7	1.53	 .0742	23	1	100.0	1
08/07/24	21:49	-13.0	-13.0	-13.1	78	-16.0	8.7	ESE	0.14	8.7	ESE	-20.7	-13.1	-20.7	755.3	0.022	0.000	21.7	6	-17.6	18.8	1.53	 .0742	24	1	100.0	1
08/07/24	21:50	-13.0	-13.0	-13.0	78	-16.0	7.8	ESE	0.13	8.7	ESE	-20.2	-13.1	-20.3	755.3	0.022	0.000	21.7	6	-17.6	18.8	1.53	 .0742	23	1	100.0	1
08/07/24	21:51	-13.0	-13.0	-13.0	78	-16.0	8.7	ESE	0.14	9.6	SE	-20.7	-13.1	-20.7	755.3	0.022	0.000	21.7	6	-17.6	18.8	1.53	 .0742	23	1	100.0	1
08/07/24	21:52	-13.1	-13.0	-13.1	78	-16.1	8.7	ESE	0.14	8.7	ESE	-20.7	-13.1	-20.8	755.3	0.022	0.000	21.7	6	-17.6	18.8	1.53	 .0742	24	1	100.0	1
08/07/24	21:53	-13.1	-13.1	-13.1	78	-16.1	8.7	ESE	0.14	9.6	ESE	-20.7	-13.1	-20.8	755.3	0.022	0.000	21.7	6	-17.6	18.8	1.53	 .0742	23	1	100.0	1
08/07/24	21:54	-13.1	-13.1	-13.1	78	-16.1	8.7	ESE	0.14	9.6	ESE	-20.8	-13.2	-20.8	755.2	0.022	0.000	21.7	6	-17.6	18.8	1.53	 .0742	24	1	100.0	1
08/07/24	21:55	-13.2	-13.1	-13.2	78	-16.2	7.8	ESE	0.13	9.6	ESE	-20.4	-13.2	-20.5	755.2	0.022	0.000	21.7	6	-17.6	18.8	1.53	 .0742	23	1	100.0	1
08/07/24	21:56	-13.1	-13.1	-13.2	78	-16.1	8.7	ESE	0.14	10.4	ESE	-20.8	-13.2	-20.8	755.2	0.022	0.000	21.7	6	-17.6	18.8	1.53	 .0742	24	1	100.0	1
08/07/24	21:57	-13.1	-13.1	-13.1	78	-16.1	9.6	ESE	0.16	10.4	ESE	-21.1	-13.1	-21.2	755.2	0.022	0.000	21.7	6	-17.6	18.8	1.53	 .0742	23	1	100.0	1
08/07/24	21:58	-13.1	-13.1	-13.1	78	-16.1	9.6	ESE	0.16	11.3	ESE	-21.1	-13.1	-21.2	755.2	0.022	0.000	21.7	6	-17.6	18.8	1.53	 .0742	23	1	100.0	1
08/07/24	21:59	-13.1	-13.1	-13.1	78	-16.1	9.6	ESE	0.16	11.3	ESE	-21.1	-13.1	-21.2	755.2	0.022	0.000	21.7	6	-17.6	18.8	1.53	 .0742	24	1	100.0	1
08/07/24	22:00	-13.1	-13.1	-13.1	78	-16.1	10.4	ESE	0.17	11.3	ESE	-21.5	-13.1	-21.6	755.2	0.022	0.000	21.7	6	-17.6	18.8	1.53	 .0742	23	1	100.0	1
08/07/24	22:01	-13.1	-13.1	-13.1	78	-16.1	10.4	ESE	0.17	11.3	ESE	-21.6	-13.2	-21.6	755.2	0.022	0.000	21.7	6	-17.6	18.8	1.53	 .0742	24	1	100.0	1
08/07/24	22:02	-13.2	-13.2	-13.2	77	-16.4	10.4	ESE	0.17	11.3	ESE	-21.7	-13.3	-21.8	755.2	0.022	0.000	21.7	6	-17.6	18.8	1.53	 .0742	23	1	100.0	1
08/07/24	22:03	-13.3	-13.2	-13.3	78	-16.3	9.6	ESE	0.16	11.3	ESE	-21.4	-13.3	-21.4	755.2	0.022	0.000	21.7	6	-17.6	18.8	1.53	 .0742	23	1	100.0	1
08/07/24	22:04	-13.3	-13.3	-13.3	78	-16.3	9.6	ESE	0.16	10.4	ESE	-21.4	-13.3	-21.4	755.2	0.022	0.000	21.7	6	-17.6	18.8	1.53	 .0742	24	1	100.0	1
08/07/24	22:05	-13.2	-13.2	-13.3	78	-16.2	10.4	ESE	0.17	12.2	ESE	-21.7	-13.3	-21.8	755.2	0.022	0.000	21.7	6	-17.6	18.8	1.53	 .0742	23	1	100.0	1
08/07/24	22:06	-13.2	-13.2	-13.2	78	-16.2	10.4	ESE	0.17	10.4	ESE	-21.6	-13.2	-21.7	755.1	0.022	0.000	21.6	6	-17.6	18.7	1.53	 .0742	24	1	100.0	1
08/07/24	22:07	-13.2	-13.2	-13.2	78	-16.2	9.6	ESE	0.16	11.3	E	-21.3	-13.2	-21.3	755.2	0.022	0.000	21.6	6	-17.6	18.7	1.53	 .0742	23	1	100.0	1
08/07/24	22:08	-13.2	-13.2	-13.2	78	-16.2	9.6	ESE	0.16	10.4	ESE	-21.3	-13.2	-21.3	755.2	0.022	0.000	21.6	6	-17.6	18.7	1.53	 .0742	23	1	100.0	1
08/07/24	22:09	-13.1	-13.1	-13.2	78	-16.1	8.7	ESE	0.14	10.4	ESE	-20.8	-13.2	-20.8	755.2	0.022	0.000	21.6	6	-17.6	18.7	1.53	 .0742	24	1	100.0	1
08/07/24	22:10	-13.1	-13.1	-13.1	78	-16.1	9.6	ESE	0.16	11.3	ESE	-21.2	-13.2	-21.2	755.2	0.022	0.000	21.6	6	-17.6	18.7	1.53	 .0742	23	1	100.0	1
08/07/24	22:11	-13.0	-13.0	-13.1	78	-16.0	9.6	ESE	0.16	10.4	ESE	-21.1	-13.1	-21.1	755.2	0.022	0.000	21.6	6	-17.6	18.7	1.53	 .0742	24	1	100.0	1
08/07/24	22:12	-12.9	-12.9	-13.0	77	-16.1	8.7	ESE	0.14	10.4	ESE	-20.6	-13.1	-20.7	755.2	0.022	0.000	21.6	6	-17.6	18.7	1.53	 .0742	23	1	100.0	1
08/07/24	22:13	-12.9	-12.9	-12.9	77	-16.1	9.6	ESE	0.16	11.3	ESE	-21.0	-13.1	-21.1	755.2	0.022	0.000	21.6	6	-17.6	18.7	1.53	 .0742	24	1	100.0	1
08/07/24	22:14	-12.9	-12.9	-12.9	77	-16.1	8.7	ESE	0.14	9.6	ESE	-20.6	-13.1	-20.7	755.2	0.022	0.000	21.6	6	-17.6	18.7	1.53	 .0742	23	1	100.0	1
08/07/24	22:15	-13.0	-12.9	-13.0	77	-16.2	8.7	ESE	0.14	10.4	ESE	-20.7	-13.1	-20.8	755.2	0.022	0.000	21.6	6	-17.6	18.7	1.53	 .0742	23	1	100.0	1
08/07/24	22:16	-13.0	-13.0	-13.0	77	-16.2	7.0	ESE	0.12	7.8	E	-19.7	-13.1	-19.8	755.2	0.022	0.000	21.6	6	-17.6	18.7	1.53	 .0742	24	1	100.0	1
08/07/24	22:17	-13.1	-13.0	-13.1	77	-16.2	7.0	ESE	0.12	7.8	E	-19.8	-13.2	-19.9	755.2	0.022	0.000	21.6	6	-17.6	18.6	1.53	 .0742	23	1	100.0	1
08/07/24	22:18	-13.1	-13.1	-13.1	78	-16.1	7.0	ESE	0.12	8.7	ESE	-19.8	-13.1	-19.9	755.2	0.022	0.000	21.6	6	-17.6	18.7	1.53	 .0742	24	1	100.0	1
08/07/24	22:19	-13.1	-13.1	-13.1	78	-16.1	7.0	SE	0.12	7.8	SE	-19.8	-13.1	-19.9	755.2	0.022	0.000	21.6	6	-17.6	18.7	1.53	 .0742	23	1	100.0	1
08/07/24	22:20	-12.9	-12.9	-13.1	77	-16.1	6.1	SE	0.10	7.8	SE	-19.2	-13.1	-19.3	755.2	0.022	0.000	21.6	6	-17.6	18.7	1.53	 .0742	23	1	100.0	1
08/07/24	22:21	-12.9	-12.9	-12.9	77	-16.1	5.2	SE	0.09	7.0	SE	-18.5	-13.0	-18.6	755.3	0.022	0.000	21.6	6	-17.6	18.7	1.53	 .0742	24	1	100.0	1
08/07/24	22:22	-12.8	-12.8	-12.9	77	-16.0	5.2	SE	0.09	6.1	SE	-18.4	-12.9	-18.6	755.3	0.022	0.000	21.6	6	-17.6	18.7	1.53	 .0742	23	1	100.0	1
08/07/24	22:23	-12.7	-12.7	-12.8	77	-15.9	6.1	SE	0.10	7.0	SE	-18.8	-12.8	-18.9	755.3	0.022	0.000	21.6	6	-17.6	18.7	1.53	 .0742	24	1	100.0	1
08/07/24	22:24	-12.5	-12.5	-12.7	77	-15.7	7.0	SE	0.12	7.8	SE	-19.2	-12.6	-19.3	755.2	0.021	0.000	21.6	6	-17.6	18.7	1.53	 .0742	23	1	100.0	1
08/07/24	22:25	-12.3	-12.3	-12.5	77	-15.5	6.1	SE	0.10	7.8	SE	-18.4	-12.4	-18.6	755.2	0.021	0.000	21.6	6	-17.6	18.7	1.53	 .0742	24	1	100.0	1
08/07/24	22:26	-12.3	-12.3	-12.3	77	-15.5	7.0	SE	0.12	7.8	SE	-18.9	-12.4	-19.0	755.2	0.021	0.000	21.6	6	-17.6	18.7	1.53	 .0742	23	1	100.0	1
08/07/24	22:27	-12.2	-12.2	-12.2	77	-15.4	7.0	SE	0.12	7.8	ESE	-18.8	-12.3	-18.9	755.2	0.021	0.000	21.7	6	-17.6	18.8	1.53	 .0742	23	1	100.0	1
08/07/24	22:28	-12.2	-12.2	-12.2	77	-15.4	6.1	SE	0.10	7.0	SE	-18.2	-12.3	-18.3	755.3	0.021	0.000	21.7	6	-17.6	18.8	1.53	 .0742	24	1	100.0	1
08/07/24	22:29	-12.2	-12.2	-12.2	77	-15.4	5.2	SE	0.09	6.1	SE	-17.8	-12.3	-17.9	755.2	0.021	0.000	21.7	6	-17.6	18.8	1.53	 .0742	23	1	100.0	1
08/07/24	22:30	-12.2	-12.2	-12.2	77	-15.4	4.3	SE	0.07	6.1	SE	-17.1	-12.3	-17.2	755.3	0.021	0.000	21.7	6	-17.6	18.8	1.53	 .0742	24	1	100.0	1
08/07/24	22:31	-12.2	-12.2	-12.3	77	-15.4	3.5	SE	0.06	4.3	SE	-16.3	-12.3	-16.4	755.2	0.021	0.000	21.7	6	-17.6	18.8	1.53	 .0742	23	1	100.0	1
08/07/24	22:32	-12.3	-12.2	-12.3	77	-15.5	3.5	SE	0.06	4.3	SE	-16.4	-12.4	-16.5	755.3	0.021	0.000	21.7	6	-17.6	18.8	1.53	 .0742	23	1	100.0	1
08/07/24	22:33	-12.3	-12.3	-12.3	77	-15.5	3.5	SE	0.06	4.3	SE	-16.4	-12.4	-16.5	755.2	0.021	0.000	21.7	6	-17.6	18.8	1.53	 .0742	24	1	100.0	1
08/07/24	22:34	-12.3	-12.3	-12.3	77	-15.5	3.5	SE	0.06	4.3	SE	-16.4	-12.4	-16.6	755.3	0.021	0.000	21.7	6	-17.5	18.8	1.53	 .0742	23	1	100.0	1
08/07/24	22:35	-12.3	-12.3	-12.3	77	-15.5	3.5	SE	0.06	4.3	SE	-16.4	-12.4	-16.6	755.3	0.021	0.000	21.7	6	-17.5	18.8	1.53	 .0742	24	1	100.0	1
08/07/24	22:36	-12.4	-12.3	-12.4	77	-15.6	3.5	SE	0.06	3.5	SE	-16.5	-12.5	-16.6	755.2	0.021	0.000	21.7	6	-17.5	18.8	1.53	 .0742	23	1	100.0	1
08/07/24	22:37	-12.4	-12.4	-12.4	77	-15.6	3.5	SE	0.06	4.3	SE	-16.5	-12.5	-16.6	755.2	0.021	0.000	21.7	6	-17.5	18.8	1.53	 .0742	23	1	100.0	1
08/07/24	22:38	-12.4	-12.4	-12.4	77	-15.6	3.5	SE	0.06	4.3	SE	-16.6	-12.6	-16.7	755.2	0.021	0.000	21.8	6	-17.5	18.9	1.53	 .0742	24	1	100.0	1
08/07/24	22:39	-12.4	-12.4	-12.4	77	-15.6	3.5	SE	0.06	4.3	SE	-16.5	-12.5	-16.6	755.2	0.021	0.000	21.7	6	-17.5	18.8	1.53	 .0742	23	1	100.0	1
08/07/24	22:40	-12.3	-12.3	-12.4	77	-15.5	3.5	SE	0.06	4.3	SE	-16.4	-12.4	-16.6	755.2	0.021	0.000	21.7	6	-17.5	18.8	1.53	 .0742	24	1	100.0	1
08/07/24	22:41	-12.3	-12.3	-12.3	77	-15.5	2.6	SE	0.04	3.5	SE	-15.4	-12.4	-15.5	755.2	0.021	0.000	21.8	6	-17.5	18.9	1.53	 .0742	23	1	100.0	1
08/07/24	22:42	-12.3	-12.3	-12.3	77	-15.5	2.6	SE	0.04	3.5	SE	-15.4	-12.4	-15.5	755.1	0.021	0.000	21.8	6	-17.5	18.9	1.53	 .0742	24	1	100.0	1
08/07/24	22:43	-12.3	-12.2	-12.3	77	-15.5	3.5	SE	0.06	4.3	SE	-16.4	-12.4	-16.5	755.2	0.021	0.000	21.8	6	-17.5	18.9	1.53	 .0742	23	1	100.0	1
08/07/24	22:44	-12.3	-12.2	-12.3	77	-15.5	4.3	SE	0.07	7.8	SE	-17.2	-12.4	-17.3	755.2	0.021	0.000	21.8	6	-17.5	18.9	1.53	 .0742	23	1	100.0	1
08/07/24	22:45	-12.3	-12.3	-12.3	77	-15.5	4.3	SSE	0.07	8.7	SSE	-17.2	-12.4	-17.3	755.1	0.021	0.000	21.8	6	-17.5	18.9	1.53	 .0742	24	1	100.0	1
08/07/24	22:46	-12.2	-12.2	-12.3	77	-15.4	3.5	SE	0.06	4.3	SE	-16.3	-12.3	-16.4	755.1	0.021	0.000	21.8	6	-17.5	18.9	1.53	 .0742	23	1	100.0	1
08/07/24	22:47	-12.3	-12.2	-12.3	77	-15.5	3.5	SE	0.06	4.3	SE	-16.4	-12.4	-16.5	755.1	0.021	0.000	21.7	6	-17.5	18.8	1.53	 .0742	24	1	100.0	1
08/07/24	22:48	-12.3	-12.3	-12.3	77	-15.5	3.5	ESE	0.06	4.3	SE	-16.4	-12.4	-16.5	755.1	0.021	0.000	21.7	6	-17.5	18.8	1.53	 .0742	23	1	100.0	1
08/07/24	22:49	-12.4	-12.3	-12.4	77	-15.6	3.5	ESE	0.06	5.2	ESE	-16.5	-12.5	-16.6	755.1	0.021	0.000	21.7	6	-17.5	18.8	1.53	 .0742	23	1	100.0	1
08/07/24	22:50	-12.4	-12.4	-12.4	77	-15.6	4.3	ESE	0.07	5.2	ESE	-17.3	-12.5	-17.4	755.0	0.021	0.000	21.7	6	-17.5	18.8	1.53	 .0742	24	1	100.0	1
08/07/24	22:51	-12.4	-12.4	-12.4	77	-15.6	3.5	ESE	0.06	4.3	ESE	-16.5	-12.5	-16.6	755.1	0.021	0.000	21.7	6	-17.5	18.8	1.53	 .0742	23	1	100.0	1
08/07/24	22:52	-12.4	-12.4	-12.4	77	-15.6	1.7	ESE	0.03	2.6	ESE	-14.3	-12.6	-14.4	755.1	0.021	0.000	21.7	6	-17.6	18.8	1.53	 .0742	24	1	100.0	1
08/07/24	22:53	-12.3	-12.3	-12.4	77	-15.5	1.7	ESE	0.03	2.6	ESE	-14.1	-12.4	-14.2	755.1	0.021	0.000	21.7	6	-17.6	18.8	1.53	 .0742	23	1	100.0	1
08/07/24	22:54	-12.3	-12.3	-12.3	77	-15.5	1.7	ESE	0.03	2.6	ESE	-14.1	-12.4	-14.2	755.1	0.021	0.000	21.7	6	-17.6	18.8	1.53	 .0742	24	1	100.0	1
08/07/24	22:55	-12.3	-12.3	-12.3	77	-15.5	0.9	ESE	0.01	1.7	ESE	-12.3	-12.4	-12.4	755.1	0.021	0.000	21.7	6	-17.6	18.8	1.53	 .0742	23	1	100.0	1
08/07/24	22:56	-12.2	-12.2	-12.3	77	-15.4	1.7	ESE	0.03	1.7	ESE	-13.9	-12.3	-14.1	755.1	0.021	0.000	21.6	6	-17.6	18.7	1.53	 .0742	23	1	100.0	1
08/07/24	22:57	-12.1	-12.1	-12.2	77	-15.3	0.9	ESE	0.01	1.7	ESE	-12.1	-12.2	-12.2	755.1	0.021	0.000	21.6	6	-17.6	18.7	1.53	 .0742	24	1	100.0	1
08/07/24	22:58	-12.1	-12.1	-12.1	77	-15.3	0.9	ESE	0.01	1.7	ESE	-12.1	-12.2	-12.2	755.1	0.021	0.000	21.6	6	-17.6	18.7	1.53	 .0742	23	1	100.0	1
08/07/24	22:59	-12.0	-12.0	-12.1	77	-15.2	0.9	ESE	0.01	1.7	ESE	-12.0	-12.1	-12.1	755.1	0.021	0.000	21.6	6	-17.6	18.7	1.53	 .0742	24	1	100.0	1
08/07/24	23:00	-11.9	-11.9	-12.0	77	-15.2	0.9	ESE	0.01	1.7	ESE	-11.9	-12.1	-12.1	755.1	0.021	0.000	21.6	6	-17.6	18.7	1.53	 .0742	23	1	100.0	1
08/07/24	23:01	-11.9	-11.9	-11.9	77	-15.1	0.9	ESE	0.01	2.6	ESE	-11.9	-12.0	-12.0	755.1	0.021	0.000	21.6	6	-17.6	18.7	1.53	 .0742	23	1	100.0	1
08/07/24	23:02	-11.8	-11.8	-11.9	77	-15.1	1.7	ESE	0.03	1.7	ESE	-13.6	-11.9	-13.7	755.1	0.021	0.000	21.6	6	-17.6	18.6	1.53	 .0742	24	1	100.0	1
08/07/24	23:03	-11.8	-11.8	-11.8	77	-15.0	0.9	ESE	0.01	1.7	ESE	-11.8	-11.9	-11.9	755.1	0.021	0.000	21.6	6	-17.6	18.6	1.53	 .0742	23	1	100.0	1
08/07/24	23:04	-11.7	-11.7	-11.8	77	-14.9	0.9	ESE	0.01	1.7	ESE	-11.7	-11.8	-11.8	755.1	0.021	0.000	21.6	6	-17.6	18.6	1.53	 .0742	24	1	100.0	1
08/07/24	23:05	-11.7	-11.7	-11.7	77	-14.9	1.7	ESE	0.03	1.7	ESE	-13.4	-11.8	-13.5	755.1	0.021	0.000	21.6	6	-17.6	18.6	1.53	 .0742	23	1	100.0	1
08/07/24	23:06	-11.6	-11.6	-11.7	77	-14.8	2.6	ESE	0.04	3.5	ESE	-14.6	-11.7	-14.7	755.1	0.021	0.000	21.6	6	-17.6	18.6	1.53	 .0742	24	1	100.0	1
08/07/24	23:07	-11.5	-11.5	-11.6	77	-14.7	2.6	ESE	0.04	3.5	ESE	-14.5	-11.6	-14.6	755.1	0.021	0.000	21.6	6	-17.6	18.6	1.53	 .0742	23	1	100.0	1
08/07/24	23:08	-11.5	-11.5	-11.5	77	-14.7	1.7	ESE	0.03	2.6	ESE	-13.2	-11.6	-13.3	755.1	0.021	0.000	21.6	6	-17.6	18.6	1.53	 .0742	23	1	100.0	1
08/07/24	23:09	-11.4	-11.4	-11.5	77	-14.7	2.6	ESE	0.04	3.5	ESE	-14.4	-11.6	-14.6	755.0	0.021	0.000	21.6	6	-17.6	18.6	1.53	 .0742	24	1	100.0	1
08/07/24	23:10	-11.4	-11.4	-11.4	77	-14.6	0.9	ESE	0.01	1.7	ESE	-11.4	-11.5	-11.5	755.1	0.021	0.000	21.6	6	-17.6	18.6	1.53	 .0742	23	1	100.0	1
08/07/24	23:11	-11.4	-11.4	-11.4	77	-14.6	0.9	ESE	0.01	1.7	ESE	-11.4	-11.5	-11.5	755.1	0.021	0.000	21.6	6	-17.6	18.6	1.53	 .0742	24	1	100.0	1
08/07/24	23:12	-11.4	-11.4	-11.4	77	-14.6	0.9	ESE	0.01	1.7	ESE	-11.4	-11.5	-11.5	755.1	0.021	0.000	21.6	6	-17.6	18.6	1.53	 .0742	23	1	100.0	1
08/07/24	23:13	-11.3	-11.3	-11.4	77	-14.6	0.9	ESE	0.01	1.7	ESE	-11.3	-11.4	-11.4	755.0	0.021	0.000	21.6	6	-17.6	18.6	1.53	 .0742	23	1	100.0	1
08/07/24	23:14	-11.3	-11.3	-11.3	77	-14.6	0.9	ESE	0.01	0.9	ESE	-11.3	-11.4	-11.4	755.0	0.021	0.000	21.6	6	-17.6	18.6	1.53	 .0742	24	1	100.0	1
08/07/24	23:15	-11.3	-11.3	-11.3	77	-14.6	0.9	ESE	0.01	1.7	ESE	-11.3	-11.4	-11.4	755.0	0.021	0.000	21.6	6	-17.6	18.6	1.53	 .0742	23	1	100.0	1
08/07/24	23:16	-11.3	-11.3	-11.3	77	-14.5	0.9	ESE	0.01	1.7	ESE	-11.3	-11.4	-11.4	755.0	0.021	0.000	21.6	6	-17.6	18.7	1.53	 .0742	24	1	100.0	1
08/07/24	23:17	-11.3	-11.3	-11.3	77	-14.5	0.9	ESE	0.01	1.7	ESE	-11.3	-11.4	-11.4	755.0	0.021	0.000	21.6	6	-17.6	18.7	1.53	 .0742	23	1	100.0	1
08/07/24	23:18	-11.3	-11.3	-11.3	77	-14.5	0.9	ESE	0.01	1.7	ESE	-11.3	-11.4	-11.4	755.0	0.021	0.000	21.6	6	-17.6	18.7	1.53	 .0742	23	1	100.0	1
08/07/24	23:19	-11.2	-11.2	-11.3	77	-14.5	0.9	ESE	0.01	1.7	ESE	-11.2	-11.3	-11.3	755.0	0.021	0.000	21.6	6	-17.6	18.7	1.53	 .0742	24	1	100.0	1
08/07/24	23:20	-11.2	-11.2	-11.2	77	-14.5	0.9	ESE	0.01	0.9	ESE	-11.2	-11.3	-11.3	755.0	0.021	0.000	21.6	6	-17.6	18.7	1.53	 .0742	23	1	100.0	1
08/07/24	23:21	-11.2	-11.2	-11.2	77	-14.4	0.9	ESE	0.01	1.7	ESE	-11.2	-11.3	-11.3	755.0	0.020	0.000	21.6	6	-17.6	18.7	1.53	 .0742	24	1	100.0	1
08/07/24	23:22	-11.2	-11.2	-11.2	77	-14.4	1.7	ESE	0.03	1.7	ESE	-12.8	-11.3	-12.9	755.0	0.020	0.000	21.6	6	-17.6	18.7	1.53	 .0742	23	1	100.0	1
08/07/24	23:23	-11.2	-11.2	-11.2	77	-14.4	0.9	ESE	0.01	1.7	ESE	-11.2	-11.3	-11.3	755.0	0.020	0.000	21.7	6	-17.6	18.8	1.53	 .0742	24	1	100.0	1
08/07/24	23:24	-11.1	-11.1	-11.2	77	-14.3	0.9	ESE	0.01	0.9	ESE	-11.1	-11.2	-11.2	755.1	0.020	0.000	21.7	6	-17.6	18.8	1.53	 .0742	23	1	100.0	1
08/07/24	23:25	-11.1	-11.1	-11.1	77	-14.3	0.0	ESE	0.00	0.9	ESE	-11.1	-11.2	-11.2	755.0	0.020	0.000	21.7	6	-17.6	18.8	1.53	 .0742	23	1	100.0	1
08/07/24	23:26	-11.1	-11.1	-11.1	77	-14.3	0.0	ESE	0.00	0.9	ESE	-11.1	-11.2	-11.2	755.0	0.020	0.000	21.7	6	-17.6	18.8	1.53	 .0742	24	1	100.0	1
08/07/24	23:27	-11.1	-11.1	-11.1	77	-14.3	0.0	---	0.00	0.0	---	-11.1	-11.2	-11.2	755.0	0.020	0.000	21.7	6	-17.6	18.8	1.53	 .0742	23	1	100.0	1
08/07/24	23:28	-11.1	-11.1	-11.1	77	-14.3	0.0	---	0.00	0.0	---	-11.1	-11.2	-11.2	755.0	0.020	0.000	21.7	6	-17.5	18.8	1.53	 .0742	24	1	100.0	1
08/07/24	23:29	-11.1	-11.1	-11.1	77	-14.3	0.0	---	0.00	0.0	---	-11.1	-11.2	-11.2	755.0	0.020	0.000	21.7	6	-17.5	18.8	1.53	 .0742	23	1	100.0	1
08/07/24	23:30	-11.1	-11.1	-11.1	77	-14.3	0.0	---	0.00	0.0	---	-11.1	-11.2	-11.2	755.0	0.020	0.000	21.7	6	-17.5	18.8	1.53	 .0742	24	1	100.0	1
08/07/24	23:31	-11.1	-11.1	-11.1	77	-14.3	0.0	---	0.00	0.0	---	-11.1	-11.2	-11.2	755.0	0.020	0.000	21.7	6	-17.5	18.8	1.53	 .0742	23	1	100.0	1
08/07/24	23:32	-11.1	-11.1	-11.1	77	-14.3	0.0	---	0.00	0.0	---	-11.1	-11.2	-11.2	755.0	0.020	0.000	21.7	6	-17.5	18.8	1.53	 .0742	23	1	100.0	1
08/07/24	23:33	-11.1	-11.1	-11.1	77	-14.3	0.0	---	0.00	0.0	---	-11.1	-11.2	-11.2	755.0	0.020	0.000	21.7	6	-17.5	18.8	1.53	 .0742	24	1	100.0	1
08/07/24	23:34	-11.1	-11.1	-11.1	77	-14.3	0.9	ESE	0.01	1.7	ESE	-11.1	-11.2	-11.2	755.0	0.020	0.000	21.7	6	-17.5	18.8	1.53	 .0742	23	1	100.0	1
08/07/24	23:35	-11.1	-11.1	-11.1	77	-14.3	1.7	ESE	0.03	1.7	ESE	-12.7	-11.2	-12.8	755.0	0.020	0.000	21.7	6	-17.5	18.8	1.53	 .0742	24	1	100.0	1
08/07/24	23:36	-11.1	-11.1	-11.1	77	-14.3	1.7	ESE	0.03	1.7	ESE	-12.7	-11.2	-12.8	755.0	0.020	0.000	21.7	6	-17.5	18.8	1.53	 .0742	23	1	100.0	1
08/07/24	23:37	-11.1	-11.1	-11.1	77	-14.3	1.7	ESE	0.03	2.6	ESE	-12.7	-11.2	-12.8	755.0	0.020	0.000	21.7	6	-17.5	18.8	1.53	 .0742	23	1	100.0	1
08/07/24	23:38	-11.1	-11.1	-11.1	77	-14.3	1.7	ESE	0.03	2.6	ESE	-12.7	-11.2	-12.8	755.0	0.020	0.000	21.7	6	-17.5	18.8	1.53	 .0742	24	1	100.0	1
08/07/24	23:39	-11.0	-11.0	-11.0	77	-14.2	1.7	ESE	0.03	2.6	ESE	-12.7	-11.1	-12.8	755.0	0.020	0.000	21.7	6	-17.5	18.8	1.53	 .0742	23	1	100.0	1
08/07/24	23:40	-11.0	-11.0	-11.0	77	-14.2	1.7	ESE	0.03	1.7	ESE	-12.7	-11.1	-12.8	755.0	0.020	0.000	21.7	6	-17.5	18.8	1.53	 .0742	24	1	100.0	1
08/07/24	23:41	-10.9	-10.9	-11.0	77	-14.2	1.7	ESE	0.03	1.7	ESE	-12.6	-11.1	-12.7	755.0	0.020	0.000	21.7	6	-17.5	18.8	1.53	 .0742	23	1	100.0	1
08/07/24	23:42	-10.9	-10.9	-10.9	77	-14.2	0.9	ESE	0.01	1.7	ESE	-10.9	-11.1	-11.1	755.0	0.020	0.000	21.7	6	-17.6	18.8	1.53	 .0742	23	1	100.0	1
08/07/24	23:43	-10.9	-10.9	-10.9	77	-14.2	0.0	ESE	0.00	0.9	ESE	-10.9	-11.1	-11.1	755.0	0.020	0.000	21.7	6	-17.6	18.8	1.53	 .0742	24	1	100.0	1
08/07/24	23:44	-10.9	-10.9	-10.9	77	-14.2	0.0	---	0.00	0.0	---	-10.9	-11.1	-11.1	755.0	0.020	0.000	21.7	6	-17.6	18.8	1.53	 .0742	23	1	100.0	1
08/07/24	23:45	-10.9	-10.9	-10.9	77	-14.2	0.0	---	0.00	0.0	---	-10.9	-11.1	-11.1	755.0	0.020	0.000	21.7	6	-17.6	18.8	1.53	 .0742	24	1	100.0	1
08/07/24	23:46	-10.9	-10.9	-10.9	77	-14.2	0.0	---	0.00	0.0	---	-10.9	-11.1	-11.1	755.0	0.020	0.000	21.7	6	-17.6	18.8	1.53	 .0742	23	1	100.0	1
08/07/24	23:47	-10.9	-10.9	-10.9	77	-14.1	0.0	ESE	0.00	0.9	ESE	-10.9	-11.0	-11.0	754.9	0.020	0.000	21.7	6	-17.6	18.8	1.53	 .0742	24	1	100.0	1
08/07/24	23:48	-10.9	-10.9	-10.9	77	-14.1	2.6	ESE	0.04	3.5	ESE	-13.8	-11.0	-13.9	755.0	0.020	0.000	21.6	6	-17.6	18.7	1.53	 .0742	23	1	100.0	1
08/07/24	23:49	-10.9	-10.9	-10.9	77	-14.1	2.6	ESE	0.04	3.5	ESE	-13.8	-11.0	-13.9	754.9	0.020	0.000	21.6	6	-17.6	18.7	1.53	 .0742	23	1	100.0	1
08/07/24	23:50	-10.9	-10.9	-10.9	76	-14.3	3.5	ESE	0.06	3.5	ESE	-14.8	-11.0	-14.9	754.9	0.020	0.000	21.6	6	-17.6	18.7	1.53	 .0742	24	1	100.0	1
08/07/24	23:51	-10.8	-10.8	-10.9	76	-14.2	3.5	ESE	0.06	4.3	ESE	-14.7	-10.9	-14.8	754.9	0.020	0.000	21.6	6	-17.6	18.7	1.53	 .0742	23	1	100.0	1
08/07/24	23:52	-10.8	-10.8	-10.8	76	-14.2	3.5	ESE	0.06	4.3	ESE	-14.7	-10.9	-14.8	754.9	0.020	0.000	21.6	6	-17.6	18.7	1.53	 .0742	24	1	100.0	1
08/07/24	23:53	-10.8	-10.8	-10.8	76	-14.2	3.5	ESE	0.06	4.3	ESE	-14.7	-10.9	-14.8	755.0	0.020	0.000	21.6	6	-17.6	18.7	1.53	 .0742	23	1	100.0	1
08/07/24	23:54	-10.8	-10.8	-10.8	76	-14.2	3.5	ESE	0.06	4.3	ESE	-14.7	-10.9	-14.8	754.9	0.020	0.000	21.6	6	-17.6	18.7	1.53	 .0742	23	1	100.0	1
08/07/24	23:55	-10.8	-10.8	-10.8	76	-14.2	3.5	ESE	0.06	4.3	ESE	-14.7	-10.9	-14.8	754.9	0.020	0.000	21.6	6	-17.6	18.7	1.53	 .0742	24	1	100.0	1
08/07/24	23:56	-10.8	-10.8	-10.8	76	-14.2	3.5	ESE	0.06	4.3	ESE	-14.7	-10.9	-14.8	755.0	0.020	0.000	21.6	6	-17.6	18.7	1.53	 .0742	23	1	100.0	1
08/07/24	23:57	-10.8	-10.8	-10.8	76	-14.2	3.5	ESE	0.06	3.5	ESE	-14.7	-10.9	-14.8	755.0	0.020	0.000	21.6	6	-17.6	18.7	1.53	 .0742	24	1	100.0	1
08/07/24	23:58	-10.8	-10.8	-10.8	76	-14.2	2.6	ESE	0.04	3.5	ESE	-13.7	-10.9	-13.8	755.0	0.020	0.000	21.6	6	-17.6	18.7	1.53	 .0742	23	1	100.0	1
08/07/24	23:59	-10.8	-10.8	-10.8	76	-14.2	1.7	ESE	0.03	2.6	ESE	-12.5	-10.9	-12.6	755.0	0.020	0.000	21.6	6	-17.6	18.7	1.53	 .0742	23	1	100.0	1
08/08/24	00:00	-10.8	-10.8	-10.8	76	-14.2	1.7	ESE	0.03	2.6	ESE	-12.5	-10.9	-12.6	755.0	0.020	0.000	21.6	6	-17.6	18.7	1.53	 .0742	25	1	100.0	1